<?xml version="1.0" encoding="UTF-8" standalone="no" ?>
<gpx xmlns="http://www.topografix.com/GPX/1/1" xmlns:xsi="http://www.w3.org/2001/XMLSchema-instance" xsi:schemaLocation="http://www.topografix.com/GPX/1/1 http://www.topografix.com/GPX/1/1/gpx.xsd" version="1.1" creator="VisuGPX - https://www.visugpx.com">
  <metadata>
    <name>boucle St jean Brévelay - St Aubin</name>
    <desc><![CDATA[boucle de 37 km avec un départ possible de St Jean Brévelay en direction de St Aubin ( à l'Est)]]></desc>
  </metadata>
  <trk>
    <name><![CDATA[St Jean Brevelay - St Aubin' 37 km]]></name>
    <trkseg>
      <trkpt lat="47.84072" lon="-2.72444">
        <ele>131.84</ele>
        <time>2016-10-28T07:16:37Z</time>
      </trkpt>
      <trkpt lat="47.84074" lon="-2.72427">
        <ele>131.36</ele>
        <time>2016-10-28T07:16:47Z</time>
      </trkpt>
      <trkpt lat="47.84075" lon="-2.72409">
        <ele>130.4</ele>
        <time>2016-10-28T07:16:54Z</time>
      </trkpt>
      <trkpt lat="47.84072" lon="-2.72394">
        <ele>129.43</ele>
        <time>2016-10-28T07:16:59Z</time>
      </trkpt>
      <trkpt lat="47.84073" lon="-2.7238">
        <ele>127.99</ele>
        <time>2016-10-28T07:17:06Z</time>
      </trkpt>
      <trkpt lat="47.84077" lon="-2.72362">
        <ele>126.55</ele>
        <time>2016-10-28T07:17:16Z</time>
      </trkpt>
      <trkpt lat="47.84075" lon="-2.72343">
        <ele>125.11</ele>
        <time>2016-10-28T07:17:21Z</time>
      </trkpt>
      <trkpt lat="47.84075" lon="-2.72329">
        <ele>124.15</ele>
        <time>2016-10-28T07:17:27Z</time>
      </trkpt>
      <trkpt lat="47.84073" lon="-2.72314">
        <ele>123.67</ele>
        <time>2016-10-28T07:17:34Z</time>
      </trkpt>
      <trkpt lat="47.84075" lon="-2.72297">
        <ele>120.78</ele>
        <time>2016-10-28T07:17:46Z</time>
      </trkpt>
      <trkpt lat="47.84074" lon="-2.72275">
        <ele>119.82</ele>
        <time>2016-10-28T07:17:55Z</time>
      </trkpt>
      <trkpt lat="47.84072" lon="-2.72258">
        <ele>118.86</ele>
        <time>2016-10-28T07:18:00Z</time>
      </trkpt>
      <trkpt lat="47.84072" lon="-2.72244">
        <ele>117.9</ele>
        <time>2016-10-28T07:18:05Z</time>
      </trkpt>
      <trkpt lat="47.84077" lon="-2.72233">
        <ele>116.94</ele>
        <time>2016-10-28T07:18:10Z</time>
      </trkpt>
      <trkpt lat="47.84085" lon="-2.72228">
        <ele>118.38</ele>
        <time>2016-10-28T07:18:16Z</time>
      </trkpt>
      <trkpt lat="47.84092" lon="-2.72229">
        <ele>116.94</ele>
        <time>2016-10-28T07:18:22Z</time>
      </trkpt>
      <trkpt lat="47.841" lon="-2.72232">
        <ele>116.46</ele>
        <time>2016-10-28T07:18:30Z</time>
      </trkpt>
      <trkpt lat="47.84111" lon="-2.72231">
        <ele>116.46</ele>
        <time>2016-10-28T07:18:36Z</time>
      </trkpt>
      <trkpt lat="47.84122" lon="-2.72229">
        <ele>116.46</ele>
        <time>2016-10-28T07:18:41Z</time>
      </trkpt>
      <trkpt lat="47.84129" lon="-2.72227">
        <ele>115.98</ele>
        <time>2016-10-28T07:18:45Z</time>
      </trkpt>
      <trkpt lat="47.84136" lon="-2.72224">
        <ele>116.46</ele>
        <time>2016-10-28T07:18:49Z</time>
      </trkpt>
      <trkpt lat="47.84143" lon="-2.72217">
        <ele>115.98</ele>
        <time>2016-10-28T07:18:53Z</time>
      </trkpt>
      <trkpt lat="47.84147" lon="-2.72209">
        <ele>115.5</ele>
        <time>2016-10-28T07:18:57Z</time>
      </trkpt>
      <trkpt lat="47.84147" lon="-2.72198">
        <ele>115.98</ele>
        <time>2016-10-28T07:19:02Z</time>
      </trkpt>
      <trkpt lat="47.84145" lon="-2.72187">
        <ele>115.5</ele>
        <time>2016-10-28T07:19:07Z</time>
      </trkpt>
      <trkpt lat="47.84145" lon="-2.72174">
        <ele>115.5</ele>
        <time>2016-10-28T07:19:11Z</time>
      </trkpt>
      <trkpt lat="47.84145" lon="-2.72164">
        <ele>115.01</ele>
        <time>2016-10-28T07:19:15Z</time>
      </trkpt>
      <trkpt lat="47.84146" lon="-2.72155">
        <ele>114.05</ele>
        <time>2016-10-28T07:19:20Z</time>
      </trkpt>
      <trkpt lat="47.84147" lon="-2.72147">
        <ele>113.57</ele>
        <time>2016-10-28T07:19:28Z</time>
      </trkpt>
      <trkpt lat="47.84149" lon="-2.72129">
        <ele>113.09</ele>
        <time>2016-10-28T07:19:39Z</time>
      </trkpt>
      <trkpt lat="47.8415" lon="-2.72115">
        <ele>112.61</ele>
        <time>2016-10-28T07:19:44Z</time>
      </trkpt>
      <trkpt lat="47.84151" lon="-2.72102">
        <ele>112.13</ele>
        <time>2016-10-28T07:19:51Z</time>
      </trkpt>
      <trkpt lat="47.84153" lon="-2.7208">
        <ele>111.17</ele>
        <time>2016-10-28T07:20:05Z</time>
      </trkpt>
      <trkpt lat="47.84154" lon="-2.72062">
        <ele>111.17</ele>
        <time>2016-10-28T07:20:11Z</time>
      </trkpt>
      <trkpt lat="47.84156" lon="-2.72051">
        <ele>110.69</ele>
        <time>2016-10-28T07:20:15Z</time>
      </trkpt>
      <trkpt lat="47.84159" lon="-2.72039">
        <ele>107.32</ele>
        <time>2016-10-28T07:20:22Z</time>
      </trkpt>
      <trkpt lat="47.8416" lon="-2.72026">
        <ele>109.25</ele>
        <time>2016-10-28T07:20:32Z</time>
      </trkpt>
      <trkpt lat="47.84165" lon="-2.72013">
        <ele>108.29</ele>
        <time>2016-10-28T07:20:41Z</time>
      </trkpt>
      <trkpt lat="47.8417" lon="-2.72007">
        <ele>108.77</ele>
        <time>2016-10-28T07:21:11Z</time>
      </trkpt>
      <trkpt lat="47.84173" lon="-2.71993">
        <ele>108.29</ele>
        <time>2016-10-28T07:21:21Z</time>
      </trkpt>
      <trkpt lat="47.84178" lon="-2.71981">
        <ele>108.77</ele>
        <time>2016-10-28T07:21:28Z</time>
      </trkpt>
      <trkpt lat="47.84185" lon="-2.71972">
        <ele>108.77</ele>
        <time>2016-10-28T07:21:35Z</time>
      </trkpt>
      <trkpt lat="47.84193" lon="-2.71967">
        <ele>109.25</ele>
        <time>2016-10-28T07:21:42Z</time>
      </trkpt>
      <trkpt lat="47.84203" lon="-2.71966">
        <ele>109.73</ele>
        <time>2016-10-28T07:21:50Z</time>
      </trkpt>
      <trkpt lat="47.84213" lon="-2.71968">
        <ele>110.21</ele>
        <time>2016-10-28T07:21:58Z</time>
      </trkpt>
      <trkpt lat="47.84223" lon="-2.71969">
        <ele>110.69</ele>
        <time>2016-10-28T07:22:06Z</time>
      </trkpt>
      <trkpt lat="47.84233" lon="-2.71969">
        <ele>111.17</ele>
        <time>2016-10-28T07:22:13Z</time>
      </trkpt>
      <trkpt lat="47.84239" lon="-2.71958">
        <ele>111.65</ele>
        <time>2016-10-28T07:22:21Z</time>
      </trkpt>
      <trkpt lat="47.8424" lon="-2.71945">
        <ele>112.13</ele>
        <time>2016-10-28T07:23:00Z</time>
      </trkpt>
      <trkpt lat="47.84242" lon="-2.71929">
        <ele>113.09</ele>
        <time>2016-10-28T07:23:08Z</time>
      </trkpt>
      <trkpt lat="47.84245" lon="-2.71913">
        <ele>114.05</ele>
        <time>2016-10-28T07:23:16Z</time>
      </trkpt>
      <trkpt lat="47.84247" lon="-2.71898">
        <ele>114.53</ele>
        <time>2016-10-28T07:23:24Z</time>
      </trkpt>
      <trkpt lat="47.84248" lon="-2.71884">
        <ele>115.5</ele>
        <time>2016-10-28T07:23:31Z</time>
      </trkpt>
      <trkpt lat="47.84247" lon="-2.71869">
        <ele>115.98</ele>
        <time>2016-10-28T07:23:45Z</time>
      </trkpt>
      <trkpt lat="47.84247" lon="-2.71857">
        <ele>116.46</ele>
        <time>2016-10-28T07:24:33Z</time>
      </trkpt>
      <trkpt lat="47.84246" lon="-2.71843">
        <ele>116.46</ele>
        <time>2016-10-28T07:24:39Z</time>
      </trkpt>
      <trkpt lat="47.84245" lon="-2.7183">
        <ele>116.94</ele>
        <time>2016-10-28T07:24:44Z</time>
      </trkpt>
      <trkpt lat="47.84244" lon="-2.71816">
        <ele>116.94</ele>
        <time>2016-10-28T07:24:50Z</time>
      </trkpt>
      <trkpt lat="47.84243" lon="-2.71802">
        <ele>116.94</ele>
        <time>2016-10-28T07:24:56Z</time>
      </trkpt>
      <trkpt lat="47.84243" lon="-2.71788">
        <ele>117.42</ele>
        <time>2016-10-28T07:25:02Z</time>
      </trkpt>
      <trkpt lat="47.84242" lon="-2.71773">
        <ele>116.94</ele>
        <time>2016-10-28T07:25:08Z</time>
      </trkpt>
      <trkpt lat="47.84242" lon="-2.71759">
        <ele>117.42</ele>
        <time>2016-10-28T07:25:14Z</time>
      </trkpt>
      <trkpt lat="47.8424" lon="-2.71744">
        <ele>117.42</ele>
        <time>2016-10-28T07:25:20Z</time>
      </trkpt>
      <trkpt lat="47.84238" lon="-2.71729">
        <ele>117.42</ele>
        <time>2016-10-28T07:25:26Z</time>
      </trkpt>
      <trkpt lat="47.84235" lon="-2.71715">
        <ele>117.9</ele>
        <time>2016-10-28T07:25:33Z</time>
      </trkpt>
      <trkpt lat="47.84232" lon="-2.71699">
        <ele>118.86</ele>
        <time>2016-10-28T07:25:40Z</time>
      </trkpt>
      <trkpt lat="47.8423" lon="-2.71682">
        <ele>117.9</ele>
        <time>2016-10-28T07:25:47Z</time>
      </trkpt>
      <trkpt lat="47.84227" lon="-2.71666">
        <ele>117.9</ele>
        <time>2016-10-28T07:25:54Z</time>
      </trkpt>
      <trkpt lat="47.84225" lon="-2.71652">
        <ele>117.9</ele>
        <time>2016-10-28T07:26:00Z</time>
      </trkpt>
      <trkpt lat="47.84224" lon="-2.71636">
        <ele>117.9</ele>
        <time>2016-10-28T07:26:06Z</time>
      </trkpt>
      <trkpt lat="47.84223" lon="-2.71621">
        <ele>117.9</ele>
        <time>2016-10-28T07:26:13Z</time>
      </trkpt>
      <trkpt lat="47.84221" lon="-2.71606">
        <ele>118.38</ele>
        <time>2016-10-28T07:26:20Z</time>
      </trkpt>
      <trkpt lat="47.84219" lon="-2.71591">
        <ele>118.38</ele>
        <time>2016-10-28T07:26:26Z</time>
      </trkpt>
      <trkpt lat="47.84218" lon="-2.71576">
        <ele>117.9</ele>
        <time>2016-10-28T07:26:32Z</time>
      </trkpt>
      <trkpt lat="47.84217" lon="-2.71562">
        <ele>118.38</ele>
        <time>2016-10-28T07:26:38Z</time>
      </trkpt>
      <trkpt lat="47.84216" lon="-2.71547">
        <ele>118.38</ele>
        <time>2016-10-28T07:26:44Z</time>
      </trkpt>
      <trkpt lat="47.84215" lon="-2.71534">
        <ele>118.38</ele>
        <time>2016-10-28T07:26:50Z</time>
      </trkpt>
      <trkpt lat="47.84215" lon="-2.71519">
        <ele>118.38</ele>
        <time>2016-10-28T07:26:56Z</time>
      </trkpt>
      <trkpt lat="47.84214" lon="-2.71504">
        <ele>118.38</ele>
        <time>2016-10-28T07:27:02Z</time>
      </trkpt>
      <trkpt lat="47.84214" lon="-2.71488">
        <ele>118.38</ele>
        <time>2016-10-28T07:27:09Z</time>
      </trkpt>
      <trkpt lat="47.84214" lon="-2.71473">
        <ele>118.38</ele>
        <time>2016-10-28T07:27:15Z</time>
      </trkpt>
      <trkpt lat="47.84214" lon="-2.7146">
        <ele>118.38</ele>
        <time>2016-10-28T07:27:20Z</time>
      </trkpt>
      <trkpt lat="47.84214" lon="-2.71444">
        <ele>118.86</ele>
        <time>2016-10-28T07:27:26Z</time>
      </trkpt>
      <trkpt lat="47.84214" lon="-2.71431">
        <ele>118.86</ele>
        <time>2016-10-28T07:27:31Z</time>
      </trkpt>
      <trkpt lat="47.84214" lon="-2.71415">
        <ele>118.86</ele>
        <time>2016-10-28T07:27:37Z</time>
      </trkpt>
      <trkpt lat="47.84213" lon="-2.71401">
        <ele>118.86</ele>
        <time>2016-10-28T07:27:43Z</time>
      </trkpt>
      <trkpt lat="47.84213" lon="-2.71386">
        <ele>118.38</ele>
        <time>2016-10-28T07:27:49Z</time>
      </trkpt>
      <trkpt lat="47.84213" lon="-2.71372">
        <ele>118.86</ele>
        <time>2016-10-28T07:27:55Z</time>
      </trkpt>
      <trkpt lat="47.84213" lon="-2.71356">
        <ele>118.86</ele>
        <time>2016-10-28T07:28:02Z</time>
      </trkpt>
      <trkpt lat="47.84213" lon="-2.71343">
        <ele>118.86</ele>
        <time>2016-10-28T07:28:08Z</time>
      </trkpt>
      <trkpt lat="47.84212" lon="-2.71327">
        <ele>118.86</ele>
        <time>2016-10-28T07:28:14Z</time>
      </trkpt>
      <trkpt lat="47.84213" lon="-2.71313">
        <ele>119.34</ele>
        <time>2016-10-28T07:28:21Z</time>
      </trkpt>
      <trkpt lat="47.84212" lon="-2.71299">
        <ele>119.34</ele>
        <time>2016-10-28T07:28:27Z</time>
      </trkpt>
      <trkpt lat="47.84211" lon="-2.71285">
        <ele>119.34</ele>
        <time>2016-10-28T07:28:33Z</time>
      </trkpt>
      <trkpt lat="47.84208" lon="-2.71271">
        <ele>119.82</ele>
        <time>2016-10-28T07:28:39Z</time>
      </trkpt>
      <trkpt lat="47.84204" lon="-2.71257">
        <ele>119.82</ele>
        <time>2016-10-28T07:28:45Z</time>
      </trkpt>
      <trkpt lat="47.842" lon="-2.71245">
        <ele>120.3</ele>
        <time>2016-10-28T07:28:51Z</time>
      </trkpt>
      <trkpt lat="47.84195" lon="-2.71232">
        <ele>120.3</ele>
        <time>2016-10-28T07:28:57Z</time>
      </trkpt>
      <trkpt lat="47.84188" lon="-2.7122">
        <ele>120.78</ele>
        <time>2016-10-28T07:29:03Z</time>
      </trkpt>
      <trkpt lat="47.84181" lon="-2.7121">
        <ele>120.78</ele>
        <time>2016-10-28T07:29:09Z</time>
      </trkpt>
      <trkpt lat="47.84174" lon="-2.71198">
        <ele>121.26</ele>
        <time>2016-10-28T07:29:16Z</time>
      </trkpt>
      <trkpt lat="47.84168" lon="-2.71187">
        <ele>121.26</ele>
        <time>2016-10-28T07:29:22Z</time>
      </trkpt>
      <trkpt lat="47.84162" lon="-2.71174">
        <ele>121.74</ele>
        <time>2016-10-28T07:29:28Z</time>
      </trkpt>
      <trkpt lat="47.84156" lon="-2.71164">
        <ele>121.74</ele>
        <time>2016-10-28T07:29:34Z</time>
      </trkpt>
      <trkpt lat="47.84151" lon="-2.71151">
        <ele>122.22</ele>
        <time>2016-10-28T07:29:40Z</time>
      </trkpt>
      <trkpt lat="47.84145" lon="-2.7114">
        <ele>122.22</ele>
        <time>2016-10-28T07:29:46Z</time>
      </trkpt>
      <trkpt lat="47.84137" lon="-2.7113">
        <ele>123.19</ele>
        <time>2016-10-28T07:29:52Z</time>
      </trkpt>
      <trkpt lat="47.84131" lon="-2.71119">
        <ele>123.19</ele>
        <time>2016-10-28T07:29:58Z</time>
      </trkpt>
      <trkpt lat="47.84125" lon="-2.71106">
        <ele>123.67</ele>
        <time>2016-10-28T07:30:04Z</time>
      </trkpt>
      <trkpt lat="47.84119" lon="-2.71095">
        <ele>123.67</ele>
        <time>2016-10-28T07:30:10Z</time>
      </trkpt>
      <trkpt lat="47.84113" lon="-2.71082">
        <ele>124.15</ele>
        <time>2016-10-28T07:30:16Z</time>
      </trkpt>
      <trkpt lat="47.84106" lon="-2.71068">
        <ele>124.15</ele>
        <time>2016-10-28T07:30:22Z</time>
      </trkpt>
      <trkpt lat="47.841" lon="-2.71054">
        <ele>124.63</ele>
        <time>2016-10-28T07:30:28Z</time>
      </trkpt>
      <trkpt lat="47.84094" lon="-2.71043">
        <ele>124.63</ele>
        <time>2016-10-28T07:30:34Z</time>
      </trkpt>
      <trkpt lat="47.84089" lon="-2.71031">
        <ele>125.11</ele>
        <time>2016-10-28T07:30:40Z</time>
      </trkpt>
      <trkpt lat="47.84084" lon="-2.71017">
        <ele>125.11</ele>
        <time>2016-10-28T07:30:47Z</time>
      </trkpt>
      <trkpt lat="47.84078" lon="-2.71002">
        <ele>125.59</ele>
        <time>2016-10-28T07:30:55Z</time>
      </trkpt>
      <trkpt lat="47.84071" lon="-2.70985">
        <ele>125.59</ele>
        <time>2016-10-28T07:31:03Z</time>
      </trkpt>
      <trkpt lat="47.84065" lon="-2.70972">
        <ele>126.07</ele>
        <time>2016-10-28T07:31:10Z</time>
      </trkpt>
      <trkpt lat="47.8406" lon="-2.70955">
        <ele>126.07</ele>
        <time>2016-10-28T07:31:17Z</time>
      </trkpt>
      <trkpt lat="47.84053" lon="-2.70939">
        <ele>126.07</ele>
        <time>2016-10-28T07:31:24Z</time>
      </trkpt>
      <trkpt lat="47.84048" lon="-2.70923">
        <ele>126.55</ele>
        <time>2016-10-28T07:31:30Z</time>
      </trkpt>
      <trkpt lat="47.84044" lon="-2.7091">
        <ele>126.07</ele>
        <time>2016-10-28T07:31:37Z</time>
      </trkpt>
      <trkpt lat="47.84037" lon="-2.70895">
        <ele>126.07</ele>
        <time>2016-10-28T07:31:43Z</time>
      </trkpt>
      <trkpt lat="47.84032" lon="-2.70882">
        <ele>126.07</ele>
        <time>2016-10-28T07:31:49Z</time>
      </trkpt>
      <trkpt lat="47.8403" lon="-2.70866">
        <ele>126.55</ele>
        <time>2016-10-28T07:31:55Z</time>
      </trkpt>
      <trkpt lat="47.84035" lon="-2.70856">
        <ele>126.55</ele>
        <time>2016-10-28T07:32:04Z</time>
      </trkpt>
      <trkpt lat="47.84036" lon="-2.70841">
        <ele>126.55</ele>
        <time>2016-10-28T07:32:09Z</time>
      </trkpt>
      <trkpt lat="47.84038" lon="-2.70829">
        <ele>127.03</ele>
        <time>2016-10-28T07:32:14Z</time>
      </trkpt>
      <trkpt lat="47.8404" lon="-2.70814">
        <ele>127.03</ele>
        <time>2016-10-28T07:32:20Z</time>
      </trkpt>
      <trkpt lat="47.84041" lon="-2.70801">
        <ele>126.55</ele>
        <time>2016-10-28T07:32:25Z</time>
      </trkpt>
      <trkpt lat="47.84043" lon="-2.70786">
        <ele>126.55</ele>
        <time>2016-10-28T07:32:31Z</time>
      </trkpt>
      <trkpt lat="47.84045" lon="-2.70772">
        <ele>126.07</ele>
        <time>2016-10-28T07:32:36Z</time>
      </trkpt>
      <trkpt lat="47.84046" lon="-2.70759">
        <ele>126.07</ele>
        <time>2016-10-28T07:32:41Z</time>
      </trkpt>
      <trkpt lat="47.84048" lon="-2.70746">
        <ele>125.59</ele>
        <time>2016-10-28T07:32:46Z</time>
      </trkpt>
      <trkpt lat="47.84049" lon="-2.70731">
        <ele>125.59</ele>
        <time>2016-10-28T07:32:52Z</time>
      </trkpt>
      <trkpt lat="47.8405" lon="-2.70717">
        <ele>125.11</ele>
        <time>2016-10-28T07:32:58Z</time>
      </trkpt>
      <trkpt lat="47.84052" lon="-2.70704">
        <ele>123.67</ele>
        <time>2016-10-28T07:33:04Z</time>
      </trkpt>
      <trkpt lat="47.8406" lon="-2.70698">
        <ele>123.67</ele>
        <time>2016-10-28T07:33:11Z</time>
      </trkpt>
      <trkpt lat="47.84073" lon="-2.70703">
        <ele>122.71</ele>
        <time>2016-10-28T07:33:18Z</time>
      </trkpt>
      <trkpt lat="47.84084" lon="-2.70707">
        <ele>123.19</ele>
        <time>2016-10-28T07:33:24Z</time>
      </trkpt>
      <trkpt lat="47.84093" lon="-2.7071">
        <ele>122.71</ele>
        <time>2016-10-28T07:33:29Z</time>
      </trkpt>
      <trkpt lat="47.84103" lon="-2.70715">
        <ele>122.22</ele>
        <time>2016-10-28T07:33:35Z</time>
      </trkpt>
      <trkpt lat="47.84113" lon="-2.70719">
        <ele>121.74</ele>
        <time>2016-10-28T07:33:42Z</time>
      </trkpt>
      <trkpt lat="47.84126" lon="-2.70726">
        <ele>120.78</ele>
        <time>2016-10-28T07:33:50Z</time>
      </trkpt>
      <trkpt lat="47.84138" lon="-2.70728">
        <ele>119.82</ele>
        <time>2016-10-28T07:33:57Z</time>
      </trkpt>
      <trkpt lat="47.84149" lon="-2.70731">
        <ele>119.82</ele>
        <time>2016-10-28T07:34:03Z</time>
      </trkpt>
      <trkpt lat="47.84161" lon="-2.70733">
        <ele>118.86</ele>
        <time>2016-10-28T07:34:10Z</time>
      </trkpt>
      <trkpt lat="47.84173" lon="-2.70736">
        <ele>118.38</ele>
        <time>2016-10-28T07:34:17Z</time>
      </trkpt>
      <trkpt lat="47.84185" lon="-2.70739">
        <ele>117.9</ele>
        <time>2016-10-28T07:34:25Z</time>
      </trkpt>
      <trkpt lat="47.84198" lon="-2.7074">
        <ele>116.94</ele>
        <time>2016-10-28T07:34:31Z</time>
      </trkpt>
      <trkpt lat="47.8421" lon="-2.70742">
        <ele>116.46</ele>
        <time>2016-10-28T07:34:35Z</time>
      </trkpt>
      <trkpt lat="47.84222" lon="-2.70744">
        <ele>115.98</ele>
        <time>2016-10-28T07:34:41Z</time>
      </trkpt>
      <trkpt lat="47.84232" lon="-2.70748">
        <ele>115.98</ele>
        <time>2016-10-28T07:34:47Z</time>
      </trkpt>
      <trkpt lat="47.84244" lon="-2.70751">
        <ele>115.5</ele>
        <time>2016-10-28T07:34:54Z</time>
      </trkpt>
      <trkpt lat="47.84256" lon="-2.70755">
        <ele>115.5</ele>
        <time>2016-10-28T07:35:01Z</time>
      </trkpt>
      <trkpt lat="47.84268" lon="-2.70758">
        <ele>115.5</ele>
        <time>2016-10-28T07:35:08Z</time>
      </trkpt>
      <trkpt lat="47.84281" lon="-2.70761">
        <ele>115.98</ele>
        <time>2016-10-28T07:35:15Z</time>
      </trkpt>
      <trkpt lat="47.84292" lon="-2.70765">
        <ele>115.98</ele>
        <time>2016-10-28T07:35:21Z</time>
      </trkpt>
      <trkpt lat="47.84303" lon="-2.70768">
        <ele>116.46</ele>
        <time>2016-10-28T07:35:28Z</time>
      </trkpt>
      <trkpt lat="47.84314" lon="-2.70771">
        <ele>116.94</ele>
        <time>2016-10-28T07:35:34Z</time>
      </trkpt>
      <trkpt lat="47.84324" lon="-2.70771">
        <ele>117.42</ele>
        <time>2016-10-28T07:35:39Z</time>
      </trkpt>
      <trkpt lat="47.84333" lon="-2.70773">
        <ele>117.9</ele>
        <time>2016-10-28T07:35:44Z</time>
      </trkpt>
      <trkpt lat="47.84344" lon="-2.70776">
        <ele>118.38</ele>
        <time>2016-10-28T07:35:51Z</time>
      </trkpt>
      <trkpt lat="47.84354" lon="-2.70777">
        <ele>117.9</ele>
        <time>2016-10-28T07:35:56Z</time>
      </trkpt>
      <trkpt lat="47.84363" lon="-2.7078">
        <ele>118.38</ele>
        <time>2016-10-28T07:36:02Z</time>
      </trkpt>
      <trkpt lat="47.84374" lon="-2.70782">
        <ele>118.86</ele>
        <time>2016-10-28T07:36:08Z</time>
      </trkpt>
      <trkpt lat="47.84385" lon="-2.70785">
        <ele>118.38</ele>
        <time>2016-10-28T07:36:14Z</time>
      </trkpt>
      <trkpt lat="47.84395" lon="-2.70787">
        <ele>118.86</ele>
        <time>2016-10-28T07:36:20Z</time>
      </trkpt>
      <trkpt lat="47.84404" lon="-2.70789">
        <ele>118.86</ele>
        <time>2016-10-28T07:36:25Z</time>
      </trkpt>
      <trkpt lat="47.84415" lon="-2.70792">
        <ele>118.38</ele>
        <time>2016-10-28T07:36:31Z</time>
      </trkpt>
      <trkpt lat="47.84426" lon="-2.70794">
        <ele>118.38</ele>
        <time>2016-10-28T07:36:37Z</time>
      </trkpt>
      <trkpt lat="47.84436" lon="-2.70796">
        <ele>118.38</ele>
        <time>2016-10-28T07:36:43Z</time>
      </trkpt>
      <trkpt lat="47.84446" lon="-2.708">
        <ele>118.38</ele>
        <time>2016-10-28T07:36:49Z</time>
      </trkpt>
      <trkpt lat="47.84457" lon="-2.70803">
        <ele>117.9</ele>
        <time>2016-10-28T07:36:56Z</time>
      </trkpt>
      <trkpt lat="47.84468" lon="-2.70809">
        <ele>118.38</ele>
        <time>2016-10-28T07:37:02Z</time>
      </trkpt>
      <trkpt lat="47.8448" lon="-2.70813">
        <ele>118.38</ele>
        <time>2016-10-28T07:37:09Z</time>
      </trkpt>
      <trkpt lat="47.84491" lon="-2.70815">
        <ele>117.9</ele>
        <time>2016-10-28T07:37:16Z</time>
      </trkpt>
      <trkpt lat="47.84503" lon="-2.70816">
        <ele>117.42</ele>
        <time>2016-10-28T07:37:22Z</time>
      </trkpt>
      <trkpt lat="47.84516" lon="-2.70818">
        <ele>116.94</ele>
        <time>2016-10-28T07:37:29Z</time>
      </trkpt>
      <trkpt lat="47.84528" lon="-2.70822">
        <ele>116.46</ele>
        <time>2016-10-28T07:37:36Z</time>
      </trkpt>
      <trkpt lat="47.84539" lon="-2.70826">
        <ele>116.46</ele>
        <time>2016-10-28T07:37:43Z</time>
      </trkpt>
      <trkpt lat="47.84549" lon="-2.70829">
        <ele>115.98</ele>
        <time>2016-10-28T07:37:49Z</time>
      </trkpt>
      <trkpt lat="47.84559" lon="-2.70831">
        <ele>115.5</ele>
        <time>2016-10-28T07:37:55Z</time>
      </trkpt>
      <trkpt lat="47.8457" lon="-2.70827">
        <ele>115.01</ele>
        <time>2016-10-28T07:38:03Z</time>
      </trkpt>
      <trkpt lat="47.8458" lon="-2.70822">
        <ele>115.5</ele>
        <time>2016-10-28T07:38:16Z</time>
      </trkpt>
      <trkpt lat="47.84589" lon="-2.70822">
        <ele>114.53</ele>
        <time>2016-10-28T07:38:21Z</time>
      </trkpt>
      <trkpt lat="47.846" lon="-2.7082">
        <ele>114.53</ele>
        <time>2016-10-28T07:38:27Z</time>
      </trkpt>
      <trkpt lat="47.8461" lon="-2.70819">
        <ele>114.05</ele>
        <time>2016-10-28T07:38:33Z</time>
      </trkpt>
      <trkpt lat="47.8462" lon="-2.70818">
        <ele>114.05</ele>
        <time>2016-10-28T07:38:39Z</time>
      </trkpt>
      <trkpt lat="47.8463" lon="-2.70818">
        <ele>113.57</ele>
        <time>2016-10-28T07:38:45Z</time>
      </trkpt>
      <trkpt lat="47.8464" lon="-2.70816">
        <ele>113.57</ele>
        <time>2016-10-28T07:38:51Z</time>
      </trkpt>
      <trkpt lat="47.84651" lon="-2.70816">
        <ele>113.09</ele>
        <time>2016-10-28T07:38:57Z</time>
      </trkpt>
      <trkpt lat="47.8466" lon="-2.70814">
        <ele>113.57</ele>
        <time>2016-10-28T07:39:03Z</time>
      </trkpt>
      <trkpt lat="47.84671" lon="-2.70812">
        <ele>113.09</ele>
        <time>2016-10-28T07:39:09Z</time>
      </trkpt>
      <trkpt lat="47.84681" lon="-2.70809">
        <ele>113.09</ele>
        <time>2016-10-28T07:39:15Z</time>
      </trkpt>
      <trkpt lat="47.84692" lon="-2.70807">
        <ele>112.61</ele>
        <time>2016-10-28T07:39:21Z</time>
      </trkpt>
      <trkpt lat="47.84701" lon="-2.70804">
        <ele>112.61</ele>
        <time>2016-10-28T07:39:26Z</time>
      </trkpt>
      <trkpt lat="47.84711" lon="-2.70803">
        <ele>112.13</ele>
        <time>2016-10-28T07:39:32Z</time>
      </trkpt>
      <trkpt lat="47.84721" lon="-2.70801">
        <ele>112.13</ele>
        <time>2016-10-28T07:39:38Z</time>
      </trkpt>
      <trkpt lat="47.84732" lon="-2.708">
        <ele>112.13</ele>
        <time>2016-10-28T07:39:44Z</time>
      </trkpt>
      <trkpt lat="47.84742" lon="-2.708">
        <ele>111.65</ele>
        <time>2016-10-28T07:39:50Z</time>
      </trkpt>
      <trkpt lat="47.84751" lon="-2.708">
        <ele>111.65</ele>
        <time>2016-10-28T07:39:56Z</time>
      </trkpt>
      <trkpt lat="47.84758" lon="-2.70789">
        <ele>110.69</ele>
        <time>2016-10-28T07:40:01Z</time>
      </trkpt>
      <trkpt lat="47.84762" lon="-2.70774">
        <ele>110.21</ele>
        <time>2016-10-28T07:40:07Z</time>
      </trkpt>
      <trkpt lat="47.84762" lon="-2.70758">
        <ele>110.21</ele>
        <time>2016-10-28T07:40:13Z</time>
      </trkpt>
      <trkpt lat="47.84765" lon="-2.70743">
        <ele>110.69</ele>
        <time>2016-10-28T07:40:19Z</time>
      </trkpt>
      <trkpt lat="47.84767" lon="-2.7073">
        <ele>110.21</ele>
        <time>2016-10-28T07:40:24Z</time>
      </trkpt>
      <trkpt lat="47.84769" lon="-2.70713">
        <ele>110.21</ele>
        <time>2016-10-28T07:40:30Z</time>
      </trkpt>
      <trkpt lat="47.84771" lon="-2.707">
        <ele>110.69</ele>
        <time>2016-10-28T07:40:35Z</time>
      </trkpt>
      <trkpt lat="47.84774" lon="-2.70685">
        <ele>110.21</ele>
        <time>2016-10-28T07:40:41Z</time>
      </trkpt>
      <trkpt lat="47.84776" lon="-2.70672">
        <ele>109.73</ele>
        <time>2016-10-28T07:40:46Z</time>
      </trkpt>
      <trkpt lat="47.84777" lon="-2.70658">
        <ele>109.73</ele>
        <time>2016-10-28T07:40:51Z</time>
      </trkpt>
      <trkpt lat="47.84779" lon="-2.70645">
        <ele>109.25</ele>
        <time>2016-10-28T07:40:56Z</time>
      </trkpt>
      <trkpt lat="47.8478" lon="-2.70632">
        <ele>109.25</ele>
        <time>2016-10-28T07:41:01Z</time>
      </trkpt>
      <trkpt lat="47.84782" lon="-2.70617">
        <ele>108.29</ele>
        <time>2016-10-28T07:41:07Z</time>
      </trkpt>
      <trkpt lat="47.84783" lon="-2.70604">
        <ele>108.29</ele>
        <time>2016-10-28T07:41:12Z</time>
      </trkpt>
      <trkpt lat="47.84784" lon="-2.70589">
        <ele>107.32</ele>
        <time>2016-10-28T07:41:18Z</time>
      </trkpt>
      <trkpt lat="47.84785" lon="-2.70573">
        <ele>106.84</ele>
        <time>2016-10-28T07:41:24Z</time>
      </trkpt>
      <trkpt lat="47.84787" lon="-2.70557">
        <ele>107.32</ele>
        <time>2016-10-28T07:41:30Z</time>
      </trkpt>
      <trkpt lat="47.84788" lon="-2.70543">
        <ele>106.36</ele>
        <time>2016-10-28T07:41:35Z</time>
      </trkpt>
      <trkpt lat="47.84789" lon="-2.70529">
        <ele>106.36</ele>
        <time>2016-10-28T07:41:40Z</time>
      </trkpt>
      <trkpt lat="47.84791" lon="-2.70517">
        <ele>105.4</ele>
        <time>2016-10-28T07:41:45Z</time>
      </trkpt>
      <trkpt lat="47.84792" lon="-2.70503">
        <ele>105.4</ele>
        <time>2016-10-28T07:41:50Z</time>
      </trkpt>
      <trkpt lat="47.84792" lon="-2.70489">
        <ele>105.4</ele>
        <time>2016-10-28T07:41:56Z</time>
      </trkpt>
      <trkpt lat="47.84793" lon="-2.70473">
        <ele>104.44</ele>
        <time>2016-10-28T07:42:02Z</time>
      </trkpt>
      <trkpt lat="47.84794" lon="-2.70459">
        <ele>103.48</ele>
        <time>2016-10-28T07:42:08Z</time>
      </trkpt>
      <trkpt lat="47.84795" lon="-2.70444">
        <ele>103</ele>
        <time>2016-10-28T07:42:14Z</time>
      </trkpt>
      <trkpt lat="47.8479" lon="-2.70433">
        <ele>102.04</ele>
        <time>2016-10-28T07:42:20Z</time>
      </trkpt>
      <trkpt lat="47.84779" lon="-2.70429">
        <ele>101.08</ele>
        <time>2016-10-28T07:42:27Z</time>
      </trkpt>
      <trkpt lat="47.84769" lon="-2.70426">
        <ele>100.11</ele>
        <time>2016-10-28T07:42:33Z</time>
      </trkpt>
      <trkpt lat="47.84758" lon="-2.70423">
        <ele>99.15</ele>
        <time>2016-10-28T07:42:39Z</time>
      </trkpt>
      <trkpt lat="47.84749" lon="-2.70421">
        <ele>98.67</ele>
        <time>2016-10-28T07:42:44Z</time>
      </trkpt>
      <trkpt lat="47.84739" lon="-2.70418">
        <ele>99.15</ele>
        <time>2016-10-28T07:42:50Z</time>
      </trkpt>
      <trkpt lat="47.84728" lon="-2.70417">
        <ele>98.67</ele>
        <time>2016-10-28T07:42:56Z</time>
      </trkpt>
      <trkpt lat="47.84718" lon="-2.70414">
        <ele>98.67</ele>
        <time>2016-10-28T07:43:02Z</time>
      </trkpt>
      <trkpt lat="47.84711" lon="-2.70405">
        <ele>99.15</ele>
        <time>2016-10-28T07:43:07Z</time>
      </trkpt>
      <trkpt lat="47.84712" lon="-2.70391">
        <ele>98.67</ele>
        <time>2016-10-28T07:43:12Z</time>
      </trkpt>
      <trkpt lat="47.84714" lon="-2.70375">
        <ele>97.23</ele>
        <time>2016-10-28T07:43:18Z</time>
      </trkpt>
      <trkpt lat="47.84717" lon="-2.70362">
        <ele>97.71</ele>
        <time>2016-10-28T07:43:23Z</time>
      </trkpt>
      <trkpt lat="47.84721" lon="-2.7035">
        <ele>97.23</ele>
        <time>2016-10-28T07:43:28Z</time>
      </trkpt>
      <trkpt lat="47.84725" lon="-2.70337">
        <ele>97.23</ele>
        <time>2016-10-28T07:43:33Z</time>
      </trkpt>
      <trkpt lat="47.84728" lon="-2.70322">
        <ele>96.27</ele>
        <time>2016-10-28T07:43:39Z</time>
      </trkpt>
      <trkpt lat="47.84732" lon="-2.70309">
        <ele>95.79</ele>
        <time>2016-10-28T07:43:44Z</time>
      </trkpt>
      <trkpt lat="47.84734" lon="-2.70296">
        <ele>95.31</ele>
        <time>2016-10-28T07:43:49Z</time>
      </trkpt>
      <trkpt lat="47.84737" lon="-2.70282">
        <ele>95.31</ele>
        <time>2016-10-28T07:43:54Z</time>
      </trkpt>
      <trkpt lat="47.8474" lon="-2.70269">
        <ele>94.83</ele>
        <time>2016-10-28T07:43:59Z</time>
      </trkpt>
      <trkpt lat="47.84743" lon="-2.70254">
        <ele>94.35</ele>
        <time>2016-10-28T07:44:05Z</time>
      </trkpt>
      <trkpt lat="47.84749" lon="-2.7024">
        <ele>93.87</ele>
        <time>2016-10-28T07:44:11Z</time>
      </trkpt>
      <trkpt lat="47.84754" lon="-2.70227">
        <ele>93.87</ele>
        <time>2016-10-28T07:44:16Z</time>
      </trkpt>
      <trkpt lat="47.84759" lon="-2.70214">
        <ele>93.87</ele>
        <time>2016-10-28T07:44:22Z</time>
      </trkpt>
      <trkpt lat="47.84764" lon="-2.70199">
        <ele>93.87</ele>
        <time>2016-10-28T07:44:28Z</time>
      </trkpt>
      <trkpt lat="47.84768" lon="-2.70183">
        <ele>94.35</ele>
        <time>2016-10-28T07:44:34Z</time>
      </trkpt>
      <trkpt lat="47.84771" lon="-2.70169">
        <ele>94.83</ele>
        <time>2016-10-28T07:44:41Z</time>
      </trkpt>
      <trkpt lat="47.84773" lon="-2.70154">
        <ele>94.83</ele>
        <time>2016-10-28T07:44:47Z</time>
      </trkpt>
      <trkpt lat="47.84777" lon="-2.70142">
        <ele>95.31</ele>
        <time>2016-10-28T07:44:52Z</time>
      </trkpt>
      <trkpt lat="47.84781" lon="-2.70127">
        <ele>95.79</ele>
        <time>2016-10-28T07:44:58Z</time>
      </trkpt>
      <trkpt lat="47.84784" lon="-2.70115">
        <ele>96.27</ele>
        <time>2016-10-28T07:45:03Z</time>
      </trkpt>
      <trkpt lat="47.84786" lon="-2.701">
        <ele>96.75</ele>
        <time>2016-10-28T07:45:09Z</time>
      </trkpt>
      <trkpt lat="47.84787" lon="-2.70086">
        <ele>96.75</ele>
        <time>2016-10-28T07:45:15Z</time>
      </trkpt>
      <trkpt lat="47.8479" lon="-2.7007">
        <ele>97.71</ele>
        <time>2016-10-28T07:45:21Z</time>
      </trkpt>
      <trkpt lat="47.84796" lon="-2.70062">
        <ele>98.67</ele>
        <time>2016-10-28T07:45:28Z</time>
      </trkpt>
      <trkpt lat="47.84806" lon="-2.70066">
        <ele>99.15</ele>
        <time>2016-10-28T07:45:34Z</time>
      </trkpt>
      <trkpt lat="47.84815" lon="-2.70072">
        <ele>99.63</ele>
        <time>2016-10-28T07:45:40Z</time>
      </trkpt>
      <trkpt lat="47.84823" lon="-2.70078">
        <ele>100.11</ele>
        <time>2016-10-28T07:45:46Z</time>
      </trkpt>
      <trkpt lat="47.84832" lon="-2.70083">
        <ele>100.11</ele>
        <time>2016-10-28T07:45:52Z</time>
      </trkpt>
      <trkpt lat="47.8484" lon="-2.7009">
        <ele>100.6</ele>
        <time>2016-10-28T07:45:58Z</time>
      </trkpt>
      <trkpt lat="47.84845" lon="-2.70102">
        <ele>101.08</ele>
        <time>2016-10-28T07:46:04Z</time>
      </trkpt>
      <trkpt lat="47.84844" lon="-2.70118">
        <ele>101.08</ele>
        <time>2016-10-28T07:46:11Z</time>
      </trkpt>
      <trkpt lat="47.84844" lon="-2.70132">
        <ele>101.08</ele>
        <time>2016-10-28T07:46:17Z</time>
      </trkpt>
      <trkpt lat="47.84844" lon="-2.70145">
        <ele>101.56</ele>
        <time>2016-10-28T07:46:23Z</time>
      </trkpt>
      <trkpt lat="47.84851" lon="-2.70157">
        <ele>101.56</ele>
        <time>2016-10-28T07:46:29Z</time>
      </trkpt>
      <trkpt lat="47.84857" lon="-2.70169">
        <ele>102.04</ele>
        <time>2016-10-28T07:46:35Z</time>
      </trkpt>
      <trkpt lat="47.84865" lon="-2.70179">
        <ele>102.52</ele>
        <time>2016-10-28T07:46:41Z</time>
      </trkpt>
      <trkpt lat="47.84874" lon="-2.70187">
        <ele>103</ele>
        <time>2016-10-28T07:46:46Z</time>
      </trkpt>
      <trkpt lat="47.84883" lon="-2.70186">
        <ele>103.96</ele>
        <time>2016-10-28T07:46:51Z</time>
      </trkpt>
      <trkpt lat="47.84891" lon="-2.70178">
        <ele>104.44</ele>
        <time>2016-10-28T07:46:56Z</time>
      </trkpt>
      <trkpt lat="47.84899" lon="-2.70168">
        <ele>104.92</ele>
        <time>2016-10-28T07:47:01Z</time>
      </trkpt>
      <trkpt lat="47.84907" lon="-2.70161">
        <ele>105.4</ele>
        <time>2016-10-28T07:47:06Z</time>
      </trkpt>
      <trkpt lat="47.84915" lon="-2.70154">
        <ele>105.88</ele>
        <time>2016-10-28T07:47:12Z</time>
      </trkpt>
      <trkpt lat="47.84925" lon="-2.70151">
        <ele>106.36</ele>
        <time>2016-10-28T07:47:18Z</time>
      </trkpt>
      <trkpt lat="47.84934" lon="-2.70153">
        <ele>106.36</ele>
        <time>2016-10-28T07:47:24Z</time>
      </trkpt>
      <trkpt lat="47.84944" lon="-2.70158">
        <ele>105.88</ele>
        <time>2016-10-28T07:47:30Z</time>
      </trkpt>
      <trkpt lat="47.84953" lon="-2.70164">
        <ele>105.88</ele>
        <time>2016-10-28T07:47:36Z</time>
      </trkpt>
      <trkpt lat="47.84962" lon="-2.7017">
        <ele>105.88</ele>
        <time>2016-10-28T07:47:42Z</time>
      </trkpt>
      <trkpt lat="47.84972" lon="-2.70174">
        <ele>105.4</ele>
        <time>2016-10-28T07:47:48Z</time>
      </trkpt>
      <trkpt lat="47.84982" lon="-2.70179">
        <ele>104.92</ele>
        <time>2016-10-28T07:47:54Z</time>
      </trkpt>
      <trkpt lat="47.84991" lon="-2.70185">
        <ele>104.44</ele>
        <time>2016-10-28T07:48:00Z</time>
      </trkpt>
      <trkpt lat="47.85001" lon="-2.70189">
        <ele>103.96</ele>
        <time>2016-10-28T07:48:06Z</time>
      </trkpt>
      <trkpt lat="47.8501" lon="-2.70194">
        <ele>103</ele>
        <time>2016-10-28T07:48:12Z</time>
      </trkpt>
      <trkpt lat="47.85019" lon="-2.702">
        <ele>102.52</ele>
        <time>2016-10-28T07:48:18Z</time>
      </trkpt>
      <trkpt lat="47.85028" lon="-2.70205">
        <ele>102.04</ele>
        <time>2016-10-28T07:48:24Z</time>
      </trkpt>
      <trkpt lat="47.85038" lon="-2.7021">
        <ele>100.6</ele>
        <time>2016-10-28T07:48:30Z</time>
      </trkpt>
      <trkpt lat="47.85047" lon="-2.70215">
        <ele>99.63</ele>
        <time>2016-10-28T07:48:37Z</time>
      </trkpt>
      <trkpt lat="47.85056" lon="-2.70227">
        <ele>98.67</ele>
        <time>2016-10-28T07:48:44Z</time>
      </trkpt>
      <trkpt lat="47.85066" lon="-2.70232">
        <ele>97.71</ele>
        <time>2016-10-28T07:48:50Z</time>
      </trkpt>
      <trkpt lat="47.85076" lon="-2.7024">
        <ele>96.27</ele>
        <time>2016-10-28T07:48:57Z</time>
      </trkpt>
      <trkpt lat="47.85087" lon="-2.70246">
        <ele>94.83</ele>
        <time>2016-10-28T07:49:04Z</time>
      </trkpt>
      <trkpt lat="47.85099" lon="-2.70245">
        <ele>93.87</ele>
        <time>2016-10-28T07:49:10Z</time>
      </trkpt>
      <trkpt lat="47.8511" lon="-2.70237">
        <ele>93.39</ele>
        <time>2016-10-28T07:49:15Z</time>
      </trkpt>
      <trkpt lat="47.85119" lon="-2.70228">
        <ele>92.42</ele>
        <time>2016-10-28T07:49:20Z</time>
      </trkpt>
      <trkpt lat="47.85128" lon="-2.70218">
        <ele>91.94</ele>
        <time>2016-10-28T07:49:26Z</time>
      </trkpt>
      <trkpt lat="47.85136" lon="-2.7021">
        <ele>90.98</ele>
        <time>2016-10-28T07:49:31Z</time>
      </trkpt>
      <trkpt lat="47.85144" lon="-2.702">
        <ele>90.5</ele>
        <time>2016-10-28T07:49:36Z</time>
      </trkpt>
      <trkpt lat="47.85152" lon="-2.70193">
        <ele>90.02</ele>
        <time>2016-10-28T07:49:41Z</time>
      </trkpt>
      <trkpt lat="47.8516" lon="-2.70183">
        <ele>89.54</ele>
        <time>2016-10-28T07:49:47Z</time>
      </trkpt>
      <trkpt lat="47.85168" lon="-2.70173">
        <ele>88.58</ele>
        <time>2016-10-28T07:49:53Z</time>
      </trkpt>
      <trkpt lat="47.85177" lon="-2.70163">
        <ele>88.58</ele>
        <time>2016-10-28T07:49:59Z</time>
      </trkpt>
      <trkpt lat="47.85187" lon="-2.70155">
        <ele>88.58</ele>
        <time>2016-10-28T07:50:05Z</time>
      </trkpt>
      <trkpt lat="47.85195" lon="-2.70145">
        <ele>88.58</ele>
        <time>2016-10-28T07:50:10Z</time>
      </trkpt>
      <trkpt lat="47.85203" lon="-2.70138">
        <ele>88.58</ele>
        <time>2016-10-28T07:50:15Z</time>
      </trkpt>
      <trkpt lat="47.85213" lon="-2.70128">
        <ele>88.58</ele>
        <time>2016-10-28T07:50:21Z</time>
      </trkpt>
      <trkpt lat="47.8522" lon="-2.70122">
        <ele>88.58</ele>
        <time>2016-10-28T07:50:26Z</time>
      </trkpt>
      <trkpt lat="47.85229" lon="-2.70113">
        <ele>88.1</ele>
        <time>2016-10-28T07:50:32Z</time>
      </trkpt>
      <trkpt lat="47.85239" lon="-2.70103">
        <ele>88.1</ele>
        <time>2016-10-28T07:50:39Z</time>
      </trkpt>
      <trkpt lat="47.85249" lon="-2.70093">
        <ele>88.1</ele>
        <time>2016-10-28T07:50:45Z</time>
      </trkpt>
      <trkpt lat="47.85259" lon="-2.70083">
        <ele>88.1</ele>
        <time>2016-10-28T07:50:51Z</time>
      </trkpt>
      <trkpt lat="47.85265" lon="-2.7007">
        <ele>88.1</ele>
        <time>2016-10-28T07:50:57Z</time>
      </trkpt>
      <trkpt lat="47.85269" lon="-2.70054">
        <ele>88.58</ele>
        <time>2016-10-28T07:51:04Z</time>
      </trkpt>
      <trkpt lat="47.85274" lon="-2.70039">
        <ele>89.06</ele>
        <time>2016-10-28T07:51:10Z</time>
      </trkpt>
      <trkpt lat="47.85278" lon="-2.70028">
        <ele>89.06</ele>
        <time>2016-10-28T07:51:15Z</time>
      </trkpt>
      <trkpt lat="47.85285" lon="-2.70015">
        <ele>90.02</ele>
        <time>2016-10-28T07:51:21Z</time>
      </trkpt>
      <trkpt lat="47.85289" lon="-2.70003">
        <ele>90.5</ele>
        <time>2016-10-28T07:51:26Z</time>
      </trkpt>
      <trkpt lat="47.85293" lon="-2.69992">
        <ele>90.5</ele>
        <time>2016-10-28T07:51:31Z</time>
      </trkpt>
      <trkpt lat="47.85299" lon="-2.69981">
        <ele>90.98</ele>
        <time>2016-10-28T07:51:36Z</time>
      </trkpt>
      <trkpt lat="47.85304" lon="-2.69967">
        <ele>91.46</ele>
        <time>2016-10-28T07:51:42Z</time>
      </trkpt>
      <trkpt lat="47.8531" lon="-2.69954">
        <ele>91.94</ele>
        <time>2016-10-28T07:51:48Z</time>
      </trkpt>
      <trkpt lat="47.85316" lon="-2.69941">
        <ele>91.94</ele>
        <time>2016-10-28T07:51:54Z</time>
      </trkpt>
      <trkpt lat="47.8532" lon="-2.69929">
        <ele>91.94</ele>
        <time>2016-10-28T07:51:59Z</time>
      </trkpt>
      <trkpt lat="47.85324" lon="-2.69916">
        <ele>92.42</ele>
        <time>2016-10-28T07:52:05Z</time>
      </trkpt>
      <trkpt lat="47.85329" lon="-2.69904">
        <ele>92.42</ele>
        <time>2016-10-28T07:52:10Z</time>
      </trkpt>
      <trkpt lat="47.85334" lon="-2.69891">
        <ele>92.9</ele>
        <time>2016-10-28T07:52:16Z</time>
      </trkpt>
      <trkpt lat="47.8534" lon="-2.69878">
        <ele>92.9</ele>
        <time>2016-10-28T07:52:22Z</time>
      </trkpt>
      <trkpt lat="47.85345" lon="-2.69864">
        <ele>92.9</ele>
        <time>2016-10-28T07:52:28Z</time>
      </trkpt>
      <trkpt lat="47.85351" lon="-2.69851">
        <ele>92.9</ele>
        <time>2016-10-28T07:52:34Z</time>
      </trkpt>
      <trkpt lat="47.85355" lon="-2.69838">
        <ele>92.9</ele>
        <time>2016-10-28T07:52:40Z</time>
      </trkpt>
      <trkpt lat="47.8536" lon="-2.69824">
        <ele>92.9</ele>
        <time>2016-10-28T07:52:46Z</time>
      </trkpt>
      <trkpt lat="47.85365" lon="-2.6981">
        <ele>92.42</ele>
        <time>2016-10-28T07:52:53Z</time>
      </trkpt>
      <trkpt lat="47.85372" lon="-2.69796">
        <ele>92.9</ele>
        <time>2016-10-28T07:52:59Z</time>
      </trkpt>
      <trkpt lat="47.85377" lon="-2.69784">
        <ele>92.9</ele>
        <time>2016-10-28T07:53:05Z</time>
      </trkpt>
      <trkpt lat="47.85382" lon="-2.6977">
        <ele>92.9</ele>
        <time>2016-10-28T07:53:11Z</time>
      </trkpt>
      <trkpt lat="47.85387" lon="-2.69756">
        <ele>92.9</ele>
        <time>2016-10-28T07:53:17Z</time>
      </trkpt>
      <trkpt lat="47.85394" lon="-2.69743">
        <ele>92.9</ele>
        <time>2016-10-28T07:53:23Z</time>
      </trkpt>
      <trkpt lat="47.85399" lon="-2.6973">
        <ele>93.39</ele>
        <time>2016-10-28T07:53:29Z</time>
      </trkpt>
      <trkpt lat="47.85407" lon="-2.6972">
        <ele>93.39</ele>
        <time>2016-10-28T07:53:35Z</time>
      </trkpt>
      <trkpt lat="47.85414" lon="-2.69723">
        <ele>92.42</ele>
        <time>2016-10-28T07:53:41Z</time>
      </trkpt>
      <trkpt lat="47.8542" lon="-2.69732">
        <ele>92.42</ele>
        <time>2016-10-28T07:53:47Z</time>
      </trkpt>
      <trkpt lat="47.85427" lon="-2.69741">
        <ele>91.46</ele>
        <time>2016-10-28T07:53:55Z</time>
      </trkpt>
      <trkpt lat="47.85436" lon="-2.69729">
        <ele>91.46</ele>
        <time>2016-10-28T07:54:06Z</time>
      </trkpt>
      <trkpt lat="47.85446" lon="-2.69714">
        <ele>91.46</ele>
        <time>2016-10-28T07:54:13Z</time>
      </trkpt>
      <trkpt lat="47.85453" lon="-2.697">
        <ele>91.46</ele>
        <time>2016-10-28T07:54:23Z</time>
      </trkpt>
      <trkpt lat="47.85462" lon="-2.69684">
        <ele>91.46</ele>
        <time>2016-10-28T07:54:31Z</time>
      </trkpt>
      <trkpt lat="47.8547" lon="-2.69666">
        <ele>90.98</ele>
        <time>2016-10-28T07:54:39Z</time>
      </trkpt>
      <trkpt lat="47.85477" lon="-2.69649">
        <ele>91.46</ele>
        <time>2016-10-28T07:54:47Z</time>
      </trkpt>
      <trkpt lat="47.85487" lon="-2.69637">
        <ele>90.98</ele>
        <time>2016-10-28T07:54:56Z</time>
      </trkpt>
      <trkpt lat="47.85496" lon="-2.6962">
        <ele>90.5</ele>
        <time>2016-10-28T07:55:03Z</time>
      </trkpt>
      <trkpt lat="47.85504" lon="-2.69606">
        <ele>90.02</ele>
        <time>2016-10-28T07:55:09Z</time>
      </trkpt>
      <trkpt lat="47.85506" lon="-2.69589">
        <ele>90.02</ele>
        <time>2016-10-28T07:55:16Z</time>
      </trkpt>
      <trkpt lat="47.85504" lon="-2.69572">
        <ele>90.02</ele>
        <time>2016-10-28T07:55:24Z</time>
      </trkpt>
      <trkpt lat="47.85501" lon="-2.69553">
        <ele>90.5</ele>
        <time>2016-10-28T07:55:31Z</time>
      </trkpt>
      <trkpt lat="47.85496" lon="-2.69537">
        <ele>91.46</ele>
        <time>2016-10-28T07:55:37Z</time>
      </trkpt>
      <trkpt lat="47.85498" lon="-2.69521">
        <ele>91.46</ele>
        <time>2016-10-28T07:55:43Z</time>
      </trkpt>
      <trkpt lat="47.85504" lon="-2.69508">
        <ele>91.46</ele>
        <time>2016-10-28T07:55:50Z</time>
      </trkpt>
      <trkpt lat="47.85506" lon="-2.6949">
        <ele>91.46</ele>
        <time>2016-10-28T07:55:59Z</time>
      </trkpt>
      <trkpt lat="47.85512" lon="-2.69471">
        <ele>91.94</ele>
        <time>2016-10-28T07:56:09Z</time>
      </trkpt>
      <trkpt lat="47.85517" lon="-2.69456">
        <ele>90.98</ele>
        <time>2016-10-28T07:56:18Z</time>
      </trkpt>
      <trkpt lat="47.85531" lon="-2.69446">
        <ele>90.5</ele>
        <time>2016-10-28T07:56:27Z</time>
      </trkpt>
      <trkpt lat="47.85543" lon="-2.69439">
        <ele>90.5</ele>
        <time>2016-10-28T07:56:34Z</time>
      </trkpt>
      <trkpt lat="47.85554" lon="-2.69443">
        <ele>90.02</ele>
        <time>2016-10-28T07:56:42Z</time>
      </trkpt>
      <trkpt lat="47.85565" lon="-2.69438">
        <ele>89.06</ele>
        <time>2016-10-28T07:56:50Z</time>
      </trkpt>
      <trkpt lat="47.85572" lon="-2.69418">
        <ele>89.54</ele>
        <time>2016-10-28T07:56:57Z</time>
      </trkpt>
      <trkpt lat="47.85578" lon="-2.69399">
        <ele>90.5</ele>
        <time>2016-10-28T07:57:05Z</time>
      </trkpt>
      <trkpt lat="47.8558" lon="-2.69382">
        <ele>90.5</ele>
        <time>2016-10-28T07:57:13Z</time>
      </trkpt>
      <trkpt lat="47.85587" lon="-2.69363">
        <ele>90.98</ele>
        <time>2016-10-28T07:57:21Z</time>
      </trkpt>
      <trkpt lat="47.85594" lon="-2.69346">
        <ele>90.98</ele>
        <time>2016-10-28T07:57:27Z</time>
      </trkpt>
      <trkpt lat="47.85599" lon="-2.69332">
        <ele>90.98</ele>
        <time>2016-10-28T07:57:33Z</time>
      </trkpt>
      <trkpt lat="47.85603" lon="-2.69316">
        <ele>90.98</ele>
        <time>2016-10-28T07:57:41Z</time>
      </trkpt>
      <trkpt lat="47.85608" lon="-2.69298">
        <ele>90.5</ele>
        <time>2016-10-28T07:57:48Z</time>
      </trkpt>
      <trkpt lat="47.85611" lon="-2.6928">
        <ele>90.5</ele>
        <time>2016-10-28T07:57:56Z</time>
      </trkpt>
      <trkpt lat="47.85615" lon="-2.69264">
        <ele>90.02</ele>
        <time>2016-10-28T07:58:07Z</time>
      </trkpt>
      <trkpt lat="47.85629" lon="-2.69247">
        <ele>89.54</ele>
        <time>2016-10-28T07:58:16Z</time>
      </trkpt>
      <trkpt lat="47.85636" lon="-2.6923">
        <ele>89.54</ele>
        <time>2016-10-28T07:58:24Z</time>
      </trkpt>
      <trkpt lat="47.85643" lon="-2.69214">
        <ele>90.02</ele>
        <time>2016-10-28T07:58:30Z</time>
      </trkpt>
      <trkpt lat="47.85644" lon="-2.69197">
        <ele>90.02</ele>
        <time>2016-10-28T07:58:37Z</time>
      </trkpt>
      <trkpt lat="47.85641" lon="-2.69178">
        <ele>90.02</ele>
        <time>2016-10-28T07:58:44Z</time>
      </trkpt>
      <trkpt lat="47.85637" lon="-2.69159">
        <ele>90.02</ele>
        <time>2016-10-28T07:58:51Z</time>
      </trkpt>
      <trkpt lat="47.85637" lon="-2.69141">
        <ele>90.02</ele>
        <time>2016-10-28T07:58:58Z</time>
      </trkpt>
      <trkpt lat="47.85634" lon="-2.69124">
        <ele>90.5</ele>
        <time>2016-10-28T07:59:05Z</time>
      </trkpt>
      <trkpt lat="47.85627" lon="-2.69107">
        <ele>90.5</ele>
        <time>2016-10-28T07:59:14Z</time>
      </trkpt>
      <trkpt lat="47.85634" lon="-2.69094">
        <ele>90.5</ele>
        <time>2016-10-28T07:59:25Z</time>
      </trkpt>
      <trkpt lat="47.85642" lon="-2.69078">
        <ele>90.5</ele>
        <time>2016-10-28T07:59:31Z</time>
      </trkpt>
      <trkpt lat="47.85654" lon="-2.69068">
        <ele>90.98</ele>
        <time>2016-10-28T07:59:44Z</time>
      </trkpt>
      <trkpt lat="47.85663" lon="-2.69062">
        <ele>92.9</ele>
        <time>2016-10-28T07:59:54Z</time>
      </trkpt>
      <trkpt lat="47.85658" lon="-2.69051">
        <ele>93.39</ele>
        <time>2016-10-28T08:00:01Z</time>
      </trkpt>
      <trkpt lat="47.85654" lon="-2.69047">
        <ele>92.42</ele>
        <time>2016-10-28T08:01:09Z</time>
      </trkpt>
      <trkpt lat="47.85651" lon="-2.69033">
        <ele>91.94</ele>
        <time>2016-10-28T08:11:44Z</time>
      </trkpt>
      <trkpt lat="47.85649" lon="-2.69017">
        <ele>91.94</ele>
        <time>2016-10-28T08:11:53Z</time>
      </trkpt>
      <trkpt lat="47.8565" lon="-2.69001">
        <ele>91.94</ele>
        <time>2016-10-28T08:12:08Z</time>
      </trkpt>
      <trkpt lat="47.85651" lon="-2.68986">
        <ele>91.94</ele>
        <time>2016-10-28T08:12:14Z</time>
      </trkpt>
      <trkpt lat="47.8565" lon="-2.68972">
        <ele>93.39</ele>
        <time>2016-10-28T08:12:31Z</time>
      </trkpt>
      <trkpt lat="47.8565" lon="-2.68956">
        <ele>91.46</ele>
        <time>2016-10-28T08:12:39Z</time>
      </trkpt>
      <trkpt lat="47.85651" lon="-2.68937">
        <ele>91.94</ele>
        <time>2016-10-28T08:12:47Z</time>
      </trkpt>
      <trkpt lat="47.85654" lon="-2.68922">
        <ele>91.94</ele>
        <time>2016-10-28T08:12:53Z</time>
      </trkpt>
      <trkpt lat="47.85659" lon="-2.6891">
        <ele>92.9</ele>
        <time>2016-10-28T08:12:59Z</time>
      </trkpt>
      <trkpt lat="47.85665" lon="-2.68896">
        <ele>93.39</ele>
        <time>2016-10-28T08:13:06Z</time>
      </trkpt>
      <trkpt lat="47.85672" lon="-2.68887">
        <ele>93.39</ele>
        <time>2016-10-28T08:13:12Z</time>
      </trkpt>
      <trkpt lat="47.85677" lon="-2.68874">
        <ele>92.9</ele>
        <time>2016-10-28T08:13:18Z</time>
      </trkpt>
      <trkpt lat="47.85682" lon="-2.68861">
        <ele>92.9</ele>
        <time>2016-10-28T08:13:26Z</time>
      </trkpt>
      <trkpt lat="47.85688" lon="-2.68846">
        <ele>92.9</ele>
        <time>2016-10-28T08:13:34Z</time>
      </trkpt>
      <trkpt lat="47.85693" lon="-2.68835">
        <ele>92.9</ele>
        <time>2016-10-28T08:13:40Z</time>
      </trkpt>
      <trkpt lat="47.857" lon="-2.68827">
        <ele>92.9</ele>
        <time>2016-10-28T08:13:48Z</time>
      </trkpt>
      <trkpt lat="47.85709" lon="-2.68831">
        <ele>95.31</ele>
        <time>2016-10-28T08:13:56Z</time>
      </trkpt>
      <trkpt lat="47.85718" lon="-2.68824">
        <ele>96.27</ele>
        <time>2016-10-28T08:14:04Z</time>
      </trkpt>
      <trkpt lat="47.85727" lon="-2.68814">
        <ele>96.27</ele>
        <time>2016-10-28T08:14:11Z</time>
      </trkpt>
      <trkpt lat="47.85734" lon="-2.68801">
        <ele>96.75</ele>
        <time>2016-10-28T08:14:17Z</time>
      </trkpt>
      <trkpt lat="47.85741" lon="-2.68789">
        <ele>96.75</ele>
        <time>2016-10-28T08:14:23Z</time>
      </trkpt>
      <trkpt lat="47.85747" lon="-2.68774">
        <ele>97.23</ele>
        <time>2016-10-28T08:14:30Z</time>
      </trkpt>
      <trkpt lat="47.85752" lon="-2.6876">
        <ele>97.71</ele>
        <time>2016-10-28T08:14:38Z</time>
      </trkpt>
      <trkpt lat="47.85759" lon="-2.68744">
        <ele>97.71</ele>
        <time>2016-10-28T08:14:46Z</time>
      </trkpt>
      <trkpt lat="47.85764" lon="-2.6873">
        <ele>97.71</ele>
        <time>2016-10-28T08:14:52Z</time>
      </trkpt>
      <trkpt lat="47.85771" lon="-2.68714">
        <ele>98.19</ele>
        <time>2016-10-28T08:14:59Z</time>
      </trkpt>
      <trkpt lat="47.85776" lon="-2.68699">
        <ele>98.67</ele>
        <time>2016-10-28T08:15:06Z</time>
      </trkpt>
      <trkpt lat="47.85783" lon="-2.68687">
        <ele>98.67</ele>
        <time>2016-10-28T08:15:12Z</time>
      </trkpt>
      <trkpt lat="47.85789" lon="-2.68672">
        <ele>98.67</ele>
        <time>2016-10-28T08:15:18Z</time>
      </trkpt>
      <trkpt lat="47.85796" lon="-2.68659">
        <ele>99.15</ele>
        <time>2016-10-28T08:15:24Z</time>
      </trkpt>
      <trkpt lat="47.85805" lon="-2.68645">
        <ele>99.15</ele>
        <time>2016-10-28T08:15:31Z</time>
      </trkpt>
      <trkpt lat="47.85813" lon="-2.68635">
        <ele>99.63</ele>
        <time>2016-10-28T08:15:37Z</time>
      </trkpt>
      <trkpt lat="47.85822" lon="-2.68623">
        <ele>99.63</ele>
        <time>2016-10-28T08:15:43Z</time>
      </trkpt>
      <trkpt lat="47.85831" lon="-2.68611">
        <ele>100.11</ele>
        <time>2016-10-28T08:15:49Z</time>
      </trkpt>
      <trkpt lat="47.85838" lon="-2.68599">
        <ele>100.11</ele>
        <time>2016-10-28T08:15:56Z</time>
      </trkpt>
      <trkpt lat="47.85847" lon="-2.68587">
        <ele>100.6</ele>
        <time>2016-10-28T08:16:02Z</time>
      </trkpt>
      <trkpt lat="47.85855" lon="-2.68578">
        <ele>100.6</ele>
        <time>2016-10-28T08:16:08Z</time>
      </trkpt>
      <trkpt lat="47.85863" lon="-2.68566">
        <ele>100.6</ele>
        <time>2016-10-28T08:16:14Z</time>
      </trkpt>
      <trkpt lat="47.85872" lon="-2.68555">
        <ele>100.6</ele>
        <time>2016-10-28T08:16:21Z</time>
      </trkpt>
      <trkpt lat="47.85881" lon="-2.68542">
        <ele>100.6</ele>
        <time>2016-10-28T08:16:28Z</time>
      </trkpt>
      <trkpt lat="47.85891" lon="-2.68533">
        <ele>101.08</ele>
        <time>2016-10-28T08:16:34Z</time>
      </trkpt>
      <trkpt lat="47.859" lon="-2.68522">
        <ele>101.08</ele>
        <time>2016-10-28T08:16:40Z</time>
      </trkpt>
      <trkpt lat="47.85908" lon="-2.68514">
        <ele>101.08</ele>
        <time>2016-10-28T08:16:47Z</time>
      </trkpt>
      <trkpt lat="47.85916" lon="-2.68521">
        <ele>102.04</ele>
        <time>2016-10-28T08:16:55Z</time>
      </trkpt>
      <trkpt lat="47.85923" lon="-2.68529">
        <ele>102.52</ele>
        <time>2016-10-28T08:17:02Z</time>
      </trkpt>
      <trkpt lat="47.85932" lon="-2.68537">
        <ele>103.48</ele>
        <time>2016-10-28T08:17:08Z</time>
      </trkpt>
      <trkpt lat="47.8594" lon="-2.68548">
        <ele>103.96</ele>
        <time>2016-10-28T08:17:14Z</time>
      </trkpt>
      <trkpt lat="47.85947" lon="-2.68558">
        <ele>104.92</ele>
        <time>2016-10-28T08:17:20Z</time>
      </trkpt>
      <trkpt lat="47.85953" lon="-2.68567">
        <ele>105.4</ele>
        <time>2016-10-28T08:17:25Z</time>
      </trkpt>
      <trkpt lat="47.85962" lon="-2.68573">
        <ele>105.88</ele>
        <time>2016-10-28T08:17:32Z</time>
      </trkpt>
      <trkpt lat="47.8597" lon="-2.68582">
        <ele>106.36</ele>
        <time>2016-10-28T08:17:38Z</time>
      </trkpt>
      <trkpt lat="47.85979" lon="-2.68592">
        <ele>107.32</ele>
        <time>2016-10-28T08:17:44Z</time>
      </trkpt>
      <trkpt lat="47.85987" lon="-2.68601">
        <ele>108.29</ele>
        <time>2016-10-28T08:17:50Z</time>
      </trkpt>
      <trkpt lat="47.85994" lon="-2.6861">
        <ele>108.77</ele>
        <time>2016-10-28T08:17:56Z</time>
      </trkpt>
      <trkpt lat="47.86002" lon="-2.68619">
        <ele>109.25</ele>
        <time>2016-10-28T08:18:02Z</time>
      </trkpt>
      <trkpt lat="47.8601" lon="-2.68628">
        <ele>110.21</ele>
        <time>2016-10-28T08:18:08Z</time>
      </trkpt>
      <trkpt lat="47.86018" lon="-2.68638">
        <ele>111.17</ele>
        <time>2016-10-28T08:18:14Z</time>
      </trkpt>
      <trkpt lat="47.86027" lon="-2.68649">
        <ele>111.65</ele>
        <time>2016-10-28T08:18:21Z</time>
      </trkpt>
      <trkpt lat="47.86034" lon="-2.68659">
        <ele>112.13</ele>
        <time>2016-10-28T08:18:27Z</time>
      </trkpt>
      <trkpt lat="47.86043" lon="-2.68668">
        <ele>114.53</ele>
        <time>2016-10-28T08:18:33Z</time>
      </trkpt>
      <trkpt lat="47.86051" lon="-2.68676">
        <ele>113.57</ele>
        <time>2016-10-28T08:18:39Z</time>
      </trkpt>
      <trkpt lat="47.86059" lon="-2.68685">
        <ele>114.53</ele>
        <time>2016-10-28T08:18:45Z</time>
      </trkpt>
      <trkpt lat="47.86067" lon="-2.68686">
        <ele>115.01</ele>
        <time>2016-10-28T08:18:52Z</time>
      </trkpt>
      <trkpt lat="47.86072" lon="-2.68672">
        <ele>114.53</ele>
        <time>2016-10-28T08:18:59Z</time>
      </trkpt>
      <trkpt lat="47.86075" lon="-2.68657">
        <ele>114.53</ele>
        <time>2016-10-28T08:19:05Z</time>
      </trkpt>
      <trkpt lat="47.86077" lon="-2.68643">
        <ele>114.05</ele>
        <time>2016-10-28T08:19:13Z</time>
      </trkpt>
      <trkpt lat="47.86079" lon="-2.68628">
        <ele>114.05</ele>
        <time>2016-10-28T08:19:19Z</time>
      </trkpt>
      <trkpt lat="47.8608" lon="-2.68612">
        <ele>113.57</ele>
        <time>2016-10-28T08:19:25Z</time>
      </trkpt>
      <trkpt lat="47.86082" lon="-2.68598">
        <ele>113.09</ele>
        <time>2016-10-28T08:19:30Z</time>
      </trkpt>
      <trkpt lat="47.86083" lon="-2.68583">
        <ele>113.09</ele>
        <time>2016-10-28T08:19:35Z</time>
      </trkpt>
      <trkpt lat="47.86085" lon="-2.68568">
        <ele>112.61</ele>
        <time>2016-10-28T08:19:41Z</time>
      </trkpt>
      <trkpt lat="47.86087" lon="-2.68552">
        <ele>112.13</ele>
        <time>2016-10-28T08:19:47Z</time>
      </trkpt>
      <trkpt lat="47.86089" lon="-2.68537">
        <ele>111.65</ele>
        <time>2016-10-28T08:19:53Z</time>
      </trkpt>
      <trkpt lat="47.8609" lon="-2.68523">
        <ele>111.17</ele>
        <time>2016-10-28T08:19:58Z</time>
      </trkpt>
      <trkpt lat="47.86089" lon="-2.68508">
        <ele>110.69</ele>
        <time>2016-10-28T08:20:05Z</time>
      </trkpt>
      <trkpt lat="47.86088" lon="-2.68492">
        <ele>109.73</ele>
        <time>2016-10-28T08:20:11Z</time>
      </trkpt>
      <trkpt lat="47.86086" lon="-2.68479">
        <ele>109.25</ele>
        <time>2016-10-28T08:20:16Z</time>
      </trkpt>
      <trkpt lat="47.86083" lon="-2.68463">
        <ele>108.77</ele>
        <time>2016-10-28T08:20:22Z</time>
      </trkpt>
      <trkpt lat="47.86079" lon="-2.68449">
        <ele>108.29</ele>
        <time>2016-10-28T08:20:28Z</time>
      </trkpt>
      <trkpt lat="47.86078" lon="-2.68434">
        <ele>108.29</ele>
        <time>2016-10-28T08:20:34Z</time>
      </trkpt>
      <trkpt lat="47.86074" lon="-2.68419">
        <ele>106.36</ele>
        <time>2016-10-28T08:20:40Z</time>
      </trkpt>
      <trkpt lat="47.86073" lon="-2.68405">
        <ele>105.88</ele>
        <time>2016-10-28T08:20:46Z</time>
      </trkpt>
      <trkpt lat="47.86071" lon="-2.68387">
        <ele>104.92</ele>
        <time>2016-10-28T08:20:53Z</time>
      </trkpt>
      <trkpt lat="47.86067" lon="-2.6837">
        <ele>103.96</ele>
        <time>2016-10-28T08:21:00Z</time>
      </trkpt>
      <trkpt lat="47.86065" lon="-2.68354">
        <ele>103.48</ele>
        <time>2016-10-28T08:21:07Z</time>
      </trkpt>
      <trkpt lat="47.86065" lon="-2.68336">
        <ele>103</ele>
        <time>2016-10-28T08:21:13Z</time>
      </trkpt>
      <trkpt lat="47.86063" lon="-2.6832">
        <ele>102.52</ele>
        <time>2016-10-28T08:21:19Z</time>
      </trkpt>
      <trkpt lat="47.86063" lon="-2.68305">
        <ele>102.52</ele>
        <time>2016-10-28T08:21:25Z</time>
      </trkpt>
      <trkpt lat="47.86064" lon="-2.68288">
        <ele>103</ele>
        <time>2016-10-28T08:21:32Z</time>
      </trkpt>
      <trkpt lat="47.86066" lon="-2.68274">
        <ele>103.48</ele>
        <time>2016-10-28T08:21:37Z</time>
      </trkpt>
      <trkpt lat="47.86069" lon="-2.68257">
        <ele>103.96</ele>
        <time>2016-10-28T08:21:43Z</time>
      </trkpt>
      <trkpt lat="47.8607" lon="-2.68241">
        <ele>103.96</ele>
        <time>2016-10-28T08:21:49Z</time>
      </trkpt>
      <trkpt lat="47.86073" lon="-2.68228">
        <ele>104.44</ele>
        <time>2016-10-28T08:21:54Z</time>
      </trkpt>
      <trkpt lat="47.86078" lon="-2.68213">
        <ele>104.92</ele>
        <time>2016-10-28T08:21:58Z</time>
      </trkpt>
      <trkpt lat="47.86084" lon="-2.682">
        <ele>105.4</ele>
        <time>2016-10-28T08:22:01Z</time>
      </trkpt>
      <trkpt lat="47.86091" lon="-2.68188">
        <ele>105.88</ele>
        <time>2016-10-28T08:22:04Z</time>
      </trkpt>
      <trkpt lat="47.86099" lon="-2.68174">
        <ele>106.84</ele>
        <time>2016-10-28T08:22:08Z</time>
      </trkpt>
      <trkpt lat="47.86107" lon="-2.68158">
        <ele>106.84</ele>
        <time>2016-10-28T08:22:12Z</time>
      </trkpt>
      <trkpt lat="47.86116" lon="-2.68146">
        <ele>107.32</ele>
        <time>2016-10-28T08:22:16Z</time>
      </trkpt>
      <trkpt lat="47.86123" lon="-2.68134">
        <ele>107.81</ele>
        <time>2016-10-28T08:22:19Z</time>
      </trkpt>
      <trkpt lat="47.86131" lon="-2.68116">
        <ele>107.32</ele>
        <time>2016-10-28T08:22:23Z</time>
      </trkpt>
      <trkpt lat="47.86136" lon="-2.681">
        <ele>106.84</ele>
        <time>2016-10-28T08:22:26Z</time>
      </trkpt>
      <trkpt lat="47.86142" lon="-2.68081">
        <ele>106.36</ele>
        <time>2016-10-28T08:22:29Z</time>
      </trkpt>
      <trkpt lat="47.86148" lon="-2.68064">
        <ele>107.81</ele>
        <time>2016-10-28T08:22:32Z</time>
      </trkpt>
      <trkpt lat="47.86155" lon="-2.68046">
        <ele>109.73</ele>
        <time>2016-10-28T08:22:35Z</time>
      </trkpt>
      <trkpt lat="47.86161" lon="-2.68027">
        <ele>109.25</ele>
        <time>2016-10-28T08:22:38Z</time>
      </trkpt>
      <trkpt lat="47.86166" lon="-2.68013">
        <ele>109.73</ele>
        <time>2016-10-28T08:22:40Z</time>
      </trkpt>
      <trkpt lat="47.86172" lon="-2.67999">
        <ele>109.73</ele>
        <time>2016-10-28T08:22:42Z</time>
      </trkpt>
      <trkpt lat="47.86176" lon="-2.67985">
        <ele>110.69</ele>
        <time>2016-10-28T08:22:44Z</time>
      </trkpt>
      <trkpt lat="47.86181" lon="-2.67972">
        <ele>111.17</ele>
        <time>2016-10-28T08:22:46Z</time>
      </trkpt>
      <trkpt lat="47.86185" lon="-2.67957">
        <ele>111.17</ele>
        <time>2016-10-28T08:22:48Z</time>
      </trkpt>
      <trkpt lat="47.8619" lon="-2.67942">
        <ele>111.17</ele>
        <time>2016-10-28T08:22:50Z</time>
      </trkpt>
      <trkpt lat="47.86197" lon="-2.67926">
        <ele>111.65</ele>
        <time>2016-10-28T08:22:52Z</time>
      </trkpt>
      <trkpt lat="47.86203" lon="-2.6791">
        <ele>112.13</ele>
        <time>2016-10-28T08:22:54Z</time>
      </trkpt>
      <trkpt lat="47.86208" lon="-2.67897">
        <ele>112.13</ele>
        <time>2016-10-28T08:22:56Z</time>
      </trkpt>
      <trkpt lat="47.86212" lon="-2.67885">
        <ele>112.13</ele>
        <time>2016-10-28T08:22:58Z</time>
      </trkpt>
      <trkpt lat="47.86222" lon="-2.67876">
        <ele>112.61</ele>
        <time>2016-10-28T08:23:01Z</time>
      </trkpt>
      <trkpt lat="47.86234" lon="-2.6788">
        <ele>113.57</ele>
        <time>2016-10-28T08:23:04Z</time>
      </trkpt>
      <trkpt lat="47.86244" lon="-2.67886">
        <ele>113.09</ele>
        <time>2016-10-28T08:23:06Z</time>
      </trkpt>
      <trkpt lat="47.86255" lon="-2.67892">
        <ele>113.57</ele>
        <time>2016-10-28T08:23:08Z</time>
      </trkpt>
      <trkpt lat="47.86266" lon="-2.67898">
        <ele>114.05</ele>
        <time>2016-10-28T08:23:10Z</time>
      </trkpt>
      <trkpt lat="47.86278" lon="-2.67903">
        <ele>113.57</ele>
        <time>2016-10-28T08:23:12Z</time>
      </trkpt>
      <trkpt lat="47.8629" lon="-2.6791">
        <ele>114.53</ele>
        <time>2016-10-28T08:23:14Z</time>
      </trkpt>
      <trkpt lat="47.86302" lon="-2.67917">
        <ele>114.53</ele>
        <time>2016-10-28T08:23:16Z</time>
      </trkpt>
      <trkpt lat="47.86314" lon="-2.67924">
        <ele>114.53</ele>
        <time>2016-10-28T08:23:18Z</time>
      </trkpt>
      <trkpt lat="47.86326" lon="-2.67931">
        <ele>115.01</ele>
        <time>2016-10-28T08:23:20Z</time>
      </trkpt>
      <trkpt lat="47.86337" lon="-2.67936">
        <ele>115.01</ele>
        <time>2016-10-28T08:23:22Z</time>
      </trkpt>
      <trkpt lat="47.86349" lon="-2.67942">
        <ele>115.01</ele>
        <time>2016-10-28T08:23:24Z</time>
      </trkpt>
      <trkpt lat="47.86362" lon="-2.67948">
        <ele>115.5</ele>
        <time>2016-10-28T08:23:26Z</time>
      </trkpt>
      <trkpt lat="47.86374" lon="-2.67954">
        <ele>115.98</ele>
        <time>2016-10-28T08:23:28Z</time>
      </trkpt>
      <trkpt lat="47.86386" lon="-2.67961">
        <ele>115.98</ele>
        <time>2016-10-28T08:23:30Z</time>
      </trkpt>
      <trkpt lat="47.86398" lon="-2.67967">
        <ele>115.98</ele>
        <time>2016-10-28T08:23:32Z</time>
      </trkpt>
      <trkpt lat="47.86409" lon="-2.67972">
        <ele>116.46</ele>
        <time>2016-10-28T08:23:34Z</time>
      </trkpt>
      <trkpt lat="47.8642" lon="-2.67977">
        <ele>116.94</ele>
        <time>2016-10-28T08:23:36Z</time>
      </trkpt>
      <trkpt lat="47.86431" lon="-2.67982">
        <ele>117.42</ele>
        <time>2016-10-28T08:23:38Z</time>
      </trkpt>
      <trkpt lat="47.86441" lon="-2.67987">
        <ele>117.9</ele>
        <time>2016-10-28T08:23:40Z</time>
      </trkpt>
      <trkpt lat="47.8645" lon="-2.67992">
        <ele>117.9</ele>
        <time>2016-10-28T08:23:42Z</time>
      </trkpt>
      <trkpt lat="47.86462" lon="-2.67997">
        <ele>118.38</ele>
        <time>2016-10-28T08:23:45Z</time>
      </trkpt>
      <trkpt lat="47.86472" lon="-2.68002">
        <ele>118.86</ele>
        <time>2016-10-28T08:23:48Z</time>
      </trkpt>
      <trkpt lat="47.86481" lon="-2.68007">
        <ele>119.34</ele>
        <time>2016-10-28T08:23:52Z</time>
      </trkpt>
      <trkpt lat="47.86489" lon="-2.68015">
        <ele>119.34</ele>
        <time>2016-10-28T08:23:58Z</time>
      </trkpt>
      <trkpt lat="47.86498" lon="-2.6802">
        <ele>120.3</ele>
        <time>2016-10-28T08:24:05Z</time>
      </trkpt>
      <trkpt lat="47.86508" lon="-2.68026">
        <ele>120.3</ele>
        <time>2016-10-28T08:24:11Z</time>
      </trkpt>
      <trkpt lat="47.86518" lon="-2.68031">
        <ele>120.78</ele>
        <time>2016-10-28T08:24:17Z</time>
      </trkpt>
      <trkpt lat="47.86528" lon="-2.68035">
        <ele>120.78</ele>
        <time>2016-10-28T08:24:23Z</time>
      </trkpt>
      <trkpt lat="47.86537" lon="-2.68036">
        <ele>120.3</ele>
        <time>2016-10-28T08:24:29Z</time>
      </trkpt>
      <trkpt lat="47.86546" lon="-2.68035">
        <ele>120.3</ele>
        <time>2016-10-28T08:24:36Z</time>
      </trkpt>
      <trkpt lat="47.86557" lon="-2.68037">
        <ele>117.9</ele>
        <time>2016-10-28T08:24:43Z</time>
      </trkpt>
      <trkpt lat="47.86569" lon="-2.68041">
        <ele>116.94</ele>
        <time>2016-10-28T08:24:50Z</time>
      </trkpt>
      <trkpt lat="47.86579" lon="-2.68044">
        <ele>116.46</ele>
        <time>2016-10-28T08:24:56Z</time>
      </trkpt>
      <trkpt lat="47.86589" lon="-2.68047">
        <ele>115.5</ele>
        <time>2016-10-28T08:25:02Z</time>
      </trkpt>
      <trkpt lat="47.86599" lon="-2.68049">
        <ele>115.01</ele>
        <time>2016-10-28T08:25:09Z</time>
      </trkpt>
      <trkpt lat="47.8661" lon="-2.68057">
        <ele>113.57</ele>
        <time>2016-10-28T08:25:33Z</time>
      </trkpt>
      <trkpt lat="47.86623" lon="-2.68054">
        <ele>111.65</ele>
        <time>2016-10-28T08:25:52Z</time>
      </trkpt>
      <trkpt lat="47.86634" lon="-2.68047">
        <ele>111.17</ele>
        <time>2016-10-28T08:25:58Z</time>
      </trkpt>
      <trkpt lat="47.8665" lon="-2.68037">
        <ele>110.21</ele>
        <time>2016-10-28T08:26:07Z</time>
      </trkpt>
      <trkpt lat="47.86665" lon="-2.68022">
        <ele>108.77</ele>
        <time>2016-10-28T08:26:15Z</time>
      </trkpt>
      <trkpt lat="47.86672" lon="-2.68007">
        <ele>108.77</ele>
        <time>2016-10-28T08:26:22Z</time>
      </trkpt>
      <trkpt lat="47.86675" lon="-2.67988">
        <ele>108.29</ele>
        <time>2016-10-28T08:26:30Z</time>
      </trkpt>
      <trkpt lat="47.86677" lon="-2.67972">
        <ele>108.29</ele>
        <time>2016-10-28T08:26:37Z</time>
      </trkpt>
      <trkpt lat="47.8668" lon="-2.67954">
        <ele>106.36</ele>
        <time>2016-10-28T08:26:43Z</time>
      </trkpt>
      <trkpt lat="47.86682" lon="-2.67939">
        <ele>105.88</ele>
        <time>2016-10-28T08:26:49Z</time>
      </trkpt>
      <trkpt lat="47.86684" lon="-2.67923">
        <ele>105.4</ele>
        <time>2016-10-28T08:26:56Z</time>
      </trkpt>
      <trkpt lat="47.86686" lon="-2.67903">
        <ele>104.92</ele>
        <time>2016-10-28T08:27:03Z</time>
      </trkpt>
      <trkpt lat="47.86688" lon="-2.67889">
        <ele>104.92</ele>
        <time>2016-10-28T08:27:09Z</time>
      </trkpt>
      <trkpt lat="47.86696" lon="-2.67884">
        <ele>104.44</ele>
        <time>2016-10-28T08:27:17Z</time>
      </trkpt>
      <trkpt lat="47.86706" lon="-2.67885">
        <ele>104.44</ele>
        <time>2016-10-28T08:27:23Z</time>
      </trkpt>
      <trkpt lat="47.86717" lon="-2.67886">
        <ele>104.92</ele>
        <time>2016-10-28T08:27:30Z</time>
      </trkpt>
      <trkpt lat="47.86727" lon="-2.67887">
        <ele>104.92</ele>
        <time>2016-10-28T08:27:37Z</time>
      </trkpt>
      <trkpt lat="47.86739" lon="-2.67891">
        <ele>104.92</ele>
        <time>2016-10-28T08:27:42Z</time>
      </trkpt>
      <trkpt lat="47.86749" lon="-2.67893">
        <ele>105.4</ele>
        <time>2016-10-28T08:27:47Z</time>
      </trkpt>
      <trkpt lat="47.86757" lon="-2.67902">
        <ele>105.88</ele>
        <time>2016-10-28T08:27:54Z</time>
      </trkpt>
      <trkpt lat="47.86765" lon="-2.67913">
        <ele>106.36</ele>
        <time>2016-10-28T08:28:01Z</time>
      </trkpt>
      <trkpt lat="47.86774" lon="-2.67919">
        <ele>106.84</ele>
        <time>2016-10-28T08:28:07Z</time>
      </trkpt>
      <trkpt lat="47.86785" lon="-2.67922">
        <ele>107.32</ele>
        <time>2016-10-28T08:28:14Z</time>
      </trkpt>
      <trkpt lat="47.86796" lon="-2.67924">
        <ele>108.77</ele>
        <time>2016-10-28T08:28:24Z</time>
      </trkpt>
      <trkpt lat="47.86809" lon="-2.67924">
        <ele>111.17</ele>
        <time>2016-10-28T08:28:34Z</time>
      </trkpt>
      <trkpt lat="47.86829" lon="-2.67925">
        <ele>112.61</ele>
        <time>2016-10-28T08:28:44Z</time>
      </trkpt>
      <trkpt lat="47.86841" lon="-2.67924">
        <ele>114.05</ele>
        <time>2016-10-28T08:28:51Z</time>
      </trkpt>
      <trkpt lat="47.86854" lon="-2.67922">
        <ele>115.5</ele>
        <time>2016-10-28T08:29:00Z</time>
      </trkpt>
      <trkpt lat="47.86864" lon="-2.67916">
        <ele>116.46</ele>
        <time>2016-10-28T08:29:05Z</time>
      </trkpt>
      <trkpt lat="47.86872" lon="-2.67909">
        <ele>117.42</ele>
        <time>2016-10-28T08:29:11Z</time>
      </trkpt>
      <trkpt lat="47.86884" lon="-2.679">
        <ele>120.78</ele>
        <time>2016-10-28T08:29:24Z</time>
      </trkpt>
      <trkpt lat="47.86902" lon="-2.67895">
        <ele>123.19</ele>
        <time>2016-10-28T08:29:30Z</time>
      </trkpt>
      <trkpt lat="47.86918" lon="-2.67891">
        <ele>125.11</ele>
        <time>2016-10-28T08:29:34Z</time>
      </trkpt>
      <trkpt lat="47.86932" lon="-2.67888">
        <ele>127.51</ele>
        <time>2016-10-28T08:29:38Z</time>
      </trkpt>
      <trkpt lat="47.86945" lon="-2.67884">
        <ele>129.43</ele>
        <time>2016-10-28T08:29:41Z</time>
      </trkpt>
      <trkpt lat="47.86957" lon="-2.67882">
        <ele>131.36</ele>
        <time>2016-10-28T08:29:44Z</time>
      </trkpt>
      <trkpt lat="47.86974" lon="-2.6787">
        <ele>132.8</ele>
        <time>2016-10-28T08:29:49Z</time>
      </trkpt>
      <trkpt lat="47.86976" lon="-2.67853">
        <ele>132.8</ele>
        <time>2016-10-28T08:29:56Z</time>
      </trkpt>
      <trkpt lat="47.86969" lon="-2.67842">
        <ele>132.8</ele>
        <time>2016-10-28T08:30:03Z</time>
      </trkpt>
      <trkpt lat="47.86961" lon="-2.67833">
        <ele>133.28</ele>
        <time>2016-10-28T08:30:10Z</time>
      </trkpt>
      <trkpt lat="47.86952" lon="-2.67826">
        <ele>132.8</ele>
        <time>2016-10-28T08:30:15Z</time>
      </trkpt>
      <trkpt lat="47.86943" lon="-2.67818">
        <ele>133.28</ele>
        <time>2016-10-28T08:30:21Z</time>
      </trkpt>
      <trkpt lat="47.86933" lon="-2.67813">
        <ele>133.28</ele>
        <time>2016-10-28T08:30:28Z</time>
      </trkpt>
      <trkpt lat="47.86925" lon="-2.67806">
        <ele>133.28</ele>
        <time>2016-10-28T08:30:33Z</time>
      </trkpt>
      <trkpt lat="47.86915" lon="-2.678">
        <ele>135.2</ele>
        <time>2016-10-28T08:30:39Z</time>
      </trkpt>
      <trkpt lat="47.86906" lon="-2.67795">
        <ele>134.24</ele>
        <time>2016-10-28T08:30:45Z</time>
      </trkpt>
      <trkpt lat="47.86896" lon="-2.67788">
        <ele>134.24</ele>
        <time>2016-10-28T08:30:51Z</time>
      </trkpt>
      <trkpt lat="47.86887" lon="-2.67784">
        <ele>134.72</ele>
        <time>2016-10-28T08:30:57Z</time>
      </trkpt>
      <trkpt lat="47.86877" lon="-2.67776">
        <ele>134.72</ele>
        <time>2016-10-28T08:31:03Z</time>
      </trkpt>
      <trkpt lat="47.86872" lon="-2.67765">
        <ele>135.2</ele>
        <time>2016-10-28T08:31:08Z</time>
      </trkpt>
      <trkpt lat="47.86867" lon="-2.67751">
        <ele>135.2</ele>
        <time>2016-10-28T08:31:14Z</time>
      </trkpt>
      <trkpt lat="47.86862" lon="-2.67735">
        <ele>135.2</ele>
        <time>2016-10-28T08:31:20Z</time>
      </trkpt>
      <trkpt lat="47.86859" lon="-2.67719">
        <ele>135.2</ele>
        <time>2016-10-28T08:31:23Z</time>
      </trkpt>
      <trkpt lat="47.86856" lon="-2.67703">
        <ele>135.2</ele>
        <time>2016-10-28T08:31:26Z</time>
      </trkpt>
      <trkpt lat="47.8685" lon="-2.67688">
        <ele>135.2</ele>
        <time>2016-10-28T08:31:30Z</time>
      </trkpt>
      <trkpt lat="47.86847" lon="-2.67672">
        <ele>134.72</ele>
        <time>2016-10-28T08:31:33Z</time>
      </trkpt>
      <trkpt lat="47.86844" lon="-2.67657">
        <ele>134.24</ele>
        <time>2016-10-28T08:31:36Z</time>
      </trkpt>
      <trkpt lat="47.86839" lon="-2.67641">
        <ele>134.72</ele>
        <time>2016-10-28T08:31:39Z</time>
      </trkpt>
      <trkpt lat="47.86835" lon="-2.67623">
        <ele>134.72</ele>
        <time>2016-10-28T08:31:42Z</time>
      </trkpt>
      <trkpt lat="47.86831" lon="-2.67604">
        <ele>134.72</ele>
        <time>2016-10-28T08:31:45Z</time>
      </trkpt>
      <trkpt lat="47.86829" lon="-2.67583">
        <ele>134.72</ele>
        <time>2016-10-28T08:31:48Z</time>
      </trkpt>
      <trkpt lat="47.86827" lon="-2.67562">
        <ele>135.2</ele>
        <time>2016-10-28T08:31:51Z</time>
      </trkpt>
      <trkpt lat="47.86825" lon="-2.67547">
        <ele>134.72</ele>
        <time>2016-10-28T08:31:53Z</time>
      </trkpt>
      <trkpt lat="47.86823" lon="-2.67532">
        <ele>134.24</ele>
        <time>2016-10-28T08:31:55Z</time>
      </trkpt>
      <trkpt lat="47.86819" lon="-2.67517">
        <ele>134.24</ele>
        <time>2016-10-28T08:31:57Z</time>
      </trkpt>
      <trkpt lat="47.86816" lon="-2.67504">
        <ele>133.76</ele>
        <time>2016-10-28T08:31:59Z</time>
      </trkpt>
      <trkpt lat="47.86812" lon="-2.67488">
        <ele>133.76</ele>
        <time>2016-10-28T08:32:02Z</time>
      </trkpt>
      <trkpt lat="47.86808" lon="-2.67472">
        <ele>133.28</ele>
        <time>2016-10-28T08:32:06Z</time>
      </trkpt>
      <trkpt lat="47.86799" lon="-2.6746">
        <ele>133.76</ele>
        <time>2016-10-28T08:32:12Z</time>
      </trkpt>
      <trkpt lat="47.86788" lon="-2.67458">
        <ele>133.28</ele>
        <time>2016-10-28T08:32:17Z</time>
      </trkpt>
      <trkpt lat="47.86776" lon="-2.67457">
        <ele>132.8</ele>
        <time>2016-10-28T08:32:20Z</time>
      </trkpt>
      <trkpt lat="47.86765" lon="-2.67455">
        <ele>131.36</ele>
        <time>2016-10-28T08:32:23Z</time>
      </trkpt>
      <trkpt lat="47.86756" lon="-2.67454">
        <ele>132.32</ele>
        <time>2016-10-28T08:32:26Z</time>
      </trkpt>
      <trkpt lat="47.86745" lon="-2.6746">
        <ele>132.32</ele>
        <time>2016-10-28T08:32:30Z</time>
      </trkpt>
      <trkpt lat="47.86732" lon="-2.6746">
        <ele>131.36</ele>
        <time>2016-10-28T08:32:34Z</time>
      </trkpt>
      <trkpt lat="47.8672" lon="-2.67453">
        <ele>131.84</ele>
        <time>2016-10-28T08:32:37Z</time>
      </trkpt>
      <trkpt lat="47.86706" lon="-2.67447">
        <ele>133.28</ele>
        <time>2016-10-28T08:32:40Z</time>
      </trkpt>
      <trkpt lat="47.86694" lon="-2.67442">
        <ele>131.84</ele>
        <time>2016-10-28T08:32:43Z</time>
      </trkpt>
      <trkpt lat="47.86683" lon="-2.67438">
        <ele>131.84</ele>
        <time>2016-10-28T08:32:47Z</time>
      </trkpt>
      <trkpt lat="47.86669" lon="-2.67426">
        <ele>131.36</ele>
        <time>2016-10-28T08:32:54Z</time>
      </trkpt>
      <trkpt lat="47.8666" lon="-2.67419">
        <ele>131.36</ele>
        <time>2016-10-28T08:32:59Z</time>
      </trkpt>
      <trkpt lat="47.86648" lon="-2.67414">
        <ele>131.36</ele>
        <time>2016-10-28T08:33:07Z</time>
      </trkpt>
      <trkpt lat="47.86638" lon="-2.67412">
        <ele>130.88</ele>
        <time>2016-10-28T08:33:14Z</time>
      </trkpt>
      <trkpt lat="47.86628" lon="-2.6741">
        <ele>130.4</ele>
        <time>2016-10-28T08:33:20Z</time>
      </trkpt>
      <trkpt lat="47.86618" lon="-2.67407">
        <ele>129.92</ele>
        <time>2016-10-28T08:33:26Z</time>
      </trkpt>
      <trkpt lat="47.86608" lon="-2.67408">
        <ele>129.43</ele>
        <time>2016-10-28T08:33:32Z</time>
      </trkpt>
      <trkpt lat="47.86601" lon="-2.67416">
        <ele>128.47</ele>
        <time>2016-10-28T08:33:38Z</time>
      </trkpt>
      <trkpt lat="47.86592" lon="-2.67422">
        <ele>127.99</ele>
        <time>2016-10-28T08:33:44Z</time>
      </trkpt>
      <trkpt lat="47.86583" lon="-2.67422">
        <ele>127.51</ele>
        <time>2016-10-28T08:33:50Z</time>
      </trkpt>
      <trkpt lat="47.86573" lon="-2.67417">
        <ele>127.03</ele>
        <time>2016-10-28T08:33:56Z</time>
      </trkpt>
      <trkpt lat="47.86564" lon="-2.67409">
        <ele>126.07</ele>
        <time>2016-10-28T08:34:02Z</time>
      </trkpt>
      <trkpt lat="47.86555" lon="-2.6741">
        <ele>125.11</ele>
        <time>2016-10-28T08:34:07Z</time>
      </trkpt>
      <trkpt lat="47.86546" lon="-2.67415">
        <ele>124.63</ele>
        <time>2016-10-28T08:34:13Z</time>
      </trkpt>
      <trkpt lat="47.86534" lon="-2.67411">
        <ele>124.15</ele>
        <time>2016-10-28T08:34:21Z</time>
      </trkpt>
      <trkpt lat="47.86528" lon="-2.67398">
        <ele>124.15</ele>
        <time>2016-10-28T08:34:28Z</time>
      </trkpt>
      <trkpt lat="47.86525" lon="-2.67383">
        <ele>124.63</ele>
        <time>2016-10-28T08:34:34Z</time>
      </trkpt>
      <trkpt lat="47.8652" lon="-2.67371">
        <ele>124.63</ele>
        <time>2016-10-28T08:34:39Z</time>
      </trkpt>
      <trkpt lat="47.86515" lon="-2.67358">
        <ele>125.11</ele>
        <time>2016-10-28T08:34:45Z</time>
      </trkpt>
      <trkpt lat="47.8651" lon="-2.67346">
        <ele>125.11</ele>
        <time>2016-10-28T08:34:51Z</time>
      </trkpt>
      <trkpt lat="47.86505" lon="-2.67332">
        <ele>125.11</ele>
        <time>2016-10-28T08:34:57Z</time>
      </trkpt>
      <trkpt lat="47.865" lon="-2.6732">
        <ele>125.59</ele>
        <time>2016-10-28T08:35:03Z</time>
      </trkpt>
      <trkpt lat="47.86493" lon="-2.67306">
        <ele>125.59</ele>
        <time>2016-10-28T08:35:10Z</time>
      </trkpt>
      <trkpt lat="47.86488" lon="-2.67293">
        <ele>125.11</ele>
        <time>2016-10-28T08:35:16Z</time>
      </trkpt>
      <trkpt lat="47.8648" lon="-2.67279">
        <ele>125.11</ele>
        <time>2016-10-28T08:35:22Z</time>
      </trkpt>
      <trkpt lat="47.86473" lon="-2.67268">
        <ele>124.63</ele>
        <time>2016-10-28T08:35:27Z</time>
      </trkpt>
      <trkpt lat="47.86467" lon="-2.67258">
        <ele>124.15</ele>
        <time>2016-10-28T08:35:33Z</time>
      </trkpt>
      <trkpt lat="47.86459" lon="-2.6725">
        <ele>124.15</ele>
        <time>2016-10-28T08:35:38Z</time>
      </trkpt>
      <trkpt lat="47.86449" lon="-2.67242">
        <ele>123.67</ele>
        <time>2016-10-28T08:35:45Z</time>
      </trkpt>
      <trkpt lat="47.86441" lon="-2.67235">
        <ele>122.71</ele>
        <time>2016-10-28T08:35:51Z</time>
      </trkpt>
      <trkpt lat="47.86432" lon="-2.67227">
        <ele>122.22</ele>
        <time>2016-10-28T08:35:57Z</time>
      </trkpt>
      <trkpt lat="47.86421" lon="-2.67217">
        <ele>120.78</ele>
        <time>2016-10-28T08:36:04Z</time>
      </trkpt>
      <trkpt lat="47.86412" lon="-2.67208">
        <ele>119.82</ele>
        <time>2016-10-28T08:36:10Z</time>
      </trkpt>
      <trkpt lat="47.86406" lon="-2.67197">
        <ele>118.86</ele>
        <time>2016-10-28T08:36:16Z</time>
      </trkpt>
      <trkpt lat="47.86405" lon="-2.67183">
        <ele>117.9</ele>
        <time>2016-10-28T08:36:22Z</time>
      </trkpt>
      <trkpt lat="47.86405" lon="-2.67165">
        <ele>116.94</ele>
        <time>2016-10-28T08:36:29Z</time>
      </trkpt>
      <trkpt lat="47.86403" lon="-2.6715">
        <ele>115.98</ele>
        <time>2016-10-28T08:36:34Z</time>
      </trkpt>
      <trkpt lat="47.86402" lon="-2.67132">
        <ele>115.01</ele>
        <time>2016-10-28T08:36:40Z</time>
      </trkpt>
      <trkpt lat="47.86402" lon="-2.67116">
        <ele>113.57</ele>
        <time>2016-10-28T08:36:45Z</time>
      </trkpt>
      <trkpt lat="47.86407" lon="-2.671">
        <ele>114.05</ele>
        <time>2016-10-28T08:36:52Z</time>
      </trkpt>
      <trkpt lat="47.86414" lon="-2.67089">
        <ele>114.05</ele>
        <time>2016-10-28T08:36:58Z</time>
      </trkpt>
      <trkpt lat="47.86423" lon="-2.67081">
        <ele>114.53</ele>
        <time>2016-10-28T08:37:04Z</time>
      </trkpt>
      <trkpt lat="47.86431" lon="-2.6707">
        <ele>114.53</ele>
        <time>2016-10-28T08:37:11Z</time>
      </trkpt>
      <trkpt lat="47.86439" lon="-2.6706">
        <ele>115.01</ele>
        <time>2016-10-28T08:37:17Z</time>
      </trkpt>
      <trkpt lat="47.86447" lon="-2.6705">
        <ele>115.01</ele>
        <time>2016-10-28T08:37:23Z</time>
      </trkpt>
      <trkpt lat="47.86454" lon="-2.67034">
        <ele>115.5</ele>
        <time>2016-10-28T08:37:30Z</time>
      </trkpt>
      <trkpt lat="47.86461" lon="-2.67021">
        <ele>115.5</ele>
        <time>2016-10-28T08:37:37Z</time>
      </trkpt>
      <trkpt lat="47.86468" lon="-2.67009">
        <ele>115.5</ele>
        <time>2016-10-28T08:37:42Z</time>
      </trkpt>
      <trkpt lat="47.86475" lon="-2.66997">
        <ele>115.5</ele>
        <time>2016-10-28T08:37:47Z</time>
      </trkpt>
      <trkpt lat="47.86481" lon="-2.66984">
        <ele>115.01</ele>
        <time>2016-10-28T08:37:53Z</time>
      </trkpt>
      <trkpt lat="47.86488" lon="-2.6697">
        <ele>115.5</ele>
        <time>2016-10-28T08:38:00Z</time>
      </trkpt>
      <trkpt lat="47.86495" lon="-2.66959">
        <ele>115.5</ele>
        <time>2016-10-28T08:38:06Z</time>
      </trkpt>
      <trkpt lat="47.86504" lon="-2.66948">
        <ele>115.5</ele>
        <time>2016-10-28T08:38:12Z</time>
      </trkpt>
      <trkpt lat="47.86511" lon="-2.66935">
        <ele>115.5</ele>
        <time>2016-10-28T08:38:18Z</time>
      </trkpt>
      <trkpt lat="47.86518" lon="-2.66923">
        <ele>115.5</ele>
        <time>2016-10-28T08:38:24Z</time>
      </trkpt>
      <trkpt lat="47.86524" lon="-2.66912">
        <ele>115.5</ele>
        <time>2016-10-28T08:38:29Z</time>
      </trkpt>
      <trkpt lat="47.86525" lon="-2.66899">
        <ele>115.5</ele>
        <time>2016-10-28T08:38:36Z</time>
      </trkpt>
      <trkpt lat="47.86526" lon="-2.66884">
        <ele>115.01</ele>
        <time>2016-10-28T08:38:42Z</time>
      </trkpt>
      <trkpt lat="47.86527" lon="-2.6687">
        <ele>114.53</ele>
        <time>2016-10-28T08:38:48Z</time>
      </trkpt>
      <trkpt lat="47.86529" lon="-2.66853">
        <ele>114.05</ele>
        <time>2016-10-28T08:38:54Z</time>
      </trkpt>
      <trkpt lat="47.86528" lon="-2.66838">
        <ele>114.53</ele>
        <time>2016-10-28T08:39:00Z</time>
      </trkpt>
      <trkpt lat="47.86529" lon="-2.66823">
        <ele>114.53</ele>
        <time>2016-10-28T08:39:06Z</time>
      </trkpt>
      <trkpt lat="47.86532" lon="-2.66805">
        <ele>114.53</ele>
        <time>2016-10-28T08:39:12Z</time>
      </trkpt>
      <trkpt lat="47.86536" lon="-2.66788">
        <ele>115.01</ele>
        <time>2016-10-28T08:39:19Z</time>
      </trkpt>
      <trkpt lat="47.86537" lon="-2.66773">
        <ele>115.01</ele>
        <time>2016-10-28T08:39:25Z</time>
      </trkpt>
      <trkpt lat="47.86541" lon="-2.66759">
        <ele>115.5</ele>
        <time>2016-10-28T08:39:31Z</time>
      </trkpt>
      <trkpt lat="47.86545" lon="-2.66743">
        <ele>115.98</ele>
        <time>2016-10-28T08:39:38Z</time>
      </trkpt>
      <trkpt lat="47.8655" lon="-2.6673">
        <ele>116.46</ele>
        <time>2016-10-28T08:39:44Z</time>
      </trkpt>
      <trkpt lat="47.86555" lon="-2.66716">
        <ele>116.94</ele>
        <time>2016-10-28T08:39:51Z</time>
      </trkpt>
      <trkpt lat="47.86562" lon="-2.66702">
        <ele>117.42</ele>
        <time>2016-10-28T08:39:59Z</time>
      </trkpt>
      <trkpt lat="47.86569" lon="-2.66689">
        <ele>117.9</ele>
        <time>2016-10-28T08:40:05Z</time>
      </trkpt>
      <trkpt lat="47.86576" lon="-2.66677">
        <ele>118.38</ele>
        <time>2016-10-28T08:40:12Z</time>
      </trkpt>
      <trkpt lat="47.86586" lon="-2.66667">
        <ele>118.86</ele>
        <time>2016-10-28T08:40:18Z</time>
      </trkpt>
      <trkpt lat="47.86597" lon="-2.66661">
        <ele>118.86</ele>
        <time>2016-10-28T08:40:24Z</time>
      </trkpt>
      <trkpt lat="47.86606" lon="-2.66657">
        <ele>119.34</ele>
        <time>2016-10-28T08:40:29Z</time>
      </trkpt>
      <trkpt lat="47.86616" lon="-2.66655">
        <ele>119.82</ele>
        <time>2016-10-28T08:40:35Z</time>
      </trkpt>
      <trkpt lat="47.86625" lon="-2.66652">
        <ele>121.26</ele>
        <time>2016-10-28T08:40:41Z</time>
      </trkpt>
      <trkpt lat="47.86634" lon="-2.66645">
        <ele>121.26</ele>
        <time>2016-10-28T08:40:47Z</time>
      </trkpt>
      <trkpt lat="47.8664" lon="-2.66636">
        <ele>122.22</ele>
        <time>2016-10-28T08:40:52Z</time>
      </trkpt>
      <trkpt lat="47.86635" lon="-2.66623">
        <ele>122.22</ele>
        <time>2016-10-28T08:40:59Z</time>
      </trkpt>
      <trkpt lat="47.86627" lon="-2.66612">
        <ele>121.74</ele>
        <time>2016-10-28T08:41:05Z</time>
      </trkpt>
      <trkpt lat="47.86619" lon="-2.66603">
        <ele>121.74</ele>
        <time>2016-10-28T08:41:12Z</time>
      </trkpt>
      <trkpt lat="47.86612" lon="-2.66593">
        <ele>121.26</ele>
        <time>2016-10-28T08:41:18Z</time>
      </trkpt>
      <trkpt lat="47.86605" lon="-2.66582">
        <ele>120.78</ele>
        <time>2016-10-28T08:41:23Z</time>
      </trkpt>
      <trkpt lat="47.86601" lon="-2.66573">
        <ele>120.78</ele>
        <time>2016-10-28T08:41:38Z</time>
      </trkpt>
      <trkpt lat="47.86594" lon="-2.66564">
        <ele>120.3</ele>
        <time>2016-10-28T08:41:47Z</time>
      </trkpt>
      <trkpt lat="47.86585" lon="-2.66555">
        <ele>120.3</ele>
        <time>2016-10-28T08:41:53Z</time>
      </trkpt>
      <trkpt lat="47.86576" lon="-2.66548">
        <ele>119.82</ele>
        <time>2016-10-28T08:42:02Z</time>
      </trkpt>
      <trkpt lat="47.86566" lon="-2.66541">
        <ele>119.34</ele>
        <time>2016-10-28T08:42:09Z</time>
      </trkpt>
      <trkpt lat="47.86558" lon="-2.66533">
        <ele>119.34</ele>
        <time>2016-10-28T08:42:17Z</time>
      </trkpt>
      <trkpt lat="47.86549" lon="-2.66524">
        <ele>119.82</ele>
        <time>2016-10-28T08:42:23Z</time>
      </trkpt>
      <trkpt lat="47.86541" lon="-2.66517">
        <ele>119.82</ele>
        <time>2016-10-28T08:42:28Z</time>
      </trkpt>
      <trkpt lat="47.86533" lon="-2.6651">
        <ele>119.82</ele>
        <time>2016-10-28T08:42:34Z</time>
      </trkpt>
      <trkpt lat="47.86525" lon="-2.66502">
        <ele>120.3</ele>
        <time>2016-10-28T08:42:40Z</time>
      </trkpt>
      <trkpt lat="47.86515" lon="-2.66494">
        <ele>120.3</ele>
        <time>2016-10-28T08:42:46Z</time>
      </trkpt>
      <trkpt lat="47.86507" lon="-2.66488">
        <ele>119.82</ele>
        <time>2016-10-28T08:42:51Z</time>
      </trkpt>
      <trkpt lat="47.86497" lon="-2.66482">
        <ele>119.82</ele>
        <time>2016-10-28T08:42:57Z</time>
      </trkpt>
      <trkpt lat="47.8649" lon="-2.66475">
        <ele>119.82</ele>
        <time>2016-10-28T08:43:02Z</time>
      </trkpt>
      <trkpt lat="47.8648" lon="-2.66468">
        <ele>119.82</ele>
        <time>2016-10-28T08:43:08Z</time>
      </trkpt>
      <trkpt lat="47.86471" lon="-2.66463">
        <ele>119.82</ele>
        <time>2016-10-28T08:43:14Z</time>
      </trkpt>
      <trkpt lat="47.86461" lon="-2.66456">
        <ele>119.82</ele>
        <time>2016-10-28T08:43:20Z</time>
      </trkpt>
      <trkpt lat="47.86452" lon="-2.66451">
        <ele>120.3</ele>
        <time>2016-10-28T08:43:25Z</time>
      </trkpt>
      <trkpt lat="47.86443" lon="-2.66444">
        <ele>120.3</ele>
        <time>2016-10-28T08:43:31Z</time>
      </trkpt>
      <trkpt lat="47.86435" lon="-2.66437">
        <ele>120.78</ele>
        <time>2016-10-28T08:43:36Z</time>
      </trkpt>
      <trkpt lat="47.8643" lon="-2.66425">
        <ele>120.3</ele>
        <time>2016-10-28T08:43:42Z</time>
      </trkpt>
      <trkpt lat="47.86431" lon="-2.6641">
        <ele>120.78</ele>
        <time>2016-10-28T08:43:47Z</time>
      </trkpt>
      <trkpt lat="47.86432" lon="-2.66393">
        <ele>121.26</ele>
        <time>2016-10-28T08:43:51Z</time>
      </trkpt>
      <trkpt lat="47.86433" lon="-2.66379">
        <ele>121.74</ele>
        <time>2016-10-28T08:43:55Z</time>
      </trkpt>
      <trkpt lat="47.86436" lon="-2.66364">
        <ele>121.74</ele>
        <time>2016-10-28T08:44:01Z</time>
      </trkpt>
      <trkpt lat="47.86438" lon="-2.6635">
        <ele>122.22</ele>
        <time>2016-10-28T08:44:06Z</time>
      </trkpt>
      <trkpt lat="47.86441" lon="-2.66335">
        <ele>123.19</ele>
        <time>2016-10-28T08:44:12Z</time>
      </trkpt>
      <trkpt lat="47.86442" lon="-2.66321">
        <ele>123.67</ele>
        <time>2016-10-28T08:44:17Z</time>
      </trkpt>
      <trkpt lat="47.86444" lon="-2.66306">
        <ele>124.63</ele>
        <time>2016-10-28T08:44:23Z</time>
      </trkpt>
      <trkpt lat="47.86445" lon="-2.66293">
        <ele>125.11</ele>
        <time>2016-10-28T08:44:28Z</time>
      </trkpt>
      <trkpt lat="47.86447" lon="-2.66279">
        <ele>125.11</ele>
        <time>2016-10-28T08:44:33Z</time>
      </trkpt>
      <trkpt lat="47.86449" lon="-2.66264">
        <ele>125.59</ele>
        <time>2016-10-28T08:44:39Z</time>
      </trkpt>
      <trkpt lat="47.86452" lon="-2.6625">
        <ele>126.07</ele>
        <time>2016-10-28T08:44:44Z</time>
      </trkpt>
      <trkpt lat="47.86455" lon="-2.66237">
        <ele>126.55</ele>
        <time>2016-10-28T08:44:49Z</time>
      </trkpt>
      <trkpt lat="47.86456" lon="-2.66224">
        <ele>126.55</ele>
        <time>2016-10-28T08:44:53Z</time>
      </trkpt>
      <trkpt lat="47.86458" lon="-2.66208">
        <ele>127.03</ele>
        <time>2016-10-28T08:44:58Z</time>
      </trkpt>
      <trkpt lat="47.86461" lon="-2.66194">
        <ele>127.03</ele>
        <time>2016-10-28T08:45:03Z</time>
      </trkpt>
      <trkpt lat="47.86461" lon="-2.6618">
        <ele>127.03</ele>
        <time>2016-10-28T08:45:08Z</time>
      </trkpt>
      <trkpt lat="47.86462" lon="-2.66166">
        <ele>127.03</ele>
        <time>2016-10-28T08:45:13Z</time>
      </trkpt>
      <trkpt lat="47.86463" lon="-2.66152">
        <ele>127.51</ele>
        <time>2016-10-28T08:45:18Z</time>
      </trkpt>
      <trkpt lat="47.86464" lon="-2.66137">
        <ele>127.51</ele>
        <time>2016-10-28T08:45:24Z</time>
      </trkpt>
      <trkpt lat="47.86464" lon="-2.66121">
        <ele>127.03</ele>
        <time>2016-10-28T08:45:30Z</time>
      </trkpt>
      <trkpt lat="47.86464" lon="-2.66106">
        <ele>127.51</ele>
        <time>2016-10-28T08:45:36Z</time>
      </trkpt>
      <trkpt lat="47.86465" lon="-2.6609">
        <ele>127.51</ele>
        <time>2016-10-28T08:45:42Z</time>
      </trkpt>
      <trkpt lat="47.86466" lon="-2.66076">
        <ele>127.51</ele>
        <time>2016-10-28T08:45:47Z</time>
      </trkpt>
      <trkpt lat="47.86466" lon="-2.66061">
        <ele>127.51</ele>
        <time>2016-10-28T08:45:53Z</time>
      </trkpt>
      <trkpt lat="47.86466" lon="-2.66047">
        <ele>127.51</ele>
        <time>2016-10-28T08:45:58Z</time>
      </trkpt>
      <trkpt lat="47.86466" lon="-2.66032">
        <ele>127.99</ele>
        <time>2016-10-28T08:46:04Z</time>
      </trkpt>
      <trkpt lat="47.86466" lon="-2.66017">
        <ele>127.99</ele>
        <time>2016-10-28T08:46:10Z</time>
      </trkpt>
      <trkpt lat="47.86466" lon="-2.66002">
        <ele>127.99</ele>
        <time>2016-10-28T08:46:15Z</time>
      </trkpt>
      <trkpt lat="47.86467" lon="-2.65987">
        <ele>127.99</ele>
        <time>2016-10-28T08:46:21Z</time>
      </trkpt>
      <trkpt lat="47.86467" lon="-2.65973">
        <ele>128.47</ele>
        <time>2016-10-28T08:46:26Z</time>
      </trkpt>
      <trkpt lat="47.86468" lon="-2.6596">
        <ele>127.99</ele>
        <time>2016-10-28T08:46:31Z</time>
      </trkpt>
      <trkpt lat="47.86468" lon="-2.65946">
        <ele>127.99</ele>
        <time>2016-10-28T08:46:36Z</time>
      </trkpt>
      <trkpt lat="47.86468" lon="-2.65932">
        <ele>127.99</ele>
        <time>2016-10-28T08:46:41Z</time>
      </trkpt>
      <trkpt lat="47.86469" lon="-2.65919">
        <ele>127.99</ele>
        <time>2016-10-28T08:46:46Z</time>
      </trkpt>
      <trkpt lat="47.86469" lon="-2.65906">
        <ele>127.99</ele>
        <time>2016-10-28T08:46:51Z</time>
      </trkpt>
      <trkpt lat="47.8647" lon="-2.65892">
        <ele>127.99</ele>
        <time>2016-10-28T08:46:56Z</time>
      </trkpt>
      <trkpt lat="47.86469" lon="-2.65878">
        <ele>128.47</ele>
        <time>2016-10-28T08:47:01Z</time>
      </trkpt>
      <trkpt lat="47.8647" lon="-2.65865">
        <ele>127.99</ele>
        <time>2016-10-28T08:47:06Z</time>
      </trkpt>
      <trkpt lat="47.86471" lon="-2.65852">
        <ele>127.99</ele>
        <time>2016-10-28T08:47:11Z</time>
      </trkpt>
      <trkpt lat="47.8647" lon="-2.65838">
        <ele>128.95</ele>
        <time>2016-10-28T08:47:16Z</time>
      </trkpt>
      <trkpt lat="47.86471" lon="-2.65824">
        <ele>128.47</ele>
        <time>2016-10-28T08:47:22Z</time>
      </trkpt>
      <trkpt lat="47.8647" lon="-2.65811">
        <ele>128.95</ele>
        <time>2016-10-28T08:47:27Z</time>
      </trkpt>
      <trkpt lat="47.86459" lon="-2.65804">
        <ele>128.47</ele>
        <time>2016-10-28T08:47:33Z</time>
      </trkpt>
      <trkpt lat="47.86449" lon="-2.65801">
        <ele>128.47</ele>
        <time>2016-10-28T08:47:38Z</time>
      </trkpt>
      <trkpt lat="47.86439" lon="-2.658">
        <ele>128.47</ele>
        <time>2016-10-28T08:47:44Z</time>
      </trkpt>
      <trkpt lat="47.86428" lon="-2.658">
        <ele>128.95</ele>
        <time>2016-10-28T08:47:50Z</time>
      </trkpt>
      <trkpt lat="47.86419" lon="-2.65796">
        <ele>128.95</ele>
        <time>2016-10-28T08:47:55Z</time>
      </trkpt>
      <trkpt lat="47.86409" lon="-2.65793">
        <ele>128.95</ele>
        <time>2016-10-28T08:48:00Z</time>
      </trkpt>
      <trkpt lat="47.864" lon="-2.6579">
        <ele>128.95</ele>
        <time>2016-10-28T08:48:05Z</time>
      </trkpt>
      <trkpt lat="47.86391" lon="-2.65789">
        <ele>128.95</ele>
        <time>2016-10-28T08:48:10Z</time>
      </trkpt>
      <trkpt lat="47.86381" lon="-2.65787">
        <ele>129.43</ele>
        <time>2016-10-28T08:48:16Z</time>
      </trkpt>
      <trkpt lat="47.86371" lon="-2.65784">
        <ele>129.43</ele>
        <time>2016-10-28T08:48:21Z</time>
      </trkpt>
      <trkpt lat="47.86362" lon="-2.65782">
        <ele>129.43</ele>
        <time>2016-10-28T08:48:26Z</time>
      </trkpt>
      <trkpt lat="47.86354" lon="-2.65782">
        <ele>129.43</ele>
        <time>2016-10-28T08:48:31Z</time>
      </trkpt>
      <trkpt lat="47.86344" lon="-2.65781">
        <ele>129.43</ele>
        <time>2016-10-28T08:48:36Z</time>
      </trkpt>
      <trkpt lat="47.86335" lon="-2.65781">
        <ele>128.95</ele>
        <time>2016-10-28T08:48:41Z</time>
      </trkpt>
      <trkpt lat="47.86325" lon="-2.65783">
        <ele>129.43</ele>
        <time>2016-10-28T08:48:47Z</time>
      </trkpt>
      <trkpt lat="47.86315" lon="-2.65784">
        <ele>129.43</ele>
        <time>2016-10-28T08:48:52Z</time>
      </trkpt>
      <trkpt lat="47.86306" lon="-2.65785">
        <ele>129.43</ele>
        <time>2016-10-28T08:48:57Z</time>
      </trkpt>
      <trkpt lat="47.86296" lon="-2.65784">
        <ele>129.92</ele>
        <time>2016-10-28T08:49:02Z</time>
      </trkpt>
      <trkpt lat="47.86286" lon="-2.65786">
        <ele>129.43</ele>
        <time>2016-10-28T08:49:08Z</time>
      </trkpt>
      <trkpt lat="47.86275" lon="-2.65788">
        <ele>129.43</ele>
        <time>2016-10-28T08:49:14Z</time>
      </trkpt>
      <trkpt lat="47.86266" lon="-2.6579">
        <ele>129.43</ele>
        <time>2016-10-28T08:49:19Z</time>
      </trkpt>
      <trkpt lat="47.86256" lon="-2.65788">
        <ele>129.43</ele>
        <time>2016-10-28T08:49:24Z</time>
      </trkpt>
      <trkpt lat="47.86248" lon="-2.65788">
        <ele>129.43</ele>
        <time>2016-10-28T08:49:28Z</time>
      </trkpt>
      <trkpt lat="47.86237" lon="-2.65787">
        <ele>129.43</ele>
        <time>2016-10-28T08:49:34Z</time>
      </trkpt>
      <trkpt lat="47.86228" lon="-2.65786">
        <ele>129.43</ele>
        <time>2016-10-28T08:49:40Z</time>
      </trkpt>
      <trkpt lat="47.86217" lon="-2.65784">
        <ele>128.95</ele>
        <time>2016-10-28T08:49:46Z</time>
      </trkpt>
      <trkpt lat="47.86205" lon="-2.6578">
        <ele>128.47</ele>
        <time>2016-10-28T08:49:52Z</time>
      </trkpt>
      <trkpt lat="47.86196" lon="-2.65776">
        <ele>128.47</ele>
        <time>2016-10-28T08:49:57Z</time>
      </trkpt>
      <trkpt lat="47.86186" lon="-2.65773">
        <ele>128.95</ele>
        <time>2016-10-28T08:50:02Z</time>
      </trkpt>
      <trkpt lat="47.86178" lon="-2.65767">
        <ele>128.47</ele>
        <time>2016-10-28T08:50:08Z</time>
      </trkpt>
      <trkpt lat="47.86172" lon="-2.65756">
        <ele>127.99</ele>
        <time>2016-10-28T08:50:14Z</time>
      </trkpt>
      <trkpt lat="47.8617" lon="-2.65739">
        <ele>128.47</ele>
        <time>2016-10-28T08:50:20Z</time>
      </trkpt>
      <trkpt lat="47.86168" lon="-2.65726">
        <ele>128.47</ele>
        <time>2016-10-28T08:50:25Z</time>
      </trkpt>
      <trkpt lat="47.86166" lon="-2.65712">
        <ele>128.47</ele>
        <time>2016-10-28T08:50:30Z</time>
      </trkpt>
      <trkpt lat="47.86166" lon="-2.65696">
        <ele>128.47</ele>
        <time>2016-10-28T08:50:36Z</time>
      </trkpt>
      <trkpt lat="47.86164" lon="-2.65682">
        <ele>128.47</ele>
        <time>2016-10-28T08:50:41Z</time>
      </trkpt>
      <trkpt lat="47.86164" lon="-2.65668">
        <ele>128.95</ele>
        <time>2016-10-28T08:50:46Z</time>
      </trkpt>
      <trkpt lat="47.86164" lon="-2.65654">
        <ele>128.95</ele>
        <time>2016-10-28T08:50:51Z</time>
      </trkpt>
      <trkpt lat="47.86165" lon="-2.65641">
        <ele>129.43</ele>
        <time>2016-10-28T08:50:56Z</time>
      </trkpt>
      <trkpt lat="47.86163" lon="-2.65625">
        <ele>129.92</ele>
        <time>2016-10-28T08:51:02Z</time>
      </trkpt>
      <trkpt lat="47.8616" lon="-2.65612">
        <ele>129.92</ele>
        <time>2016-10-28T08:51:07Z</time>
      </trkpt>
      <trkpt lat="47.86157" lon="-2.65597">
        <ele>129.92</ele>
        <time>2016-10-28T08:51:13Z</time>
      </trkpt>
      <trkpt lat="47.86153" lon="-2.65584">
        <ele>130.4</ele>
        <time>2016-10-28T08:51:18Z</time>
      </trkpt>
      <trkpt lat="47.8615" lon="-2.65571">
        <ele>130.4</ele>
        <time>2016-10-28T08:51:24Z</time>
      </trkpt>
      <trkpt lat="47.86147" lon="-2.65558">
        <ele>130.88</ele>
        <time>2016-10-28T08:51:29Z</time>
      </trkpt>
      <trkpt lat="47.86144" lon="-2.65543">
        <ele>132.32</ele>
        <time>2016-10-28T08:51:35Z</time>
      </trkpt>
      <trkpt lat="47.86145" lon="-2.6553">
        <ele>133.28</ele>
        <time>2016-10-28T08:51:40Z</time>
      </trkpt>
      <trkpt lat="47.86146" lon="-2.65515">
        <ele>134.24</ele>
        <time>2016-10-28T08:51:46Z</time>
      </trkpt>
      <trkpt lat="47.86147" lon="-2.65502">
        <ele>135.2</ele>
        <time>2016-10-28T08:51:51Z</time>
      </trkpt>
      <trkpt lat="47.8615" lon="-2.65488">
        <ele>136.16</ele>
        <time>2016-10-28T08:51:57Z</time>
      </trkpt>
      <trkpt lat="47.86151" lon="-2.65474">
        <ele>137.13</ele>
        <time>2016-10-28T08:52:02Z</time>
      </trkpt>
      <trkpt lat="47.86152" lon="-2.6546">
        <ele>137.13</ele>
        <time>2016-10-28T08:52:07Z</time>
      </trkpt>
      <trkpt lat="47.86154" lon="-2.65444">
        <ele>137.61</ele>
        <time>2016-10-28T08:52:13Z</time>
      </trkpt>
      <trkpt lat="47.86155" lon="-2.65431">
        <ele>138.09</ele>
        <time>2016-10-28T08:52:18Z</time>
      </trkpt>
      <trkpt lat="47.86158" lon="-2.65415">
        <ele>138.09</ele>
        <time>2016-10-28T08:52:24Z</time>
      </trkpt>
      <trkpt lat="47.86159" lon="-2.65402">
        <ele>138.57</ele>
        <time>2016-10-28T08:52:29Z</time>
      </trkpt>
      <trkpt lat="47.86161" lon="-2.65386">
        <ele>138.09</ele>
        <time>2016-10-28T08:52:35Z</time>
      </trkpt>
      <trkpt lat="47.86162" lon="-2.6537">
        <ele>138.57</ele>
        <time>2016-10-28T08:52:41Z</time>
      </trkpt>
      <trkpt lat="47.86163" lon="-2.65356">
        <ele>138.09</ele>
        <time>2016-10-28T08:52:46Z</time>
      </trkpt>
      <trkpt lat="47.86165" lon="-2.65342">
        <ele>138.09</ele>
        <time>2016-10-28T08:52:51Z</time>
      </trkpt>
      <trkpt lat="47.86165" lon="-2.65327">
        <ele>138.09</ele>
        <time>2016-10-28T08:52:57Z</time>
      </trkpt>
      <trkpt lat="47.86167" lon="-2.65312">
        <ele>138.09</ele>
        <time>2016-10-28T08:53:03Z</time>
      </trkpt>
      <trkpt lat="47.86168" lon="-2.65294">
        <ele>137.13</ele>
        <time>2016-10-28T08:53:09Z</time>
      </trkpt>
      <trkpt lat="47.86169" lon="-2.65278">
        <ele>137.61</ele>
        <time>2016-10-28T08:53:15Z</time>
      </trkpt>
      <trkpt lat="47.8617" lon="-2.65264">
        <ele>137.13</ele>
        <time>2016-10-28T08:53:20Z</time>
      </trkpt>
      <trkpt lat="47.8617" lon="-2.65249">
        <ele>137.13</ele>
        <time>2016-10-28T08:53:26Z</time>
      </trkpt>
      <trkpt lat="47.86168" lon="-2.65235">
        <ele>137.61</ele>
        <time>2016-10-28T08:53:32Z</time>
      </trkpt>
      <trkpt lat="47.8617" lon="-2.6522">
        <ele>137.13</ele>
        <time>2016-10-28T08:53:37Z</time>
      </trkpt>
      <trkpt lat="47.86173" lon="-2.65207">
        <ele>136.64</ele>
        <time>2016-10-28T08:53:42Z</time>
      </trkpt>
      <trkpt lat="47.86177" lon="-2.65194">
        <ele>135.2</ele>
        <time>2016-10-28T08:53:48Z</time>
      </trkpt>
      <trkpt lat="47.86182" lon="-2.65179">
        <ele>134.72</ele>
        <time>2016-10-28T08:53:54Z</time>
      </trkpt>
      <trkpt lat="47.86186" lon="-2.65164">
        <ele>134.24</ele>
        <time>2016-10-28T08:54:01Z</time>
      </trkpt>
      <trkpt lat="47.86191" lon="-2.65149">
        <ele>132.8</ele>
        <time>2016-10-28T08:54:08Z</time>
      </trkpt>
      <trkpt lat="47.86197" lon="-2.65136">
        <ele>131.84</ele>
        <time>2016-10-28T08:54:14Z</time>
      </trkpt>
      <trkpt lat="47.86201" lon="-2.65121">
        <ele>130.88</ele>
        <time>2016-10-28T08:54:20Z</time>
      </trkpt>
      <trkpt lat="47.86204" lon="-2.65107">
        <ele>130.88</ele>
        <time>2016-10-28T08:54:25Z</time>
      </trkpt>
      <trkpt lat="47.86209" lon="-2.65094">
        <ele>130.4</ele>
        <time>2016-10-28T08:54:31Z</time>
      </trkpt>
      <trkpt lat="47.86214" lon="-2.65082">
        <ele>129.92</ele>
        <time>2016-10-28T08:54:36Z</time>
      </trkpt>
      <trkpt lat="47.86218" lon="-2.65067">
        <ele>130.4</ele>
        <time>2016-10-28T08:54:42Z</time>
      </trkpt>
      <trkpt lat="47.86223" lon="-2.65055">
        <ele>129.92</ele>
        <time>2016-10-28T08:54:47Z</time>
      </trkpt>
      <trkpt lat="47.86227" lon="-2.65043">
        <ele>130.4</ele>
        <time>2016-10-28T08:54:52Z</time>
      </trkpt>
      <trkpt lat="47.86232" lon="-2.65029">
        <ele>129.92</ele>
        <time>2016-10-28T08:54:58Z</time>
      </trkpt>
      <trkpt lat="47.86237" lon="-2.65014">
        <ele>130.4</ele>
        <time>2016-10-28T08:55:04Z</time>
      </trkpt>
      <trkpt lat="47.86241" lon="-2.65">
        <ele>130.4</ele>
        <time>2016-10-28T08:55:11Z</time>
      </trkpt>
      <trkpt lat="47.86245" lon="-2.64987">
        <ele>130.88</ele>
        <time>2016-10-28T08:55:16Z</time>
      </trkpt>
      <trkpt lat="47.8625" lon="-2.64975">
        <ele>130.88</ele>
        <time>2016-10-28T08:55:22Z</time>
      </trkpt>
      <trkpt lat="47.86256" lon="-2.64962">
        <ele>130.88</ele>
        <time>2016-10-28T08:55:28Z</time>
      </trkpt>
      <trkpt lat="47.8626" lon="-2.6495">
        <ele>130.88</ele>
        <time>2016-10-28T08:55:33Z</time>
      </trkpt>
      <trkpt lat="47.86263" lon="-2.64936">
        <ele>129.92</ele>
        <time>2016-10-28T08:55:40Z</time>
      </trkpt>
      <trkpt lat="47.86264" lon="-2.6492">
        <ele>129.92</ele>
        <time>2016-10-28T08:55:46Z</time>
      </trkpt>
      <trkpt lat="47.86264" lon="-2.64905">
        <ele>128.95</ele>
        <time>2016-10-28T08:55:52Z</time>
      </trkpt>
      <trkpt lat="47.86263" lon="-2.64891">
        <ele>128.47</ele>
        <time>2016-10-28T08:55:58Z</time>
      </trkpt>
      <trkpt lat="47.86262" lon="-2.64876">
        <ele>127.99</ele>
        <time>2016-10-28T08:56:04Z</time>
      </trkpt>
      <trkpt lat="47.86261" lon="-2.6486">
        <ele>127.51</ele>
        <time>2016-10-28T08:56:10Z</time>
      </trkpt>
      <trkpt lat="47.8626" lon="-2.64845">
        <ele>127.99</ele>
        <time>2016-10-28T08:56:16Z</time>
      </trkpt>
      <trkpt lat="47.86258" lon="-2.6483">
        <ele>127.51</ele>
        <time>2016-10-28T08:56:22Z</time>
      </trkpt>
      <trkpt lat="47.86254" lon="-2.64817">
        <ele>127.99</ele>
        <time>2016-10-28T08:56:27Z</time>
      </trkpt>
      <trkpt lat="47.8625" lon="-2.64802">
        <ele>128.47</ele>
        <time>2016-10-28T08:56:34Z</time>
      </trkpt>
      <trkpt lat="47.86249" lon="-2.64787">
        <ele>128.95</ele>
        <time>2016-10-28T08:56:41Z</time>
      </trkpt>
      <trkpt lat="47.86251" lon="-2.6477">
        <ele>129.92</ele>
        <time>2016-10-28T08:56:48Z</time>
      </trkpt>
      <trkpt lat="47.86258" lon="-2.64759">
        <ele>130.4</ele>
        <time>2016-10-28T08:56:54Z</time>
      </trkpt>
      <trkpt lat="47.86268" lon="-2.64753">
        <ele>130.88</ele>
        <time>2016-10-28T08:57:01Z</time>
      </trkpt>
      <trkpt lat="47.86277" lon="-2.64747">
        <ele>131.36</ele>
        <time>2016-10-28T08:57:07Z</time>
      </trkpt>
      <trkpt lat="47.86286" lon="-2.64742">
        <ele>131.36</ele>
        <time>2016-10-28T08:57:13Z</time>
      </trkpt>
      <trkpt lat="47.86295" lon="-2.64739">
        <ele>131.36</ele>
        <time>2016-10-28T08:57:18Z</time>
      </trkpt>
      <trkpt lat="47.86304" lon="-2.64738">
        <ele>131.36</ele>
        <time>2016-10-28T08:57:25Z</time>
      </trkpt>
      <trkpt lat="47.86314" lon="-2.64744">
        <ele>130.88</ele>
        <time>2016-10-28T08:57:31Z</time>
      </trkpt>
      <trkpt lat="47.86323" lon="-2.64749">
        <ele>129.92</ele>
        <time>2016-10-28T08:57:36Z</time>
      </trkpt>
      <trkpt lat="47.86333" lon="-2.64752">
        <ele>129.43</ele>
        <time>2016-10-28T08:57:42Z</time>
      </trkpt>
      <trkpt lat="47.86343" lon="-2.6476">
        <ele>128.95</ele>
        <time>2016-10-28T08:57:48Z</time>
      </trkpt>
      <trkpt lat="47.86352" lon="-2.64769">
        <ele>128.47</ele>
        <time>2016-10-28T08:57:54Z</time>
      </trkpt>
      <trkpt lat="47.86361" lon="-2.64776">
        <ele>127.99</ele>
        <time>2016-10-28T08:57:58Z</time>
      </trkpt>
      <trkpt lat="47.86369" lon="-2.64783">
        <ele>127.03</ele>
        <time>2016-10-28T08:58:03Z</time>
      </trkpt>
      <trkpt lat="47.86379" lon="-2.6479">
        <ele>126.55</ele>
        <time>2016-10-28T08:58:09Z</time>
      </trkpt>
      <trkpt lat="47.86387" lon="-2.64797">
        <ele>125.59</ele>
        <time>2016-10-28T08:58:15Z</time>
      </trkpt>
      <trkpt lat="47.86398" lon="-2.64805">
        <ele>124.63</ele>
        <time>2016-10-28T08:58:21Z</time>
      </trkpt>
      <trkpt lat="47.86406" lon="-2.64811">
        <ele>124.15</ele>
        <time>2016-10-28T08:58:27Z</time>
      </trkpt>
      <trkpt lat="47.86415" lon="-2.64819">
        <ele>123.19</ele>
        <time>2016-10-28T08:58:32Z</time>
      </trkpt>
      <trkpt lat="47.86424" lon="-2.64826">
        <ele>122.71</ele>
        <time>2016-10-28T08:58:37Z</time>
      </trkpt>
      <trkpt lat="47.86434" lon="-2.64833">
        <ele>121.74</ele>
        <time>2016-10-28T08:58:43Z</time>
      </trkpt>
      <trkpt lat="47.86443" lon="-2.64841">
        <ele>121.26</ele>
        <time>2016-10-28T08:58:49Z</time>
      </trkpt>
      <trkpt lat="47.86452" lon="-2.64848">
        <ele>120.3</ele>
        <time>2016-10-28T08:58:55Z</time>
      </trkpt>
      <trkpt lat="47.86461" lon="-2.64856">
        <ele>119.34</ele>
        <time>2016-10-28T08:59:01Z</time>
      </trkpt>
      <trkpt lat="47.86471" lon="-2.64862">
        <ele>118.38</ele>
        <time>2016-10-28T08:59:07Z</time>
      </trkpt>
      <trkpt lat="47.8648" lon="-2.64868">
        <ele>117.42</ele>
        <time>2016-10-28T08:59:12Z</time>
      </trkpt>
      <trkpt lat="47.86489" lon="-2.64866">
        <ele>116.94</ele>
        <time>2016-10-28T08:59:18Z</time>
      </trkpt>
      <trkpt lat="47.86491" lon="-2.6485">
        <ele>116.94</ele>
        <time>2016-10-28T08:59:24Z</time>
      </trkpt>
      <trkpt lat="47.86494" lon="-2.64837">
        <ele>116.94</ele>
        <time>2016-10-28T08:59:29Z</time>
      </trkpt>
      <trkpt lat="47.86497" lon="-2.64824">
        <ele>116.94</ele>
        <time>2016-10-28T08:59:34Z</time>
      </trkpt>
      <trkpt lat="47.865" lon="-2.64812">
        <ele>116.94</ele>
        <time>2016-10-28T08:59:39Z</time>
      </trkpt>
      <trkpt lat="47.86503" lon="-2.64797">
        <ele>116.94</ele>
        <time>2016-10-28T08:59:45Z</time>
      </trkpt>
      <trkpt lat="47.86506" lon="-2.64782">
        <ele>116.94</ele>
        <time>2016-10-28T08:59:51Z</time>
      </trkpt>
      <trkpt lat="47.86512" lon="-2.64769">
        <ele>116.46</ele>
        <time>2016-10-28T08:59:56Z</time>
      </trkpt>
      <trkpt lat="47.86515" lon="-2.64757">
        <ele>115.98</ele>
        <time>2016-10-28T09:00:01Z</time>
      </trkpt>
      <trkpt lat="47.86518" lon="-2.64742">
        <ele>115.5</ele>
        <time>2016-10-28T09:00:07Z</time>
      </trkpt>
      <trkpt lat="47.86523" lon="-2.64728">
        <ele>114.53</ele>
        <time>2016-10-28T09:00:13Z</time>
      </trkpt>
      <trkpt lat="47.86526" lon="-2.64713">
        <ele>114.53</ele>
        <time>2016-10-28T09:00:19Z</time>
      </trkpt>
      <trkpt lat="47.86532" lon="-2.64702">
        <ele>114.05</ele>
        <time>2016-10-28T09:00:24Z</time>
      </trkpt>
      <trkpt lat="47.86538" lon="-2.64687">
        <ele>113.57</ele>
        <time>2016-10-28T09:00:31Z</time>
      </trkpt>
      <trkpt lat="47.86541" lon="-2.64672">
        <ele>113.57</ele>
        <time>2016-10-28T09:00:37Z</time>
      </trkpt>
      <trkpt lat="47.8654" lon="-2.64657">
        <ele>113.09</ele>
        <time>2016-10-28T09:00:44Z</time>
      </trkpt>
      <trkpt lat="47.86541" lon="-2.6464">
        <ele>112.61</ele>
        <time>2016-10-28T09:00:50Z</time>
      </trkpt>
      <trkpt lat="47.86539" lon="-2.64625">
        <ele>111.65</ele>
        <time>2016-10-28T09:00:56Z</time>
      </trkpt>
      <trkpt lat="47.86543" lon="-2.64608">
        <ele>111.65</ele>
        <time>2016-10-28T09:01:02Z</time>
      </trkpt>
      <trkpt lat="47.86546" lon="-2.64591">
        <ele>112.13</ele>
        <time>2016-10-28T09:01:08Z</time>
      </trkpt>
      <trkpt lat="47.86554" lon="-2.64583">
        <ele>112.61</ele>
        <time>2016-10-28T09:01:16Z</time>
      </trkpt>
      <trkpt lat="47.8657" lon="-2.64575">
        <ele>112.13</ele>
        <time>2016-10-28T09:01:24Z</time>
      </trkpt>
      <trkpt lat="47.86585" lon="-2.64566">
        <ele>112.13</ele>
        <time>2016-10-28T09:01:32Z</time>
      </trkpt>
      <trkpt lat="47.86593" lon="-2.64552">
        <ele>111.65</ele>
        <time>2016-10-28T09:01:41Z</time>
      </trkpt>
      <trkpt lat="47.86603" lon="-2.64536">
        <ele>111.17</ele>
        <time>2016-10-28T09:01:49Z</time>
      </trkpt>
      <trkpt lat="47.86612" lon="-2.64523">
        <ele>111.17</ele>
        <time>2016-10-28T09:01:55Z</time>
      </trkpt>
      <trkpt lat="47.86619" lon="-2.64511">
        <ele>111.17</ele>
        <time>2016-10-28T09:02:01Z</time>
      </trkpt>
      <trkpt lat="47.86627" lon="-2.64497">
        <ele>110.69</ele>
        <time>2016-10-28T09:02:08Z</time>
      </trkpt>
      <trkpt lat="47.86634" lon="-2.64481">
        <ele>110.69</ele>
        <time>2016-10-28T09:02:15Z</time>
      </trkpt>
      <trkpt lat="47.86642" lon="-2.64466">
        <ele>110.69</ele>
        <time>2016-10-28T09:02:21Z</time>
      </trkpt>
      <trkpt lat="47.86645" lon="-2.64451">
        <ele>110.21</ele>
        <time>2016-10-28T09:02:27Z</time>
      </trkpt>
      <trkpt lat="47.86649" lon="-2.64435">
        <ele>110.21</ele>
        <time>2016-10-28T09:02:33Z</time>
      </trkpt>
      <trkpt lat="47.86656" lon="-2.6442">
        <ele>110.21</ele>
        <time>2016-10-28T09:02:39Z</time>
      </trkpt>
      <trkpt lat="47.86663" lon="-2.64407">
        <ele>109.73</ele>
        <time>2016-10-28T09:02:45Z</time>
      </trkpt>
      <trkpt lat="47.86666" lon="-2.64393">
        <ele>109.73</ele>
        <time>2016-10-28T09:02:51Z</time>
      </trkpt>
      <trkpt lat="47.8667" lon="-2.64378">
        <ele>109.73</ele>
        <time>2016-10-28T09:02:57Z</time>
      </trkpt>
      <trkpt lat="47.8667" lon="-2.64364">
        <ele>109.25</ele>
        <time>2016-10-28T09:03:03Z</time>
      </trkpt>
      <trkpt lat="47.86668" lon="-2.64347">
        <ele>109.73</ele>
        <time>2016-10-28T09:03:10Z</time>
      </trkpt>
      <trkpt lat="47.86666" lon="-2.64332">
        <ele>109.73</ele>
        <time>2016-10-28T09:03:16Z</time>
      </trkpt>
      <trkpt lat="47.86665" lon="-2.64316">
        <ele>109.73</ele>
        <time>2016-10-28T09:03:22Z</time>
      </trkpt>
      <trkpt lat="47.86666" lon="-2.64301">
        <ele>109.73</ele>
        <time>2016-10-28T09:03:27Z</time>
      </trkpt>
      <trkpt lat="47.86663" lon="-2.64284">
        <ele>109.73</ele>
        <time>2016-10-28T09:03:32Z</time>
      </trkpt>
      <trkpt lat="47.86659" lon="-2.64268">
        <ele>109.73</ele>
        <time>2016-10-28T09:03:38Z</time>
      </trkpt>
      <trkpt lat="47.86655" lon="-2.64252">
        <ele>109.73</ele>
        <time>2016-10-28T09:03:44Z</time>
      </trkpt>
      <trkpt lat="47.86652" lon="-2.64237">
        <ele>110.21</ele>
        <time>2016-10-28T09:03:51Z</time>
      </trkpt>
      <trkpt lat="47.86651" lon="-2.6422">
        <ele>110.21</ele>
        <time>2016-10-28T09:03:57Z</time>
      </trkpt>
      <trkpt lat="47.86652" lon="-2.64201">
        <ele>111.17</ele>
        <time>2016-10-28T09:04:05Z</time>
      </trkpt>
      <trkpt lat="47.86652" lon="-2.64184">
        <ele>111.65</ele>
        <time>2016-10-28T09:04:11Z</time>
      </trkpt>
      <trkpt lat="47.86651" lon="-2.64166">
        <ele>112.61</ele>
        <time>2016-10-28T09:04:18Z</time>
      </trkpt>
      <trkpt lat="47.8665" lon="-2.64149">
        <ele>113.57</ele>
        <time>2016-10-28T09:04:22Z</time>
      </trkpt>
      <trkpt lat="47.86649" lon="-2.64131">
        <ele>114.53</ele>
        <time>2016-10-28T09:04:26Z</time>
      </trkpt>
      <trkpt lat="47.86654" lon="-2.64113">
        <ele>114.53</ele>
        <time>2016-10-28T09:04:30Z</time>
      </trkpt>
      <trkpt lat="47.86667" lon="-2.64102">
        <ele>114.05</ele>
        <time>2016-10-28T09:04:34Z</time>
      </trkpt>
      <trkpt lat="47.86682" lon="-2.64098">
        <ele>113.57</ele>
        <time>2016-10-28T09:04:37Z</time>
      </trkpt>
      <trkpt lat="47.86694" lon="-2.64095">
        <ele>112.61</ele>
        <time>2016-10-28T09:04:40Z</time>
      </trkpt>
      <trkpt lat="47.86706" lon="-2.64092">
        <ele>111.65</ele>
        <time>2016-10-28T09:04:43Z</time>
      </trkpt>
      <trkpt lat="47.8672" lon="-2.64092">
        <ele>111.17</ele>
        <time>2016-10-28T09:04:46Z</time>
      </trkpt>
      <trkpt lat="47.86734" lon="-2.6409">
        <ele>111.65</ele>
        <time>2016-10-28T09:04:49Z</time>
      </trkpt>
      <trkpt lat="47.86744" lon="-2.6409">
        <ele>111.17</ele>
        <time>2016-10-28T09:04:51Z</time>
      </trkpt>
      <trkpt lat="47.86754" lon="-2.64093">
        <ele>111.65</ele>
        <time>2016-10-28T09:04:53Z</time>
      </trkpt>
      <trkpt lat="47.86768" lon="-2.64095">
        <ele>112.61</ele>
        <time>2016-10-28T09:04:56Z</time>
      </trkpt>
      <trkpt lat="47.86781" lon="-2.64092">
        <ele>112.61</ele>
        <time>2016-10-28T09:04:59Z</time>
      </trkpt>
      <trkpt lat="47.86792" lon="-2.64084">
        <ele>113.09</ele>
        <time>2016-10-28T09:05:02Z</time>
      </trkpt>
      <trkpt lat="47.86801" lon="-2.64076">
        <ele>113.09</ele>
        <time>2016-10-28T09:05:05Z</time>
      </trkpt>
      <trkpt lat="47.86808" lon="-2.64066">
        <ele>114.05</ele>
        <time>2016-10-28T09:05:09Z</time>
      </trkpt>
      <trkpt lat="47.86817" lon="-2.6406">
        <ele>114.05</ele>
        <time>2016-10-28T09:05:15Z</time>
      </trkpt>
      <trkpt lat="47.86826" lon="-2.64056">
        <ele>114.05</ele>
        <time>2016-10-28T09:05:21Z</time>
      </trkpt>
      <trkpt lat="47.86837" lon="-2.64057">
        <ele>114.05</ele>
        <time>2016-10-28T09:05:27Z</time>
      </trkpt>
      <trkpt lat="47.86843" lon="-2.64046">
        <ele>115.01</ele>
        <time>2016-10-28T09:05:33Z</time>
      </trkpt>
      <trkpt lat="47.86846" lon="-2.64032">
        <ele>115.5</ele>
        <time>2016-10-28T09:05:39Z</time>
      </trkpt>
      <trkpt lat="47.86849" lon="-2.64017">
        <ele>115.5</ele>
        <time>2016-10-28T09:05:45Z</time>
      </trkpt>
      <trkpt lat="47.86851" lon="-2.64003">
        <ele>115.5</ele>
        <time>2016-10-28T09:05:51Z</time>
      </trkpt>
      <trkpt lat="47.86852" lon="-2.63988">
        <ele>115.98</ele>
        <time>2016-10-28T09:05:57Z</time>
      </trkpt>
      <trkpt lat="47.86852" lon="-2.63973">
        <ele>115.98</ele>
        <time>2016-10-28T09:06:02Z</time>
      </trkpt>
      <trkpt lat="47.86854" lon="-2.6396">
        <ele>115.98</ele>
        <time>2016-10-28T09:06:08Z</time>
      </trkpt>
      <trkpt lat="47.86854" lon="-2.63945">
        <ele>116.46</ele>
        <time>2016-10-28T09:06:14Z</time>
      </trkpt>
      <trkpt lat="47.86854" lon="-2.63931">
        <ele>116.46</ele>
        <time>2016-10-28T09:06:20Z</time>
      </trkpt>
      <trkpt lat="47.86857" lon="-2.63917">
        <ele>116.94</ele>
        <time>2016-10-28T09:06:26Z</time>
      </trkpt>
      <trkpt lat="47.86857" lon="-2.63901">
        <ele>116.94</ele>
        <time>2016-10-28T09:06:32Z</time>
      </trkpt>
      <trkpt lat="47.86858" lon="-2.63886">
        <ele>116.94</ele>
        <time>2016-10-28T09:06:38Z</time>
      </trkpt>
      <trkpt lat="47.8686" lon="-2.63871">
        <ele>117.9</ele>
        <time>2016-10-28T09:06:44Z</time>
      </trkpt>
      <trkpt lat="47.8686" lon="-2.63857">
        <ele>117.9</ele>
        <time>2016-10-28T09:06:49Z</time>
      </trkpt>
      <trkpt lat="47.8686" lon="-2.63842">
        <ele>119.34</ele>
        <time>2016-10-28T09:06:56Z</time>
      </trkpt>
      <trkpt lat="47.86861" lon="-2.63827">
        <ele>118.38</ele>
        <time>2016-10-28T09:07:02Z</time>
      </trkpt>
      <trkpt lat="47.86861" lon="-2.63813">
        <ele>118.38</ele>
        <time>2016-10-28T09:07:08Z</time>
      </trkpt>
      <trkpt lat="47.8686" lon="-2.638">
        <ele>118.86</ele>
        <time>2016-10-28T09:07:13Z</time>
      </trkpt>
      <trkpt lat="47.8686" lon="-2.63784">
        <ele>119.34</ele>
        <time>2016-10-28T09:07:19Z</time>
      </trkpt>
      <trkpt lat="47.86859" lon="-2.63769">
        <ele>118.86</ele>
        <time>2016-10-28T09:07:25Z</time>
      </trkpt>
      <trkpt lat="47.86859" lon="-2.63754">
        <ele>119.34</ele>
        <time>2016-10-28T09:07:31Z</time>
      </trkpt>
      <trkpt lat="47.86858" lon="-2.63738">
        <ele>119.34</ele>
        <time>2016-10-28T09:07:37Z</time>
      </trkpt>
      <trkpt lat="47.86856" lon="-2.63722">
        <ele>119.34</ele>
        <time>2016-10-28T09:07:43Z</time>
      </trkpt>
      <trkpt lat="47.86858" lon="-2.63707">
        <ele>119.34</ele>
        <time>2016-10-28T09:07:49Z</time>
      </trkpt>
      <trkpt lat="47.86856" lon="-2.63692">
        <ele>119.34</ele>
        <time>2016-10-28T09:07:55Z</time>
      </trkpt>
      <trkpt lat="47.86855" lon="-2.63676">
        <ele>118.86</ele>
        <time>2016-10-28T09:08:01Z</time>
      </trkpt>
      <trkpt lat="47.86856" lon="-2.63661">
        <ele>118.86</ele>
        <time>2016-10-28T09:08:07Z</time>
      </trkpt>
      <trkpt lat="47.86855" lon="-2.63648">
        <ele>118.38</ele>
        <time>2016-10-28T09:08:12Z</time>
      </trkpt>
      <trkpt lat="47.86855" lon="-2.63633">
        <ele>118.38</ele>
        <time>2016-10-28T09:08:18Z</time>
      </trkpt>
      <trkpt lat="47.86857" lon="-2.63621">
        <ele>117.9</ele>
        <time>2016-10-28T09:08:23Z</time>
      </trkpt>
      <trkpt lat="47.86859" lon="-2.63607">
        <ele>117.9</ele>
        <time>2016-10-28T09:08:28Z</time>
      </trkpt>
      <trkpt lat="47.86863" lon="-2.63595">
        <ele>117.42</ele>
        <time>2016-10-28T09:08:33Z</time>
      </trkpt>
      <trkpt lat="47.86867" lon="-2.63582">
        <ele>117.42</ele>
        <time>2016-10-28T09:08:38Z</time>
      </trkpt>
      <trkpt lat="47.86871" lon="-2.63568">
        <ele>116.94</ele>
        <time>2016-10-28T09:08:44Z</time>
      </trkpt>
      <trkpt lat="47.86872" lon="-2.63554">
        <ele>116.94</ele>
        <time>2016-10-28T09:08:49Z</time>
      </trkpt>
      <trkpt lat="47.86874" lon="-2.63539">
        <ele>116.94</ele>
        <time>2016-10-28T09:08:55Z</time>
      </trkpt>
      <trkpt lat="47.86872" lon="-2.63525">
        <ele>116.94</ele>
        <time>2016-10-28T09:09:00Z</time>
      </trkpt>
      <trkpt lat="47.86869" lon="-2.63508">
        <ele>116.94</ele>
        <time>2016-10-28T09:09:07Z</time>
      </trkpt>
      <trkpt lat="47.86865" lon="-2.63494">
        <ele>116.94</ele>
        <time>2016-10-28T09:09:13Z</time>
      </trkpt>
      <trkpt lat="47.8686" lon="-2.63479">
        <ele>116.94</ele>
        <time>2016-10-28T09:09:19Z</time>
      </trkpt>
      <trkpt lat="47.86855" lon="-2.63466">
        <ele>116.94</ele>
        <time>2016-10-28T09:09:25Z</time>
      </trkpt>
      <trkpt lat="47.86851" lon="-2.63453">
        <ele>117.42</ele>
        <time>2016-10-28T09:09:31Z</time>
      </trkpt>
      <trkpt lat="47.86847" lon="-2.6344">
        <ele>117.42</ele>
        <time>2016-10-28T09:09:36Z</time>
      </trkpt>
      <trkpt lat="47.86848" lon="-2.63424">
        <ele>117.42</ele>
        <time>2016-10-28T09:09:42Z</time>
      </trkpt>
      <trkpt lat="47.86851" lon="-2.63409">
        <ele>117.42</ele>
        <time>2016-10-28T09:09:48Z</time>
      </trkpt>
      <trkpt lat="47.86853" lon="-2.63395">
        <ele>117.42</ele>
        <time>2016-10-28T09:09:53Z</time>
      </trkpt>
      <trkpt lat="47.86857" lon="-2.63382">
        <ele>117.42</ele>
        <time>2016-10-28T09:09:59Z</time>
      </trkpt>
      <trkpt lat="47.86861" lon="-2.63369">
        <ele>117.42</ele>
        <time>2016-10-28T09:10:05Z</time>
      </trkpt>
      <trkpt lat="47.86862" lon="-2.63356">
        <ele>117.42</ele>
        <time>2016-10-28T09:10:10Z</time>
      </trkpt>
      <trkpt lat="47.86865" lon="-2.63342">
        <ele>117.42</ele>
        <time>2016-10-28T09:10:16Z</time>
      </trkpt>
      <trkpt lat="47.86869" lon="-2.63328">
        <ele>117.42</ele>
        <time>2016-10-28T09:10:23Z</time>
      </trkpt>
      <trkpt lat="47.86873" lon="-2.63316">
        <ele>117.42</ele>
        <time>2016-10-28T09:10:35Z</time>
      </trkpt>
      <trkpt lat="47.86858" lon="-2.63261">
        <ele>116.46</ele>
        <time>2016-10-28T09:34:22Z</time>
      </trkpt>
      <trkpt lat="47.86851" lon="-2.63247">
        <ele>115.98</ele>
        <time>2016-10-28T09:34:28Z</time>
      </trkpt>
      <trkpt lat="47.86846" lon="-2.63235">
        <ele>115.5</ele>
        <time>2016-10-28T09:34:34Z</time>
      </trkpt>
      <trkpt lat="47.86838" lon="-2.63227">
        <ele>115.01</ele>
        <time>2016-10-28T09:34:40Z</time>
      </trkpt>
      <trkpt lat="47.86829" lon="-2.63222">
        <ele>115.5</ele>
        <time>2016-10-28T09:34:46Z</time>
      </trkpt>
      <trkpt lat="47.86821" lon="-2.63215">
        <ele>115.5</ele>
        <time>2016-10-28T09:34:52Z</time>
      </trkpt>
      <trkpt lat="47.86817" lon="-2.632">
        <ele>115.01</ele>
        <time>2016-10-28T09:34:59Z</time>
      </trkpt>
      <trkpt lat="47.86822" lon="-2.63186">
        <ele>115.01</ele>
        <time>2016-10-28T09:35:05Z</time>
      </trkpt>
      <trkpt lat="47.86826" lon="-2.63172">
        <ele>115.01</ele>
        <time>2016-10-28T09:35:11Z</time>
      </trkpt>
      <trkpt lat="47.8683" lon="-2.6316">
        <ele>114.53</ele>
        <time>2016-10-28T09:35:16Z</time>
      </trkpt>
      <trkpt lat="47.86834" lon="-2.63145">
        <ele>114.53</ele>
        <time>2016-10-28T09:35:22Z</time>
      </trkpt>
      <trkpt lat="47.86837" lon="-2.6313">
        <ele>115.01</ele>
        <time>2016-10-28T09:35:28Z</time>
      </trkpt>
      <trkpt lat="47.86839" lon="-2.63115">
        <ele>115.01</ele>
        <time>2016-10-28T09:35:34Z</time>
      </trkpt>
      <trkpt lat="47.8684" lon="-2.63102">
        <ele>115.98</ele>
        <time>2016-10-28T09:35:38Z</time>
      </trkpt>
      <trkpt lat="47.86841" lon="-2.63087">
        <ele>116.46</ele>
        <time>2016-10-28T09:35:41Z</time>
      </trkpt>
      <trkpt lat="47.8684" lon="-2.63072">
        <ele>117.42</ele>
        <time>2016-10-28T09:35:44Z</time>
      </trkpt>
      <trkpt lat="47.8684" lon="-2.63058">
        <ele>118.38</ele>
        <time>2016-10-28T09:35:47Z</time>
      </trkpt>
      <trkpt lat="47.86839" lon="-2.63045">
        <ele>119.34</ele>
        <time>2016-10-28T09:35:50Z</time>
      </trkpt>
      <trkpt lat="47.86839" lon="-2.63027">
        <ele>121.26</ele>
        <time>2016-10-28T09:35:54Z</time>
      </trkpt>
      <trkpt lat="47.86839" lon="-2.6301">
        <ele>122.71</ele>
        <time>2016-10-28T09:35:58Z</time>
      </trkpt>
      <trkpt lat="47.8684" lon="-2.62994">
        <ele>123.67</ele>
        <time>2016-10-28T09:36:01Z</time>
      </trkpt>
      <trkpt lat="47.86842" lon="-2.62979">
        <ele>124.63</ele>
        <time>2016-10-28T09:36:04Z</time>
      </trkpt>
      <trkpt lat="47.86844" lon="-2.62965">
        <ele>126.07</ele>
        <time>2016-10-28T09:36:07Z</time>
      </trkpt>
      <trkpt lat="47.86846" lon="-2.62951">
        <ele>126.55</ele>
        <time>2016-10-28T09:36:10Z</time>
      </trkpt>
      <trkpt lat="47.86846" lon="-2.62936">
        <ele>127.51</ele>
        <time>2016-10-28T09:36:13Z</time>
      </trkpt>
      <trkpt lat="47.86846" lon="-2.62922">
        <ele>128.47</ele>
        <time>2016-10-28T09:36:16Z</time>
      </trkpt>
      <trkpt lat="47.86845" lon="-2.62905">
        <ele>129.92</ele>
        <time>2016-10-28T09:36:20Z</time>
      </trkpt>
      <trkpt lat="47.8685" lon="-2.62892">
        <ele>131.36</ele>
        <time>2016-10-28T09:36:23Z</time>
      </trkpt>
      <trkpt lat="47.86855" lon="-2.6288">
        <ele>132.8</ele>
        <time>2016-10-28T09:36:26Z</time>
      </trkpt>
      <trkpt lat="47.86859" lon="-2.62866">
        <ele>134.24</ele>
        <time>2016-10-28T09:36:29Z</time>
      </trkpt>
      <trkpt lat="47.86863" lon="-2.62854">
        <ele>135.68</ele>
        <time>2016-10-28T09:36:32Z</time>
      </trkpt>
      <trkpt lat="47.86867" lon="-2.62839">
        <ele>137.61</ele>
        <time>2016-10-28T09:36:35Z</time>
      </trkpt>
      <trkpt lat="47.86871" lon="-2.62826">
        <ele>139.53</ele>
        <time>2016-10-28T09:36:38Z</time>
      </trkpt>
      <trkpt lat="47.86873" lon="-2.62813">
        <ele>141.93</ele>
        <time>2016-10-28T09:36:41Z</time>
      </trkpt>
      <trkpt lat="47.86875" lon="-2.62801">
        <ele>144.34</ele>
        <time>2016-10-28T09:36:54Z</time>
      </trkpt>
      <trkpt lat="47.86867" lon="-2.62792">
        <ele>145.78</ele>
        <time>2016-10-28T09:37:02Z</time>
      </trkpt>
      <trkpt lat="47.86854" lon="-2.62785">
        <ele>146.74</ele>
        <time>2016-10-28T09:37:06Z</time>
      </trkpt>
      <trkpt lat="47.86842" lon="-2.62778">
        <ele>147.7</ele>
        <time>2016-10-28T09:37:09Z</time>
      </trkpt>
      <trkpt lat="47.86828" lon="-2.6277">
        <ele>148.18</ele>
        <time>2016-10-28T09:37:12Z</time>
      </trkpt>
      <trkpt lat="47.86816" lon="-2.62762">
        <ele>148.66</ele>
        <time>2016-10-28T09:37:15Z</time>
      </trkpt>
      <trkpt lat="47.86804" lon="-2.62752">
        <ele>149.62</ele>
        <time>2016-10-28T09:37:18Z</time>
      </trkpt>
      <trkpt lat="47.86792" lon="-2.62744">
        <ele>150.58</ele>
        <time>2016-10-28T09:37:21Z</time>
      </trkpt>
      <trkpt lat="47.86782" lon="-2.62737">
        <ele>151.06</ele>
        <time>2016-10-28T09:37:24Z</time>
      </trkpt>
      <trkpt lat="47.86771" lon="-2.62732">
        <ele>151.54</ele>
        <time>2016-10-28T09:37:27Z</time>
      </trkpt>
      <trkpt lat="47.86759" lon="-2.62726">
        <ele>152.03</ele>
        <time>2016-10-28T09:37:30Z</time>
      </trkpt>
      <trkpt lat="47.86748" lon="-2.62721">
        <ele>152.03</ele>
        <time>2016-10-28T09:37:33Z</time>
      </trkpt>
      <trkpt lat="47.86737" lon="-2.62716">
        <ele>152.51</ele>
        <time>2016-10-28T09:37:36Z</time>
      </trkpt>
      <trkpt lat="47.86727" lon="-2.62708">
        <ele>152.99</ele>
        <time>2016-10-28T09:37:39Z</time>
      </trkpt>
      <trkpt lat="47.86719" lon="-2.62703">
        <ele>152.99</ele>
        <time>2016-10-28T09:37:42Z</time>
      </trkpt>
      <trkpt lat="47.8671" lon="-2.62699">
        <ele>153.47</ele>
        <time>2016-10-28T09:37:45Z</time>
      </trkpt>
      <trkpt lat="47.86699" lon="-2.62694">
        <ele>153.47</ele>
        <time>2016-10-28T09:37:49Z</time>
      </trkpt>
      <trkpt lat="47.86691" lon="-2.62684">
        <ele>153.95</ele>
        <time>2016-10-28T09:37:56Z</time>
      </trkpt>
      <trkpt lat="47.86692" lon="-2.62668">
        <ele>154.43</ele>
        <time>2016-10-28T09:38:02Z</time>
      </trkpt>
      <trkpt lat="47.86695" lon="-2.62652">
        <ele>154.91</ele>
        <time>2016-10-28T09:38:08Z</time>
      </trkpt>
      <trkpt lat="47.86698" lon="-2.62638">
        <ele>155.39</ele>
        <time>2016-10-28T09:38:14Z</time>
      </trkpt>
      <trkpt lat="47.86701" lon="-2.62623">
        <ele>156.35</ele>
        <time>2016-10-28T09:38:20Z</time>
      </trkpt>
      <trkpt lat="47.86703" lon="-2.6261">
        <ele>156.83</ele>
        <time>2016-10-28T09:38:25Z</time>
      </trkpt>
      <trkpt lat="47.86705" lon="-2.62597">
        <ele>157.31</ele>
        <time>2016-10-28T09:38:31Z</time>
      </trkpt>
      <trkpt lat="47.86706" lon="-2.62582">
        <ele>157.31</ele>
        <time>2016-10-28T09:38:37Z</time>
      </trkpt>
      <trkpt lat="47.86708" lon="-2.62568">
        <ele>157.79</ele>
        <time>2016-10-28T09:38:43Z</time>
      </trkpt>
      <trkpt lat="47.86709" lon="-2.62552">
        <ele>157.79</ele>
        <time>2016-10-28T09:38:49Z</time>
      </trkpt>
      <trkpt lat="47.86712" lon="-2.62538">
        <ele>158.27</ele>
        <time>2016-10-28T09:38:55Z</time>
      </trkpt>
      <trkpt lat="47.86715" lon="-2.62525">
        <ele>158.75</ele>
        <time>2016-10-28T09:39:00Z</time>
      </trkpt>
      <trkpt lat="47.86717" lon="-2.62511">
        <ele>158.75</ele>
        <time>2016-10-28T09:39:05Z</time>
      </trkpt>
      <trkpt lat="47.86719" lon="-2.62499">
        <ele>159.24</ele>
        <time>2016-10-28T09:39:11Z</time>
      </trkpt>
      <trkpt lat="47.86722" lon="-2.62486">
        <ele>159.24</ele>
        <time>2016-10-28T09:39:17Z</time>
      </trkpt>
      <trkpt lat="47.86725" lon="-2.62472">
        <ele>159.24</ele>
        <time>2016-10-28T09:39:23Z</time>
      </trkpt>
      <trkpt lat="47.86729" lon="-2.6246">
        <ele>159.24</ele>
        <time>2016-10-28T09:39:28Z</time>
      </trkpt>
      <trkpt lat="47.86732" lon="-2.62446">
        <ele>159.72</ele>
        <time>2016-10-28T09:39:34Z</time>
      </trkpt>
      <trkpt lat="47.86736" lon="-2.62433">
        <ele>159.72</ele>
        <time>2016-10-28T09:39:40Z</time>
      </trkpt>
      <trkpt lat="47.8674" lon="-2.62418">
        <ele>160.2</ele>
        <time>2016-10-28T09:39:46Z</time>
      </trkpt>
      <trkpt lat="47.86743" lon="-2.62404">
        <ele>159.72</ele>
        <time>2016-10-28T09:39:52Z</time>
      </trkpt>
      <trkpt lat="47.86742" lon="-2.6239">
        <ele>160.2</ele>
        <time>2016-10-28T09:39:58Z</time>
      </trkpt>
      <trkpt lat="47.86734" lon="-2.62381">
        <ele>159.72</ele>
        <time>2016-10-28T09:40:04Z</time>
      </trkpt>
      <trkpt lat="47.86726" lon="-2.62373">
        <ele>160.2</ele>
        <time>2016-10-28T09:40:10Z</time>
      </trkpt>
      <trkpt lat="47.86717" lon="-2.62366">
        <ele>160.2</ele>
        <time>2016-10-28T09:40:16Z</time>
      </trkpt>
      <trkpt lat="47.86708" lon="-2.62359">
        <ele>160.2</ele>
        <time>2016-10-28T09:40:22Z</time>
      </trkpt>
      <trkpt lat="47.867" lon="-2.62353">
        <ele>160.2</ele>
        <time>2016-10-28T09:40:28Z</time>
      </trkpt>
      <trkpt lat="47.86692" lon="-2.62346">
        <ele>159.72</ele>
        <time>2016-10-28T09:40:33Z</time>
      </trkpt>
      <trkpt lat="47.86683" lon="-2.62339">
        <ele>159.72</ele>
        <time>2016-10-28T09:40:39Z</time>
      </trkpt>
      <trkpt lat="47.86675" lon="-2.62332">
        <ele>159.72</ele>
        <time>2016-10-28T09:40:45Z</time>
      </trkpt>
      <trkpt lat="47.86666" lon="-2.62326">
        <ele>159.72</ele>
        <time>2016-10-28T09:40:51Z</time>
      </trkpt>
      <trkpt lat="47.86658" lon="-2.62322">
        <ele>159.24</ele>
        <time>2016-10-28T09:40:57Z</time>
      </trkpt>
      <trkpt lat="47.86649" lon="-2.62319">
        <ele>159.24</ele>
        <time>2016-10-28T09:41:03Z</time>
      </trkpt>
      <trkpt lat="47.8664" lon="-2.62313">
        <ele>159.24</ele>
        <time>2016-10-28T09:41:10Z</time>
      </trkpt>
      <trkpt lat="47.8663" lon="-2.62309">
        <ele>158.75</ele>
        <time>2016-10-28T09:41:16Z</time>
      </trkpt>
      <trkpt lat="47.86621" lon="-2.62305">
        <ele>158.75</ele>
        <time>2016-10-28T09:41:22Z</time>
      </trkpt>
      <trkpt lat="47.86612" lon="-2.62302">
        <ele>157.79</ele>
        <time>2016-10-28T09:41:28Z</time>
      </trkpt>
      <trkpt lat="47.86603" lon="-2.62298">
        <ele>157.79</ele>
        <time>2016-10-28T09:41:34Z</time>
      </trkpt>
      <trkpt lat="47.86593" lon="-2.62292">
        <ele>157.31</ele>
        <time>2016-10-28T09:41:41Z</time>
      </trkpt>
      <trkpt lat="47.86583" lon="-2.62284">
        <ele>157.31</ele>
        <time>2016-10-28T09:41:47Z</time>
      </trkpt>
      <trkpt lat="47.86576" lon="-2.62277">
        <ele>156.83</ele>
        <time>2016-10-28T09:41:52Z</time>
      </trkpt>
      <trkpt lat="47.86566" lon="-2.62272">
        <ele>156.35</ele>
        <time>2016-10-28T09:41:59Z</time>
      </trkpt>
      <trkpt lat="47.86556" lon="-2.62265">
        <ele>156.35</ele>
        <time>2016-10-28T09:42:05Z</time>
      </trkpt>
      <trkpt lat="47.86547" lon="-2.62258">
        <ele>155.87</ele>
        <time>2016-10-28T09:42:11Z</time>
      </trkpt>
      <trkpt lat="47.86537" lon="-2.62252">
        <ele>156.35</ele>
        <time>2016-10-28T09:42:17Z</time>
      </trkpt>
      <trkpt lat="47.86527" lon="-2.62249">
        <ele>156.35</ele>
        <time>2016-10-28T09:42:23Z</time>
      </trkpt>
      <trkpt lat="47.86517" lon="-2.62246">
        <ele>156.83</ele>
        <time>2016-10-28T09:42:30Z</time>
      </trkpt>
      <trkpt lat="47.86507" lon="-2.62245">
        <ele>157.79</ele>
        <time>2016-10-28T09:42:36Z</time>
      </trkpt>
      <trkpt lat="47.86495" lon="-2.6224">
        <ele>157.79</ele>
        <time>2016-10-28T09:42:42Z</time>
      </trkpt>
      <trkpt lat="47.86484" lon="-2.62237">
        <ele>158.27</ele>
        <time>2016-10-28T09:42:48Z</time>
      </trkpt>
      <trkpt lat="47.86472" lon="-2.62239">
        <ele>158.75</ele>
        <time>2016-10-28T09:42:56Z</time>
      </trkpt>
      <trkpt lat="47.86462" lon="-2.62234">
        <ele>160.2</ele>
        <time>2016-10-28T09:43:04Z</time>
      </trkpt>
      <trkpt lat="47.86446" lon="-2.62228">
        <ele>159.24</ele>
        <time>2016-10-28T09:43:12Z</time>
      </trkpt>
      <trkpt lat="47.86433" lon="-2.62221">
        <ele>159.72</ele>
        <time>2016-10-28T09:43:20Z</time>
      </trkpt>
      <trkpt lat="47.86423" lon="-2.62217">
        <ele>160.2</ele>
        <time>2016-10-28T09:43:27Z</time>
      </trkpt>
      <trkpt lat="47.86412" lon="-2.62213">
        <ele>160.68</ele>
        <time>2016-10-28T09:43:35Z</time>
      </trkpt>
      <trkpt lat="47.86398" lon="-2.62209">
        <ele>160.68</ele>
        <time>2016-10-28T09:43:42Z</time>
      </trkpt>
      <trkpt lat="47.86387" lon="-2.62211">
        <ele>161.64</ele>
        <time>2016-10-28T09:43:48Z</time>
      </trkpt>
      <trkpt lat="47.86374" lon="-2.62206">
        <ele>161.64</ele>
        <time>2016-10-28T09:43:55Z</time>
      </trkpt>
      <trkpt lat="47.86363" lon="-2.62196">
        <ele>163.08</ele>
        <time>2016-10-28T09:44:02Z</time>
      </trkpt>
      <trkpt lat="47.86362" lon="-2.62182">
        <ele>163.56</ele>
        <time>2016-10-28T09:44:09Z</time>
      </trkpt>
      <trkpt lat="47.86362" lon="-2.62168">
        <ele>164.04</ele>
        <time>2016-10-28T09:44:16Z</time>
      </trkpt>
      <trkpt lat="47.86361" lon="-2.62152">
        <ele>164.52</ele>
        <time>2016-10-28T09:44:23Z</time>
      </trkpt>
      <trkpt lat="47.86362" lon="-2.62136">
        <ele>164.52</ele>
        <time>2016-10-28T09:44:30Z</time>
      </trkpt>
      <trkpt lat="47.86364" lon="-2.6212">
        <ele>165</ele>
        <time>2016-10-28T09:44:36Z</time>
      </trkpt>
      <trkpt lat="47.86362" lon="-2.62107">
        <ele>165.48</ele>
        <time>2016-10-28T09:44:43Z</time>
      </trkpt>
      <trkpt lat="47.86362" lon="-2.62089">
        <ele>165</ele>
        <time>2016-10-28T09:44:50Z</time>
      </trkpt>
      <trkpt lat="47.8636" lon="-2.62071">
        <ele>165.48</ele>
        <time>2016-10-28T09:44:57Z</time>
      </trkpt>
      <trkpt lat="47.86354" lon="-2.62059">
        <ele>165.48</ele>
        <time>2016-10-28T09:45:03Z</time>
      </trkpt>
      <trkpt lat="47.86348" lon="-2.62049">
        <ele>165</ele>
        <time>2016-10-28T09:45:08Z</time>
      </trkpt>
      <trkpt lat="47.86341" lon="-2.62041">
        <ele>165</ele>
        <time>2016-10-28T09:45:13Z</time>
      </trkpt>
      <trkpt lat="47.86335" lon="-2.62031">
        <ele>164.52</ele>
        <time>2016-10-28T09:45:19Z</time>
      </trkpt>
      <trkpt lat="47.86327" lon="-2.62022">
        <ele>165</ele>
        <time>2016-10-28T09:45:25Z</time>
      </trkpt>
      <trkpt lat="47.86319" lon="-2.62014">
        <ele>165</ele>
        <time>2016-10-28T09:45:31Z</time>
      </trkpt>
      <trkpt lat="47.86312" lon="-2.62005">
        <ele>165</ele>
        <time>2016-10-28T09:45:37Z</time>
      </trkpt>
      <trkpt lat="47.86304" lon="-2.61995">
        <ele>164.52</ele>
        <time>2016-10-28T09:45:43Z</time>
      </trkpt>
      <trkpt lat="47.86297" lon="-2.61984">
        <ele>164.52</ele>
        <time>2016-10-28T09:45:49Z</time>
      </trkpt>
      <trkpt lat="47.86289" lon="-2.61974">
        <ele>164.52</ele>
        <time>2016-10-28T09:45:54Z</time>
      </trkpt>
      <trkpt lat="47.86282" lon="-2.61965">
        <ele>164.52</ele>
        <time>2016-10-28T09:46:00Z</time>
      </trkpt>
      <trkpt lat="47.86274" lon="-2.61957">
        <ele>164.52</ele>
        <time>2016-10-28T09:46:06Z</time>
      </trkpt>
      <trkpt lat="47.86266" lon="-2.61948">
        <ele>164.52</ele>
        <time>2016-10-28T09:46:13Z</time>
      </trkpt>
      <trkpt lat="47.86258" lon="-2.61937">
        <ele>165</ele>
        <time>2016-10-28T09:46:20Z</time>
      </trkpt>
      <trkpt lat="47.86249" lon="-2.61926">
        <ele>165</ele>
        <time>2016-10-28T09:46:26Z</time>
      </trkpt>
      <trkpt lat="47.86239" lon="-2.61916">
        <ele>164.52</ele>
        <time>2016-10-28T09:46:33Z</time>
      </trkpt>
      <trkpt lat="47.8623" lon="-2.61908">
        <ele>164.52</ele>
        <time>2016-10-28T09:46:39Z</time>
      </trkpt>
      <trkpt lat="47.86222" lon="-2.61896">
        <ele>164.04</ele>
        <time>2016-10-28T09:46:46Z</time>
      </trkpt>
      <trkpt lat="47.86214" lon="-2.61887">
        <ele>164.04</ele>
        <time>2016-10-28T09:46:52Z</time>
      </trkpt>
      <trkpt lat="47.86205" lon="-2.61877">
        <ele>163.56</ele>
        <time>2016-10-28T09:46:59Z</time>
      </trkpt>
      <trkpt lat="47.86197" lon="-2.61868">
        <ele>164.04</ele>
        <time>2016-10-28T09:47:05Z</time>
      </trkpt>
      <trkpt lat="47.86189" lon="-2.61859">
        <ele>163.56</ele>
        <time>2016-10-28T09:47:11Z</time>
      </trkpt>
      <trkpt lat="47.8618" lon="-2.6185">
        <ele>163.08</ele>
        <time>2016-10-28T09:47:18Z</time>
      </trkpt>
      <trkpt lat="47.8617" lon="-2.6184">
        <ele>162.6</ele>
        <time>2016-10-28T09:47:25Z</time>
      </trkpt>
      <trkpt lat="47.86161" lon="-2.61827">
        <ele>162.6</ele>
        <time>2016-10-28T09:47:32Z</time>
      </trkpt>
      <trkpt lat="47.86152" lon="-2.61816">
        <ele>162.6</ele>
        <time>2016-10-28T09:47:38Z</time>
      </trkpt>
      <trkpt lat="47.86143" lon="-2.61808">
        <ele>162.12</ele>
        <time>2016-10-28T09:47:44Z</time>
      </trkpt>
      <trkpt lat="47.86135" lon="-2.618">
        <ele>162.12</ele>
        <time>2016-10-28T09:47:50Z</time>
      </trkpt>
      <trkpt lat="47.86127" lon="-2.61788">
        <ele>161.64</ele>
        <time>2016-10-28T09:47:56Z</time>
      </trkpt>
      <trkpt lat="47.86121" lon="-2.61776">
        <ele>161.64</ele>
        <time>2016-10-28T09:48:03Z</time>
      </trkpt>
      <trkpt lat="47.86114" lon="-2.61764">
        <ele>161.16</ele>
        <time>2016-10-28T09:48:09Z</time>
      </trkpt>
      <trkpt lat="47.86106" lon="-2.61753">
        <ele>160.68</ele>
        <time>2016-10-28T09:48:15Z</time>
      </trkpt>
      <trkpt lat="47.86095" lon="-2.61744">
        <ele>160.2</ele>
        <time>2016-10-28T09:48:22Z</time>
      </trkpt>
      <trkpt lat="47.86096" lon="-2.61729">
        <ele>160.2</ele>
        <time>2016-10-28T09:48:29Z</time>
      </trkpt>
      <trkpt lat="47.86101" lon="-2.61715">
        <ele>160.2</ele>
        <time>2016-10-28T09:48:34Z</time>
      </trkpt>
      <trkpt lat="47.86108" lon="-2.61705">
        <ele>159.72</ele>
        <time>2016-10-28T09:48:37Z</time>
      </trkpt>
      <trkpt lat="47.86116" lon="-2.61694">
        <ele>160.2</ele>
        <time>2016-10-28T09:48:40Z</time>
      </trkpt>
      <trkpt lat="47.86123" lon="-2.61685">
        <ele>159.72</ele>
        <time>2016-10-28T09:48:43Z</time>
      </trkpt>
      <trkpt lat="47.86129" lon="-2.61675">
        <ele>159.72</ele>
        <time>2016-10-28T09:48:46Z</time>
      </trkpt>
      <trkpt lat="47.86135" lon="-2.61665">
        <ele>159.24</ele>
        <time>2016-10-28T09:48:49Z</time>
      </trkpt>
      <trkpt lat="47.86139" lon="-2.61652">
        <ele>159.24</ele>
        <time>2016-10-28T09:48:53Z</time>
      </trkpt>
      <trkpt lat="47.86137" lon="-2.61637">
        <ele>159.24</ele>
        <time>2016-10-28T09:49:00Z</time>
      </trkpt>
      <trkpt lat="47.86136" lon="-2.61623">
        <ele>159.72</ele>
        <time>2016-10-28T09:49:07Z</time>
      </trkpt>
      <trkpt lat="47.86134" lon="-2.61606">
        <ele>159.72</ele>
        <time>2016-10-28T09:49:13Z</time>
      </trkpt>
      <trkpt lat="47.86131" lon="-2.61589">
        <ele>159.72</ele>
        <time>2016-10-28T09:49:20Z</time>
      </trkpt>
      <trkpt lat="47.86128" lon="-2.61571">
        <ele>159.24</ele>
        <time>2016-10-28T09:49:27Z</time>
      </trkpt>
      <trkpt lat="47.86126" lon="-2.61552">
        <ele>158.75</ele>
        <time>2016-10-28T09:49:34Z</time>
      </trkpt>
      <trkpt lat="47.86126" lon="-2.61535">
        <ele>158.27</ele>
        <time>2016-10-28T09:49:41Z</time>
      </trkpt>
      <trkpt lat="47.86126" lon="-2.6152">
        <ele>157.79</ele>
        <time>2016-10-28T09:49:48Z</time>
      </trkpt>
      <trkpt lat="47.86122" lon="-2.61503">
        <ele>157.31</ele>
        <time>2016-10-28T09:49:55Z</time>
      </trkpt>
      <trkpt lat="47.86118" lon="-2.61486">
        <ele>156.35</ele>
        <time>2016-10-28T09:50:01Z</time>
      </trkpt>
      <trkpt lat="47.86116" lon="-2.61472">
        <ele>155.87</ele>
        <time>2016-10-28T09:50:06Z</time>
      </trkpt>
      <trkpt lat="47.86113" lon="-2.61459">
        <ele>155.39</ele>
        <time>2016-10-28T09:50:11Z</time>
      </trkpt>
      <trkpt lat="47.86111" lon="-2.61445">
        <ele>154.91</ele>
        <time>2016-10-28T09:50:17Z</time>
      </trkpt>
      <trkpt lat="47.86109" lon="-2.61428">
        <ele>154.43</ele>
        <time>2016-10-28T09:50:23Z</time>
      </trkpt>
      <trkpt lat="47.86108" lon="-2.61414">
        <ele>153.95</ele>
        <time>2016-10-28T09:50:28Z</time>
      </trkpt>
      <trkpt lat="47.86106" lon="-2.61398">
        <ele>153.95</ele>
        <time>2016-10-28T09:50:34Z</time>
      </trkpt>
      <trkpt lat="47.86103" lon="-2.61382">
        <ele>153.47</ele>
        <time>2016-10-28T09:50:40Z</time>
      </trkpt>
      <trkpt lat="47.861" lon="-2.61368">
        <ele>152.51</ele>
        <time>2016-10-28T09:50:46Z</time>
      </trkpt>
      <trkpt lat="47.86097" lon="-2.61353">
        <ele>152.51</ele>
        <time>2016-10-28T09:50:52Z</time>
      </trkpt>
      <trkpt lat="47.86093" lon="-2.61336">
        <ele>152.03</ele>
        <time>2016-10-28T09:50:58Z</time>
      </trkpt>
      <trkpt lat="47.86091" lon="-2.6132">
        <ele>152.03</ele>
        <time>2016-10-28T09:51:04Z</time>
      </trkpt>
      <trkpt lat="47.86088" lon="-2.61306">
        <ele>152.51</ele>
        <time>2016-10-28T09:51:10Z</time>
      </trkpt>
      <trkpt lat="47.86085" lon="-2.61291">
        <ele>152.03</ele>
        <time>2016-10-28T09:51:16Z</time>
      </trkpt>
      <trkpt lat="47.86079" lon="-2.61277">
        <ele>152.03</ele>
        <time>2016-10-28T09:51:22Z</time>
      </trkpt>
      <trkpt lat="47.86075" lon="-2.61262">
        <ele>152.03</ele>
        <time>2016-10-28T09:51:28Z</time>
      </trkpt>
      <trkpt lat="47.86071" lon="-2.61248">
        <ele>152.03</ele>
        <time>2016-10-28T09:51:34Z</time>
      </trkpt>
      <trkpt lat="47.86066" lon="-2.61235">
        <ele>151.54</ele>
        <time>2016-10-28T09:51:40Z</time>
      </trkpt>
      <trkpt lat="47.86061" lon="-2.61223">
        <ele>151.54</ele>
        <time>2016-10-28T09:51:45Z</time>
      </trkpt>
      <trkpt lat="47.86055" lon="-2.6121">
        <ele>151.06</ele>
        <time>2016-10-28T09:51:51Z</time>
      </trkpt>
      <trkpt lat="47.86049" lon="-2.61196">
        <ele>151.06</ele>
        <time>2016-10-28T09:51:57Z</time>
      </trkpt>
      <trkpt lat="47.86044" lon="-2.61184">
        <ele>150.58</ele>
        <time>2016-10-28T09:52:03Z</time>
      </trkpt>
      <trkpt lat="47.86038" lon="-2.6117">
        <ele>150.1</ele>
        <time>2016-10-28T09:52:09Z</time>
      </trkpt>
      <trkpt lat="47.8603" lon="-2.61163">
        <ele>150.1</ele>
        <time>2016-10-28T09:52:15Z</time>
      </trkpt>
      <trkpt lat="47.8602" lon="-2.61163">
        <ele>149.62</ele>
        <time>2016-10-28T09:52:22Z</time>
      </trkpt>
      <trkpt lat="47.8601" lon="-2.61164">
        <ele>149.62</ele>
        <time>2016-10-28T09:52:30Z</time>
      </trkpt>
      <trkpt lat="47.86002" lon="-2.61169">
        <ele>149.14</ele>
        <time>2016-10-28T09:52:40Z</time>
      </trkpt>
      <trkpt lat="47.85995" lon="-2.61182">
        <ele>149.14</ele>
        <time>2016-10-28T09:52:48Z</time>
      </trkpt>
      <trkpt lat="47.85989" lon="-2.61193">
        <ele>149.62</ele>
        <time>2016-10-28T09:52:51Z</time>
      </trkpt>
      <trkpt lat="47.85981" lon="-2.61206">
        <ele>149.62</ele>
        <time>2016-10-28T09:52:54Z</time>
      </trkpt>
      <trkpt lat="47.85973" lon="-2.6122">
        <ele>149.14</ele>
        <time>2016-10-28T09:52:57Z</time>
      </trkpt>
      <trkpt lat="47.85967" lon="-2.61231">
        <ele>149.14</ele>
        <time>2016-10-28T09:53:00Z</time>
      </trkpt>
      <trkpt lat="47.85959" lon="-2.61243">
        <ele>149.14</ele>
        <time>2016-10-28T09:53:03Z</time>
      </trkpt>
      <trkpt lat="47.85952" lon="-2.61255">
        <ele>149.62</ele>
        <time>2016-10-28T09:53:06Z</time>
      </trkpt>
      <trkpt lat="47.85946" lon="-2.61267">
        <ele>148.66</ele>
        <time>2016-10-28T09:53:09Z</time>
      </trkpt>
      <trkpt lat="47.85939" lon="-2.61278">
        <ele>148.66</ele>
        <time>2016-10-28T09:53:12Z</time>
      </trkpt>
      <trkpt lat="47.85932" lon="-2.6129">
        <ele>148.66</ele>
        <time>2016-10-28T09:53:16Z</time>
      </trkpt>
      <trkpt lat="47.85927" lon="-2.61299">
        <ele>148.18</ele>
        <time>2016-10-28T09:53:22Z</time>
      </trkpt>
      <trkpt lat="47.85922" lon="-2.61308">
        <ele>148.66</ele>
        <time>2016-10-28T09:53:28Z</time>
      </trkpt>
      <trkpt lat="47.85918" lon="-2.61322">
        <ele>147.7</ele>
        <time>2016-10-28T09:53:34Z</time>
      </trkpt>
      <trkpt lat="47.85914" lon="-2.61336">
        <ele>147.7</ele>
        <time>2016-10-28T09:53:42Z</time>
      </trkpt>
      <trkpt lat="47.85911" lon="-2.61346">
        <ele>147.22</ele>
        <time>2016-10-28T09:53:57Z</time>
      </trkpt>
      <trkpt lat="47.85905" lon="-2.6136">
        <ele>146.26</ele>
        <time>2016-10-28T09:54:01Z</time>
      </trkpt>
      <trkpt lat="47.85898" lon="-2.61374">
        <ele>145.3</ele>
        <time>2016-10-28T09:54:05Z</time>
      </trkpt>
      <trkpt lat="47.85885" lon="-2.61375">
        <ele>144.82</ele>
        <time>2016-10-28T09:54:09Z</time>
      </trkpt>
      <trkpt lat="47.85876" lon="-2.61366">
        <ele>144.34</ele>
        <time>2016-10-28T09:54:15Z</time>
      </trkpt>
      <trkpt lat="47.85864" lon="-2.61356">
        <ele>143.37</ele>
        <time>2016-10-28T09:54:23Z</time>
      </trkpt>
      <trkpt lat="47.85849" lon="-2.61348">
        <ele>142.89</ele>
        <time>2016-10-28T09:54:28Z</time>
      </trkpt>
      <trkpt lat="47.85838" lon="-2.61345">
        <ele>142.41</ele>
        <time>2016-10-28T09:54:34Z</time>
      </trkpt>
      <trkpt lat="47.85828" lon="-2.6134">
        <ele>141.93</ele>
        <time>2016-10-28T09:54:38Z</time>
      </trkpt>
      <trkpt lat="47.85819" lon="-2.61336">
        <ele>141.45</ele>
        <time>2016-10-28T09:54:42Z</time>
      </trkpt>
      <trkpt lat="47.85808" lon="-2.61331">
        <ele>140.49</ele>
        <time>2016-10-28T09:54:46Z</time>
      </trkpt>
      <trkpt lat="47.85799" lon="-2.61329">
        <ele>140.49</ele>
        <time>2016-10-28T09:54:50Z</time>
      </trkpt>
      <trkpt lat="47.85787" lon="-2.61326">
        <ele>140.01</ele>
        <time>2016-10-28T09:54:55Z</time>
      </trkpt>
      <trkpt lat="47.85776" lon="-2.61329">
        <ele>139.53</ele>
        <time>2016-10-28T09:54:59Z</time>
      </trkpt>
      <trkpt lat="47.85764" lon="-2.61337">
        <ele>139.05</ele>
        <time>2016-10-28T09:55:04Z</time>
      </trkpt>
      <trkpt lat="47.85754" lon="-2.61344">
        <ele>138.57</ele>
        <time>2016-10-28T09:55:08Z</time>
      </trkpt>
      <trkpt lat="47.8574" lon="-2.6135">
        <ele>137.61</ele>
        <time>2016-10-28T09:55:12Z</time>
      </trkpt>
      <trkpt lat="47.85726" lon="-2.61357">
        <ele>137.13</ele>
        <time>2016-10-28T09:55:16Z</time>
      </trkpt>
      <trkpt lat="47.85716" lon="-2.6136">
        <ele>136.64</ele>
        <time>2016-10-28T09:55:19Z</time>
      </trkpt>
      <trkpt lat="47.85703" lon="-2.61363">
        <ele>136.16</ele>
        <time>2016-10-28T09:55:23Z</time>
      </trkpt>
      <trkpt lat="47.85691" lon="-2.61367">
        <ele>135.2</ele>
        <time>2016-10-28T09:55:26Z</time>
      </trkpt>
      <trkpt lat="47.85678" lon="-2.6137">
        <ele>134.72</ele>
        <time>2016-10-28T09:55:29Z</time>
      </trkpt>
      <trkpt lat="47.85664" lon="-2.61373">
        <ele>134.24</ele>
        <time>2016-10-28T09:55:32Z</time>
      </trkpt>
      <trkpt lat="47.85651" lon="-2.61374">
        <ele>134.72</ele>
        <time>2016-10-28T09:55:35Z</time>
      </trkpt>
      <trkpt lat="47.85641" lon="-2.61372">
        <ele>135.2</ele>
        <time>2016-10-28T09:55:38Z</time>
      </trkpt>
      <trkpt lat="47.8563" lon="-2.61373">
        <ele>135.68</ele>
        <time>2016-10-28T09:55:41Z</time>
      </trkpt>
      <trkpt lat="47.85618" lon="-2.61373">
        <ele>136.64</ele>
        <time>2016-10-28T09:55:44Z</time>
      </trkpt>
      <trkpt lat="47.85613" lon="-2.61361">
        <ele>138.09</ele>
        <time>2016-10-28T09:55:48Z</time>
      </trkpt>
      <trkpt lat="47.85616" lon="-2.61349">
        <ele>138.09</ele>
        <time>2016-10-28T09:55:51Z</time>
      </trkpt>
      <trkpt lat="47.85619" lon="-2.61336">
        <ele>138.09</ele>
        <time>2016-10-28T09:55:54Z</time>
      </trkpt>
      <trkpt lat="47.85619" lon="-2.61321">
        <ele>137.61</ele>
        <time>2016-10-28T09:55:57Z</time>
      </trkpt>
      <trkpt lat="47.8562" lon="-2.61306">
        <ele>137.13</ele>
        <time>2016-10-28T09:56:00Z</time>
      </trkpt>
      <trkpt lat="47.85623" lon="-2.6129">
        <ele>136.16</ele>
        <time>2016-10-28T09:56:03Z</time>
      </trkpt>
      <trkpt lat="47.85626" lon="-2.61273">
        <ele>135.68</ele>
        <time>2016-10-28T09:56:06Z</time>
      </trkpt>
      <trkpt lat="47.85626" lon="-2.61256">
        <ele>135.2</ele>
        <time>2016-10-28T09:56:09Z</time>
      </trkpt>
      <trkpt lat="47.85622" lon="-2.6124">
        <ele>134.72</ele>
        <time>2016-10-28T09:56:12Z</time>
      </trkpt>
      <trkpt lat="47.85616" lon="-2.61224">
        <ele>134.72</ele>
        <time>2016-10-28T09:56:15Z</time>
      </trkpt>
      <trkpt lat="47.8561" lon="-2.61209">
        <ele>134.24</ele>
        <time>2016-10-28T09:56:18Z</time>
      </trkpt>
      <trkpt lat="47.856" lon="-2.61197">
        <ele>134.24</ele>
        <time>2016-10-28T09:56:21Z</time>
      </trkpt>
      <trkpt lat="47.85589" lon="-2.61187">
        <ele>134.72</ele>
        <time>2016-10-28T09:56:24Z</time>
      </trkpt>
      <trkpt lat="47.85581" lon="-2.6118">
        <ele>134.72</ele>
        <time>2016-10-28T09:56:26Z</time>
      </trkpt>
      <trkpt lat="47.8557" lon="-2.61168">
        <ele>135.2</ele>
        <time>2016-10-28T09:56:29Z</time>
      </trkpt>
      <trkpt lat="47.85559" lon="-2.61157">
        <ele>135.68</ele>
        <time>2016-10-28T09:56:32Z</time>
      </trkpt>
      <trkpt lat="47.8555" lon="-2.61149">
        <ele>136.64</ele>
        <time>2016-10-28T09:56:35Z</time>
      </trkpt>
      <trkpt lat="47.8554" lon="-2.61137">
        <ele>137.13</ele>
        <time>2016-10-28T09:56:38Z</time>
      </trkpt>
      <trkpt lat="47.8553" lon="-2.61126">
        <ele>137.13</ele>
        <time>2016-10-28T09:56:41Z</time>
      </trkpt>
      <trkpt lat="47.8552" lon="-2.61116">
        <ele>137.61</ele>
        <time>2016-10-28T09:56:44Z</time>
      </trkpt>
      <trkpt lat="47.85508" lon="-2.61111">
        <ele>137.61</ele>
        <time>2016-10-28T09:56:47Z</time>
      </trkpt>
      <trkpt lat="47.85495" lon="-2.61114">
        <ele>138.09</ele>
        <time>2016-10-28T09:56:50Z</time>
      </trkpt>
      <trkpt lat="47.85486" lon="-2.61118">
        <ele>138.57</ele>
        <time>2016-10-28T09:56:52Z</time>
      </trkpt>
      <trkpt lat="47.85473" lon="-2.61124">
        <ele>139.05</ele>
        <time>2016-10-28T09:56:55Z</time>
      </trkpt>
      <trkpt lat="47.8546" lon="-2.61129">
        <ele>139.53</ele>
        <time>2016-10-28T09:56:58Z</time>
      </trkpt>
      <trkpt lat="47.85448" lon="-2.61134">
        <ele>140.01</ele>
        <time>2016-10-28T09:57:01Z</time>
      </trkpt>
      <trkpt lat="47.85437" lon="-2.61138">
        <ele>140.01</ele>
        <time>2016-10-28T09:57:04Z</time>
      </trkpt>
      <trkpt lat="47.85426" lon="-2.61136">
        <ele>140.97</ele>
        <time>2016-10-28T09:57:07Z</time>
      </trkpt>
      <trkpt lat="47.85416" lon="-2.61126">
        <ele>140.49</ele>
        <time>2016-10-28T09:57:10Z</time>
      </trkpt>
      <trkpt lat="47.85407" lon="-2.61114">
        <ele>140.97</ele>
        <time>2016-10-28T09:57:13Z</time>
      </trkpt>
      <trkpt lat="47.85398" lon="-2.61102">
        <ele>141.45</ele>
        <time>2016-10-28T09:57:16Z</time>
      </trkpt>
      <trkpt lat="47.85391" lon="-2.61091">
        <ele>141.93</ele>
        <time>2016-10-28T09:57:19Z</time>
      </trkpt>
      <trkpt lat="47.85387" lon="-2.61079">
        <ele>142.89</ele>
        <time>2016-10-28T09:57:23Z</time>
      </trkpt>
      <trkpt lat="47.85395" lon="-2.61071">
        <ele>141.93</ele>
        <time>2016-10-28T09:57:30Z</time>
      </trkpt>
      <trkpt lat="47.85406" lon="-2.61071">
        <ele>140.49</ele>
        <time>2016-10-28T09:57:36Z</time>
      </trkpt>
      <trkpt lat="47.85415" lon="-2.6107">
        <ele>139.53</ele>
        <time>2016-10-28T09:57:41Z</time>
      </trkpt>
      <trkpt lat="47.85424" lon="-2.61066">
        <ele>138.57</ele>
        <time>2016-10-28T09:57:47Z</time>
      </trkpt>
      <trkpt lat="47.85432" lon="-2.61055">
        <ele>137.61</ele>
        <time>2016-10-28T09:57:52Z</time>
      </trkpt>
      <trkpt lat="47.85439" lon="-2.61042">
        <ele>136.64</ele>
        <time>2016-10-28T09:57:58Z</time>
      </trkpt>
      <trkpt lat="47.85441" lon="-2.61026">
        <ele>136.16</ele>
        <time>2016-10-28T09:58:04Z</time>
      </trkpt>
      <trkpt lat="47.85443" lon="-2.6101">
        <ele>135.2</ele>
        <time>2016-10-28T09:58:10Z</time>
      </trkpt>
      <trkpt lat="47.85439" lon="-2.60995">
        <ele>135.2</ele>
        <time>2016-10-28T09:58:16Z</time>
      </trkpt>
      <trkpt lat="47.85433" lon="-2.60981">
        <ele>133.76</ele>
        <time>2016-10-28T09:58:22Z</time>
      </trkpt>
      <trkpt lat="47.85426" lon="-2.60969">
        <ele>133.76</ele>
        <time>2016-10-28T09:58:29Z</time>
      </trkpt>
      <trkpt lat="47.85416" lon="-2.60957">
        <ele>133.28</ele>
        <time>2016-10-28T09:58:35Z</time>
      </trkpt>
      <trkpt lat="47.85408" lon="-2.60949">
        <ele>133.28</ele>
        <time>2016-10-28T09:58:39Z</time>
      </trkpt>
      <trkpt lat="47.85399" lon="-2.60937">
        <ele>132.8</ele>
        <time>2016-10-28T09:58:46Z</time>
      </trkpt>
      <trkpt lat="47.85389" lon="-2.60928">
        <ele>132.8</ele>
        <time>2016-10-28T09:58:52Z</time>
      </trkpt>
      <trkpt lat="47.8538" lon="-2.60915">
        <ele>132.32</ele>
        <time>2016-10-28T09:58:58Z</time>
      </trkpt>
      <trkpt lat="47.85373" lon="-2.60906">
        <ele>132.32</ele>
        <time>2016-10-28T09:59:03Z</time>
      </trkpt>
      <trkpt lat="47.85365" lon="-2.60896">
        <ele>132.32</ele>
        <time>2016-10-28T09:59:09Z</time>
      </trkpt>
      <trkpt lat="47.85357" lon="-2.60887">
        <ele>131.84</ele>
        <time>2016-10-28T09:59:14Z</time>
      </trkpt>
      <trkpt lat="47.8535" lon="-2.60877">
        <ele>131.84</ele>
        <time>2016-10-28T09:59:20Z</time>
      </trkpt>
      <trkpt lat="47.85342" lon="-2.60867">
        <ele>131.84</ele>
        <time>2016-10-28T09:59:26Z</time>
      </trkpt>
      <trkpt lat="47.85336" lon="-2.60856">
        <ele>131.36</ele>
        <time>2016-10-28T09:59:32Z</time>
      </trkpt>
      <trkpt lat="47.85337" lon="-2.60842">
        <ele>131.36</ele>
        <time>2016-10-28T09:59:37Z</time>
      </trkpt>
      <trkpt lat="47.85339" lon="-2.6083">
        <ele>130.88</ele>
        <time>2016-10-28T09:59:41Z</time>
      </trkpt>
      <trkpt lat="47.85343" lon="-2.60819">
        <ele>130.88</ele>
        <time>2016-10-28T09:59:46Z</time>
      </trkpt>
      <trkpt lat="47.85348" lon="-2.60807">
        <ele>130.88</ele>
        <time>2016-10-28T09:59:52Z</time>
      </trkpt>
      <trkpt lat="47.85348" lon="-2.60793">
        <ele>131.36</ele>
        <time>2016-10-28T09:59:58Z</time>
      </trkpt>
      <trkpt lat="47.85343" lon="-2.60782">
        <ele>131.36</ele>
        <time>2016-10-28T10:00:03Z</time>
      </trkpt>
      <trkpt lat="47.85336" lon="-2.60771">
        <ele>131.36</ele>
        <time>2016-10-28T10:00:10Z</time>
      </trkpt>
      <trkpt lat="47.85328" lon="-2.6076">
        <ele>131.84</ele>
        <time>2016-10-28T10:00:17Z</time>
      </trkpt>
      <trkpt lat="47.85318" lon="-2.60748">
        <ele>132.32</ele>
        <time>2016-10-28T10:00:23Z</time>
      </trkpt>
      <trkpt lat="47.8531" lon="-2.60737">
        <ele>132.32</ele>
        <time>2016-10-28T10:00:30Z</time>
      </trkpt>
      <trkpt lat="47.85301" lon="-2.60724">
        <ele>132.8</ele>
        <time>2016-10-28T10:00:36Z</time>
      </trkpt>
      <trkpt lat="47.85293" lon="-2.6071">
        <ele>133.28</ele>
        <time>2016-10-28T10:00:43Z</time>
      </trkpt>
      <trkpt lat="47.85284" lon="-2.60701">
        <ele>133.28</ele>
        <time>2016-10-28T10:00:48Z</time>
      </trkpt>
      <trkpt lat="47.85277" lon="-2.60686">
        <ele>133.28</ele>
        <time>2016-10-28T10:00:55Z</time>
      </trkpt>
      <trkpt lat="47.8527" lon="-2.60674">
        <ele>133.76</ele>
        <time>2016-10-28T10:01:01Z</time>
      </trkpt>
      <trkpt lat="47.85264" lon="-2.60662">
        <ele>134.24</ele>
        <time>2016-10-28T10:01:08Z</time>
      </trkpt>
      <trkpt lat="47.85257" lon="-2.60648">
        <ele>134.72</ele>
        <time>2016-10-28T10:01:15Z</time>
      </trkpt>
      <trkpt lat="47.85251" lon="-2.60639">
        <ele>135.2</ele>
        <time>2016-10-28T10:01:21Z</time>
      </trkpt>
      <trkpt lat="47.85242" lon="-2.60629">
        <ele>136.16</ele>
        <time>2016-10-28T10:01:27Z</time>
      </trkpt>
      <trkpt lat="47.85234" lon="-2.60619">
        <ele>137.13</ele>
        <time>2016-10-28T10:01:33Z</time>
      </trkpt>
      <trkpt lat="47.85226" lon="-2.60609">
        <ele>138.09</ele>
        <time>2016-10-28T10:01:39Z</time>
      </trkpt>
      <trkpt lat="47.85217" lon="-2.60599">
        <ele>139.05</ele>
        <time>2016-10-28T10:01:45Z</time>
      </trkpt>
      <trkpt lat="47.85209" lon="-2.60592">
        <ele>140.01</ele>
        <time>2016-10-28T10:01:51Z</time>
      </trkpt>
      <trkpt lat="47.85203" lon="-2.60584">
        <ele>140.97</ele>
        <time>2016-10-28T10:01:57Z</time>
      </trkpt>
      <trkpt lat="47.85196" lon="-2.60573">
        <ele>141.45</ele>
        <time>2016-10-28T10:02:03Z</time>
      </trkpt>
      <trkpt lat="47.8519" lon="-2.60558">
        <ele>141.93</ele>
        <time>2016-10-28T10:02:09Z</time>
      </trkpt>
      <trkpt lat="47.85186" lon="-2.60545">
        <ele>142.89</ele>
        <time>2016-10-28T10:02:15Z</time>
      </trkpt>
      <trkpt lat="47.85182" lon="-2.60532">
        <ele>143.37</ele>
        <time>2016-10-28T10:02:21Z</time>
      </trkpt>
      <trkpt lat="47.85176" lon="-2.60519">
        <ele>143.85</ele>
        <time>2016-10-28T10:02:27Z</time>
      </trkpt>
      <trkpt lat="47.85172" lon="-2.60505">
        <ele>144.82</ele>
        <time>2016-10-28T10:02:34Z</time>
      </trkpt>
      <trkpt lat="47.85165" lon="-2.60493">
        <ele>145.3</ele>
        <time>2016-10-28T10:02:40Z</time>
      </trkpt>
      <trkpt lat="47.8516" lon="-2.60478">
        <ele>146.26</ele>
        <time>2016-10-28T10:02:47Z</time>
      </trkpt>
      <trkpt lat="47.85155" lon="-2.60465">
        <ele>146.26</ele>
        <time>2016-10-28T10:02:53Z</time>
      </trkpt>
      <trkpt lat="47.8515" lon="-2.60452">
        <ele>147.22</ele>
        <time>2016-10-28T10:02:59Z</time>
      </trkpt>
      <trkpt lat="47.85146" lon="-2.60438">
        <ele>147.22</ele>
        <time>2016-10-28T10:03:05Z</time>
      </trkpt>
      <trkpt lat="47.85141" lon="-2.60426">
        <ele>147.22</ele>
        <time>2016-10-28T10:03:11Z</time>
      </trkpt>
      <trkpt lat="47.85135" lon="-2.60414">
        <ele>147.7</ele>
        <time>2016-10-28T10:03:17Z</time>
      </trkpt>
      <trkpt lat="47.85129" lon="-2.604">
        <ele>147.7</ele>
        <time>2016-10-28T10:03:23Z</time>
      </trkpt>
      <trkpt lat="47.85125" lon="-2.60385">
        <ele>147.22</ele>
        <time>2016-10-28T10:03:29Z</time>
      </trkpt>
      <trkpt lat="47.85119" lon="-2.60372">
        <ele>148.18</ele>
        <time>2016-10-28T10:03:35Z</time>
      </trkpt>
      <trkpt lat="47.85114" lon="-2.60357">
        <ele>147.7</ele>
        <time>2016-10-28T10:03:41Z</time>
      </trkpt>
      <trkpt lat="47.85109" lon="-2.60344">
        <ele>147.7</ele>
        <time>2016-10-28T10:03:47Z</time>
      </trkpt>
      <trkpt lat="47.85105" lon="-2.60332">
        <ele>147.7</ele>
        <time>2016-10-28T10:03:52Z</time>
      </trkpt>
      <trkpt lat="47.851" lon="-2.60318">
        <ele>147.7</ele>
        <time>2016-10-28T10:03:58Z</time>
      </trkpt>
      <trkpt lat="47.85095" lon="-2.60305">
        <ele>147.7</ele>
        <time>2016-10-28T10:04:04Z</time>
      </trkpt>
      <trkpt lat="47.85087" lon="-2.60299">
        <ele>147.7</ele>
        <time>2016-10-28T10:04:12Z</time>
      </trkpt>
      <trkpt lat="47.85076" lon="-2.60298">
        <ele>147.22</ele>
        <time>2016-10-28T10:04:18Z</time>
      </trkpt>
      <trkpt lat="47.85067" lon="-2.60296">
        <ele>146.74</ele>
        <time>2016-10-28T10:04:24Z</time>
      </trkpt>
      <trkpt lat="47.85057" lon="-2.60292">
        <ele>145.78</ele>
        <time>2016-10-28T10:04:30Z</time>
      </trkpt>
      <trkpt lat="47.85047" lon="-2.60289">
        <ele>144.34</ele>
        <time>2016-10-28T10:04:36Z</time>
      </trkpt>
      <trkpt lat="47.85038" lon="-2.60282">
        <ele>143.85</ele>
        <time>2016-10-28T10:04:42Z</time>
      </trkpt>
      <trkpt lat="47.85028" lon="-2.6028">
        <ele>142.89</ele>
        <time>2016-10-28T10:04:48Z</time>
      </trkpt>
      <trkpt lat="47.85019" lon="-2.60283">
        <ele>141.45</ele>
        <time>2016-10-28T10:04:54Z</time>
      </trkpt>
      <trkpt lat="47.85009" lon="-2.60284">
        <ele>139.53</ele>
        <time>2016-10-28T10:05:00Z</time>
      </trkpt>
      <trkpt lat="47.84998" lon="-2.60284">
        <ele>139.05</ele>
        <time>2016-10-28T10:05:06Z</time>
      </trkpt>
      <trkpt lat="47.84988" lon="-2.60284">
        <ele>137.61</ele>
        <time>2016-10-28T10:05:12Z</time>
      </trkpt>
      <trkpt lat="47.84979" lon="-2.60278">
        <ele>136.64</ele>
        <time>2016-10-28T10:05:18Z</time>
      </trkpt>
      <trkpt lat="47.8497" lon="-2.60277">
        <ele>135.2</ele>
        <time>2016-10-28T10:05:24Z</time>
      </trkpt>
      <trkpt lat="47.84959" lon="-2.60278">
        <ele>134.24</ele>
        <time>2016-10-28T10:05:30Z</time>
      </trkpt>
      <trkpt lat="47.84949" lon="-2.60278">
        <ele>133.28</ele>
        <time>2016-10-28T10:05:37Z</time>
      </trkpt>
      <trkpt lat="47.84938" lon="-2.60277">
        <ele>132.8</ele>
        <time>2016-10-28T10:05:44Z</time>
      </trkpt>
      <trkpt lat="47.84926" lon="-2.60277">
        <ele>131.84</ele>
        <time>2016-10-28T10:05:51Z</time>
      </trkpt>
      <trkpt lat="47.84914" lon="-2.60275">
        <ele>130.88</ele>
        <time>2016-10-28T10:05:59Z</time>
      </trkpt>
      <trkpt lat="47.84902" lon="-2.6027">
        <ele>129.92</ele>
        <time>2016-10-28T10:06:06Z</time>
      </trkpt>
      <trkpt lat="47.84889" lon="-2.60261">
        <ele>129.43</ele>
        <time>2016-10-28T10:06:13Z</time>
      </trkpt>
      <trkpt lat="47.84876" lon="-2.60253">
        <ele>128.95</ele>
        <time>2016-10-28T10:06:21Z</time>
      </trkpt>
      <trkpt lat="47.84864" lon="-2.60243">
        <ele>127.51</ele>
        <time>2016-10-28T10:06:29Z</time>
      </trkpt>
      <trkpt lat="47.84852" lon="-2.60232">
        <ele>125.59</ele>
        <time>2016-10-28T10:06:37Z</time>
      </trkpt>
      <trkpt lat="47.84842" lon="-2.60226">
        <ele>124.63</ele>
        <time>2016-10-28T10:06:43Z</time>
      </trkpt>
      <trkpt lat="47.84831" lon="-2.60219">
        <ele>124.15</ele>
        <time>2016-10-28T10:06:49Z</time>
      </trkpt>
      <trkpt lat="47.8482" lon="-2.60213">
        <ele>122.71</ele>
        <time>2016-10-28T10:06:54Z</time>
      </trkpt>
      <trkpt lat="47.84809" lon="-2.60208">
        <ele>122.22</ele>
        <time>2016-10-28T10:06:57Z</time>
      </trkpt>
      <trkpt lat="47.84796" lon="-2.60201">
        <ele>121.74</ele>
        <time>2016-10-28T10:07:01Z</time>
      </trkpt>
      <trkpt lat="47.84788" lon="-2.60184">
        <ele>121.26</ele>
        <time>2016-10-28T10:07:05Z</time>
      </trkpt>
      <trkpt lat="47.84782" lon="-2.60171">
        <ele>121.74</ele>
        <time>2016-10-28T10:07:08Z</time>
      </trkpt>
      <trkpt lat="47.84775" lon="-2.60156">
        <ele>121.26</ele>
        <time>2016-10-28T10:07:12Z</time>
      </trkpt>
      <trkpt lat="47.84768" lon="-2.60143">
        <ele>121.74</ele>
        <time>2016-10-28T10:07:16Z</time>
      </trkpt>
      <trkpt lat="47.84761" lon="-2.6013">
        <ele>122.22</ele>
        <time>2016-10-28T10:07:19Z</time>
      </trkpt>
      <trkpt lat="47.84755" lon="-2.60113">
        <ele>122.22</ele>
        <time>2016-10-28T10:07:22Z</time>
      </trkpt>
      <trkpt lat="47.84749" lon="-2.60095">
        <ele>122.71</ele>
        <time>2016-10-28T10:07:25Z</time>
      </trkpt>
      <trkpt lat="47.84743" lon="-2.6007">
        <ele>123.67</ele>
        <time>2016-10-28T10:07:28Z</time>
      </trkpt>
      <trkpt lat="47.84741" lon="-2.60054">
        <ele>123.67</ele>
        <time>2016-10-28T10:07:30Z</time>
      </trkpt>
      <trkpt lat="47.84738" lon="-2.6004">
        <ele>124.15</ele>
        <time>2016-10-28T10:07:32Z</time>
      </trkpt>
      <trkpt lat="47.84736" lon="-2.60025">
        <ele>124.63</ele>
        <time>2016-10-28T10:07:34Z</time>
      </trkpt>
      <trkpt lat="47.84734" lon="-2.6001">
        <ele>124.63</ele>
        <time>2016-10-28T10:07:36Z</time>
      </trkpt>
      <trkpt lat="47.8473" lon="-2.59994">
        <ele>125.11</ele>
        <time>2016-10-28T10:07:38Z</time>
      </trkpt>
      <trkpt lat="47.84726" lon="-2.59977">
        <ele>125.59</ele>
        <time>2016-10-28T10:07:40Z</time>
      </trkpt>
      <trkpt lat="47.84724" lon="-2.59958">
        <ele>126.07</ele>
        <time>2016-10-28T10:07:42Z</time>
      </trkpt>
      <trkpt lat="47.84721" lon="-2.59939">
        <ele>126.07</ele>
        <time>2016-10-28T10:07:44Z</time>
      </trkpt>
      <trkpt lat="47.84719" lon="-2.5992">
        <ele>126.55</ele>
        <time>2016-10-28T10:07:46Z</time>
      </trkpt>
      <trkpt lat="47.84719" lon="-2.59901">
        <ele>127.51</ele>
        <time>2016-10-28T10:07:48Z</time>
      </trkpt>
      <trkpt lat="47.84719" lon="-2.59883">
        <ele>129.92</ele>
        <time>2016-10-28T10:07:50Z</time>
      </trkpt>
      <trkpt lat="47.84722" lon="-2.59867">
        <ele>131.84</ele>
        <time>2016-10-28T10:07:52Z</time>
      </trkpt>
      <trkpt lat="47.84725" lon="-2.59852">
        <ele>133.28</ele>
        <time>2016-10-28T10:07:54Z</time>
      </trkpt>
      <trkpt lat="47.84732" lon="-2.59836">
        <ele>135.68</ele>
        <time>2016-10-28T10:07:57Z</time>
      </trkpt>
      <trkpt lat="47.84744" lon="-2.59822">
        <ele>136.64</ele>
        <time>2016-10-28T10:08:00Z</time>
      </trkpt>
      <trkpt lat="47.84757" lon="-2.59813">
        <ele>137.13</ele>
        <time>2016-10-28T10:08:03Z</time>
      </trkpt>
      <trkpt lat="47.84765" lon="-2.59807">
        <ele>137.13</ele>
        <time>2016-10-28T10:08:05Z</time>
      </trkpt>
      <trkpt lat="47.84777" lon="-2.598">
        <ele>136.64</ele>
        <time>2016-10-28T10:08:08Z</time>
      </trkpt>
      <trkpt lat="47.84785" lon="-2.59797">
        <ele>136.64</ele>
        <time>2016-10-28T10:08:35Z</time>
      </trkpt>
      <trkpt lat="47.84791" lon="-2.59784">
        <ele>136.64</ele>
        <time>2016-10-28T10:08:55Z</time>
      </trkpt>
      <trkpt lat="47.84796" lon="-2.59765">
        <ele>136.64</ele>
        <time>2016-10-28T10:08:59Z</time>
      </trkpt>
      <trkpt lat="47.84791" lon="-2.5975">
        <ele>136.64</ele>
        <time>2016-10-28T10:09:05Z</time>
      </trkpt>
      <trkpt lat="47.8478" lon="-2.59744">
        <ele>136.16</ele>
        <time>2016-10-28T10:09:14Z</time>
      </trkpt>
      <trkpt lat="47.84769" lon="-2.59738">
        <ele>136.16</ele>
        <time>2016-10-28T10:09:21Z</time>
      </trkpt>
      <trkpt lat="47.84757" lon="-2.59732">
        <ele>135.68</ele>
        <time>2016-10-28T10:09:27Z</time>
      </trkpt>
      <trkpt lat="47.84747" lon="-2.59725">
        <ele>136.16</ele>
        <time>2016-10-28T10:09:35Z</time>
      </trkpt>
      <trkpt lat="47.84734" lon="-2.59716">
        <ele>135.68</ele>
        <time>2016-10-28T10:09:42Z</time>
      </trkpt>
      <trkpt lat="47.84724" lon="-2.59704">
        <ele>135.68</ele>
        <time>2016-10-28T10:09:48Z</time>
      </trkpt>
      <trkpt lat="47.84717" lon="-2.59692">
        <ele>135.68</ele>
        <time>2016-10-28T10:09:54Z</time>
      </trkpt>
      <trkpt lat="47.84709" lon="-2.59677">
        <ele>135.2</ele>
        <time>2016-10-28T10:10:00Z</time>
      </trkpt>
      <trkpt lat="47.84704" lon="-2.59663">
        <ele>134.72</ele>
        <time>2016-10-28T10:10:06Z</time>
      </trkpt>
      <trkpt lat="47.84699" lon="-2.59649">
        <ele>134.72</ele>
        <time>2016-10-28T10:10:12Z</time>
      </trkpt>
      <trkpt lat="47.84696" lon="-2.59634">
        <ele>134.72</ele>
        <time>2016-10-28T10:10:18Z</time>
      </trkpt>
      <trkpt lat="47.84695" lon="-2.59619">
        <ele>133.76</ele>
        <time>2016-10-28T10:10:23Z</time>
      </trkpt>
      <trkpt lat="47.84695" lon="-2.59604">
        <ele>134.72</ele>
        <time>2016-10-28T10:10:29Z</time>
      </trkpt>
      <trkpt lat="47.84696" lon="-2.5959">
        <ele>134.24</ele>
        <time>2016-10-28T10:10:34Z</time>
      </trkpt>
      <trkpt lat="47.84697" lon="-2.59576">
        <ele>134.24</ele>
        <time>2016-10-28T10:10:40Z</time>
      </trkpt>
      <trkpt lat="47.847" lon="-2.59561">
        <ele>133.76</ele>
        <time>2016-10-28T10:10:44Z</time>
      </trkpt>
      <trkpt lat="47.84704" lon="-2.59547">
        <ele>133.28</ele>
        <time>2016-10-28T10:10:49Z</time>
      </trkpt>
      <trkpt lat="47.84706" lon="-2.59533">
        <ele>132.8</ele>
        <time>2016-10-28T10:10:55Z</time>
      </trkpt>
      <trkpt lat="47.84707" lon="-2.59516">
        <ele>132.32</ele>
        <time>2016-10-28T10:11:01Z</time>
      </trkpt>
      <trkpt lat="47.84704" lon="-2.59503">
        <ele>132.32</ele>
        <time>2016-10-28T10:11:06Z</time>
      </trkpt>
      <trkpt lat="47.84698" lon="-2.59489">
        <ele>132.8</ele>
        <time>2016-10-28T10:11:12Z</time>
      </trkpt>
      <trkpt lat="47.84689" lon="-2.59481">
        <ele>133.28</ele>
        <time>2016-10-28T10:11:19Z</time>
      </trkpt>
      <trkpt lat="47.84682" lon="-2.59469">
        <ele>133.76</ele>
        <time>2016-10-28T10:11:25Z</time>
      </trkpt>
      <trkpt lat="47.84677" lon="-2.59455">
        <ele>134.24</ele>
        <time>2016-10-28T10:11:32Z</time>
      </trkpt>
      <trkpt lat="47.84679" lon="-2.59438">
        <ele>135.68</ele>
        <time>2016-10-28T10:11:40Z</time>
      </trkpt>
      <trkpt lat="47.8468" lon="-2.59421">
        <ele>136.16</ele>
        <time>2016-10-28T10:11:46Z</time>
      </trkpt>
      <trkpt lat="47.84679" lon="-2.59406">
        <ele>137.13</ele>
        <time>2016-10-28T10:11:52Z</time>
      </trkpt>
      <trkpt lat="47.84678" lon="-2.59392">
        <ele>137.61</ele>
        <time>2016-10-28T10:11:58Z</time>
      </trkpt>
      <trkpt lat="47.84678" lon="-2.59378">
        <ele>137.61</ele>
        <time>2016-10-28T10:12:04Z</time>
      </trkpt>
      <trkpt lat="47.84675" lon="-2.59362">
        <ele>138.09</ele>
        <time>2016-10-28T10:12:10Z</time>
      </trkpt>
      <trkpt lat="47.8467" lon="-2.59348">
        <ele>138.57</ele>
        <time>2016-10-28T10:12:16Z</time>
      </trkpt>
      <trkpt lat="47.84664" lon="-2.59337">
        <ele>138.57</ele>
        <time>2016-10-28T10:12:22Z</time>
      </trkpt>
      <trkpt lat="47.84664" lon="-2.59321">
        <ele>138.57</ele>
        <time>2016-10-28T10:12:29Z</time>
      </trkpt>
      <trkpt lat="47.84668" lon="-2.59308">
        <ele>138.57</ele>
        <time>2016-10-28T10:12:34Z</time>
      </trkpt>
      <trkpt lat="47.84672" lon="-2.59292">
        <ele>139.05</ele>
        <time>2016-10-28T10:12:40Z</time>
      </trkpt>
      <trkpt lat="47.84675" lon="-2.59279">
        <ele>138.57</ele>
        <time>2016-10-28T10:12:45Z</time>
      </trkpt>
      <trkpt lat="47.8468" lon="-2.59265">
        <ele>138.57</ele>
        <time>2016-10-28T10:12:51Z</time>
      </trkpt>
      <trkpt lat="47.84683" lon="-2.59252">
        <ele>138.57</ele>
        <time>2016-10-28T10:12:56Z</time>
      </trkpt>
      <trkpt lat="47.84687" lon="-2.59238">
        <ele>138.57</ele>
        <time>2016-10-28T10:13:02Z</time>
      </trkpt>
      <trkpt lat="47.84689" lon="-2.59225">
        <ele>138.57</ele>
        <time>2016-10-28T10:13:07Z</time>
      </trkpt>
      <trkpt lat="47.84693" lon="-2.59213">
        <ele>139.05</ele>
        <time>2016-10-28T10:13:12Z</time>
      </trkpt>
      <trkpt lat="47.84695" lon="-2.592">
        <ele>139.53</ele>
        <time>2016-10-28T10:13:17Z</time>
      </trkpt>
      <trkpt lat="47.84698" lon="-2.59186">
        <ele>139.53</ele>
        <time>2016-10-28T10:13:22Z</time>
      </trkpt>
      <trkpt lat="47.847" lon="-2.59174">
        <ele>140.01</ele>
        <time>2016-10-28T10:13:27Z</time>
      </trkpt>
      <trkpt lat="47.84703" lon="-2.59159">
        <ele>140.49</ele>
        <time>2016-10-28T10:13:33Z</time>
      </trkpt>
      <trkpt lat="47.84706" lon="-2.59144">
        <ele>140.01</ele>
        <time>2016-10-28T10:13:38Z</time>
      </trkpt>
      <trkpt lat="47.84707" lon="-2.59129">
        <ele>139.05</ele>
        <time>2016-10-28T10:13:43Z</time>
      </trkpt>
      <trkpt lat="47.84705" lon="-2.59116">
        <ele>139.05</ele>
        <time>2016-10-28T10:13:48Z</time>
      </trkpt>
      <trkpt lat="47.84701" lon="-2.59104">
        <ele>138.09</ele>
        <time>2016-10-28T10:13:53Z</time>
      </trkpt>
      <trkpt lat="47.84696" lon="-2.59091">
        <ele>138.09</ele>
        <time>2016-10-28T10:13:58Z</time>
      </trkpt>
      <trkpt lat="47.84691" lon="-2.59077">
        <ele>137.61</ele>
        <time>2016-10-28T10:14:04Z</time>
      </trkpt>
      <trkpt lat="47.84685" lon="-2.59064">
        <ele>137.13</ele>
        <time>2016-10-28T10:14:10Z</time>
      </trkpt>
      <trkpt lat="47.84679" lon="-2.59052">
        <ele>136.16</ele>
        <time>2016-10-28T10:14:15Z</time>
      </trkpt>
      <trkpt lat="47.84672" lon="-2.59039">
        <ele>136.16</ele>
        <time>2016-10-28T10:14:21Z</time>
      </trkpt>
      <trkpt lat="47.84667" lon="-2.59024">
        <ele>136.16</ele>
        <time>2016-10-28T10:14:27Z</time>
      </trkpt>
      <trkpt lat="47.84664" lon="-2.5901">
        <ele>136.64</ele>
        <time>2016-10-28T10:14:32Z</time>
      </trkpt>
      <trkpt lat="47.8466" lon="-2.58994">
        <ele>137.13</ele>
        <time>2016-10-28T10:14:38Z</time>
      </trkpt>
      <trkpt lat="47.84658" lon="-2.58981">
        <ele>137.13</ele>
        <time>2016-10-28T10:14:43Z</time>
      </trkpt>
      <trkpt lat="47.84654" lon="-2.58969">
        <ele>137.61</ele>
        <time>2016-10-28T10:14:48Z</time>
      </trkpt>
      <trkpt lat="47.84651" lon="-2.58956">
        <ele>137.61</ele>
        <time>2016-10-28T10:14:53Z</time>
      </trkpt>
      <trkpt lat="47.84648" lon="-2.58943">
        <ele>137.61</ele>
        <time>2016-10-28T10:14:58Z</time>
      </trkpt>
      <trkpt lat="47.84646" lon="-2.58928">
        <ele>137.61</ele>
        <time>2016-10-28T10:15:04Z</time>
      </trkpt>
      <trkpt lat="47.84644" lon="-2.58913">
        <ele>137.61</ele>
        <time>2016-10-28T10:15:10Z</time>
      </trkpt>
      <trkpt lat="47.84644" lon="-2.589">
        <ele>136.64</ele>
        <time>2016-10-28T10:15:15Z</time>
      </trkpt>
      <trkpt lat="47.84645" lon="-2.58887">
        <ele>136.64</ele>
        <time>2016-10-28T10:15:20Z</time>
      </trkpt>
      <trkpt lat="47.84645" lon="-2.58873">
        <ele>136.64</ele>
        <time>2016-10-28T10:15:25Z</time>
      </trkpt>
      <trkpt lat="47.84645" lon="-2.58859">
        <ele>136.64</ele>
        <time>2016-10-28T10:15:30Z</time>
      </trkpt>
      <trkpt lat="47.84647" lon="-2.58846">
        <ele>136.16</ele>
        <time>2016-10-28T10:15:35Z</time>
      </trkpt>
      <trkpt lat="47.84645" lon="-2.58832">
        <ele>136.16</ele>
        <time>2016-10-28T10:15:41Z</time>
      </trkpt>
      <trkpt lat="47.84645" lon="-2.58816">
        <ele>136.16</ele>
        <time>2016-10-28T10:15:47Z</time>
      </trkpt>
      <trkpt lat="47.84645" lon="-2.58802">
        <ele>135.68</ele>
        <time>2016-10-28T10:15:52Z</time>
      </trkpt>
      <trkpt lat="47.84645" lon="-2.58787">
        <ele>136.16</ele>
        <time>2016-10-28T10:15:57Z</time>
      </trkpt>
      <trkpt lat="47.84645" lon="-2.58771">
        <ele>135.68</ele>
        <time>2016-10-28T10:16:03Z</time>
      </trkpt>
      <trkpt lat="47.84645" lon="-2.58757">
        <ele>136.16</ele>
        <time>2016-10-28T10:16:08Z</time>
      </trkpt>
      <trkpt lat="47.84644" lon="-2.58744">
        <ele>136.64</ele>
        <time>2016-10-28T10:16:13Z</time>
      </trkpt>
      <trkpt lat="47.84644" lon="-2.58728">
        <ele>136.64</ele>
        <time>2016-10-28T10:16:19Z</time>
      </trkpt>
      <trkpt lat="47.84644" lon="-2.58715">
        <ele>136.64</ele>
        <time>2016-10-28T10:16:24Z</time>
      </trkpt>
      <trkpt lat="47.84644" lon="-2.58701">
        <ele>136.64</ele>
        <time>2016-10-28T10:16:29Z</time>
      </trkpt>
      <trkpt lat="47.84644" lon="-2.58686">
        <ele>136.64</ele>
        <time>2016-10-28T10:16:35Z</time>
      </trkpt>
      <trkpt lat="47.84644" lon="-2.58672">
        <ele>137.13</ele>
        <time>2016-10-28T10:16:40Z</time>
      </trkpt>
      <trkpt lat="47.84644" lon="-2.58659">
        <ele>136.64</ele>
        <time>2016-10-28T10:16:45Z</time>
      </trkpt>
      <trkpt lat="47.84644" lon="-2.58645">
        <ele>136.64</ele>
        <time>2016-10-28T10:16:50Z</time>
      </trkpt>
      <trkpt lat="47.84644" lon="-2.58632">
        <ele>137.13</ele>
        <time>2016-10-28T10:16:55Z</time>
      </trkpt>
      <trkpt lat="47.84645" lon="-2.58617">
        <ele>136.64</ele>
        <time>2016-10-28T10:17:01Z</time>
      </trkpt>
      <trkpt lat="47.84645" lon="-2.58601">
        <ele>136.64</ele>
        <time>2016-10-28T10:17:07Z</time>
      </trkpt>
      <trkpt lat="47.84646" lon="-2.58587">
        <ele>136.64</ele>
        <time>2016-10-28T10:17:12Z</time>
      </trkpt>
      <trkpt lat="47.84646" lon="-2.58573">
        <ele>137.13</ele>
        <time>2016-10-28T10:17:18Z</time>
      </trkpt>
      <trkpt lat="47.84648" lon="-2.58559">
        <ele>137.13</ele>
        <time>2016-10-28T10:17:23Z</time>
      </trkpt>
      <trkpt lat="47.8465" lon="-2.58544">
        <ele>136.16</ele>
        <time>2016-10-28T10:17:29Z</time>
      </trkpt>
      <trkpt lat="47.84651" lon="-2.5853">
        <ele>135.68</ele>
        <time>2016-10-28T10:17:34Z</time>
      </trkpt>
      <trkpt lat="47.84653" lon="-2.58515">
        <ele>134.72</ele>
        <time>2016-10-28T10:17:40Z</time>
      </trkpt>
      <trkpt lat="47.84655" lon="-2.585">
        <ele>133.28</ele>
        <time>2016-10-28T10:17:47Z</time>
      </trkpt>
      <trkpt lat="47.84657" lon="-2.58485">
        <ele>132.8</ele>
        <time>2016-10-28T10:17:53Z</time>
      </trkpt>
      <trkpt lat="47.84658" lon="-2.58471">
        <ele>132.8</ele>
        <time>2016-10-28T10:17:58Z</time>
      </trkpt>
      <trkpt lat="47.84659" lon="-2.58457">
        <ele>133.28</ele>
        <time>2016-10-28T10:18:05Z</time>
      </trkpt>
      <trkpt lat="47.84657" lon="-2.58441">
        <ele>133.28</ele>
        <time>2016-10-28T10:18:12Z</time>
      </trkpt>
      <trkpt lat="47.84655" lon="-2.58426">
        <ele>133.28</ele>
        <time>2016-10-28T10:18:18Z</time>
      </trkpt>
      <trkpt lat="47.84652" lon="-2.5841">
        <ele>132.8</ele>
        <time>2016-10-28T10:18:24Z</time>
      </trkpt>
      <trkpt lat="47.8465" lon="-2.58399">
        <ele>133.28</ele>
        <time>2016-10-28T10:18:29Z</time>
      </trkpt>
      <trkpt lat="47.84647" lon="-2.58384">
        <ele>133.28</ele>
        <time>2016-10-28T10:18:35Z</time>
      </trkpt>
      <trkpt lat="47.84645" lon="-2.58371">
        <ele>133.28</ele>
        <time>2016-10-28T10:18:41Z</time>
      </trkpt>
      <trkpt lat="47.84643" lon="-2.58355">
        <ele>133.28</ele>
        <time>2016-10-28T10:18:47Z</time>
      </trkpt>
      <trkpt lat="47.84641" lon="-2.58341">
        <ele>133.28</ele>
        <time>2016-10-28T10:18:53Z</time>
      </trkpt>
      <trkpt lat="47.84639" lon="-2.58326">
        <ele>133.76</ele>
        <time>2016-10-28T10:19:00Z</time>
      </trkpt>
      <trkpt lat="47.84637" lon="-2.5831">
        <ele>133.28</ele>
        <time>2016-10-28T10:19:07Z</time>
      </trkpt>
      <trkpt lat="47.84634" lon="-2.58294">
        <ele>133.28</ele>
        <time>2016-10-28T10:19:13Z</time>
      </trkpt>
      <trkpt lat="47.84632" lon="-2.5828">
        <ele>132.8</ele>
        <time>2016-10-28T10:19:18Z</time>
      </trkpt>
      <trkpt lat="47.84628" lon="-2.58267">
        <ele>132.8</ele>
        <time>2016-10-28T10:19:24Z</time>
      </trkpt>
      <trkpt lat="47.84626" lon="-2.58252">
        <ele>131.84</ele>
        <time>2016-10-28T10:19:30Z</time>
      </trkpt>
      <trkpt lat="47.84625" lon="-2.58238">
        <ele>131.36</ele>
        <time>2016-10-28T10:19:36Z</time>
      </trkpt>
      <trkpt lat="47.84619" lon="-2.58225">
        <ele>130.88</ele>
        <time>2016-10-28T10:19:42Z</time>
      </trkpt>
      <trkpt lat="47.84616" lon="-2.58212">
        <ele>130.88</ele>
        <time>2016-10-28T10:19:48Z</time>
      </trkpt>
      <trkpt lat="47.84612" lon="-2.58197">
        <ele>130.4</ele>
        <time>2016-10-28T10:19:55Z</time>
      </trkpt>
      <trkpt lat="47.84606" lon="-2.58186">
        <ele>129.92</ele>
        <time>2016-10-28T10:20:01Z</time>
      </trkpt>
      <trkpt lat="47.84598" lon="-2.58173">
        <ele>129.43</ele>
        <time>2016-10-28T10:20:07Z</time>
      </trkpt>
      <trkpt lat="47.84593" lon="-2.58161">
        <ele>129.43</ele>
        <time>2016-10-28T10:20:13Z</time>
      </trkpt>
      <trkpt lat="47.84589" lon="-2.58147">
        <ele>128.95</ele>
        <time>2016-10-28T10:20:19Z</time>
      </trkpt>
      <trkpt lat="47.84583" lon="-2.58134">
        <ele>128.47</ele>
        <time>2016-10-28T10:20:25Z</time>
      </trkpt>
      <trkpt lat="47.84579" lon="-2.5812">
        <ele>128.47</ele>
        <time>2016-10-28T10:20:36Z</time>
      </trkpt>
      <trkpt lat="47.84576" lon="-2.58108">
        <ele>128.47</ele>
        <time>2016-10-28T10:20:42Z</time>
      </trkpt>
      <trkpt lat="47.84568" lon="-2.58099">
        <ele>128.47</ele>
        <time>2016-10-28T10:20:48Z</time>
      </trkpt>
      <trkpt lat="47.84559" lon="-2.58092">
        <ele>127.99</ele>
        <time>2016-10-28T10:20:54Z</time>
      </trkpt>
      <trkpt lat="47.8455" lon="-2.58084">
        <ele>127.51</ele>
        <time>2016-10-28T10:21:01Z</time>
      </trkpt>
      <trkpt lat="47.84545" lon="-2.58071">
        <ele>126.55</ele>
        <time>2016-10-28T10:21:09Z</time>
      </trkpt>
      <trkpt lat="47.84537" lon="-2.58075">
        <ele>127.51</ele>
        <time>2016-10-28T10:21:17Z</time>
      </trkpt>
      <trkpt lat="47.8453" lon="-2.58085">
        <ele>127.51</ele>
        <time>2016-10-28T10:21:24Z</time>
      </trkpt>
      <trkpt lat="47.84521" lon="-2.5809">
        <ele>127.99</ele>
        <time>2016-10-28T10:21:32Z</time>
      </trkpt>
      <trkpt lat="47.84523" lon="-2.58097">
        <ele>122.22</ele>
        <time>2016-10-28T12:21:02Z</time>
      </trkpt>
      <trkpt lat="47.84523" lon="-2.58116">
        <ele>122.71</ele>
        <time>2016-10-28T12:21:14Z</time>
      </trkpt>
      <trkpt lat="47.84518" lon="-2.58133">
        <ele>123.19</ele>
        <time>2016-10-28T12:21:25Z</time>
      </trkpt>
      <trkpt lat="47.84516" lon="-2.58148">
        <ele>123.19</ele>
        <time>2016-10-28T12:21:38Z</time>
      </trkpt>
      <trkpt lat="47.84517" lon="-2.58165">
        <ele>123.19</ele>
        <time>2016-10-28T12:21:58Z</time>
      </trkpt>
      <trkpt lat="47.84513" lon="-2.58179">
        <ele>122.71</ele>
        <time>2016-10-28T12:22:07Z</time>
      </trkpt>
      <trkpt lat="47.84507" lon="-2.58191">
        <ele>122.71</ele>
        <time>2016-10-28T12:22:16Z</time>
      </trkpt>
      <trkpt lat="47.84504" lon="-2.58204">
        <ele>121.74</ele>
        <time>2016-10-28T12:22:28Z</time>
      </trkpt>
      <trkpt lat="47.84492" lon="-2.5821">
        <ele>121.26</ele>
        <time>2016-10-28T12:22:37Z</time>
      </trkpt>
      <trkpt lat="47.84483" lon="-2.58211">
        <ele>120.78</ele>
        <time>2016-10-28T12:22:44Z</time>
      </trkpt>
      <trkpt lat="47.84472" lon="-2.58214">
        <ele>119.82</ele>
        <time>2016-10-28T12:22:52Z</time>
      </trkpt>
      <trkpt lat="47.84462" lon="-2.58218">
        <ele>119.34</ele>
        <time>2016-10-28T12:23:01Z</time>
      </trkpt>
      <trkpt lat="47.84451" lon="-2.58223">
        <ele>118.86</ele>
        <time>2016-10-28T12:23:11Z</time>
      </trkpt>
      <trkpt lat="47.84439" lon="-2.58224">
        <ele>117.42</ele>
        <time>2016-10-28T12:23:21Z</time>
      </trkpt>
      <trkpt lat="47.84426" lon="-2.58226">
        <ele>116.94</ele>
        <time>2016-10-28T12:23:30Z</time>
      </trkpt>
      <trkpt lat="47.84414" lon="-2.58228">
        <ele>115.98</ele>
        <time>2016-10-28T12:23:37Z</time>
      </trkpt>
      <trkpt lat="47.84405" lon="-2.5823">
        <ele>115.5</ele>
        <time>2016-10-28T12:23:43Z</time>
      </trkpt>
      <trkpt lat="47.84395" lon="-2.58231">
        <ele>114.05</ele>
        <time>2016-10-28T12:23:51Z</time>
      </trkpt>
      <trkpt lat="47.84383" lon="-2.5823">
        <ele>113.57</ele>
        <time>2016-10-28T12:23:59Z</time>
      </trkpt>
      <trkpt lat="47.84374" lon="-2.58232">
        <ele>112.61</ele>
        <time>2016-10-28T12:24:06Z</time>
      </trkpt>
      <trkpt lat="47.84363" lon="-2.58233">
        <ele>111.65</ele>
        <time>2016-10-28T12:24:14Z</time>
      </trkpt>
      <trkpt lat="47.84352" lon="-2.58236">
        <ele>110.69</ele>
        <time>2016-10-28T12:24:21Z</time>
      </trkpt>
      <trkpt lat="47.84343" lon="-2.58236">
        <ele>110.69</ele>
        <time>2016-10-28T12:24:27Z</time>
      </trkpt>
      <trkpt lat="47.84334" lon="-2.58237">
        <ele>110.21</ele>
        <time>2016-10-28T12:24:33Z</time>
      </trkpt>
      <trkpt lat="47.84324" lon="-2.58235">
        <ele>109.25</ele>
        <time>2016-10-28T12:24:40Z</time>
      </trkpt>
      <trkpt lat="47.84314" lon="-2.58238">
        <ele>108.77</ele>
        <time>2016-10-28T12:24:48Z</time>
      </trkpt>
      <trkpt lat="47.84308" lon="-2.5824">
        <ele>109.25</ele>
        <time>2016-10-28T12:25:05Z</time>
      </trkpt>
      <trkpt lat="47.84301" lon="-2.58248">
        <ele>110.21</ele>
        <time>2016-10-28T12:25:12Z</time>
      </trkpt>
      <trkpt lat="47.84292" lon="-2.58252">
        <ele>111.17</ele>
        <time>2016-10-28T12:25:19Z</time>
      </trkpt>
      <trkpt lat="47.84283" lon="-2.58261">
        <ele>111.65</ele>
        <time>2016-10-28T12:25:27Z</time>
      </trkpt>
      <trkpt lat="47.84273" lon="-2.58269">
        <ele>112.13</ele>
        <time>2016-10-28T12:25:36Z</time>
      </trkpt>
      <trkpt lat="47.84262" lon="-2.58276">
        <ele>112.61</ele>
        <time>2016-10-28T12:25:43Z</time>
      </trkpt>
      <trkpt lat="47.84253" lon="-2.58284">
        <ele>113.09</ele>
        <time>2016-10-28T12:25:49Z</time>
      </trkpt>
      <trkpt lat="47.84242" lon="-2.5829">
        <ele>113.57</ele>
        <time>2016-10-28T12:25:56Z</time>
      </trkpt>
      <trkpt lat="47.8423" lon="-2.58296">
        <ele>113.57</ele>
        <time>2016-10-28T12:26:04Z</time>
      </trkpt>
      <trkpt lat="47.84219" lon="-2.58303">
        <ele>113.57</ele>
        <time>2016-10-28T12:26:11Z</time>
      </trkpt>
      <trkpt lat="47.84205" lon="-2.58309">
        <ele>113.09</ele>
        <time>2016-10-28T12:26:18Z</time>
      </trkpt>
      <trkpt lat="47.84195" lon="-2.58316">
        <ele>112.61</ele>
        <time>2016-10-28T12:26:25Z</time>
      </trkpt>
      <trkpt lat="47.84185" lon="-2.58329">
        <ele>111.65</ele>
        <time>2016-10-28T12:26:33Z</time>
      </trkpt>
      <trkpt lat="47.84175" lon="-2.58343">
        <ele>110.69</ele>
        <time>2016-10-28T12:26:40Z</time>
      </trkpt>
      <trkpt lat="47.8417" lon="-2.58356">
        <ele>110.21</ele>
        <time>2016-10-28T12:26:46Z</time>
      </trkpt>
      <trkpt lat="47.84165" lon="-2.58372">
        <ele>109.25</ele>
        <time>2016-10-28T12:26:53Z</time>
      </trkpt>
      <trkpt lat="47.8416" lon="-2.58389">
        <ele>108.77</ele>
        <time>2016-10-28T12:26:59Z</time>
      </trkpt>
      <trkpt lat="47.84156" lon="-2.58408">
        <ele>107.81</ele>
        <time>2016-10-28T12:27:05Z</time>
      </trkpt>
      <trkpt lat="47.84153" lon="-2.58422">
        <ele>107.32</ele>
        <time>2016-10-28T12:27:09Z</time>
      </trkpt>
      <trkpt lat="47.84147" lon="-2.58438">
        <ele>106.36</ele>
        <time>2016-10-28T12:27:15Z</time>
      </trkpt>
      <trkpt lat="47.84143" lon="-2.58451">
        <ele>105.4</ele>
        <time>2016-10-28T12:27:22Z</time>
      </trkpt>
      <trkpt lat="47.84137" lon="-2.5847">
        <ele>104.44</ele>
        <time>2016-10-28T12:27:30Z</time>
      </trkpt>
      <trkpt lat="47.84126" lon="-2.58482">
        <ele>103.48</ele>
        <time>2016-10-28T12:27:37Z</time>
      </trkpt>
      <trkpt lat="47.84119" lon="-2.58492">
        <ele>103</ele>
        <time>2016-10-28T12:27:42Z</time>
      </trkpt>
      <trkpt lat="47.8411" lon="-2.58499">
        <ele>102.52</ele>
        <time>2016-10-28T12:27:47Z</time>
      </trkpt>
      <trkpt lat="47.84101" lon="-2.58504">
        <ele>102.04</ele>
        <time>2016-10-28T12:27:52Z</time>
      </trkpt>
      <trkpt lat="47.84092" lon="-2.5851">
        <ele>102.04</ele>
        <time>2016-10-28T12:27:58Z</time>
      </trkpt>
      <trkpt lat="47.84082" lon="-2.58515">
        <ele>101.56</ele>
        <time>2016-10-28T12:28:03Z</time>
      </trkpt>
      <trkpt lat="47.8407" lon="-2.58518">
        <ele>102.04</ele>
        <time>2016-10-28T12:28:08Z</time>
      </trkpt>
      <trkpt lat="47.84059" lon="-2.58518">
        <ele>102.52</ele>
        <time>2016-10-28T12:28:15Z</time>
      </trkpt>
      <trkpt lat="47.84051" lon="-2.58528">
        <ele>102.52</ele>
        <time>2016-10-28T12:28:22Z</time>
      </trkpt>
      <trkpt lat="47.84049" lon="-2.58543">
        <ele>102.52</ele>
        <time>2016-10-28T12:28:27Z</time>
      </trkpt>
      <trkpt lat="47.84047" lon="-2.58558">
        <ele>102.52</ele>
        <time>2016-10-28T12:28:33Z</time>
      </trkpt>
      <trkpt lat="47.84047" lon="-2.58574">
        <ele>102.04</ele>
        <time>2016-10-28T12:28:38Z</time>
      </trkpt>
      <trkpt lat="47.84047" lon="-2.58588">
        <ele>102.04</ele>
        <time>2016-10-28T12:28:43Z</time>
      </trkpt>
      <trkpt lat="47.84048" lon="-2.58602">
        <ele>101.56</ele>
        <time>2016-10-28T12:28:48Z</time>
      </trkpt>
      <trkpt lat="47.84048" lon="-2.58616">
        <ele>102.04</ele>
        <time>2016-10-28T12:28:54Z</time>
      </trkpt>
      <trkpt lat="47.84047" lon="-2.5863">
        <ele>102.04</ele>
        <time>2016-10-28T12:29:00Z</time>
      </trkpt>
      <trkpt lat="47.84046" lon="-2.58646">
        <ele>102.52</ele>
        <time>2016-10-28T12:29:06Z</time>
      </trkpt>
      <trkpt lat="47.84048" lon="-2.58663">
        <ele>103</ele>
        <time>2016-10-28T12:29:12Z</time>
      </trkpt>
      <trkpt lat="47.8405" lon="-2.58677">
        <ele>103</ele>
        <time>2016-10-28T12:29:18Z</time>
      </trkpt>
      <trkpt lat="47.84053" lon="-2.5869">
        <ele>103</ele>
        <time>2016-10-28T12:29:24Z</time>
      </trkpt>
      <trkpt lat="47.84057" lon="-2.58705">
        <ele>103</ele>
        <time>2016-10-28T12:29:30Z</time>
      </trkpt>
      <trkpt lat="47.84059" lon="-2.58724">
        <ele>103.48</ele>
        <time>2016-10-28T12:29:38Z</time>
      </trkpt>
      <trkpt lat="47.84064" lon="-2.5874">
        <ele>103.96</ele>
        <time>2016-10-28T12:29:45Z</time>
      </trkpt>
      <trkpt lat="47.8407" lon="-2.58756">
        <ele>104.44</ele>
        <time>2016-10-28T12:29:52Z</time>
      </trkpt>
      <trkpt lat="47.8408" lon="-2.58768">
        <ele>105.4</ele>
        <time>2016-10-28T12:29:57Z</time>
      </trkpt>
      <trkpt lat="47.84091" lon="-2.58779">
        <ele>105.88</ele>
        <time>2016-10-28T12:30:04Z</time>
      </trkpt>
      <trkpt lat="47.841" lon="-2.58792">
        <ele>106.36</ele>
        <time>2016-10-28T12:30:11Z</time>
      </trkpt>
      <trkpt lat="47.8411" lon="-2.58804">
        <ele>107.32</ele>
        <time>2016-10-28T12:30:19Z</time>
      </trkpt>
      <trkpt lat="47.84121" lon="-2.58816">
        <ele>108.29</ele>
        <time>2016-10-28T12:30:27Z</time>
      </trkpt>
      <trkpt lat="47.84131" lon="-2.58824">
        <ele>109.25</ele>
        <time>2016-10-28T12:30:34Z</time>
      </trkpt>
      <trkpt lat="47.84141" lon="-2.58831">
        <ele>110.21</ele>
        <time>2016-10-28T12:30:40Z</time>
      </trkpt>
      <trkpt lat="47.84149" lon="-2.58836">
        <ele>111.17</ele>
        <time>2016-10-28T12:30:46Z</time>
      </trkpt>
      <trkpt lat="47.8416" lon="-2.58841">
        <ele>112.13</ele>
        <time>2016-10-28T12:30:52Z</time>
      </trkpt>
      <trkpt lat="47.84171" lon="-2.58848">
        <ele>113.57</ele>
        <time>2016-10-28T12:31:00Z</time>
      </trkpt>
      <trkpt lat="47.84183" lon="-2.58856">
        <ele>115.01</ele>
        <time>2016-10-28T12:31:07Z</time>
      </trkpt>
      <trkpt lat="47.84193" lon="-2.58862">
        <ele>115.5</ele>
        <time>2016-10-28T12:31:14Z</time>
      </trkpt>
      <trkpt lat="47.84204" lon="-2.58872">
        <ele>116.46</ele>
        <time>2016-10-28T12:31:22Z</time>
      </trkpt>
      <trkpt lat="47.84216" lon="-2.58883">
        <ele>116.94</ele>
        <time>2016-10-28T12:31:29Z</time>
      </trkpt>
      <trkpt lat="47.84225" lon="-2.58891">
        <ele>117.42</ele>
        <time>2016-10-28T12:31:35Z</time>
      </trkpt>
      <trkpt lat="47.84237" lon="-2.58894">
        <ele>116.94</ele>
        <time>2016-10-28T12:31:42Z</time>
      </trkpt>
      <trkpt lat="47.84247" lon="-2.58899">
        <ele>116.94</ele>
        <time>2016-10-28T12:31:49Z</time>
      </trkpt>
      <trkpt lat="47.84257" lon="-2.58909">
        <ele>116.46</ele>
        <time>2016-10-28T12:31:55Z</time>
      </trkpt>
      <trkpt lat="47.84271" lon="-2.58917">
        <ele>116.46</ele>
        <time>2016-10-28T12:32:02Z</time>
      </trkpt>
      <trkpt lat="47.84283" lon="-2.58927">
        <ele>116.46</ele>
        <time>2016-10-28T12:32:09Z</time>
      </trkpt>
      <trkpt lat="47.84297" lon="-2.5894">
        <ele>116.46</ele>
        <time>2016-10-28T12:32:19Z</time>
      </trkpt>
      <trkpt lat="47.84306" lon="-2.58949">
        <ele>116.94</ele>
        <time>2016-10-28T12:32:24Z</time>
      </trkpt>
      <trkpt lat="47.84313" lon="-2.58962">
        <ele>116.94</ele>
        <time>2016-10-28T12:32:29Z</time>
      </trkpt>
      <trkpt lat="47.84321" lon="-2.58976">
        <ele>116.94</ele>
        <time>2016-10-28T12:32:36Z</time>
      </trkpt>
      <trkpt lat="47.84326" lon="-2.58993">
        <ele>115.98</ele>
        <time>2016-10-28T12:32:45Z</time>
      </trkpt>
      <trkpt lat="47.84331" lon="-2.59018">
        <ele>115.01</ele>
        <time>2016-10-28T12:32:54Z</time>
      </trkpt>
      <trkpt lat="47.84334" lon="-2.59041">
        <ele>114.05</ele>
        <time>2016-10-28T12:33:03Z</time>
      </trkpt>
      <trkpt lat="47.84334" lon="-2.59061">
        <ele>113.09</ele>
        <time>2016-10-28T12:33:11Z</time>
      </trkpt>
      <trkpt lat="47.84333" lon="-2.5908">
        <ele>113.09</ele>
        <time>2016-10-28T12:33:18Z</time>
      </trkpt>
      <trkpt lat="47.84329" lon="-2.59094">
        <ele>112.61</ele>
        <time>2016-10-28T12:33:25Z</time>
      </trkpt>
      <trkpt lat="47.84327" lon="-2.59108">
        <ele>113.09</ele>
        <time>2016-10-28T12:33:35Z</time>
      </trkpt>
      <trkpt lat="47.84322" lon="-2.59124">
        <ele>114.05</ele>
        <time>2016-10-28T12:33:46Z</time>
      </trkpt>
      <trkpt lat="47.84315" lon="-2.59138">
        <ele>115.98</ele>
        <time>2016-10-28T12:33:53Z</time>
      </trkpt>
      <trkpt lat="47.84304" lon="-2.59155">
        <ele>118.38</ele>
        <time>2016-10-28T12:33:59Z</time>
      </trkpt>
      <trkpt lat="47.84294" lon="-2.59181">
        <ele>120.78</ele>
        <time>2016-10-28T12:34:04Z</time>
      </trkpt>
      <trkpt lat="47.84286" lon="-2.59205">
        <ele>122.71</ele>
        <time>2016-10-28T12:34:07Z</time>
      </trkpt>
      <trkpt lat="47.84278" lon="-2.59232">
        <ele>123.67</ele>
        <time>2016-10-28T12:34:10Z</time>
      </trkpt>
      <trkpt lat="47.84272" lon="-2.59253">
        <ele>125.11</ele>
        <time>2016-10-28T12:34:12Z</time>
      </trkpt>
      <trkpt lat="47.84266" lon="-2.5927">
        <ele>125.59</ele>
        <time>2016-10-28T12:34:14Z</time>
      </trkpt>
      <trkpt lat="47.84259" lon="-2.59296">
        <ele>126.55</ele>
        <time>2016-10-28T12:34:17Z</time>
      </trkpt>
      <trkpt lat="47.84251" lon="-2.59318">
        <ele>127.99</ele>
        <time>2016-10-28T12:34:20Z</time>
      </trkpt>
      <trkpt lat="47.84243" lon="-2.59331">
        <ele>127.99</ele>
        <time>2016-10-28T12:34:22Z</time>
      </trkpt>
      <trkpt lat="47.84234" lon="-2.59341">
        <ele>128.95</ele>
        <time>2016-10-28T12:34:24Z</time>
      </trkpt>
      <trkpt lat="47.84225" lon="-2.59348">
        <ele>129.43</ele>
        <time>2016-10-28T12:34:26Z</time>
      </trkpt>
      <trkpt lat="47.84215" lon="-2.59353">
        <ele>130.4</ele>
        <time>2016-10-28T12:34:28Z</time>
      </trkpt>
      <trkpt lat="47.84206" lon="-2.59357">
        <ele>130.4</ele>
        <time>2016-10-28T12:34:30Z</time>
      </trkpt>
      <trkpt lat="47.84196" lon="-2.59362">
        <ele>130.4</ele>
        <time>2016-10-28T12:34:32Z</time>
      </trkpt>
      <trkpt lat="47.84187" lon="-2.59366">
        <ele>130.4</ele>
        <time>2016-10-28T12:34:34Z</time>
      </trkpt>
      <trkpt lat="47.84178" lon="-2.59371">
        <ele>130.88</ele>
        <time>2016-10-28T12:34:36Z</time>
      </trkpt>
      <trkpt lat="47.84169" lon="-2.59375">
        <ele>131.36</ele>
        <time>2016-10-28T12:34:38Z</time>
      </trkpt>
      <trkpt lat="47.8416" lon="-2.5938">
        <ele>131.36</ele>
        <time>2016-10-28T12:34:40Z</time>
      </trkpt>
      <trkpt lat="47.84148" lon="-2.59385">
        <ele>131.36</ele>
        <time>2016-10-28T12:34:43Z</time>
      </trkpt>
      <trkpt lat="47.84137" lon="-2.59391">
        <ele>131.36</ele>
        <time>2016-10-28T12:34:46Z</time>
      </trkpt>
      <trkpt lat="47.84124" lon="-2.59396">
        <ele>131.36</ele>
        <time>2016-10-28T12:34:49Z</time>
      </trkpt>
      <trkpt lat="47.84112" lon="-2.59402">
        <ele>131.36</ele>
        <time>2016-10-28T12:34:52Z</time>
      </trkpt>
      <trkpt lat="47.841" lon="-2.59409">
        <ele>131.36</ele>
        <time>2016-10-28T12:34:55Z</time>
      </trkpt>
      <trkpt lat="47.84089" lon="-2.59415">
        <ele>130.88</ele>
        <time>2016-10-28T12:34:58Z</time>
      </trkpt>
      <trkpt lat="47.8408" lon="-2.5942">
        <ele>130.88</ele>
        <time>2016-10-28T12:35:01Z</time>
      </trkpt>
      <trkpt lat="47.84072" lon="-2.59425">
        <ele>130.88</ele>
        <time>2016-10-28T12:35:04Z</time>
      </trkpt>
      <trkpt lat="47.84063" lon="-2.59429">
        <ele>130.4</ele>
        <time>2016-10-28T12:35:07Z</time>
      </trkpt>
      <trkpt lat="47.84054" lon="-2.59433">
        <ele>130.88</ele>
        <time>2016-10-28T12:35:11Z</time>
      </trkpt>
      <trkpt lat="47.84045" lon="-2.59441">
        <ele>130.4</ele>
        <time>2016-10-28T12:35:18Z</time>
      </trkpt>
      <trkpt lat="47.84035" lon="-2.59446">
        <ele>130.4</ele>
        <time>2016-10-28T12:35:25Z</time>
      </trkpt>
      <trkpt lat="47.84026" lon="-2.59449">
        <ele>130.4</ele>
        <time>2016-10-28T12:35:31Z</time>
      </trkpt>
      <trkpt lat="47.84017" lon="-2.59455">
        <ele>130.88</ele>
        <time>2016-10-28T12:35:37Z</time>
      </trkpt>
      <trkpt lat="47.84007" lon="-2.59461">
        <ele>130.4</ele>
        <time>2016-10-28T12:35:42Z</time>
      </trkpt>
      <trkpt lat="47.83996" lon="-2.59467">
        <ele>130.88</ele>
        <time>2016-10-28T12:35:45Z</time>
      </trkpt>
      <trkpt lat="47.83984" lon="-2.59474">
        <ele>131.36</ele>
        <time>2016-10-28T12:35:48Z</time>
      </trkpt>
      <trkpt lat="47.83972" lon="-2.5948">
        <ele>131.84</ele>
        <time>2016-10-28T12:35:51Z</time>
      </trkpt>
      <trkpt lat="47.83961" lon="-2.59485">
        <ele>132.32</ele>
        <time>2016-10-28T12:35:54Z</time>
      </trkpt>
      <trkpt lat="47.8395" lon="-2.59492">
        <ele>133.28</ele>
        <time>2016-10-28T12:35:57Z</time>
      </trkpt>
      <trkpt lat="47.83937" lon="-2.59499">
        <ele>134.72</ele>
        <time>2016-10-28T12:36:00Z</time>
      </trkpt>
      <trkpt lat="47.83926" lon="-2.59504">
        <ele>135.68</ele>
        <time>2016-10-28T12:36:02Z</time>
      </trkpt>
      <trkpt lat="47.83917" lon="-2.5951">
        <ele>137.13</ele>
        <time>2016-10-28T12:36:04Z</time>
      </trkpt>
      <trkpt lat="47.83903" lon="-2.59517">
        <ele>138.57</ele>
        <time>2016-10-28T12:36:07Z</time>
      </trkpt>
      <trkpt lat="47.83892" lon="-2.59524">
        <ele>140.49</ele>
        <time>2016-10-28T12:36:10Z</time>
      </trkpt>
      <trkpt lat="47.83883" lon="-2.59528">
        <ele>140.97</ele>
        <time>2016-10-28T12:36:13Z</time>
      </trkpt>
      <trkpt lat="47.83874" lon="-2.59532">
        <ele>141.45</ele>
        <time>2016-10-28T12:36:19Z</time>
      </trkpt>
      <trkpt lat="47.83865" lon="-2.59535">
        <ele>141.45</ele>
        <time>2016-10-28T12:36:25Z</time>
      </trkpt>
      <trkpt lat="47.83856" lon="-2.59541">
        <ele>141.93</ele>
        <time>2016-10-28T12:36:31Z</time>
      </trkpt>
      <trkpt lat="47.83847" lon="-2.59547">
        <ele>141.93</ele>
        <time>2016-10-28T12:36:37Z</time>
      </trkpt>
      <trkpt lat="47.83838" lon="-2.59552">
        <ele>141.93</ele>
        <time>2016-10-28T12:36:43Z</time>
      </trkpt>
      <trkpt lat="47.83829" lon="-2.59556">
        <ele>141.93</ele>
        <time>2016-10-28T12:36:49Z</time>
      </trkpt>
      <trkpt lat="47.8382" lon="-2.59559">
        <ele>141.93</ele>
        <time>2016-10-28T12:36:55Z</time>
      </trkpt>
      <trkpt lat="47.8381" lon="-2.59567">
        <ele>141.45</ele>
        <time>2016-10-28T12:37:03Z</time>
      </trkpt>
      <trkpt lat="47.83798" lon="-2.59573">
        <ele>140.97</ele>
        <time>2016-10-28T12:37:10Z</time>
      </trkpt>
      <trkpt lat="47.83789" lon="-2.59582">
        <ele>140.01</ele>
        <time>2016-10-28T12:37:16Z</time>
      </trkpt>
      <trkpt lat="47.8379" lon="-2.59596">
        <ele>140.01</ele>
        <time>2016-10-28T12:37:19Z</time>
      </trkpt>
      <trkpt lat="47.83796" lon="-2.59607">
        <ele>139.53</ele>
        <time>2016-10-28T12:37:23Z</time>
      </trkpt>
      <trkpt lat="47.83802" lon="-2.59619">
        <ele>139.05</ele>
        <time>2016-10-28T12:37:29Z</time>
      </trkpt>
      <trkpt lat="47.8381" lon="-2.59631">
        <ele>139.05</ele>
        <time>2016-10-28T12:37:35Z</time>
      </trkpt>
      <trkpt lat="47.83817" lon="-2.59643">
        <ele>139.05</ele>
        <time>2016-10-28T12:37:41Z</time>
      </trkpt>
      <trkpt lat="47.83822" lon="-2.59654">
        <ele>139.05</ele>
        <time>2016-10-28T12:37:46Z</time>
      </trkpt>
      <trkpt lat="47.83827" lon="-2.59665">
        <ele>138.57</ele>
        <time>2016-10-28T12:37:51Z</time>
      </trkpt>
      <trkpt lat="47.83834" lon="-2.59674">
        <ele>138.57</ele>
        <time>2016-10-28T12:37:57Z</time>
      </trkpt>
      <trkpt lat="47.83841" lon="-2.59686">
        <ele>138.57</ele>
        <time>2016-10-28T12:38:03Z</time>
      </trkpt>
      <trkpt lat="47.83847" lon="-2.59696">
        <ele>138.09</ele>
        <time>2016-10-28T12:38:08Z</time>
      </trkpt>
      <trkpt lat="47.83854" lon="-2.59709">
        <ele>138.09</ele>
        <time>2016-10-28T12:38:14Z</time>
      </trkpt>
      <trkpt lat="47.8386" lon="-2.5972">
        <ele>137.61</ele>
        <time>2016-10-28T12:38:20Z</time>
      </trkpt>
      <trkpt lat="47.83866" lon="-2.59733">
        <ele>137.13</ele>
        <time>2016-10-28T12:38:26Z</time>
      </trkpt>
      <trkpt lat="47.83872" lon="-2.59743">
        <ele>137.13</ele>
        <time>2016-10-28T12:38:31Z</time>
      </trkpt>
      <trkpt lat="47.83878" lon="-2.59754">
        <ele>137.13</ele>
        <time>2016-10-28T12:38:36Z</time>
      </trkpt>
      <trkpt lat="47.83885" lon="-2.59764">
        <ele>137.13</ele>
        <time>2016-10-28T12:38:41Z</time>
      </trkpt>
      <trkpt lat="47.83893" lon="-2.59777">
        <ele>137.13</ele>
        <time>2016-10-28T12:38:45Z</time>
      </trkpt>
      <trkpt lat="47.83899" lon="-2.59788">
        <ele>136.16</ele>
        <time>2016-10-28T12:38:49Z</time>
      </trkpt>
      <trkpt lat="47.83906" lon="-2.598">
        <ele>136.16</ele>
        <time>2016-10-28T12:38:54Z</time>
      </trkpt>
      <trkpt lat="47.83913" lon="-2.59812">
        <ele>135.68</ele>
        <time>2016-10-28T12:39:00Z</time>
      </trkpt>
      <trkpt lat="47.83919" lon="-2.59824">
        <ele>136.16</ele>
        <time>2016-10-28T12:39:05Z</time>
      </trkpt>
      <trkpt lat="47.83925" lon="-2.59835">
        <ele>135.68</ele>
        <time>2016-10-28T12:39:11Z</time>
      </trkpt>
      <trkpt lat="47.83931" lon="-2.59845">
        <ele>135.68</ele>
        <time>2016-10-28T12:39:16Z</time>
      </trkpt>
      <trkpt lat="47.83937" lon="-2.59855">
        <ele>135.2</ele>
        <time>2016-10-28T12:39:21Z</time>
      </trkpt>
      <trkpt lat="47.83943" lon="-2.59865">
        <ele>135.2</ele>
        <time>2016-10-28T12:39:26Z</time>
      </trkpt>
      <trkpt lat="47.83951" lon="-2.59875">
        <ele>135.2</ele>
        <time>2016-10-28T12:39:32Z</time>
      </trkpt>
      <trkpt lat="47.83957" lon="-2.59883">
        <ele>135.2</ele>
        <time>2016-10-28T12:39:37Z</time>
      </trkpt>
      <trkpt lat="47.83966" lon="-2.59891">
        <ele>134.72</ele>
        <time>2016-10-28T12:39:43Z</time>
      </trkpt>
      <trkpt lat="47.83974" lon="-2.59901">
        <ele>136.16</ele>
        <time>2016-10-28T12:39:49Z</time>
      </trkpt>
      <trkpt lat="47.83981" lon="-2.59912">
        <ele>136.64</ele>
        <time>2016-10-28T12:39:55Z</time>
      </trkpt>
      <trkpt lat="47.83986" lon="-2.59924">
        <ele>136.64</ele>
        <time>2016-10-28T12:40:00Z</time>
      </trkpt>
      <trkpt lat="47.83988" lon="-2.5994">
        <ele>136.64</ele>
        <time>2016-10-28T12:40:06Z</time>
      </trkpt>
      <trkpt lat="47.83989" lon="-2.59956">
        <ele>136.64</ele>
        <time>2016-10-28T12:40:10Z</time>
      </trkpt>
      <trkpt lat="47.83987" lon="-2.59975">
        <ele>136.64</ele>
        <time>2016-10-28T12:40:14Z</time>
      </trkpt>
      <trkpt lat="47.83985" lon="-2.59989">
        <ele>137.13</ele>
        <time>2016-10-28T12:40:17Z</time>
      </trkpt>
      <trkpt lat="47.83981" lon="-2.60002">
        <ele>137.13</ele>
        <time>2016-10-28T12:40:20Z</time>
      </trkpt>
      <trkpt lat="47.83976" lon="-2.60015">
        <ele>137.13</ele>
        <time>2016-10-28T12:40:23Z</time>
      </trkpt>
      <trkpt lat="47.8397" lon="-2.60027">
        <ele>137.61</ele>
        <time>2016-10-28T12:40:26Z</time>
      </trkpt>
      <trkpt lat="47.83964" lon="-2.6004">
        <ele>137.61</ele>
        <time>2016-10-28T12:40:29Z</time>
      </trkpt>
      <trkpt lat="47.83958" lon="-2.60053">
        <ele>137.13</ele>
        <time>2016-10-28T12:40:32Z</time>
      </trkpt>
      <trkpt lat="47.83951" lon="-2.60068">
        <ele>137.13</ele>
        <time>2016-10-28T12:40:35Z</time>
      </trkpt>
      <trkpt lat="47.83945" lon="-2.60084">
        <ele>137.13</ele>
        <time>2016-10-28T12:40:38Z</time>
      </trkpt>
      <trkpt lat="47.83938" lon="-2.601">
        <ele>137.13</ele>
        <time>2016-10-28T12:40:41Z</time>
      </trkpt>
      <trkpt lat="47.83932" lon="-2.60117">
        <ele>137.13</ele>
        <time>2016-10-28T12:40:44Z</time>
      </trkpt>
      <trkpt lat="47.83924" lon="-2.60135">
        <ele>137.13</ele>
        <time>2016-10-28T12:40:47Z</time>
      </trkpt>
      <trkpt lat="47.83917" lon="-2.60152">
        <ele>136.64</ele>
        <time>2016-10-28T12:40:50Z</time>
      </trkpt>
      <trkpt lat="47.8391" lon="-2.60168">
        <ele>136.64</ele>
        <time>2016-10-28T12:40:53Z</time>
      </trkpt>
      <trkpt lat="47.83903" lon="-2.60185">
        <ele>136.16</ele>
        <time>2016-10-28T12:40:56Z</time>
      </trkpt>
      <trkpt lat="47.83896" lon="-2.60201">
        <ele>136.64</ele>
        <time>2016-10-28T12:40:59Z</time>
      </trkpt>
      <trkpt lat="47.83891" lon="-2.60212">
        <ele>136.16</ele>
        <time>2016-10-28T12:41:01Z</time>
      </trkpt>
      <trkpt lat="47.83888" lon="-2.60224">
        <ele>136.64</ele>
        <time>2016-10-28T12:41:03Z</time>
      </trkpt>
      <trkpt lat="47.83885" lon="-2.60237">
        <ele>136.64</ele>
        <time>2016-10-28T12:41:05Z</time>
      </trkpt>
      <trkpt lat="47.83882" lon="-2.60249">
        <ele>137.13</ele>
        <time>2016-10-28T12:41:07Z</time>
      </trkpt>
      <trkpt lat="47.83878" lon="-2.60262">
        <ele>137.13</ele>
        <time>2016-10-28T12:41:09Z</time>
      </trkpt>
      <trkpt lat="47.83874" lon="-2.60276">
        <ele>136.64</ele>
        <time>2016-10-28T12:41:11Z</time>
      </trkpt>
      <trkpt lat="47.83871" lon="-2.6029">
        <ele>136.16</ele>
        <time>2016-10-28T12:41:13Z</time>
      </trkpt>
      <trkpt lat="47.83866" lon="-2.60309">
        <ele>136.16</ele>
        <time>2016-10-28T12:41:16Z</time>
      </trkpt>
      <trkpt lat="47.83861" lon="-2.60325">
        <ele>136.64</ele>
        <time>2016-10-28T12:41:19Z</time>
      </trkpt>
      <trkpt lat="47.83855" lon="-2.6034">
        <ele>135.68</ele>
        <time>2016-10-28T12:41:22Z</time>
      </trkpt>
      <trkpt lat="47.83851" lon="-2.60356">
        <ele>135.2</ele>
        <time>2016-10-28T12:41:25Z</time>
      </trkpt>
      <trkpt lat="47.83846" lon="-2.60373">
        <ele>134.72</ele>
        <time>2016-10-28T12:41:28Z</time>
      </trkpt>
      <trkpt lat="47.8384" lon="-2.60391">
        <ele>133.76</ele>
        <time>2016-10-28T12:41:31Z</time>
      </trkpt>
      <trkpt lat="47.83836" lon="-2.60404">
        <ele>133.76</ele>
        <time>2016-10-28T12:41:33Z</time>
      </trkpt>
      <trkpt lat="47.83832" lon="-2.60418">
        <ele>133.28</ele>
        <time>2016-10-28T12:41:35Z</time>
      </trkpt>
      <trkpt lat="47.83828" lon="-2.60431">
        <ele>132.32</ele>
        <time>2016-10-28T12:41:37Z</time>
      </trkpt>
      <trkpt lat="47.83824" lon="-2.60444">
        <ele>131.84</ele>
        <time>2016-10-28T12:41:39Z</time>
      </trkpt>
      <trkpt lat="47.8382" lon="-2.60457">
        <ele>130.88</ele>
        <time>2016-10-28T12:41:41Z</time>
      </trkpt>
      <trkpt lat="47.83815" lon="-2.6047">
        <ele>130.88</ele>
        <time>2016-10-28T12:41:43Z</time>
      </trkpt>
      <trkpt lat="47.83811" lon="-2.60485">
        <ele>129.92</ele>
        <time>2016-10-28T12:41:45Z</time>
      </trkpt>
      <trkpt lat="47.83807" lon="-2.605">
        <ele>128.95</ele>
        <time>2016-10-28T12:41:47Z</time>
      </trkpt>
      <trkpt lat="47.83802" lon="-2.60517">
        <ele>128.95</ele>
        <time>2016-10-28T12:41:49Z</time>
      </trkpt>
      <trkpt lat="47.83798" lon="-2.60533">
        <ele>128.47</ele>
        <time>2016-10-28T12:41:51Z</time>
      </trkpt>
      <trkpt lat="47.83794" lon="-2.60549">
        <ele>127.51</ele>
        <time>2016-10-28T12:41:53Z</time>
      </trkpt>
      <trkpt lat="47.83789" lon="-2.60566">
        <ele>127.51</ele>
        <time>2016-10-28T12:41:55Z</time>
      </trkpt>
      <trkpt lat="47.83783" lon="-2.60584">
        <ele>127.03</ele>
        <time>2016-10-28T12:41:57Z</time>
      </trkpt>
      <trkpt lat="47.83779" lon="-2.60602">
        <ele>127.03</ele>
        <time>2016-10-28T12:41:59Z</time>
      </trkpt>
      <trkpt lat="47.83775" lon="-2.60618">
        <ele>126.55</ele>
        <time>2016-10-28T12:42:01Z</time>
      </trkpt>
      <trkpt lat="47.83771" lon="-2.60635">
        <ele>126.07</ele>
        <time>2016-10-28T12:42:03Z</time>
      </trkpt>
      <trkpt lat="47.83767" lon="-2.6065">
        <ele>126.07</ele>
        <time>2016-10-28T12:42:05Z</time>
      </trkpt>
      <trkpt lat="47.83763" lon="-2.60666">
        <ele>125.59</ele>
        <time>2016-10-28T12:42:07Z</time>
      </trkpt>
      <trkpt lat="47.83759" lon="-2.60681">
        <ele>125.59</ele>
        <time>2016-10-28T12:42:09Z</time>
      </trkpt>
      <trkpt lat="47.83755" lon="-2.60695">
        <ele>125.11</ele>
        <time>2016-10-28T12:42:11Z</time>
      </trkpt>
      <trkpt lat="47.83751" lon="-2.60709">
        <ele>125.11</ele>
        <time>2016-10-28T12:42:13Z</time>
      </trkpt>
      <trkpt lat="47.83748" lon="-2.60723">
        <ele>124.63</ele>
        <time>2016-10-28T12:42:15Z</time>
      </trkpt>
      <trkpt lat="47.83744" lon="-2.60735">
        <ele>124.63</ele>
        <time>2016-10-28T12:42:17Z</time>
      </trkpt>
      <trkpt lat="47.83741" lon="-2.60748">
        <ele>124.15</ele>
        <time>2016-10-28T12:42:19Z</time>
      </trkpt>
      <trkpt lat="47.83736" lon="-2.60764">
        <ele>123.67</ele>
        <time>2016-10-28T12:42:22Z</time>
      </trkpt>
      <trkpt lat="47.83736" lon="-2.60777">
        <ele>123.67</ele>
        <time>2016-10-28T12:42:27Z</time>
      </trkpt>
      <trkpt lat="47.83743" lon="-2.60785">
        <ele>123.19</ele>
        <time>2016-10-28T12:42:35Z</time>
      </trkpt>
      <trkpt lat="47.83753" lon="-2.60788">
        <ele>123.19</ele>
        <time>2016-10-28T12:42:41Z</time>
      </trkpt>
      <trkpt lat="47.83763" lon="-2.60789">
        <ele>123.19</ele>
        <time>2016-10-28T12:42:47Z</time>
      </trkpt>
      <trkpt lat="47.83774" lon="-2.6079">
        <ele>122.71</ele>
        <time>2016-10-28T12:42:54Z</time>
      </trkpt>
      <trkpt lat="47.83785" lon="-2.60793">
        <ele>122.71</ele>
        <time>2016-10-28T12:43:00Z</time>
      </trkpt>
      <trkpt lat="47.83794" lon="-2.60795">
        <ele>122.71</ele>
        <time>2016-10-28T12:43:05Z</time>
      </trkpt>
      <trkpt lat="47.83804" lon="-2.60797">
        <ele>122.71</ele>
        <time>2016-10-28T12:43:10Z</time>
      </trkpt>
      <trkpt lat="47.83813" lon="-2.60799">
        <ele>122.22</ele>
        <time>2016-10-28T12:43:15Z</time>
      </trkpt>
      <trkpt lat="47.83823" lon="-2.608">
        <ele>122.22</ele>
        <time>2016-10-28T12:43:21Z</time>
      </trkpt>
      <trkpt lat="47.83834" lon="-2.60802">
        <ele>122.22</ele>
        <time>2016-10-28T12:43:27Z</time>
      </trkpt>
      <trkpt lat="47.83844" lon="-2.60805">
        <ele>122.22</ele>
        <time>2016-10-28T12:43:33Z</time>
      </trkpt>
      <trkpt lat="47.83854" lon="-2.60809">
        <ele>122.71</ele>
        <time>2016-10-28T12:43:38Z</time>
      </trkpt>
      <trkpt lat="47.83865" lon="-2.60811">
        <ele>123.19</ele>
        <time>2016-10-28T12:43:42Z</time>
      </trkpt>
      <trkpt lat="47.83876" lon="-2.60814">
        <ele>123.67</ele>
        <time>2016-10-28T12:43:48Z</time>
      </trkpt>
      <trkpt lat="47.83885" lon="-2.60816">
        <ele>123.19</ele>
        <time>2016-10-28T12:43:53Z</time>
      </trkpt>
      <trkpt lat="47.83895" lon="-2.60816">
        <ele>124.15</ele>
        <time>2016-10-28T12:43:57Z</time>
      </trkpt>
      <trkpt lat="47.83904" lon="-2.60819">
        <ele>124.15</ele>
        <time>2016-10-28T12:44:02Z</time>
      </trkpt>
      <trkpt lat="47.83913" lon="-2.6082">
        <ele>124.63</ele>
        <time>2016-10-28T12:44:08Z</time>
      </trkpt>
      <trkpt lat="47.83923" lon="-2.60821">
        <ele>124.63</ele>
        <time>2016-10-28T12:44:14Z</time>
      </trkpt>
      <trkpt lat="47.83934" lon="-2.60824">
        <ele>125.11</ele>
        <time>2016-10-28T12:44:20Z</time>
      </trkpt>
      <trkpt lat="47.83943" lon="-2.60827">
        <ele>125.11</ele>
        <time>2016-10-28T12:44:26Z</time>
      </trkpt>
      <trkpt lat="47.83954" lon="-2.60829">
        <ele>125.59</ele>
        <time>2016-10-28T12:44:32Z</time>
      </trkpt>
      <trkpt lat="47.83966" lon="-2.60831">
        <ele>125.59</ele>
        <time>2016-10-28T12:44:37Z</time>
      </trkpt>
      <trkpt lat="47.83976" lon="-2.60834">
        <ele>125.59</ele>
        <time>2016-10-28T12:44:43Z</time>
      </trkpt>
      <trkpt lat="47.83985" lon="-2.60839">
        <ele>125.59</ele>
        <time>2016-10-28T12:44:49Z</time>
      </trkpt>
      <trkpt lat="47.83994" lon="-2.60847">
        <ele>125.59</ele>
        <time>2016-10-28T12:44:56Z</time>
      </trkpt>
      <trkpt lat="47.83998" lon="-2.6086">
        <ele>125.59</ele>
        <time>2016-10-28T12:45:03Z</time>
      </trkpt>
      <trkpt lat="47.83997" lon="-2.60877">
        <ele>126.07</ele>
        <time>2016-10-28T12:45:10Z</time>
      </trkpt>
      <trkpt lat="47.83995" lon="-2.60892">
        <ele>125.59</ele>
        <time>2016-10-28T12:45:16Z</time>
      </trkpt>
      <trkpt lat="47.83993" lon="-2.60907">
        <ele>125.59</ele>
        <time>2016-10-28T12:45:22Z</time>
      </trkpt>
      <trkpt lat="47.83991" lon="-2.60921">
        <ele>125.59</ele>
        <time>2016-10-28T12:45:27Z</time>
      </trkpt>
      <trkpt lat="47.83989" lon="-2.60939">
        <ele>126.07</ele>
        <time>2016-10-28T12:45:32Z</time>
      </trkpt>
      <trkpt lat="47.83989" lon="-2.60957">
        <ele>127.03</ele>
        <time>2016-10-28T12:45:37Z</time>
      </trkpt>
      <trkpt lat="47.83987" lon="-2.60973">
        <ele>127.51</ele>
        <time>2016-10-28T12:45:40Z</time>
      </trkpt>
      <trkpt lat="47.83986" lon="-2.60987">
        <ele>127.99</ele>
        <time>2016-10-28T12:45:43Z</time>
      </trkpt>
      <trkpt lat="47.83984" lon="-2.61003">
        <ele>128.47</ele>
        <time>2016-10-28T12:45:46Z</time>
      </trkpt>
      <trkpt lat="47.83983" lon="-2.61018">
        <ele>128.95</ele>
        <time>2016-10-28T12:45:49Z</time>
      </trkpt>
      <trkpt lat="47.83982" lon="-2.61034">
        <ele>129.43</ele>
        <time>2016-10-28T12:45:52Z</time>
      </trkpt>
      <trkpt lat="47.8398" lon="-2.61049">
        <ele>130.4</ele>
        <time>2016-10-28T12:45:55Z</time>
      </trkpt>
      <trkpt lat="47.8398" lon="-2.61066">
        <ele>130.4</ele>
        <time>2016-10-28T12:45:58Z</time>
      </trkpt>
      <trkpt lat="47.83979" lon="-2.61082">
        <ele>130.88</ele>
        <time>2016-10-28T12:46:01Z</time>
      </trkpt>
      <trkpt lat="47.83978" lon="-2.61097">
        <ele>131.36</ele>
        <time>2016-10-28T12:46:04Z</time>
      </trkpt>
      <trkpt lat="47.83977" lon="-2.61114">
        <ele>131.84</ele>
        <time>2016-10-28T12:46:07Z</time>
      </trkpt>
      <trkpt lat="47.83977" lon="-2.61129">
        <ele>132.32</ele>
        <time>2016-10-28T12:46:10Z</time>
      </trkpt>
      <trkpt lat="47.83977" lon="-2.61146">
        <ele>132.32</ele>
        <time>2016-10-28T12:46:13Z</time>
      </trkpt>
      <trkpt lat="47.83977" lon="-2.61162">
        <ele>132.8</ele>
        <time>2016-10-28T12:46:16Z</time>
      </trkpt>
      <trkpt lat="47.83976" lon="-2.61176">
        <ele>133.28</ele>
        <time>2016-10-28T12:46:20Z</time>
      </trkpt>
      <trkpt lat="47.83976" lon="-2.61191">
        <ele>133.28</ele>
        <time>2016-10-28T12:46:27Z</time>
      </trkpt>
      <trkpt lat="47.83975" lon="-2.61205">
        <ele>133.76</ele>
        <time>2016-10-28T12:46:33Z</time>
      </trkpt>
      <trkpt lat="47.83974" lon="-2.61221">
        <ele>133.76</ele>
        <time>2016-10-28T12:46:39Z</time>
      </trkpt>
      <trkpt lat="47.83973" lon="-2.61234">
        <ele>133.76</ele>
        <time>2016-10-28T12:46:45Z</time>
      </trkpt>
      <trkpt lat="47.83973" lon="-2.61251">
        <ele>134.24</ele>
        <time>2016-10-28T12:46:51Z</time>
      </trkpt>
      <trkpt lat="47.83972" lon="-2.61266">
        <ele>133.76</ele>
        <time>2016-10-28T12:46:57Z</time>
      </trkpt>
      <trkpt lat="47.83969" lon="-2.61281">
        <ele>133.76</ele>
        <time>2016-10-28T12:47:03Z</time>
      </trkpt>
      <trkpt lat="47.83965" lon="-2.61296">
        <ele>133.76</ele>
        <time>2016-10-28T12:47:09Z</time>
      </trkpt>
      <trkpt lat="47.83962" lon="-2.6131">
        <ele>133.76</ele>
        <time>2016-10-28T12:47:15Z</time>
      </trkpt>
      <trkpt lat="47.83958" lon="-2.61324">
        <ele>133.28</ele>
        <time>2016-10-28T12:47:21Z</time>
      </trkpt>
      <trkpt lat="47.83954" lon="-2.61338">
        <ele>133.28</ele>
        <time>2016-10-28T12:47:27Z</time>
      </trkpt>
      <trkpt lat="47.8395" lon="-2.61351">
        <ele>133.28</ele>
        <time>2016-10-28T12:47:34Z</time>
      </trkpt>
      <trkpt lat="47.8394" lon="-2.61353">
        <ele>132.8</ele>
        <time>2016-10-28T12:47:41Z</time>
      </trkpt>
      <trkpt lat="47.83929" lon="-2.61349">
        <ele>131.84</ele>
        <time>2016-10-28T12:47:48Z</time>
      </trkpt>
      <trkpt lat="47.83917" lon="-2.61345">
        <ele>130.88</ele>
        <time>2016-10-28T12:47:55Z</time>
      </trkpt>
      <trkpt lat="47.83905" lon="-2.61342">
        <ele>130.88</ele>
        <time>2016-10-28T12:48:01Z</time>
      </trkpt>
      <trkpt lat="47.83895" lon="-2.61336">
        <ele>130.4</ele>
        <time>2016-10-28T12:48:07Z</time>
      </trkpt>
      <trkpt lat="47.83886" lon="-2.61335">
        <ele>129.92</ele>
        <time>2016-10-28T12:48:13Z</time>
      </trkpt>
      <trkpt lat="47.83877" lon="-2.61328">
        <ele>129.92</ele>
        <time>2016-10-28T12:48:19Z</time>
      </trkpt>
      <trkpt lat="47.83868" lon="-2.61317">
        <ele>129.43</ele>
        <time>2016-10-28T12:48:26Z</time>
      </trkpt>
      <trkpt lat="47.83862" lon="-2.61302">
        <ele>128.95</ele>
        <time>2016-10-28T12:48:33Z</time>
      </trkpt>
      <trkpt lat="47.83856" lon="-2.61287">
        <ele>128.95</ele>
        <time>2016-10-28T12:48:39Z</time>
      </trkpt>
      <trkpt lat="47.83851" lon="-2.61272">
        <ele>128.47</ele>
        <time>2016-10-28T12:48:45Z</time>
      </trkpt>
      <trkpt lat="47.83846" lon="-2.61257">
        <ele>128.47</ele>
        <time>2016-10-28T12:48:51Z</time>
      </trkpt>
      <trkpt lat="47.83843" lon="-2.6124">
        <ele>128.47</ele>
        <time>2016-10-28T12:48:58Z</time>
      </trkpt>
      <trkpt lat="47.83839" lon="-2.61226">
        <ele>128.47</ele>
        <time>2016-10-28T12:49:04Z</time>
      </trkpt>
      <trkpt lat="47.83832" lon="-2.61211">
        <ele>128.47</ele>
        <time>2016-10-28T12:49:09Z</time>
      </trkpt>
      <trkpt lat="47.83826" lon="-2.612">
        <ele>127.99</ele>
        <time>2016-10-28T12:49:14Z</time>
      </trkpt>
      <trkpt lat="47.83817" lon="-2.6119">
        <ele>127.99</ele>
        <time>2016-10-28T12:49:20Z</time>
      </trkpt>
      <trkpt lat="47.83807" lon="-2.61182">
        <ele>127.51</ele>
        <time>2016-10-28T12:49:25Z</time>
      </trkpt>
      <trkpt lat="47.83798" lon="-2.61178">
        <ele>127.51</ele>
        <time>2016-10-28T12:49:30Z</time>
      </trkpt>
      <trkpt lat="47.83789" lon="-2.61174">
        <ele>127.03</ele>
        <time>2016-10-28T12:49:36Z</time>
      </trkpt>
      <trkpt lat="47.8378" lon="-2.6117">
        <ele>127.03</ele>
        <time>2016-10-28T12:49:42Z</time>
      </trkpt>
      <trkpt lat="47.8377" lon="-2.61167">
        <ele>127.03</ele>
        <time>2016-10-28T12:49:48Z</time>
      </trkpt>
      <trkpt lat="47.83761" lon="-2.61164">
        <ele>126.55</ele>
        <time>2016-10-28T12:49:53Z</time>
      </trkpt>
      <trkpt lat="47.83751" lon="-2.61162">
        <ele>126.55</ele>
        <time>2016-10-28T12:49:59Z</time>
      </trkpt>
      <trkpt lat="47.83742" lon="-2.61161">
        <ele>126.55</ele>
        <time>2016-10-28T12:50:06Z</time>
      </trkpt>
      <trkpt lat="47.8373" lon="-2.6116">
        <ele>126.55</ele>
        <time>2016-10-28T12:50:13Z</time>
      </trkpt>
      <trkpt lat="47.83718" lon="-2.61159">
        <ele>126.07</ele>
        <time>2016-10-28T12:50:20Z</time>
      </trkpt>
      <trkpt lat="47.83709" lon="-2.61156">
        <ele>126.07</ele>
        <time>2016-10-28T12:50:25Z</time>
      </trkpt>
      <trkpt lat="47.83697" lon="-2.61154">
        <ele>126.07</ele>
        <time>2016-10-28T12:50:31Z</time>
      </trkpt>
      <trkpt lat="47.83687" lon="-2.61153">
        <ele>126.07</ele>
        <time>2016-10-28T12:50:37Z</time>
      </trkpt>
      <trkpt lat="47.83676" lon="-2.61154">
        <ele>126.07</ele>
        <time>2016-10-28T12:50:43Z</time>
      </trkpt>
      <trkpt lat="47.83665" lon="-2.61152">
        <ele>126.07</ele>
        <time>2016-10-28T12:50:50Z</time>
      </trkpt>
      <trkpt lat="47.83652" lon="-2.61152">
        <ele>126.07</ele>
        <time>2016-10-28T12:50:57Z</time>
      </trkpt>
      <trkpt lat="47.8364" lon="-2.61148">
        <ele>126.07</ele>
        <time>2016-10-28T12:51:04Z</time>
      </trkpt>
      <trkpt lat="47.83627" lon="-2.61147">
        <ele>126.07</ele>
        <time>2016-10-28T12:51:10Z</time>
      </trkpt>
      <trkpt lat="47.83616" lon="-2.61146">
        <ele>126.07</ele>
        <time>2016-10-28T12:51:16Z</time>
      </trkpt>
      <trkpt lat="47.83603" lon="-2.61145">
        <ele>126.07</ele>
        <time>2016-10-28T12:51:23Z</time>
      </trkpt>
      <trkpt lat="47.83592" lon="-2.61145">
        <ele>125.59</ele>
        <time>2016-10-28T12:51:29Z</time>
      </trkpt>
      <trkpt lat="47.83583" lon="-2.61145">
        <ele>125.59</ele>
        <time>2016-10-28T12:51:35Z</time>
      </trkpt>
      <trkpt lat="47.83572" lon="-2.61149">
        <ele>125.11</ele>
        <time>2016-10-28T12:51:41Z</time>
      </trkpt>
      <trkpt lat="47.83565" lon="-2.61152">
        <ele>125.11</ele>
        <time>2016-10-28T12:52:09Z</time>
      </trkpt>
      <trkpt lat="47.83558" lon="-2.61148">
        <ele>125.11</ele>
        <time>2016-10-28T12:52:21Z</time>
      </trkpt>
      <trkpt lat="47.83553" lon="-2.61134">
        <ele>124.63</ele>
        <time>2016-10-28T12:52:28Z</time>
      </trkpt>
      <trkpt lat="47.83548" lon="-2.61119">
        <ele>124.15</ele>
        <time>2016-10-28T12:52:33Z</time>
      </trkpt>
      <trkpt lat="47.83544" lon="-2.61104">
        <ele>124.15</ele>
        <time>2016-10-28T12:52:39Z</time>
      </trkpt>
      <trkpt lat="47.83539" lon="-2.6109">
        <ele>123.67</ele>
        <time>2016-10-28T12:52:45Z</time>
      </trkpt>
      <trkpt lat="47.83534" lon="-2.61073">
        <ele>123.19</ele>
        <time>2016-10-28T12:52:52Z</time>
      </trkpt>
      <trkpt lat="47.8353" lon="-2.61058">
        <ele>122.71</ele>
        <time>2016-10-28T12:52:59Z</time>
      </trkpt>
      <trkpt lat="47.83525" lon="-2.61044">
        <ele>122.71</ele>
        <time>2016-10-28T12:53:06Z</time>
      </trkpt>
      <trkpt lat="47.83513" lon="-2.61042">
        <ele>123.19</ele>
        <time>2016-10-28T12:53:11Z</time>
      </trkpt>
      <trkpt lat="47.835" lon="-2.61044">
        <ele>122.22</ele>
        <time>2016-10-28T12:53:17Z</time>
      </trkpt>
      <trkpt lat="47.8349" lon="-2.61048">
        <ele>122.71</ele>
        <time>2016-10-28T12:53:23Z</time>
      </trkpt>
      <trkpt lat="47.83479" lon="-2.61051">
        <ele>122.71</ele>
        <time>2016-10-28T12:53:29Z</time>
      </trkpt>
      <trkpt lat="47.83469" lon="-2.61051">
        <ele>122.22</ele>
        <time>2016-10-28T12:53:35Z</time>
      </trkpt>
      <trkpt lat="47.83459" lon="-2.61051">
        <ele>122.22</ele>
        <time>2016-10-28T12:53:41Z</time>
      </trkpt>
      <trkpt lat="47.83448" lon="-2.61046">
        <ele>122.71</ele>
        <time>2016-10-28T12:53:48Z</time>
      </trkpt>
      <trkpt lat="47.83436" lon="-2.61037">
        <ele>122.22</ele>
        <time>2016-10-28T12:53:55Z</time>
      </trkpt>
      <trkpt lat="47.83426" lon="-2.61029">
        <ele>121.74</ele>
        <time>2016-10-28T12:54:01Z</time>
      </trkpt>
      <trkpt lat="47.83416" lon="-2.61021">
        <ele>121.74</ele>
        <time>2016-10-28T12:54:07Z</time>
      </trkpt>
      <trkpt lat="47.83405" lon="-2.61013">
        <ele>121.26</ele>
        <time>2016-10-28T12:54:15Z</time>
      </trkpt>
      <trkpt lat="47.83396" lon="-2.61013">
        <ele>121.26</ele>
        <time>2016-10-28T12:54:38Z</time>
      </trkpt>
      <trkpt lat="47.83389" lon="-2.61048">
        <ele>122.40625</ele>
      </trkpt>
      <trkpt lat="47.83382" lon="-2.61127">
        <ele>124.7734375</ele>
      </trkpt>
      <trkpt lat="47.83376" lon="-2.61166">
        <ele>125.6953125</ele>
      </trkpt>
      <trkpt lat="47.83368" lon="-2.6117">
        <ele>125.859375</ele>
      </trkpt>
      <trkpt lat="47.83365" lon="-2.61173">
        <ele>125.95703125</ele>
      </trkpt>
      <trkpt lat="47.83362" lon="-2.61187">
        <ele>125.59</ele>
        <time>2016-10-28T12:56:00Z</time>
      </trkpt>
      <trkpt lat="47.83362" lon="-2.61201">
        <ele>125.59</ele>
        <time>2016-10-28T12:56:05Z</time>
      </trkpt>
      <trkpt lat="47.83359" lon="-2.61215">
        <ele>126.07</ele>
        <time>2016-10-28T12:56:11Z</time>
      </trkpt>
      <trkpt lat="47.83359" lon="-2.61231">
        <ele>126.07</ele>
        <time>2016-10-28T12:56:17Z</time>
      </trkpt>
      <trkpt lat="47.83359" lon="-2.61246">
        <ele>126.55</ele>
        <time>2016-10-28T12:56:23Z</time>
      </trkpt>
      <trkpt lat="47.83359" lon="-2.61261">
        <ele>126.55</ele>
        <time>2016-10-28T12:56:29Z</time>
      </trkpt>
      <trkpt lat="47.83359" lon="-2.61277">
        <ele>127.03</ele>
        <time>2016-10-28T12:56:35Z</time>
      </trkpt>
      <trkpt lat="47.83357" lon="-2.61291">
        <ele>127.03</ele>
        <time>2016-10-28T12:56:41Z</time>
      </trkpt>
      <trkpt lat="47.83357" lon="-2.61307">
        <ele>127.99</ele>
        <time>2016-10-28T12:56:47Z</time>
      </trkpt>
      <trkpt lat="47.83357" lon="-2.61321">
        <ele>127.99</ele>
        <time>2016-10-28T12:56:53Z</time>
      </trkpt>
      <trkpt lat="47.83356" lon="-2.61336">
        <ele>127.99</ele>
        <time>2016-10-28T12:56:59Z</time>
      </trkpt>
      <trkpt lat="47.83356" lon="-2.6135">
        <ele>127.99</ele>
        <time>2016-10-28T12:57:05Z</time>
      </trkpt>
      <trkpt lat="47.83356" lon="-2.61364">
        <ele>128.47</ele>
        <time>2016-10-28T12:57:11Z</time>
      </trkpt>
      <trkpt lat="47.83363" lon="-2.61377">
        <ele>128.47</ele>
        <time>2016-10-28T12:57:18Z</time>
      </trkpt>
      <trkpt lat="47.83374" lon="-2.61381">
        <ele>128.95</ele>
        <time>2016-10-28T12:57:25Z</time>
      </trkpt>
      <trkpt lat="47.83384" lon="-2.61383">
        <ele>129.43</ele>
        <time>2016-10-28T12:57:31Z</time>
      </trkpt>
      <trkpt lat="47.83394" lon="-2.61385">
        <ele>129.43</ele>
        <time>2016-10-28T12:57:37Z</time>
      </trkpt>
      <trkpt lat="47.83406" lon="-2.61388">
        <ele>128.95</ele>
        <time>2016-10-28T12:57:44Z</time>
      </trkpt>
      <trkpt lat="47.83416" lon="-2.61393">
        <ele>128.95</ele>
        <time>2016-10-28T12:57:50Z</time>
      </trkpt>
      <trkpt lat="47.83425" lon="-2.61399">
        <ele>129.43</ele>
        <time>2016-10-28T12:57:56Z</time>
      </trkpt>
      <trkpt lat="47.83434" lon="-2.61408">
        <ele>129.43</ele>
        <time>2016-10-28T12:58:02Z</time>
      </trkpt>
      <trkpt lat="47.83436" lon="-2.61424">
        <ele>129.43</ele>
        <time>2016-10-28T12:58:09Z</time>
      </trkpt>
      <trkpt lat="47.83438" lon="-2.61439">
        <ele>130.4</ele>
        <time>2016-10-28T12:58:16Z</time>
      </trkpt>
      <trkpt lat="47.83438" lon="-2.61453">
        <ele>130.4</ele>
        <time>2016-10-28T12:58:22Z</time>
      </trkpt>
      <trkpt lat="47.83436" lon="-2.6147">
        <ele>130.4</ele>
        <time>2016-10-28T12:58:28Z</time>
      </trkpt>
      <trkpt lat="47.83434" lon="-2.61485">
        <ele>130.4</ele>
        <time>2016-10-28T12:58:34Z</time>
      </trkpt>
      <trkpt lat="47.83432" lon="-2.61499">
        <ele>129.92</ele>
        <time>2016-10-28T12:58:40Z</time>
      </trkpt>
      <trkpt lat="47.8343" lon="-2.61516">
        <ele>129.43</ele>
        <time>2016-10-28T12:58:47Z</time>
      </trkpt>
      <trkpt lat="47.83428" lon="-2.61531">
        <ele>129.43</ele>
        <time>2016-10-28T12:58:54Z</time>
      </trkpt>
      <trkpt lat="47.83429" lon="-2.61545">
        <ele>128.47</ele>
        <time>2016-10-28T12:59:06Z</time>
      </trkpt>
      <trkpt lat="47.83435" lon="-2.61559">
        <ele>127.99</ele>
        <time>2016-10-28T12:59:14Z</time>
      </trkpt>
      <trkpt lat="47.83437" lon="-2.61575">
        <ele>126.55</ele>
        <time>2016-10-28T12:59:21Z</time>
      </trkpt>
      <trkpt lat="47.83436" lon="-2.61591">
        <ele>126.07</ele>
        <time>2016-10-28T12:59:28Z</time>
      </trkpt>
      <trkpt lat="47.83435" lon="-2.61608">
        <ele>126.07</ele>
        <time>2016-10-28T12:59:35Z</time>
      </trkpt>
      <trkpt lat="47.83432" lon="-2.61624">
        <ele>125.59</ele>
        <time>2016-10-28T12:59:42Z</time>
      </trkpt>
      <trkpt lat="47.8343" lon="-2.61639">
        <ele>124.63</ele>
        <time>2016-10-28T12:59:50Z</time>
      </trkpt>
      <trkpt lat="47.83428" lon="-2.61654">
        <ele>123.67</ele>
        <time>2016-10-28T12:59:56Z</time>
      </trkpt>
      <trkpt lat="47.83426" lon="-2.61669">
        <ele>122.22</ele>
        <time>2016-10-28T13:00:03Z</time>
      </trkpt>
      <trkpt lat="47.83426" lon="-2.61685">
        <ele>121.26</ele>
        <time>2016-10-28T13:00:11Z</time>
      </trkpt>
      <trkpt lat="47.83422" lon="-2.617">
        <ele>119.82</ele>
        <time>2016-10-28T13:00:18Z</time>
      </trkpt>
      <trkpt lat="47.83414" lon="-2.6171">
        <ele>118.86</ele>
        <time>2016-10-28T13:00:25Z</time>
      </trkpt>
      <trkpt lat="47.83406" lon="-2.61714">
        <ele>117.42</ele>
        <time>2016-10-28T13:00:32Z</time>
      </trkpt>
      <trkpt lat="47.83392" lon="-2.61717">
        <ele>115.98</ele>
        <time>2016-10-28T13:00:41Z</time>
      </trkpt>
      <trkpt lat="47.8338" lon="-2.61719">
        <ele>114.53</ele>
        <time>2016-10-28T13:00:49Z</time>
      </trkpt>
      <trkpt lat="47.83369" lon="-2.61719">
        <ele>114.05</ele>
        <time>2016-10-28T13:00:55Z</time>
      </trkpt>
      <trkpt lat="47.8336" lon="-2.61714">
        <ele>113.57</ele>
        <time>2016-10-28T13:01:09Z</time>
      </trkpt>
      <trkpt lat="47.83347" lon="-2.61708">
        <ele>113.09</ele>
        <time>2016-10-28T13:01:16Z</time>
      </trkpt>
      <trkpt lat="47.83334" lon="-2.61707">
        <ele>112.13</ele>
        <time>2016-10-28T13:01:23Z</time>
      </trkpt>
      <trkpt lat="47.83324" lon="-2.61715">
        <ele>110.69</ele>
        <time>2016-10-28T13:01:30Z</time>
      </trkpt>
      <trkpt lat="47.83318" lon="-2.61728">
        <ele>109.25</ele>
        <time>2016-10-28T13:01:37Z</time>
      </trkpt>
      <trkpt lat="47.83312" lon="-2.6174">
        <ele>108.77</ele>
        <time>2016-10-28T13:01:43Z</time>
      </trkpt>
      <trkpt lat="47.83306" lon="-2.61754">
        <ele>107.32</ele>
        <time>2016-10-28T13:01:49Z</time>
      </trkpt>
      <trkpt lat="47.833" lon="-2.61767">
        <ele>106.84</ele>
        <time>2016-10-28T13:01:55Z</time>
      </trkpt>
      <trkpt lat="47.83293" lon="-2.61783">
        <ele>106.36</ele>
        <time>2016-10-28T13:02:00Z</time>
      </trkpt>
      <trkpt lat="47.83287" lon="-2.61795">
        <ele>105.88</ele>
        <time>2016-10-28T13:02:04Z</time>
      </trkpt>
      <trkpt lat="47.83283" lon="-2.61807">
        <ele>105.88</ele>
        <time>2016-10-28T13:02:10Z</time>
      </trkpt>
      <trkpt lat="47.83277" lon="-2.6182">
        <ele>105.4</ele>
        <time>2016-10-28T13:02:15Z</time>
      </trkpt>
      <trkpt lat="47.83272" lon="-2.61833">
        <ele>104.92</ele>
        <time>2016-10-28T13:02:21Z</time>
      </trkpt>
      <trkpt lat="47.83266" lon="-2.61846">
        <ele>104.92</ele>
        <time>2016-10-28T13:02:27Z</time>
      </trkpt>
      <trkpt lat="47.8326" lon="-2.6186">
        <ele>104.92</ele>
        <time>2016-10-28T13:02:33Z</time>
      </trkpt>
      <trkpt lat="47.83251" lon="-2.61872">
        <ele>104.44</ele>
        <time>2016-10-28T13:02:39Z</time>
      </trkpt>
      <trkpt lat="47.83244" lon="-2.61885">
        <ele>104.92</ele>
        <time>2016-10-28T13:02:45Z</time>
      </trkpt>
      <trkpt lat="47.83237" lon="-2.61898">
        <ele>104.44</ele>
        <time>2016-10-28T13:02:52Z</time>
      </trkpt>
      <trkpt lat="47.83231" lon="-2.61911">
        <ele>104.92</ele>
        <time>2016-10-28T13:02:58Z</time>
      </trkpt>
      <trkpt lat="47.83231" lon="-2.61927">
        <ele>104.92</ele>
        <time>2016-10-28T13:03:08Z</time>
      </trkpt>
      <trkpt lat="47.83221" lon="-2.61986">
        <ele>106.36</ele>
        <time>2016-10-28T13:03:16Z</time>
      </trkpt>
      <trkpt lat="47.83205" lon="-2.61947">
        <ele>108.77</ele>
        <time>2016-10-28T13:03:26Z</time>
      </trkpt>
      <trkpt lat="47.83186" lon="-2.61935">
        <ele>110.21</ele>
        <time>2016-10-28T13:03:36Z</time>
      </trkpt>
      <trkpt lat="47.83155" lon="-2.61935">
        <ele>111.17</ele>
        <time>2016-10-28T13:03:44Z</time>
      </trkpt>
      <trkpt lat="47.83144" lon="-2.61934">
        <ele>119.34</ele>
        <time>2016-10-28T13:05:21Z</time>
      </trkpt>
      <trkpt lat="47.83131" lon="-2.61935">
        <ele>120.3</ele>
        <time>2016-10-28T13:05:29Z</time>
      </trkpt>
      <trkpt lat="47.83119" lon="-2.61935">
        <ele>120.78</ele>
        <time>2016-10-28T13:05:35Z</time>
      </trkpt>
      <trkpt lat="47.83108" lon="-2.61934">
        <ele>121.74</ele>
        <time>2016-10-28T13:05:42Z</time>
      </trkpt>
      <trkpt lat="47.83097" lon="-2.61933">
        <ele>122.71</ele>
        <time>2016-10-28T13:05:49Z</time>
      </trkpt>
      <trkpt lat="47.83084" lon="-2.61929">
        <ele>124.15</ele>
        <time>2016-10-28T13:05:58Z</time>
      </trkpt>
      <trkpt lat="47.83072" lon="-2.61924">
        <ele>126.07</ele>
        <time>2016-10-28T13:06:07Z</time>
      </trkpt>
      <trkpt lat="47.83063" lon="-2.61914">
        <ele>127.51</ele>
        <time>2016-10-28T13:06:15Z</time>
      </trkpt>
      <trkpt lat="47.83054" lon="-2.61905">
        <ele>128.47</ele>
        <time>2016-10-28T13:06:23Z</time>
      </trkpt>
      <trkpt lat="47.83046" lon="-2.61895">
        <ele>129.43</ele>
        <time>2016-10-28T13:06:29Z</time>
      </trkpt>
      <trkpt lat="47.83037" lon="-2.61887">
        <ele>129.92</ele>
        <time>2016-10-28T13:06:35Z</time>
      </trkpt>
      <trkpt lat="47.83029" lon="-2.61878">
        <ele>129.92</ele>
        <time>2016-10-28T13:06:40Z</time>
      </trkpt>
      <trkpt lat="47.83022" lon="-2.6187">
        <ele>129.43</ele>
        <time>2016-10-28T13:06:45Z</time>
      </trkpt>
      <trkpt lat="47.83015" lon="-2.6186">
        <ele>129.43</ele>
        <time>2016-10-28T13:06:50Z</time>
      </trkpt>
      <trkpt lat="47.83008" lon="-2.61852">
        <ele>129.92</ele>
        <time>2016-10-28T13:06:55Z</time>
      </trkpt>
      <trkpt lat="47.82999" lon="-2.61841">
        <ele>129.92</ele>
        <time>2016-10-28T13:06:59Z</time>
      </trkpt>
      <trkpt lat="47.8299" lon="-2.6183">
        <ele>128.95</ele>
        <time>2016-10-28T13:07:03Z</time>
      </trkpt>
      <trkpt lat="47.82981" lon="-2.61821">
        <ele>128.95</ele>
        <time>2016-10-28T13:07:08Z</time>
      </trkpt>
      <trkpt lat="47.82973" lon="-2.61812">
        <ele>128.47</ele>
        <time>2016-10-28T13:07:14Z</time>
      </trkpt>
      <trkpt lat="47.82964" lon="-2.61802">
        <ele>128.47</ele>
        <time>2016-10-28T13:07:20Z</time>
      </trkpt>
      <trkpt lat="47.82954" lon="-2.61793">
        <ele>127.51</ele>
        <time>2016-10-28T13:07:26Z</time>
      </trkpt>
      <trkpt lat="47.82946" lon="-2.61783">
        <ele>127.03</ele>
        <time>2016-10-28T13:07:32Z</time>
      </trkpt>
      <trkpt lat="47.82937" lon="-2.61774">
        <ele>126.55</ele>
        <time>2016-10-28T13:07:38Z</time>
      </trkpt>
      <trkpt lat="47.8293" lon="-2.61763">
        <ele>125.59</ele>
        <time>2016-10-28T13:07:44Z</time>
      </trkpt>
      <trkpt lat="47.82921" lon="-2.61754">
        <ele>124.63</ele>
        <time>2016-10-28T13:07:50Z</time>
      </trkpt>
      <trkpt lat="47.82913" lon="-2.61744">
        <ele>123.67</ele>
        <time>2016-10-28T13:07:56Z</time>
      </trkpt>
      <trkpt lat="47.82905" lon="-2.61736">
        <ele>123.19</ele>
        <time>2016-10-28T13:08:02Z</time>
      </trkpt>
      <trkpt lat="47.82896" lon="-2.61727">
        <ele>122.22</ele>
        <time>2016-10-28T13:08:08Z</time>
      </trkpt>
      <trkpt lat="47.82887" lon="-2.61716">
        <ele>121.74</ele>
        <time>2016-10-28T13:08:15Z</time>
      </trkpt>
      <trkpt lat="47.8288" lon="-2.61703">
        <ele>121.26</ele>
        <time>2016-10-28T13:08:22Z</time>
      </trkpt>
      <trkpt lat="47.82874" lon="-2.6169">
        <ele>121.26</ele>
        <time>2016-10-28T13:08:28Z</time>
      </trkpt>
      <trkpt lat="47.82861" lon="-2.61681">
        <ele>119.82</ele>
        <time>2016-10-28T13:08:36Z</time>
      </trkpt>
      <trkpt lat="47.82849" lon="-2.61674">
        <ele>119.34</ele>
        <time>2016-10-28T13:08:43Z</time>
      </trkpt>
      <trkpt lat="47.82836" lon="-2.61669">
        <ele>118.38</ele>
        <time>2016-10-28T13:08:50Z</time>
      </trkpt>
      <trkpt lat="47.82826" lon="-2.61664">
        <ele>117.42</ele>
        <time>2016-10-28T13:08:56Z</time>
      </trkpt>
      <trkpt lat="47.82818" lon="-2.61656">
        <ele>116.46</ele>
        <time>2016-10-28T13:09:02Z</time>
      </trkpt>
      <trkpt lat="47.82808" lon="-2.61648">
        <ele>115.5</ele>
        <time>2016-10-28T13:09:10Z</time>
      </trkpt>
      <trkpt lat="47.82796" lon="-2.61644">
        <ele>113.57</ele>
        <time>2016-10-28T13:09:19Z</time>
      </trkpt>
      <trkpt lat="47.82785" lon="-2.61641">
        <ele>111.65</ele>
        <time>2016-10-28T13:09:27Z</time>
      </trkpt>
      <trkpt lat="47.8277" lon="-2.61639">
        <ele>110.21</ele>
        <time>2016-10-28T13:09:35Z</time>
      </trkpt>
      <trkpt lat="47.82756" lon="-2.61633">
        <ele>109.25</ele>
        <time>2016-10-28T13:09:41Z</time>
      </trkpt>
      <trkpt lat="47.82744" lon="-2.61631">
        <ele>108.29</ele>
        <time>2016-10-28T13:09:47Z</time>
      </trkpt>
      <trkpt lat="47.82733" lon="-2.61632">
        <ele>106.84</ele>
        <time>2016-10-28T13:09:55Z</time>
      </trkpt>
      <trkpt lat="47.82725" lon="-2.61641">
        <ele>105.4</ele>
        <time>2016-10-28T13:10:01Z</time>
      </trkpt>
      <trkpt lat="47.82722" lon="-2.61658">
        <ele>103.96</ele>
        <time>2016-10-28T13:10:08Z</time>
      </trkpt>
      <trkpt lat="47.82718" lon="-2.61673">
        <ele>103.48</ele>
        <time>2016-10-28T13:10:14Z</time>
      </trkpt>
      <trkpt lat="47.82718" lon="-2.61688">
        <ele>103</ele>
        <time>2016-10-28T13:10:19Z</time>
      </trkpt>
      <trkpt lat="47.82714" lon="-2.61703">
        <ele>103</ele>
        <time>2016-10-28T13:10:25Z</time>
      </trkpt>
      <trkpt lat="47.82711" lon="-2.61718">
        <ele>103</ele>
        <time>2016-10-28T13:10:31Z</time>
      </trkpt>
      <trkpt lat="47.82708" lon="-2.61733">
        <ele>103</ele>
        <time>2016-10-28T13:10:37Z</time>
      </trkpt>
      <trkpt lat="47.82706" lon="-2.61748">
        <ele>103.48</ele>
        <time>2016-10-28T13:10:43Z</time>
      </trkpt>
      <trkpt lat="47.82703" lon="-2.61762">
        <ele>103.96</ele>
        <time>2016-10-28T13:10:49Z</time>
      </trkpt>
      <trkpt lat="47.82698" lon="-2.61775">
        <ele>104.44</ele>
        <time>2016-10-28T13:10:55Z</time>
      </trkpt>
      <trkpt lat="47.82689" lon="-2.61786">
        <ele>103.96</ele>
        <time>2016-10-28T13:11:02Z</time>
      </trkpt>
      <trkpt lat="47.82679" lon="-2.61789">
        <ele>103</ele>
        <time>2016-10-28T13:11:07Z</time>
      </trkpt>
      <trkpt lat="47.82669" lon="-2.6179">
        <ele>101.08</ele>
        <time>2016-10-28T13:11:13Z</time>
      </trkpt>
      <trkpt lat="47.82658" lon="-2.61794">
        <ele>100.11</ele>
        <time>2016-10-28T13:11:19Z</time>
      </trkpt>
      <trkpt lat="47.82648" lon="-2.61794">
        <ele>99.63</ele>
        <time>2016-10-28T13:11:25Z</time>
      </trkpt>
      <trkpt lat="47.82637" lon="-2.61797">
        <ele>98.67</ele>
        <time>2016-10-28T13:11:31Z</time>
      </trkpt>
      <trkpt lat="47.82628" lon="-2.61799">
        <ele>98.19</ele>
        <time>2016-10-28T13:11:36Z</time>
      </trkpt>
      <trkpt lat="47.82617" lon="-2.618">
        <ele>97.23</ele>
        <time>2016-10-28T13:11:42Z</time>
      </trkpt>
      <trkpt lat="47.82607" lon="-2.61802">
        <ele>97.23</ele>
        <time>2016-10-28T13:11:48Z</time>
      </trkpt>
      <trkpt lat="47.82597" lon="-2.61804">
        <ele>96.27</ele>
        <time>2016-10-28T13:11:54Z</time>
      </trkpt>
      <trkpt lat="47.82586" lon="-2.61809">
        <ele>95.79</ele>
        <time>2016-10-28T13:12:00Z</time>
      </trkpt>
      <trkpt lat="47.82577" lon="-2.61814">
        <ele>94.83</ele>
        <time>2016-10-28T13:12:06Z</time>
      </trkpt>
      <trkpt lat="47.82569" lon="-2.61821">
        <ele>93.87</ele>
        <time>2016-10-28T13:12:13Z</time>
      </trkpt>
      <trkpt lat="47.82561" lon="-2.61832">
        <ele>92.42</ele>
        <time>2016-10-28T13:12:20Z</time>
      </trkpt>
      <trkpt lat="47.82551" lon="-2.61845">
        <ele>90.98</ele>
        <time>2016-10-28T13:12:27Z</time>
      </trkpt>
      <trkpt lat="47.82547" lon="-2.6186">
        <ele>90.98</ele>
        <time>2016-10-28T13:12:34Z</time>
      </trkpt>
      <trkpt lat="47.82547" lon="-2.61874">
        <ele>90.98</ele>
        <time>2016-10-28T13:12:38Z</time>
      </trkpt>
      <trkpt lat="47.82547" lon="-2.61889">
        <ele>90.5</ele>
        <time>2016-10-28T13:12:42Z</time>
      </trkpt>
      <trkpt lat="47.82548" lon="-2.61904">
        <ele>90.5</ele>
        <time>2016-10-28T13:12:48Z</time>
      </trkpt>
      <trkpt lat="47.82551" lon="-2.61921">
        <ele>90.5</ele>
        <time>2016-10-28T13:12:55Z</time>
      </trkpt>
      <trkpt lat="47.82552" lon="-2.61941">
        <ele>90.5</ele>
        <time>2016-10-28T13:13:03Z</time>
      </trkpt>
      <trkpt lat="47.82553" lon="-2.61958">
        <ele>90.02</ele>
        <time>2016-10-28T13:13:10Z</time>
      </trkpt>
      <trkpt lat="47.82556" lon="-2.61976">
        <ele>90.5</ele>
        <time>2016-10-28T13:13:16Z</time>
      </trkpt>
      <trkpt lat="47.82558" lon="-2.61991">
        <ele>89.54</ele>
        <time>2016-10-28T13:13:22Z</time>
      </trkpt>
      <trkpt lat="47.82564" lon="-2.62003">
        <ele>89.54</ele>
        <time>2016-10-28T13:13:28Z</time>
      </trkpt>
      <trkpt lat="47.8257" lon="-2.62016">
        <ele>89.54</ele>
        <time>2016-10-28T13:13:35Z</time>
      </trkpt>
      <trkpt lat="47.82576" lon="-2.62032">
        <ele>90.02</ele>
        <time>2016-10-28T13:13:43Z</time>
      </trkpt>
      <trkpt lat="47.82582" lon="-2.6205">
        <ele>90.5</ele>
        <time>2016-10-28T13:13:51Z</time>
      </trkpt>
      <trkpt lat="47.82585" lon="-2.62072">
        <ele>90.98</ele>
        <time>2016-10-28T13:14:00Z</time>
      </trkpt>
      <trkpt lat="47.82582" lon="-2.62092">
        <ele>90.5</ele>
        <time>2016-10-28T13:14:08Z</time>
      </trkpt>
      <trkpt lat="47.8258" lon="-2.6211">
        <ele>90.5</ele>
        <time>2016-10-28T13:14:14Z</time>
      </trkpt>
      <trkpt lat="47.82575" lon="-2.62126">
        <ele>90.5</ele>
        <time>2016-10-28T13:14:21Z</time>
      </trkpt>
      <trkpt lat="47.82572" lon="-2.62149">
        <ele>90.02</ele>
        <time>2016-10-28T13:14:30Z</time>
      </trkpt>
      <trkpt lat="47.82567" lon="-2.62167">
        <ele>90.02</ele>
        <time>2016-10-28T13:14:38Z</time>
      </trkpt>
      <trkpt lat="47.82564" lon="-2.62187">
        <ele>89.06</ele>
        <time>2016-10-28T13:14:46Z</time>
      </trkpt>
      <trkpt lat="47.82559" lon="-2.62212">
        <ele>88.1</ele>
        <time>2016-10-28T13:14:56Z</time>
      </trkpt>
      <trkpt lat="47.82551" lon="-2.62228">
        <ele>87.14</ele>
        <time>2016-10-28T13:15:05Z</time>
      </trkpt>
      <trkpt lat="47.82546" lon="-2.62246">
        <ele>86.18</ele>
        <time>2016-10-28T13:15:12Z</time>
      </trkpt>
      <trkpt lat="47.82542" lon="-2.62264">
        <ele>84.73</ele>
        <time>2016-10-28T13:15:20Z</time>
      </trkpt>
      <trkpt lat="47.82535" lon="-2.62283">
        <ele>82.81</ele>
        <time>2016-10-28T13:15:28Z</time>
      </trkpt>
      <trkpt lat="47.82534" lon="-2.62302">
        <ele>81.37</ele>
        <time>2016-10-28T13:15:35Z</time>
      </trkpt>
      <trkpt lat="47.82536" lon="-2.6232">
        <ele>79.93</ele>
        <time>2016-10-28T13:15:42Z</time>
      </trkpt>
      <trkpt lat="47.82539" lon="-2.62338">
        <ele>78.48</ele>
        <time>2016-10-28T13:15:49Z</time>
      </trkpt>
      <trkpt lat="47.82546" lon="-2.62355">
        <ele>76.56</ele>
        <time>2016-10-28T13:15:57Z</time>
      </trkpt>
      <trkpt lat="47.82556" lon="-2.62369">
        <ele>75.12</ele>
        <time>2016-10-28T13:16:02Z</time>
      </trkpt>
      <trkpt lat="47.82564" lon="-2.62382">
        <ele>73.68</ele>
        <time>2016-10-28T13:16:11Z</time>
      </trkpt>
      <trkpt lat="47.82551" lon="-2.62384">
        <ele>71.27</ele>
        <time>2016-10-28T13:16:22Z</time>
      </trkpt>
      <trkpt lat="47.82538" lon="-2.6238">
        <ele>68.39</ele>
        <time>2016-10-28T13:16:31Z</time>
      </trkpt>
      <trkpt lat="47.82519" lon="-2.6238">
        <ele>66.95</ele>
        <time>2016-10-28T13:16:39Z</time>
      </trkpt>
      <trkpt lat="47.82504" lon="-2.62372">
        <ele>66.47</ele>
        <time>2016-10-28T13:16:48Z</time>
      </trkpt>
      <trkpt lat="47.8249" lon="-2.62365">
        <ele>65.51</ele>
        <time>2016-10-28T13:16:56Z</time>
      </trkpt>
      <trkpt lat="47.82479" lon="-2.62356">
        <ele>65.51</ele>
        <time>2016-10-28T13:17:03Z</time>
      </trkpt>
      <trkpt lat="47.82469" lon="-2.62348">
        <ele>65.51</ele>
        <time>2016-10-28T13:17:09Z</time>
      </trkpt>
      <trkpt lat="47.82457" lon="-2.62339">
        <ele>65.03</ele>
        <time>2016-10-28T13:17:17Z</time>
      </trkpt>
      <trkpt lat="47.82446" lon="-2.62332">
        <ele>64.07</ele>
        <time>2016-10-28T13:17:23Z</time>
      </trkpt>
      <trkpt lat="47.82435" lon="-2.62325">
        <ele>64.07</ele>
        <time>2016-10-28T13:17:30Z</time>
      </trkpt>
      <trkpt lat="47.82424" lon="-2.62317">
        <ele>63.58</ele>
        <time>2016-10-28T13:17:37Z</time>
      </trkpt>
      <trkpt lat="47.82412" lon="-2.62315">
        <ele>62.14</ele>
        <time>2016-10-28T13:17:44Z</time>
      </trkpt>
      <trkpt lat="47.82401" lon="-2.62318">
        <ele>61.18</ele>
        <time>2016-10-28T13:17:51Z</time>
      </trkpt>
      <trkpt lat="47.824" lon="-2.62339">
        <ele>60.7</ele>
        <time>2016-10-28T13:17:57Z</time>
      </trkpt>
      <trkpt lat="47.82399" lon="-2.62354">
        <ele>59.74</ele>
        <time>2016-10-28T13:18:01Z</time>
      </trkpt>
      <trkpt lat="47.82389" lon="-2.62364">
        <ele>59.74</ele>
        <time>2016-10-28T13:18:06Z</time>
      </trkpt>
      <trkpt lat="47.82378" lon="-2.62367">
        <ele>59.26</ele>
        <time>2016-10-28T13:18:13Z</time>
      </trkpt>
      <trkpt lat="47.82367" lon="-2.62372">
        <ele>59.74</ele>
        <time>2016-10-28T13:18:19Z</time>
      </trkpt>
      <trkpt lat="47.82355" lon="-2.62376">
        <ele>59.26</ele>
        <time>2016-10-28T13:18:27Z</time>
      </trkpt>
      <trkpt lat="47.82345" lon="-2.62384">
        <ele>59.26</ele>
        <time>2016-10-28T13:18:34Z</time>
      </trkpt>
      <trkpt lat="47.82336" lon="-2.62392">
        <ele>59.74</ele>
        <time>2016-10-28T13:18:40Z</time>
      </trkpt>
      <trkpt lat="47.82326" lon="-2.624">
        <ele>59.26</ele>
        <time>2016-10-28T13:18:47Z</time>
      </trkpt>
      <trkpt lat="47.82317" lon="-2.6241">
        <ele>59.26</ele>
        <time>2016-10-28T13:18:54Z</time>
      </trkpt>
      <trkpt lat="47.82309" lon="-2.62422">
        <ele>59.26</ele>
        <time>2016-10-28T13:19:00Z</time>
      </trkpt>
      <trkpt lat="47.82302" lon="-2.62435">
        <ele>59.26</ele>
        <time>2016-10-28T13:19:07Z</time>
      </trkpt>
      <trkpt lat="47.82292" lon="-2.62447">
        <ele>59.26</ele>
        <time>2016-10-28T13:19:14Z</time>
      </trkpt>
      <trkpt lat="47.82284" lon="-2.62462">
        <ele>59.26</ele>
        <time>2016-10-28T13:19:21Z</time>
      </trkpt>
      <trkpt lat="47.82274" lon="-2.62472">
        <ele>58.78</ele>
        <time>2016-10-28T13:19:27Z</time>
      </trkpt>
      <trkpt lat="47.82263" lon="-2.62484">
        <ele>59.26</ele>
        <time>2016-10-28T13:19:33Z</time>
      </trkpt>
      <trkpt lat="47.82254" lon="-2.62491">
        <ele>59.74</ele>
        <time>2016-10-28T13:19:39Z</time>
      </trkpt>
      <trkpt lat="47.82244" lon="-2.62494">
        <ele>60.22</ele>
        <time>2016-10-28T13:19:45Z</time>
      </trkpt>
      <trkpt lat="47.82235" lon="-2.62497">
        <ele>60.22</ele>
        <time>2016-10-28T13:19:51Z</time>
      </trkpt>
      <trkpt lat="47.82225" lon="-2.62501">
        <ele>60.22</ele>
        <time>2016-10-28T13:19:57Z</time>
      </trkpt>
      <trkpt lat="47.82215" lon="-2.62508">
        <ele>60.22</ele>
        <time>2016-10-28T13:20:03Z</time>
      </trkpt>
      <trkpt lat="47.82208" lon="-2.62516">
        <ele>60.22</ele>
        <time>2016-10-28T13:20:08Z</time>
      </trkpt>
      <trkpt lat="47.82199" lon="-2.62525">
        <ele>60.22</ele>
        <time>2016-10-28T13:20:14Z</time>
      </trkpt>
      <trkpt lat="47.82191" lon="-2.62534">
        <ele>60.22</ele>
        <time>2016-10-28T13:20:21Z</time>
      </trkpt>
      <trkpt lat="47.82181" lon="-2.62546">
        <ele>59.74</ele>
        <time>2016-10-28T13:20:28Z</time>
      </trkpt>
      <trkpt lat="47.82172" lon="-2.62555">
        <ele>59.74</ele>
        <time>2016-10-28T13:20:34Z</time>
      </trkpt>
      <trkpt lat="47.82163" lon="-2.6257">
        <ele>59.74</ele>
        <time>2016-10-28T13:20:41Z</time>
      </trkpt>
      <trkpt lat="47.82153" lon="-2.6258">
        <ele>61.18</ele>
        <time>2016-10-28T13:20:47Z</time>
      </trkpt>
      <trkpt lat="47.82146" lon="-2.62591">
        <ele>58.78</ele>
        <time>2016-10-28T13:20:53Z</time>
      </trkpt>
      <trkpt lat="47.82137" lon="-2.62599">
        <ele>59.26</ele>
        <time>2016-10-28T13:20:59Z</time>
      </trkpt>
      <trkpt lat="47.82127" lon="-2.62608">
        <ele>59.26</ele>
        <time>2016-10-28T13:21:06Z</time>
      </trkpt>
      <trkpt lat="47.82118" lon="-2.62616">
        <ele>58.78</ele>
        <time>2016-10-28T13:21:14Z</time>
      </trkpt>
      <trkpt lat="47.82109" lon="-2.62626">
        <ele>59.26</ele>
        <time>2016-10-28T13:21:20Z</time>
      </trkpt>
      <trkpt lat="47.82099" lon="-2.62633">
        <ele>58.78</ele>
        <time>2016-10-28T13:21:26Z</time>
      </trkpt>
      <trkpt lat="47.82089" lon="-2.6264">
        <ele>58.78</ele>
        <time>2016-10-28T13:21:33Z</time>
      </trkpt>
      <trkpt lat="47.82078" lon="-2.62649">
        <ele>58.3</ele>
        <time>2016-10-28T13:21:40Z</time>
      </trkpt>
      <trkpt lat="47.82069" lon="-2.62659">
        <ele>57.82</ele>
        <time>2016-10-28T13:21:46Z</time>
      </trkpt>
      <trkpt lat="47.82062" lon="-2.62672">
        <ele>57.82</ele>
        <time>2016-10-28T13:21:52Z</time>
      </trkpt>
      <trkpt lat="47.82055" lon="-2.62686">
        <ele>56.86</ele>
        <time>2016-10-28T13:21:58Z</time>
      </trkpt>
      <trkpt lat="47.82046" lon="-2.62699">
        <ele>55.89</ele>
        <time>2016-10-28T13:22:05Z</time>
      </trkpt>
      <trkpt lat="47.82043" lon="-2.62715">
        <ele>55.41</ele>
        <time>2016-10-28T13:22:12Z</time>
      </trkpt>
      <trkpt lat="47.82042" lon="-2.6273">
        <ele>54.93</ele>
        <time>2016-10-28T13:22:18Z</time>
      </trkpt>
      <trkpt lat="47.82039" lon="-2.62746">
        <ele>54.93</ele>
        <time>2016-10-28T13:22:26Z</time>
      </trkpt>
      <trkpt lat="47.82034" lon="-2.62762">
        <ele>55.41</ele>
        <time>2016-10-28T13:22:33Z</time>
      </trkpt>
      <trkpt lat="47.82028" lon="-2.62773">
        <ele>55.41</ele>
        <time>2016-10-28T13:22:42Z</time>
      </trkpt>
      <trkpt lat="47.82018" lon="-2.62779">
        <ele>55.89</ele>
        <time>2016-10-28T13:22:49Z</time>
      </trkpt>
      <trkpt lat="47.82007" lon="-2.62784">
        <ele>55.89</ele>
        <time>2016-10-28T13:22:56Z</time>
      </trkpt>
      <trkpt lat="47.81996" lon="-2.62789">
        <ele>55.41</ele>
        <time>2016-10-28T13:23:02Z</time>
      </trkpt>
      <trkpt lat="47.81985" lon="-2.62792">
        <ele>55.41</ele>
        <time>2016-10-28T13:23:09Z</time>
      </trkpt>
      <trkpt lat="47.81974" lon="-2.62791">
        <ele>54.93</ele>
        <time>2016-10-28T13:23:15Z</time>
      </trkpt>
      <trkpt lat="47.81962" lon="-2.62788">
        <ele>54.93</ele>
        <time>2016-10-28T13:23:21Z</time>
      </trkpt>
      <trkpt lat="47.81951" lon="-2.62785">
        <ele>53.97</ele>
        <time>2016-10-28T13:23:27Z</time>
      </trkpt>
      <trkpt lat="47.81941" lon="-2.62781">
        <ele>53.97</ele>
        <time>2016-10-28T13:23:33Z</time>
      </trkpt>
      <trkpt lat="47.81929" lon="-2.62775">
        <ele>53.01</ele>
        <time>2016-10-28T13:23:40Z</time>
      </trkpt>
      <trkpt lat="47.81918" lon="-2.62771">
        <ele>52.53</ele>
        <time>2016-10-28T13:23:47Z</time>
      </trkpt>
      <trkpt lat="47.81905" lon="-2.62766">
        <ele>52.05</ele>
        <time>2016-10-28T13:23:55Z</time>
      </trkpt>
      <trkpt lat="47.81893" lon="-2.62761">
        <ele>51.09</ele>
        <time>2016-10-28T13:24:02Z</time>
      </trkpt>
      <trkpt lat="47.81882" lon="-2.62754">
        <ele>51.09</ele>
        <time>2016-10-28T13:24:09Z</time>
      </trkpt>
      <trkpt lat="47.8187" lon="-2.62754">
        <ele>50.61</ele>
        <time>2016-10-28T13:24:16Z</time>
      </trkpt>
      <trkpt lat="47.81856" lon="-2.62752">
        <ele>50.61</ele>
        <time>2016-10-28T13:24:21Z</time>
      </trkpt>
      <trkpt lat="47.81843" lon="-2.62746">
        <ele>50.61</ele>
        <time>2016-10-28T13:24:24Z</time>
      </trkpt>
      <trkpt lat="47.81832" lon="-2.62743">
        <ele>51.57</ele>
        <time>2016-10-28T13:24:26Z</time>
      </trkpt>
      <trkpt lat="47.81822" lon="-2.62739">
        <ele>52.53</ele>
        <time>2016-10-28T13:24:28Z</time>
      </trkpt>
      <trkpt lat="47.81812" lon="-2.62736">
        <ele>53.97</ele>
        <time>2016-10-28T13:24:30Z</time>
      </trkpt>
      <trkpt lat="47.81802" lon="-2.62735">
        <ele>54.93</ele>
        <time>2016-10-28T13:24:32Z</time>
      </trkpt>
      <trkpt lat="47.81792" lon="-2.62735">
        <ele>56.86</ele>
        <time>2016-10-28T13:24:34Z</time>
      </trkpt>
      <trkpt lat="47.81781" lon="-2.62735">
        <ele>58.78</ele>
        <time>2016-10-28T13:24:36Z</time>
      </trkpt>
      <trkpt lat="47.8177" lon="-2.62735">
        <ele>60.7</ele>
        <time>2016-10-28T13:24:38Z</time>
      </trkpt>
      <trkpt lat="47.81758" lon="-2.62735">
        <ele>62.14</ele>
        <time>2016-10-28T13:24:40Z</time>
      </trkpt>
      <trkpt lat="47.81744" lon="-2.62734">
        <ele>63.58</ele>
        <time>2016-10-28T13:24:43Z</time>
      </trkpt>
      <trkpt lat="47.81733" lon="-2.62732">
        <ele>64.07</ele>
        <time>2016-10-28T13:24:47Z</time>
      </trkpt>
      <trkpt lat="47.81719" lon="-2.62733">
        <ele>63.58</ele>
        <time>2016-10-28T13:24:53Z</time>
      </trkpt>
      <trkpt lat="47.81708" lon="-2.62729">
        <ele>63.58</ele>
        <time>2016-10-28T13:24:59Z</time>
      </trkpt>
      <trkpt lat="47.81698" lon="-2.62728">
        <ele>63.1</ele>
        <time>2016-10-28T13:25:05Z</time>
      </trkpt>
      <trkpt lat="47.81688" lon="-2.62728">
        <ele>63.1</ele>
        <time>2016-10-28T13:25:11Z</time>
      </trkpt>
      <trkpt lat="47.81676" lon="-2.62728">
        <ele>62.62</ele>
        <time>2016-10-28T13:25:17Z</time>
      </trkpt>
      <trkpt lat="47.81665" lon="-2.62728">
        <ele>62.62</ele>
        <time>2016-10-28T13:25:23Z</time>
      </trkpt>
      <trkpt lat="47.81655" lon="-2.62728">
        <ele>62.62</ele>
        <time>2016-10-28T13:25:29Z</time>
      </trkpt>
      <trkpt lat="47.81645" lon="-2.6273">
        <ele>62.14</ele>
        <time>2016-10-28T13:25:36Z</time>
      </trkpt>
      <trkpt lat="47.81639" lon="-2.62741">
        <ele>61.66</ele>
        <time>2016-10-28T13:25:43Z</time>
      </trkpt>
      <trkpt lat="47.81546" lon="-2.62725">
        <ele>46.265625</ele>
      </trkpt>
      <trkpt lat="47.81477" lon="-2.62712">
        <ele>47.1328125</ele>
      </trkpt>
      <trkpt lat="47.81409" lon="-2.62712">
        <ele>46.015625</ele>
      </trkpt>
      <trkpt lat="47.81366" lon="-2.62696">
        <ele>44.671875</ele>
      </trkpt>
      <trkpt lat="47.8133" lon="-2.6267">
        <ele>43.53515625</ele>
      </trkpt>
      <trkpt lat="47.81287" lon="-2.62652">
        <ele>41.046875</ele>
      </trkpt>
      <trkpt lat="47.81242" lon="-2.62639">
        <ele>39.19140625</ele>
      </trkpt>
      <trkpt lat="47.81138" lon="-2.62623">
        <ele>46.28515625</ele>
      </trkpt>
      <trkpt lat="47.81136" lon="-2.62719">
        <ele>50.9140625</ele>
      </trkpt>
      <trkpt lat="47.81159" lon="-2.62847">
        <ele>53.0625</ele>
      </trkpt>
      <trkpt lat="47.81176" lon="-2.62927">
        <ele>52.8203125</ele>
      </trkpt>
      <trkpt lat="47.81201" lon="-2.62974">
        <ele>47.84375</ele>
      </trkpt>
      <trkpt lat="47.81238" lon="-2.63003">
        <ele>46.44140625</ele>
      </trkpt>
      <trkpt lat="47.81289" lon="-2.63016">
        <ele>47.359375</ele>
      </trkpt>
      <trkpt lat="47.81472" lon="-2.6301">
        <ele>49.8984375</ele>
      </trkpt>
      <trkpt lat="47.81567" lon="-2.63112">
        <ele>55.7578125</ele>
      </trkpt>
      <trkpt lat="47.81616" lon="-2.63234">
        <ele>56.33203125</ele>
      </trkpt>
      <trkpt lat="47.81619" lon="-2.6332">
        <ele>56.16796875</ele>
      </trkpt>
      <trkpt lat="47.81571" lon="-2.63746">
        <ele>56.21875</ele>
      </trkpt>
      <trkpt lat="47.8156" lon="-2.6391">
        <ele>46.8828125</ele>
      </trkpt>
      <trkpt lat="47.81567" lon="-2.63985">
        <ele>51.33984375</ele>
      </trkpt>
      <trkpt lat="47.81634" lon="-2.63964">
        <ele>48.61328125</ele>
      </trkpt>
      <trkpt lat="47.81679" lon="-2.63946">
        <ele>45.8203125</ele>
      </trkpt>
      <trkpt lat="47.81704" lon="-2.63941">
        <ele>44.0546875</ele>
      </trkpt>
      <trkpt lat="47.81716" lon="-2.63954">
        <ele>42.875</ele>
      </trkpt>
      <trkpt lat="47.81693" lon="-2.64016">
        <ele>43.21875</ele>
      </trkpt>
      <trkpt lat="47.81695" lon="-2.64073">
        <ele>41.125</ele>
      </trkpt>
      <trkpt lat="47.81707" lon="-2.64117">
        <ele>39.9921875</ele>
      </trkpt>
      <trkpt lat="47.81743" lon="-2.64143">
        <ele>40.30859375</ele>
      </trkpt>
      <trkpt lat="47.81756" lon="-2.64145">
        <ele>40.51</ele>
        <time>2016-10-28T13:38:46Z</time>
      </trkpt>
      <trkpt lat="47.8176" lon="-2.6416">
        <ele>40.99</ele>
        <time>2016-10-28T13:38:53Z</time>
      </trkpt>
      <trkpt lat="47.81764" lon="-2.64175">
        <ele>41.47</ele>
        <time>2016-10-28T13:39:00Z</time>
      </trkpt>
      <trkpt lat="47.81765" lon="-2.64191">
        <ele>42.44</ele>
        <time>2016-10-28T13:39:07Z</time>
      </trkpt>
      <trkpt lat="47.81768" lon="-2.64206">
        <ele>43.88</ele>
        <time>2016-10-28T13:39:14Z</time>
      </trkpt>
      <trkpt lat="47.8177" lon="-2.64222">
        <ele>44.84</ele>
        <time>2016-10-28T13:39:21Z</time>
      </trkpt>
      <trkpt lat="47.81772" lon="-2.64238">
        <ele>45.8</ele>
        <time>2016-10-28T13:39:28Z</time>
      </trkpt>
      <trkpt lat="47.81774" lon="-2.64255">
        <ele>47.24</ele>
        <time>2016-10-28T13:39:35Z</time>
      </trkpt>
      <trkpt lat="47.81777" lon="-2.64269">
        <ele>48.2</ele>
        <time>2016-10-28T13:39:42Z</time>
      </trkpt>
      <trkpt lat="47.81782" lon="-2.64284">
        <ele>49.65</ele>
        <time>2016-10-28T13:39:49Z</time>
      </trkpt>
      <trkpt lat="47.81786" lon="-2.64296">
        <ele>50.13</ele>
        <time>2016-10-28T13:39:55Z</time>
      </trkpt>
      <trkpt lat="47.81789" lon="-2.64308">
        <ele>50.13</ele>
        <time>2016-10-28T13:40:01Z</time>
      </trkpt>
      <trkpt lat="47.81792" lon="-2.64324">
        <ele>51.09</ele>
        <time>2016-10-28T13:40:07Z</time>
      </trkpt>
      <trkpt lat="47.81794" lon="-2.64339">
        <ele>51.09</ele>
        <time>2016-10-28T13:40:13Z</time>
      </trkpt>
      <trkpt lat="47.81796" lon="-2.64353">
        <ele>51.57</ele>
        <time>2016-10-28T13:40:19Z</time>
      </trkpt>
      <trkpt lat="47.81797" lon="-2.64368">
        <ele>51.57</ele>
        <time>2016-10-28T13:40:25Z</time>
      </trkpt>
      <trkpt lat="47.81801" lon="-2.64382">
        <ele>52.05</ele>
        <time>2016-10-28T13:40:31Z</time>
      </trkpt>
      <trkpt lat="47.81804" lon="-2.64396">
        <ele>52.05</ele>
        <time>2016-10-28T13:40:37Z</time>
      </trkpt>
      <trkpt lat="47.81807" lon="-2.64411">
        <ele>52.05</ele>
        <time>2016-10-28T13:40:43Z</time>
      </trkpt>
      <trkpt lat="47.81809" lon="-2.64425">
        <ele>52.53</ele>
        <time>2016-10-28T13:40:49Z</time>
      </trkpt>
      <trkpt lat="47.81811" lon="-2.64438">
        <ele>52.53</ele>
        <time>2016-10-28T13:40:55Z</time>
      </trkpt>
      <trkpt lat="47.81813" lon="-2.64453">
        <ele>53.01</ele>
        <time>2016-10-28T13:41:01Z</time>
      </trkpt>
      <trkpt lat="47.81815" lon="-2.64466">
        <ele>53.01</ele>
        <time>2016-10-28T13:41:07Z</time>
      </trkpt>
      <trkpt lat="47.81816" lon="-2.64484">
        <ele>53.01</ele>
        <time>2016-10-28T13:41:13Z</time>
      </trkpt>
      <trkpt lat="47.81817" lon="-2.645">
        <ele>53.01</ele>
        <time>2016-10-28T13:41:19Z</time>
      </trkpt>
      <trkpt lat="47.81819" lon="-2.64516">
        <ele>53.01</ele>
        <time>2016-10-28T13:41:25Z</time>
      </trkpt>
      <trkpt lat="47.8182" lon="-2.64531">
        <ele>53.01</ele>
        <time>2016-10-28T13:41:31Z</time>
      </trkpt>
      <trkpt lat="47.81821" lon="-2.64545">
        <ele>54.93</ele>
        <time>2016-10-28T13:41:36Z</time>
      </trkpt>
      <trkpt lat="47.81822" lon="-2.64561">
        <ele>53.49</ele>
        <time>2016-10-28T13:41:42Z</time>
      </trkpt>
      <trkpt lat="47.81823" lon="-2.64575">
        <ele>52.53</ele>
        <time>2016-10-28T13:41:47Z</time>
      </trkpt>
      <trkpt lat="47.81823" lon="-2.64589">
        <ele>53.01</ele>
        <time>2016-10-28T13:41:52Z</time>
      </trkpt>
      <trkpt lat="47.81824" lon="-2.64605">
        <ele>52.53</ele>
        <time>2016-10-28T13:41:58Z</time>
      </trkpt>
      <trkpt lat="47.81825" lon="-2.64622">
        <ele>52.53</ele>
        <time>2016-10-28T13:42:04Z</time>
      </trkpt>
      <trkpt lat="47.81826" lon="-2.64635">
        <ele>52.53</ele>
        <time>2016-10-28T13:42:09Z</time>
      </trkpt>
      <trkpt lat="47.81828" lon="-2.6465">
        <ele>52.53</ele>
        <time>2016-10-28T13:42:15Z</time>
      </trkpt>
      <trkpt lat="47.8183" lon="-2.64665">
        <ele>52.05</ele>
        <time>2016-10-28T13:42:20Z</time>
      </trkpt>
      <trkpt lat="47.8183" lon="-2.64681">
        <ele>52.05</ele>
        <time>2016-10-28T13:42:26Z</time>
      </trkpt>
      <trkpt lat="47.81831" lon="-2.64696">
        <ele>51.57</ele>
        <time>2016-10-28T13:42:32Z</time>
      </trkpt>
      <trkpt lat="47.81832" lon="-2.64712">
        <ele>51.57</ele>
        <time>2016-10-28T13:42:38Z</time>
      </trkpt>
      <trkpt lat="47.81833" lon="-2.64726">
        <ele>51.57</ele>
        <time>2016-10-28T13:42:43Z</time>
      </trkpt>
      <trkpt lat="47.81833" lon="-2.6474">
        <ele>50.61</ele>
        <time>2016-10-28T13:42:49Z</time>
      </trkpt>
      <trkpt lat="47.81835" lon="-2.64756">
        <ele>50.61</ele>
        <time>2016-10-28T13:42:55Z</time>
      </trkpt>
      <trkpt lat="47.81836" lon="-2.64773">
        <ele>50.13</ele>
        <time>2016-10-28T13:43:01Z</time>
      </trkpt>
      <trkpt lat="47.81838" lon="-2.64787">
        <ele>49.16</ele>
        <time>2016-10-28T13:43:06Z</time>
      </trkpt>
      <trkpt lat="47.8184" lon="-2.64802">
        <ele>49.16</ele>
        <time>2016-10-28T13:43:12Z</time>
      </trkpt>
      <trkpt lat="47.81842" lon="-2.64816">
        <ele>48.2</ele>
        <time>2016-10-28T13:43:18Z</time>
      </trkpt>
      <trkpt lat="47.81845" lon="-2.64832">
        <ele>47.72</ele>
        <time>2016-10-28T13:43:25Z</time>
      </trkpt>
      <trkpt lat="47.81848" lon="-2.64847">
        <ele>46.76</ele>
        <time>2016-10-28T13:43:30Z</time>
      </trkpt>
      <trkpt lat="47.81851" lon="-2.64861">
        <ele>46.28</ele>
        <time>2016-10-28T13:43:35Z</time>
      </trkpt>
      <trkpt lat="47.81852" lon="-2.64875">
        <ele>45.32</ele>
        <time>2016-10-28T13:43:40Z</time>
      </trkpt>
      <trkpt lat="47.81855" lon="-2.64889">
        <ele>44.36</ele>
        <time>2016-10-28T13:43:46Z</time>
      </trkpt>
      <trkpt lat="47.81856" lon="-2.64903">
        <ele>43.88</ele>
        <time>2016-10-28T13:43:52Z</time>
      </trkpt>
      <trkpt lat="47.8186" lon="-2.64917">
        <ele>43.4</ele>
        <time>2016-10-28T13:43:58Z</time>
      </trkpt>
      <trkpt lat="47.81864" lon="-2.64931">
        <ele>42.92</ele>
        <time>2016-10-28T13:44:03Z</time>
      </trkpt>
      <trkpt lat="47.81867" lon="-2.64947">
        <ele>42.92</ele>
        <time>2016-10-28T13:44:09Z</time>
      </trkpt>
      <trkpt lat="47.81872" lon="-2.64961">
        <ele>42.92</ele>
        <time>2016-10-28T13:44:15Z</time>
      </trkpt>
      <trkpt lat="47.81877" lon="-2.64974">
        <ele>42.92</ele>
        <time>2016-10-28T13:44:21Z</time>
      </trkpt>
      <trkpt lat="47.81882" lon="-2.64987">
        <ele>43.4</ele>
        <time>2016-10-28T13:44:27Z</time>
      </trkpt>
      <trkpt lat="47.81887" lon="-2.65003">
        <ele>43.4</ele>
        <time>2016-10-28T13:44:34Z</time>
      </trkpt>
      <trkpt lat="47.81893" lon="-2.65019">
        <ele>43.88</ele>
        <time>2016-10-28T13:44:41Z</time>
      </trkpt>
      <trkpt lat="47.819" lon="-2.65034">
        <ele>43.88</ele>
        <time>2016-10-28T13:44:48Z</time>
      </trkpt>
      <trkpt lat="47.81909" lon="-2.6505">
        <ele>44.36</ele>
        <time>2016-10-28T13:44:56Z</time>
      </trkpt>
      <trkpt lat="47.81919" lon="-2.65065">
        <ele>44.84</ele>
        <time>2016-10-28T13:45:03Z</time>
      </trkpt>
      <trkpt lat="47.81929" lon="-2.65077">
        <ele>44.84</ele>
        <time>2016-10-28T13:45:10Z</time>
      </trkpt>
      <trkpt lat="47.81937" lon="-2.65088">
        <ele>44.84</ele>
        <time>2016-10-28T13:45:17Z</time>
      </trkpt>
      <trkpt lat="47.81948" lon="-2.65099">
        <ele>44.84</ele>
        <time>2016-10-28T13:45:24Z</time>
      </trkpt>
      <trkpt lat="47.81959" lon="-2.65105">
        <ele>44.84</ele>
        <time>2016-10-28T13:45:31Z</time>
      </trkpt>
      <trkpt lat="47.81967" lon="-2.65112">
        <ele>44.36</ele>
        <time>2016-10-28T13:45:37Z</time>
      </trkpt>
      <trkpt lat="47.81976" lon="-2.65127">
        <ele>44.36</ele>
        <time>2016-10-28T13:45:43Z</time>
      </trkpt>
      <trkpt lat="47.81983" lon="-2.65138">
        <ele>44.36</ele>
        <time>2016-10-28T13:45:49Z</time>
      </trkpt>
      <trkpt lat="47.81991" lon="-2.6515">
        <ele>43.88</ele>
        <time>2016-10-28T13:45:56Z</time>
      </trkpt>
      <trkpt lat="47.82" lon="-2.65164">
        <ele>43.4</ele>
        <time>2016-10-28T13:46:04Z</time>
      </trkpt>
      <trkpt lat="47.82009" lon="-2.65177">
        <ele>43.4</ele>
        <time>2016-10-28T13:46:10Z</time>
      </trkpt>
      <trkpt lat="47.82017" lon="-2.65189">
        <ele>42.92</ele>
        <time>2016-10-28T13:46:16Z</time>
      </trkpt>
      <trkpt lat="47.82023" lon="-2.65201">
        <ele>42.92</ele>
        <time>2016-10-28T13:46:22Z</time>
      </trkpt>
      <trkpt lat="47.82032" lon="-2.6521">
        <ele>42.44</ele>
        <time>2016-10-28T13:46:28Z</time>
      </trkpt>
      <trkpt lat="47.82041" lon="-2.65223">
        <ele>42.92</ele>
        <time>2016-10-28T13:46:32Z</time>
      </trkpt>
      <trkpt lat="47.82051" lon="-2.65233">
        <ele>42.92</ele>
        <time>2016-10-28T13:46:36Z</time>
      </trkpt>
      <trkpt lat="47.82062" lon="-2.65245">
        <ele>42.92</ele>
        <time>2016-10-28T13:46:41Z</time>
      </trkpt>
      <trkpt lat="47.8207" lon="-2.65256">
        <ele>42.44</ele>
        <time>2016-10-28T13:46:47Z</time>
      </trkpt>
      <trkpt lat="47.82079" lon="-2.65267">
        <ele>42.92</ele>
        <time>2016-10-28T13:46:53Z</time>
      </trkpt>
      <trkpt lat="47.82085" lon="-2.6528">
        <ele>42.92</ele>
        <time>2016-10-28T13:46:59Z</time>
      </trkpt>
      <trkpt lat="47.82094" lon="-2.65291">
        <ele>42.92</ele>
        <time>2016-10-28T13:47:05Z</time>
      </trkpt>
      <trkpt lat="47.82103" lon="-2.653">
        <ele>42.92</ele>
        <time>2016-10-28T13:47:09Z</time>
      </trkpt>
      <trkpt lat="47.82109" lon="-2.65313">
        <ele>43.4</ele>
        <time>2016-10-28T13:47:15Z</time>
      </trkpt>
      <trkpt lat="47.82116" lon="-2.65326">
        <ele>43.88</ele>
        <time>2016-10-28T13:47:22Z</time>
      </trkpt>
      <trkpt lat="47.82123" lon="-2.65342">
        <ele>43.88</ele>
        <time>2016-10-28T13:47:29Z</time>
      </trkpt>
      <trkpt lat="47.82129" lon="-2.65357">
        <ele>42.92</ele>
        <time>2016-10-28T13:47:36Z</time>
      </trkpt>
      <trkpt lat="47.82135" lon="-2.65371">
        <ele>42.92</ele>
        <time>2016-10-28T13:47:42Z</time>
      </trkpt>
      <trkpt lat="47.8214" lon="-2.65383">
        <ele>42.44</ele>
        <time>2016-10-28T13:47:47Z</time>
      </trkpt>
      <trkpt lat="47.82148" lon="-2.65394">
        <ele>42.44</ele>
        <time>2016-10-28T13:47:52Z</time>
      </trkpt>
      <trkpt lat="47.82154" lon="-2.65407">
        <ele>42.44</ele>
        <time>2016-10-28T13:47:58Z</time>
      </trkpt>
      <trkpt lat="47.8216" lon="-2.65418">
        <ele>42.44</ele>
        <time>2016-10-28T13:48:04Z</time>
      </trkpt>
      <trkpt lat="47.82164" lon="-2.65435">
        <ele>42.44</ele>
        <time>2016-10-28T13:48:11Z</time>
      </trkpt>
      <trkpt lat="47.8217" lon="-2.65446">
        <ele>42.92</ele>
        <time>2016-10-28T13:48:17Z</time>
      </trkpt>
      <trkpt lat="47.82177" lon="-2.65458">
        <ele>42.92</ele>
        <time>2016-10-28T13:48:23Z</time>
      </trkpt>
      <trkpt lat="47.82183" lon="-2.6547">
        <ele>43.88</ele>
        <time>2016-10-28T13:48:36Z</time>
      </trkpt>
      <trkpt lat="47.82193" lon="-2.65464">
        <ele>45.32</ele>
        <time>2016-10-28T13:48:46Z</time>
      </trkpt>
      <trkpt lat="47.82201" lon="-2.65452">
        <ele>46.76</ele>
        <time>2016-10-28T13:48:53Z</time>
      </trkpt>
      <trkpt lat="47.82209" lon="-2.65444">
        <ele>47.24</ele>
        <time>2016-10-28T13:49:00Z</time>
      </trkpt>
      <trkpt lat="47.82214" lon="-2.65432">
        <ele>49.16</ele>
        <time>2016-10-28T13:49:12Z</time>
      </trkpt>
      <trkpt lat="47.82225" lon="-2.65426">
        <ele>52.05</ele>
        <time>2016-10-28T13:49:22Z</time>
      </trkpt>
      <trkpt lat="47.82237" lon="-2.65415">
        <ele>55.89</ele>
        <time>2016-10-28T13:49:30Z</time>
      </trkpt>
      <trkpt lat="47.82249" lon="-2.65408">
        <ele>55.41</ele>
        <time>2016-10-28T13:49:38Z</time>
      </trkpt>
      <trkpt lat="47.8226" lon="-2.65402">
        <ele>56.86</ele>
        <time>2016-10-28T13:49:45Z</time>
      </trkpt>
      <trkpt lat="47.82271" lon="-2.65395">
        <ele>58.3</ele>
        <time>2016-10-28T13:49:52Z</time>
      </trkpt>
      <trkpt lat="47.82281" lon="-2.65389">
        <ele>60.22</ele>
        <time>2016-10-28T13:49:59Z</time>
      </trkpt>
      <trkpt lat="47.82292" lon="-2.65391">
        <ele>60.22</ele>
        <time>2016-10-28T13:50:06Z</time>
      </trkpt>
      <trkpt lat="47.82302" lon="-2.65391">
        <ele>60.7</ele>
        <time>2016-10-28T13:50:12Z</time>
      </trkpt>
      <trkpt lat="47.82314" lon="-2.65389">
        <ele>61.18</ele>
        <time>2016-10-28T13:50:19Z</time>
      </trkpt>
      <trkpt lat="47.82324" lon="-2.65388">
        <ele>61.66</ele>
        <time>2016-10-28T13:50:25Z</time>
      </trkpt>
      <trkpt lat="47.82336" lon="-2.6539">
        <ele>61.66</ele>
        <time>2016-10-28T13:50:32Z</time>
      </trkpt>
      <trkpt lat="47.82345" lon="-2.65396">
        <ele>61.66</ele>
        <time>2016-10-28T13:50:38Z</time>
      </trkpt>
      <trkpt lat="47.82352" lon="-2.65406">
        <ele>62.14</ele>
        <time>2016-10-28T13:50:44Z</time>
      </trkpt>
      <trkpt lat="47.82355" lon="-2.6542">
        <ele>62.62</ele>
        <time>2016-10-28T13:50:52Z</time>
      </trkpt>
      <trkpt lat="47.82354" lon="-2.65435">
        <ele>63.1</ele>
        <time>2016-10-28T13:50:59Z</time>
      </trkpt>
      <trkpt lat="47.82353" lon="-2.6545">
        <ele>64.07</ele>
        <time>2016-10-28T13:51:06Z</time>
      </trkpt>
      <trkpt lat="47.82353" lon="-2.65466">
        <ele>65.03</ele>
        <time>2016-10-28T13:51:13Z</time>
      </trkpt>
      <trkpt lat="47.82354" lon="-2.65484">
        <ele>65.51</ele>
        <time>2016-10-28T13:51:21Z</time>
      </trkpt>
      <trkpt lat="47.82355" lon="-2.65502">
        <ele>65.99</ele>
        <time>2016-10-28T13:51:28Z</time>
      </trkpt>
      <trkpt lat="47.82355" lon="-2.65518">
        <ele>66.47</ele>
        <time>2016-10-28T13:51:35Z</time>
      </trkpt>
      <trkpt lat="47.82355" lon="-2.65538">
        <ele>66.95</ele>
        <time>2016-10-28T13:51:42Z</time>
      </trkpt>
      <trkpt lat="47.82356" lon="-2.65555">
        <ele>66.95</ele>
        <time>2016-10-28T13:51:48Z</time>
      </trkpt>
      <trkpt lat="47.82357" lon="-2.65571">
        <ele>66.95</ele>
        <time>2016-10-28T13:51:54Z</time>
      </trkpt>
      <trkpt lat="47.82358" lon="-2.65586">
        <ele>66.95</ele>
        <time>2016-10-28T13:52:00Z</time>
      </trkpt>
      <trkpt lat="47.82359" lon="-2.65601">
        <ele>66.95</ele>
        <time>2016-10-28T13:52:06Z</time>
      </trkpt>
      <trkpt lat="47.82358" lon="-2.65618">
        <ele>66.47</ele>
        <time>2016-10-28T13:52:12Z</time>
      </trkpt>
      <trkpt lat="47.82358" lon="-2.65636">
        <ele>66.47</ele>
        <time>2016-10-28T13:52:18Z</time>
      </trkpt>
      <trkpt lat="47.8236" lon="-2.65653">
        <ele>66.47</ele>
        <time>2016-10-28T13:52:24Z</time>
      </trkpt>
      <trkpt lat="47.82363" lon="-2.65668">
        <ele>65.99</ele>
        <time>2016-10-28T13:52:30Z</time>
      </trkpt>
      <trkpt lat="47.82364" lon="-2.65684">
        <ele>65.99</ele>
        <time>2016-10-28T13:52:36Z</time>
      </trkpt>
      <trkpt lat="47.82367" lon="-2.65701">
        <ele>65.51</ele>
        <time>2016-10-28T13:52:42Z</time>
      </trkpt>
      <trkpt lat="47.82371" lon="-2.65713">
        <ele>65.51</ele>
        <time>2016-10-28T13:52:47Z</time>
      </trkpt>
      <trkpt lat="47.82378" lon="-2.65722">
        <ele>65.03</ele>
        <time>2016-10-28T13:52:53Z</time>
      </trkpt>
      <trkpt lat="47.82389" lon="-2.65728">
        <ele>65.99</ele>
        <time>2016-10-28T13:52:59Z</time>
      </trkpt>
      <trkpt lat="47.82399" lon="-2.65731">
        <ele>65.99</ele>
        <time>2016-10-28T13:53:05Z</time>
      </trkpt>
      <trkpt lat="47.82411" lon="-2.65733">
        <ele>65.51</ele>
        <time>2016-10-28T13:53:11Z</time>
      </trkpt>
      <trkpt lat="47.82421" lon="-2.65736">
        <ele>65.03</ele>
        <time>2016-10-28T13:53:17Z</time>
      </trkpt>
      <trkpt lat="47.82431" lon="-2.65741">
        <ele>64.07</ele>
        <time>2016-10-28T13:53:23Z</time>
      </trkpt>
      <trkpt lat="47.82441" lon="-2.65743">
        <ele>63.58</ele>
        <time>2016-10-28T13:53:28Z</time>
      </trkpt>
      <trkpt lat="47.82451" lon="-2.65747">
        <ele>62.62</ele>
        <time>2016-10-28T13:53:34Z</time>
      </trkpt>
      <trkpt lat="47.8246" lon="-2.65749">
        <ele>61.66</ele>
        <time>2016-10-28T13:53:39Z</time>
      </trkpt>
      <trkpt lat="47.82471" lon="-2.65753">
        <ele>60.7</ele>
        <time>2016-10-28T13:53:45Z</time>
      </trkpt>
      <trkpt lat="47.82482" lon="-2.65755">
        <ele>59.26</ele>
        <time>2016-10-28T13:53:52Z</time>
      </trkpt>
      <trkpt lat="47.82494" lon="-2.65758">
        <ele>57.82</ele>
        <time>2016-10-28T13:53:59Z</time>
      </trkpt>
      <trkpt lat="47.82507" lon="-2.65763">
        <ele>56.86</ele>
        <time>2016-10-28T13:54:07Z</time>
      </trkpt>
      <trkpt lat="47.82518" lon="-2.65767">
        <ele>55.89</ele>
        <time>2016-10-28T13:54:13Z</time>
      </trkpt>
      <trkpt lat="47.8253" lon="-2.65773">
        <ele>54.93</ele>
        <time>2016-10-28T13:54:17Z</time>
      </trkpt>
      <trkpt lat="47.82541" lon="-2.65778">
        <ele>54.45</ele>
        <time>2016-10-28T13:54:21Z</time>
      </trkpt>
      <trkpt lat="47.82553" lon="-2.65785">
        <ele>53.49</ele>
        <time>2016-10-28T13:54:27Z</time>
      </trkpt>
      <trkpt lat="47.82562" lon="-2.6579">
        <ele>53.49</ele>
        <time>2016-10-28T13:54:33Z</time>
      </trkpt>
      <trkpt lat="47.8257" lon="-2.65798">
        <ele>53.01</ele>
        <time>2016-10-28T13:54:39Z</time>
      </trkpt>
      <trkpt lat="47.82577" lon="-2.65809">
        <ele>53.01</ele>
        <time>2016-10-28T13:54:45Z</time>
      </trkpt>
      <trkpt lat="47.82586" lon="-2.65818">
        <ele>53.49</ele>
        <time>2016-10-28T13:54:51Z</time>
      </trkpt>
      <trkpt lat="47.82595" lon="-2.65825">
        <ele>53.97</ele>
        <time>2016-10-28T13:54:57Z</time>
      </trkpt>
      <trkpt lat="47.82604" lon="-2.65835">
        <ele>54.93</ele>
        <time>2016-10-28T13:55:03Z</time>
      </trkpt>
      <trkpt lat="47.82615" lon="-2.65843">
        <ele>55.89</ele>
        <time>2016-10-28T13:55:10Z</time>
      </trkpt>
      <trkpt lat="47.82624" lon="-2.65854">
        <ele>56.37</ele>
        <time>2016-10-28T13:55:18Z</time>
      </trkpt>
      <trkpt lat="47.82631" lon="-2.65859">
        <ele>57.82</ele>
        <time>2016-10-28T13:55:26Z</time>
      </trkpt>
      <trkpt lat="47.82634" lon="-2.65846">
        <ele>59.26</ele>
        <time>2016-10-28T13:55:30Z</time>
      </trkpt>
      <trkpt lat="47.82635" lon="-2.65822">
        <ele>59.26</ele>
        <time>2016-10-28T13:55:40Z</time>
      </trkpt>
      <trkpt lat="47.82651" lon="-2.65809">
        <ele>59.26</ele>
        <time>2016-10-28T13:55:50Z</time>
      </trkpt>
      <trkpt lat="47.82668" lon="-2.65798">
        <ele>58.78</ele>
        <time>2016-10-28T13:55:58Z</time>
      </trkpt>
      <trkpt lat="47.82683" lon="-2.65795">
        <ele>59.26</ele>
        <time>2016-10-28T13:56:08Z</time>
      </trkpt>
      <trkpt lat="47.827" lon="-2.65789">
        <ele>58.78</ele>
        <time>2016-10-28T13:56:18Z</time>
      </trkpt>
      <trkpt lat="47.82714" lon="-2.65777">
        <ele>59.74</ele>
        <time>2016-10-28T13:56:26Z</time>
      </trkpt>
      <trkpt lat="47.82732" lon="-2.65755">
        <ele>60.22</ele>
        <time>2016-10-28T13:56:33Z</time>
      </trkpt>
      <trkpt lat="47.82745" lon="-2.65739">
        <ele>60.7</ele>
        <time>2016-10-28T13:56:40Z</time>
      </trkpt>
      <trkpt lat="47.82774" lon="-2.65746">
        <ele>63.1</ele>
        <time>2016-10-28T13:56:54Z</time>
      </trkpt>
      <trkpt lat="47.82794" lon="-2.65743">
        <ele>63.1</ele>
        <time>2016-10-28T13:57:00Z</time>
      </trkpt>
      <trkpt lat="47.82814" lon="-2.65744">
        <ele>63.1</ele>
        <time>2016-10-28T13:57:07Z</time>
      </trkpt>
      <trkpt lat="47.82829" lon="-2.65751">
        <ele>63.1</ele>
        <time>2016-10-28T13:57:22Z</time>
      </trkpt>
      <trkpt lat="47.82848" lon="-2.65757">
        <ele>63.58</ele>
        <time>2016-10-28T13:57:31Z</time>
      </trkpt>
      <trkpt lat="47.82868" lon="-2.65768">
        <ele>65.99</ele>
        <time>2016-10-28T13:57:43Z</time>
      </trkpt>
      <trkpt lat="47.8288" lon="-2.65778">
        <ele>68.39</ele>
        <time>2016-10-28T13:57:51Z</time>
      </trkpt>
      <trkpt lat="47.82902" lon="-2.65775">
        <ele>69.83</ele>
        <time>2016-10-28T13:58:04Z</time>
      </trkpt>
      <trkpt lat="47.82915" lon="-2.6576">
        <ele>69.35</ele>
        <time>2016-10-28T13:58:14Z</time>
      </trkpt>
      <trkpt lat="47.8293" lon="-2.65749">
        <ele>68.87</ele>
        <time>2016-10-28T13:58:22Z</time>
      </trkpt>
      <trkpt lat="47.82943" lon="-2.65742">
        <ele>69.83</ele>
        <time>2016-10-28T13:58:29Z</time>
      </trkpt>
      <trkpt lat="47.82956" lon="-2.65742">
        <ele>71.76</ele>
        <time>2016-10-28T13:58:38Z</time>
      </trkpt>
      <trkpt lat="47.82975" lon="-2.65748">
        <ele>73.68</ele>
        <time>2016-10-28T13:58:51Z</time>
      </trkpt>
      <trkpt lat="47.82988" lon="-2.65762">
        <ele>75.12</ele>
        <time>2016-10-28T13:58:59Z</time>
      </trkpt>
      <trkpt lat="47.82995" lon="-2.65776">
        <ele>77.04</ele>
        <time>2016-10-28T13:59:03Z</time>
      </trkpt>
      <trkpt lat="47.83" lon="-2.65793">
        <ele>78.97</ele>
        <time>2016-10-28T13:59:07Z</time>
      </trkpt>
      <trkpt lat="47.83004" lon="-2.65809">
        <ele>80.89</ele>
        <time>2016-10-28T13:59:11Z</time>
      </trkpt>
      <trkpt lat="47.83009" lon="-2.65828">
        <ele>83.29</ele>
        <time>2016-10-28T13:59:16Z</time>
      </trkpt>
      <trkpt lat="47.83017" lon="-2.65854">
        <ele>86.66</ele>
        <time>2016-10-28T13:59:21Z</time>
      </trkpt>
      <trkpt lat="47.83025" lon="-2.65875">
        <ele>89.54</ele>
        <time>2016-10-28T13:59:25Z</time>
      </trkpt>
      <trkpt lat="47.83033" lon="-2.65892">
        <ele>90.98</ele>
        <time>2016-10-28T13:59:32Z</time>
      </trkpt>
      <trkpt lat="47.83046" lon="-2.65911">
        <ele>87.62</ele>
        <time>2016-10-28T13:59:46Z</time>
      </trkpt>
      <trkpt lat="47.83046" lon="-2.65929">
        <ele>89.06</ele>
        <time>2016-10-28T13:59:50Z</time>
      </trkpt>
      <trkpt lat="47.83045" lon="-2.65946">
        <ele>90.02</ele>
        <time>2016-10-28T13:59:53Z</time>
      </trkpt>
      <trkpt lat="47.83042" lon="-2.65961">
        <ele>91.46</ele>
        <time>2016-10-28T13:59:55Z</time>
      </trkpt>
      <trkpt lat="47.83039" lon="-2.65977">
        <ele>92.9</ele>
        <time>2016-10-28T13:59:57Z</time>
      </trkpt>
      <trkpt lat="47.83037" lon="-2.6599">
        <ele>94.35</ele>
        <time>2016-10-28T13:59:59Z</time>
      </trkpt>
      <trkpt lat="47.83034" lon="-2.66008">
        <ele>95.31</ele>
        <time>2016-10-28T14:00:02Z</time>
      </trkpt>
      <trkpt lat="47.83033" lon="-2.66026">
        <ele>95.79</ele>
        <time>2016-10-28T14:00:05Z</time>
      </trkpt>
      <trkpt lat="47.83032" lon="-2.66045">
        <ele>96.27</ele>
        <time>2016-10-28T14:00:08Z</time>
      </trkpt>
      <trkpt lat="47.8303" lon="-2.66061">
        <ele>96.27</ele>
        <time>2016-10-28T14:00:11Z</time>
      </trkpt>
      <trkpt lat="47.83029" lon="-2.66076">
        <ele>96.27</ele>
        <time>2016-10-28T14:00:14Z</time>
      </trkpt>
      <trkpt lat="47.83027" lon="-2.66093">
        <ele>95.79</ele>
        <time>2016-10-28T14:00:18Z</time>
      </trkpt>
      <trkpt lat="47.83026" lon="-2.66109">
        <ele>95.31</ele>
        <time>2016-10-28T14:00:24Z</time>
      </trkpt>
      <trkpt lat="47.83025" lon="-2.66124">
        <ele>94.83</ele>
        <time>2016-10-28T14:00:30Z</time>
      </trkpt>
      <trkpt lat="47.83024" lon="-2.6614">
        <ele>93.87</ele>
        <time>2016-10-28T14:00:37Z</time>
      </trkpt>
      <trkpt lat="47.83022" lon="-2.66155">
        <ele>92.9</ele>
        <time>2016-10-28T14:00:44Z</time>
      </trkpt>
      <trkpt lat="47.83021" lon="-2.6617">
        <ele>92.42</ele>
        <time>2016-10-28T14:00:50Z</time>
      </trkpt>
      <trkpt lat="47.8302" lon="-2.66185">
        <ele>92.42</ele>
        <time>2016-10-28T14:00:56Z</time>
      </trkpt>
      <trkpt lat="47.83018" lon="-2.66202">
        <ele>91.94</ele>
        <time>2016-10-28T14:01:03Z</time>
      </trkpt>
      <trkpt lat="47.83015" lon="-2.66218">
        <ele>91.94</ele>
        <time>2016-10-28T14:01:09Z</time>
      </trkpt>
      <trkpt lat="47.83015" lon="-2.66232">
        <ele>91.94</ele>
        <time>2016-10-28T14:01:15Z</time>
      </trkpt>
      <trkpt lat="47.83014" lon="-2.66247">
        <ele>91.94</ele>
        <time>2016-10-28T14:01:21Z</time>
      </trkpt>
      <trkpt lat="47.83015" lon="-2.66262">
        <ele>92.9</ele>
        <time>2016-10-28T14:01:28Z</time>
      </trkpt>
      <trkpt lat="47.83018" lon="-2.66277">
        <ele>93.87</ele>
        <time>2016-10-28T14:01:35Z</time>
      </trkpt>
      <trkpt lat="47.83022" lon="-2.6629">
        <ele>93.87</ele>
        <time>2016-10-28T14:01:41Z</time>
      </trkpt>
      <trkpt lat="47.83026" lon="-2.66304">
        <ele>94.35</ele>
        <time>2016-10-28T14:01:48Z</time>
      </trkpt>
      <trkpt lat="47.83031" lon="-2.66317">
        <ele>94.83</ele>
        <time>2016-10-28T14:01:55Z</time>
      </trkpt>
      <trkpt lat="47.83036" lon="-2.6633">
        <ele>95.79</ele>
        <time>2016-10-28T14:02:02Z</time>
      </trkpt>
      <trkpt lat="47.83041" lon="-2.66344">
        <ele>96.27</ele>
        <time>2016-10-28T14:02:08Z</time>
      </trkpt>
      <trkpt lat="47.83045" lon="-2.66357">
        <ele>95.79</ele>
        <time>2016-10-28T14:02:14Z</time>
      </trkpt>
      <trkpt lat="47.83044" lon="-2.66372">
        <ele>95.79</ele>
        <time>2016-10-28T14:02:21Z</time>
      </trkpt>
      <trkpt lat="47.83036" lon="-2.66381">
        <ele>95.79</ele>
        <time>2016-10-28T14:02:27Z</time>
      </trkpt>
      <trkpt lat="47.83029" lon="-2.66387">
        <ele>94.83</ele>
        <time>2016-10-28T14:02:32Z</time>
      </trkpt>
      <trkpt lat="47.83021" lon="-2.66394">
        <ele>94.35</ele>
        <time>2016-10-28T14:02:38Z</time>
      </trkpt>
      <trkpt lat="47.83012" lon="-2.66402">
        <ele>94.35</ele>
        <time>2016-10-28T14:02:44Z</time>
      </trkpt>
      <trkpt lat="47.83005" lon="-2.66409">
        <ele>93.39</ele>
        <time>2016-10-28T14:02:49Z</time>
      </trkpt>
      <trkpt lat="47.82996" lon="-2.66417">
        <ele>92.9</ele>
        <time>2016-10-28T14:02:55Z</time>
      </trkpt>
      <trkpt lat="47.82989" lon="-2.66428">
        <ele>92.42</ele>
        <time>2016-10-28T14:03:02Z</time>
      </trkpt>
      <trkpt lat="47.82981" lon="-2.66438">
        <ele>91.94</ele>
        <time>2016-10-28T14:03:08Z</time>
      </trkpt>
      <trkpt lat="47.82973" lon="-2.66445">
        <ele>90.98</ele>
        <time>2016-10-28T14:03:13Z</time>
      </trkpt>
      <trkpt lat="47.82965" lon="-2.66453">
        <ele>90.5</ele>
        <time>2016-10-28T14:03:19Z</time>
      </trkpt>
      <trkpt lat="47.82959" lon="-2.66462">
        <ele>90.02</ele>
        <time>2016-10-28T14:03:25Z</time>
      </trkpt>
      <trkpt lat="47.82961" lon="-2.6648">
        <ele>90.02</ele>
        <time>2016-10-28T14:03:31Z</time>
      </trkpt>
      <trkpt lat="47.82962" lon="-2.66496">
        <ele>89.54</ele>
        <time>2016-10-28T14:03:37Z</time>
      </trkpt>
      <trkpt lat="47.82962" lon="-2.66511">
        <ele>89.54</ele>
        <time>2016-10-28T14:03:43Z</time>
      </trkpt>
      <trkpt lat="47.82961" lon="-2.66527">
        <ele>89.06</ele>
        <time>2016-10-28T14:03:49Z</time>
      </trkpt>
      <trkpt lat="47.82961" lon="-2.66543">
        <ele>88.58</ele>
        <time>2016-10-28T14:03:55Z</time>
      </trkpt>
      <trkpt lat="47.82963" lon="-2.66558">
        <ele>88.58</ele>
        <time>2016-10-28T14:04:01Z</time>
      </trkpt>
      <trkpt lat="47.82966" lon="-2.66573">
        <ele>88.1</ele>
        <time>2016-10-28T14:04:07Z</time>
      </trkpt>
      <trkpt lat="47.82966" lon="-2.66589">
        <ele>87.62</ele>
        <time>2016-10-28T14:04:11Z</time>
      </trkpt>
      <trkpt lat="47.82966" lon="-2.66604">
        <ele>87.14</ele>
        <time>2016-10-28T14:04:14Z</time>
      </trkpt>
      <trkpt lat="47.82967" lon="-2.6662">
        <ele>86.66</ele>
        <time>2016-10-28T14:04:18Z</time>
      </trkpt>
      <trkpt lat="47.82967" lon="-2.66636">
        <ele>85.69</ele>
        <time>2016-10-28T14:04:24Z</time>
      </trkpt>
      <trkpt lat="47.82968" lon="-2.66652">
        <ele>85.21</ele>
        <time>2016-10-28T14:04:30Z</time>
      </trkpt>
      <trkpt lat="47.8297" lon="-2.66666">
        <ele>84.25</ele>
        <time>2016-10-28T14:04:36Z</time>
      </trkpt>
      <trkpt lat="47.82971" lon="-2.66682">
        <ele>83.29</ele>
        <time>2016-10-28T14:04:42Z</time>
      </trkpt>
      <trkpt lat="47.82973" lon="-2.66695">
        <ele>82.81</ele>
        <time>2016-10-28T14:04:47Z</time>
      </trkpt>
      <trkpt lat="47.82975" lon="-2.66709">
        <ele>81.85</ele>
        <time>2016-10-28T14:04:53Z</time>
      </trkpt>
      <trkpt lat="47.82977" lon="-2.66722">
        <ele>81.37</ele>
        <time>2016-10-28T14:04:58Z</time>
      </trkpt>
      <trkpt lat="47.82979" lon="-2.66737">
        <ele>80.41</ele>
        <time>2016-10-28T14:05:04Z</time>
      </trkpt>
      <trkpt lat="47.82982" lon="-2.66752">
        <ele>79.45</ele>
        <time>2016-10-28T14:05:10Z</time>
      </trkpt>
      <trkpt lat="47.82985" lon="-2.66766">
        <ele>78.48</ele>
        <time>2016-10-28T14:05:15Z</time>
      </trkpt>
      <trkpt lat="47.82991" lon="-2.66776">
        <ele>77.52</ele>
        <time>2016-10-28T14:05:20Z</time>
      </trkpt>
      <trkpt lat="47.83" lon="-2.6678">
        <ele>76.08</ele>
        <time>2016-10-28T14:05:26Z</time>
      </trkpt>
      <trkpt lat="47.83011" lon="-2.66783">
        <ele>74.64</ele>
        <time>2016-10-28T14:05:33Z</time>
      </trkpt>
      <trkpt lat="47.83021" lon="-2.66789">
        <ele>73.2</ele>
        <time>2016-10-28T14:05:39Z</time>
      </trkpt>
      <trkpt lat="47.8303" lon="-2.66792">
        <ele>72.24</ele>
        <time>2016-10-28T14:05:45Z</time>
      </trkpt>
      <trkpt lat="47.83041" lon="-2.66792">
        <ele>71.27</ele>
        <time>2016-10-28T14:05:51Z</time>
      </trkpt>
      <trkpt lat="47.83051" lon="-2.66793">
        <ele>70.31</ele>
        <time>2016-10-28T14:05:56Z</time>
      </trkpt>
      <trkpt lat="47.83061" lon="-2.66795">
        <ele>69.35</ele>
        <time>2016-10-28T14:05:59Z</time>
      </trkpt>
      <trkpt lat="47.83072" lon="-2.66796">
        <ele>68.87</ele>
        <time>2016-10-28T14:06:02Z</time>
      </trkpt>
      <trkpt lat="47.83083" lon="-2.66798">
        <ele>68.39</ele>
        <time>2016-10-28T14:06:06Z</time>
      </trkpt>
      <trkpt lat="47.83093" lon="-2.66801">
        <ele>68.39</ele>
        <time>2016-10-28T14:06:12Z</time>
      </trkpt>
      <trkpt lat="47.83103" lon="-2.66804">
        <ele>68.39</ele>
        <time>2016-10-28T14:06:18Z</time>
      </trkpt>
      <trkpt lat="47.83113" lon="-2.66809">
        <ele>68.87</ele>
        <time>2016-10-28T14:06:25Z</time>
      </trkpt>
      <trkpt lat="47.83119" lon="-2.6682">
        <ele>68.87</ele>
        <time>2016-10-28T14:06:31Z</time>
      </trkpt>
      <trkpt lat="47.83124" lon="-2.66833">
        <ele>68.87</ele>
        <time>2016-10-28T14:06:37Z</time>
      </trkpt>
      <trkpt lat="47.8313" lon="-2.66845">
        <ele>69.35</ele>
        <time>2016-10-28T14:06:43Z</time>
      </trkpt>
      <trkpt lat="47.83137" lon="-2.66854">
        <ele>69.35</ele>
        <time>2016-10-28T14:06:49Z</time>
      </trkpt>
      <trkpt lat="47.83144" lon="-2.66863">
        <ele>69.83</ele>
        <time>2016-10-28T14:06:56Z</time>
      </trkpt>
      <trkpt lat="47.83149" lon="-2.66876">
        <ele>70.31</ele>
        <time>2016-10-28T14:07:03Z</time>
      </trkpt>
      <trkpt lat="47.83156" lon="-2.66891">
        <ele>71.27</ele>
        <time>2016-10-28T14:07:10Z</time>
      </trkpt>
      <trkpt lat="47.83164" lon="-2.66904">
        <ele>72.24</ele>
        <time>2016-10-28T14:07:15Z</time>
      </trkpt>
      <trkpt lat="47.83172" lon="-2.66917">
        <ele>72.72</ele>
        <time>2016-10-28T14:07:21Z</time>
      </trkpt>
      <trkpt lat="47.83175" lon="-2.66934">
        <ele>73.68</ele>
        <time>2016-10-28T14:07:29Z</time>
      </trkpt>
      <trkpt lat="47.83181" lon="-2.66951">
        <ele>74.64</ele>
        <time>2016-10-28T14:07:37Z</time>
      </trkpt>
      <trkpt lat="47.83184" lon="-2.66974">
        <ele>76.08</ele>
        <time>2016-10-28T14:07:46Z</time>
      </trkpt>
      <trkpt lat="47.83188" lon="-2.66991">
        <ele>76.56</ele>
        <time>2016-10-28T14:07:53Z</time>
      </trkpt>
      <trkpt lat="47.8319" lon="-2.67011">
        <ele>77.52</ele>
        <time>2016-10-28T14:08:02Z</time>
      </trkpt>
      <trkpt lat="47.83193" lon="-2.67027">
        <ele>78.48</ele>
        <time>2016-10-28T14:08:09Z</time>
      </trkpt>
      <trkpt lat="47.83193" lon="-2.67042">
        <ele>78.97</ele>
        <time>2016-10-28T14:08:15Z</time>
      </trkpt>
      <trkpt lat="47.83195" lon="-2.67055">
        <ele>79.45</ele>
        <time>2016-10-28T14:08:21Z</time>
      </trkpt>
      <trkpt lat="47.83198" lon="-2.67072">
        <ele>80.41</ele>
        <time>2016-10-28T14:08:29Z</time>
      </trkpt>
      <trkpt lat="47.83202" lon="-2.67089">
        <ele>81.37</ele>
        <time>2016-10-28T14:08:36Z</time>
      </trkpt>
      <trkpt lat="47.83205" lon="-2.67106">
        <ele>81.85</ele>
        <time>2016-10-28T14:08:44Z</time>
      </trkpt>
      <trkpt lat="47.83208" lon="-2.67119">
        <ele>82.81</ele>
        <time>2016-10-28T14:08:50Z</time>
      </trkpt>
      <trkpt lat="47.83212" lon="-2.67136">
        <ele>83.29</ele>
        <time>2016-10-28T14:08:56Z</time>
      </trkpt>
      <trkpt lat="47.83214" lon="-2.67154">
        <ele>83.77</ele>
        <time>2016-10-28T14:09:01Z</time>
      </trkpt>
      <trkpt lat="47.83215" lon="-2.6717">
        <ele>84.73</ele>
        <time>2016-10-28T14:09:07Z</time>
      </trkpt>
      <trkpt lat="47.83217" lon="-2.67186">
        <ele>85.21</ele>
        <time>2016-10-28T14:09:14Z</time>
      </trkpt>
      <trkpt lat="47.83219" lon="-2.67201">
        <ele>85.69</ele>
        <time>2016-10-28T14:09:20Z</time>
      </trkpt>
      <trkpt lat="47.83222" lon="-2.67217">
        <ele>86.66</ele>
        <time>2016-10-28T14:09:28Z</time>
      </trkpt>
      <trkpt lat="47.83225" lon="-2.67235">
        <ele>88.1</ele>
        <time>2016-10-28T14:09:36Z</time>
      </trkpt>
      <trkpt lat="47.83228" lon="-2.6725">
        <ele>87.62</ele>
        <time>2016-10-28T14:09:43Z</time>
      </trkpt>
      <trkpt lat="47.83231" lon="-2.67267">
        <ele>88.58</ele>
        <time>2016-10-28T14:09:50Z</time>
      </trkpt>
      <trkpt lat="47.83232" lon="-2.67285">
        <ele>89.06</ele>
        <time>2016-10-28T14:09:57Z</time>
      </trkpt>
      <trkpt lat="47.83234" lon="-2.67303">
        <ele>90.02</ele>
        <time>2016-10-28T14:10:03Z</time>
      </trkpt>
      <trkpt lat="47.83236" lon="-2.6732">
        <ele>90.98</ele>
        <time>2016-10-28T14:10:10Z</time>
      </trkpt>
      <trkpt lat="47.83238" lon="-2.67336">
        <ele>91.94</ele>
        <time>2016-10-28T14:10:15Z</time>
      </trkpt>
      <trkpt lat="47.83239" lon="-2.67353">
        <ele>92.9</ele>
        <time>2016-10-28T14:10:20Z</time>
      </trkpt>
      <trkpt lat="47.8324" lon="-2.6737">
        <ele>93.87</ele>
        <time>2016-10-28T14:10:25Z</time>
      </trkpt>
      <trkpt lat="47.83242" lon="-2.67386">
        <ele>94.83</ele>
        <time>2016-10-28T14:10:29Z</time>
      </trkpt>
      <trkpt lat="47.83244" lon="-2.67404">
        <ele>96.27</ele>
        <time>2016-10-28T14:10:36Z</time>
      </trkpt>
      <trkpt lat="47.83247" lon="-2.6742">
        <ele>97.23</ele>
        <time>2016-10-28T14:10:42Z</time>
      </trkpt>
      <trkpt lat="47.83248" lon="-2.67437">
        <ele>98.19</ele>
        <time>2016-10-28T14:10:49Z</time>
      </trkpt>
      <trkpt lat="47.83251" lon="-2.67452">
        <ele>98.67</ele>
        <time>2016-10-28T14:10:55Z</time>
      </trkpt>
      <trkpt lat="47.83255" lon="-2.67469">
        <ele>99.63</ele>
        <time>2016-10-28T14:11:02Z</time>
      </trkpt>
      <trkpt lat="47.83257" lon="-2.67485">
        <ele>100.11</ele>
        <time>2016-10-28T14:11:08Z</time>
      </trkpt>
      <trkpt lat="47.8326" lon="-2.67499">
        <ele>100.6</ele>
        <time>2016-10-28T14:11:14Z</time>
      </trkpt>
      <trkpt lat="47.83263" lon="-2.67513">
        <ele>101.56</ele>
        <time>2016-10-28T14:11:20Z</time>
      </trkpt>
      <trkpt lat="47.83266" lon="-2.67526">
        <ele>102.04</ele>
        <time>2016-10-28T14:11:26Z</time>
      </trkpt>
      <trkpt lat="47.8327" lon="-2.67539">
        <ele>102.52</ele>
        <time>2016-10-28T14:11:32Z</time>
      </trkpt>
      <trkpt lat="47.83273" lon="-2.67553">
        <ele>102.52</ele>
        <time>2016-10-28T14:11:38Z</time>
      </trkpt>
      <trkpt lat="47.83276" lon="-2.67569">
        <ele>103</ele>
        <time>2016-10-28T14:11:45Z</time>
      </trkpt>
      <trkpt lat="47.8328" lon="-2.67583">
        <ele>103</ele>
        <time>2016-10-28T14:11:51Z</time>
      </trkpt>
      <trkpt lat="47.83284" lon="-2.67597">
        <ele>103</ele>
        <time>2016-10-28T14:11:57Z</time>
      </trkpt>
      <trkpt lat="47.83288" lon="-2.67613">
        <ele>102.52</ele>
        <time>2016-10-28T14:12:03Z</time>
      </trkpt>
      <trkpt lat="47.8329" lon="-2.67629">
        <ele>102.52</ele>
        <time>2016-10-28T14:12:09Z</time>
      </trkpt>
      <trkpt lat="47.83293" lon="-2.67643">
        <ele>102.04</ele>
        <time>2016-10-28T14:12:15Z</time>
      </trkpt>
      <trkpt lat="47.833" lon="-2.67658">
        <ele>102.04</ele>
        <time>2016-10-28T14:12:22Z</time>
      </trkpt>
      <trkpt lat="47.83307" lon="-2.67671">
        <ele>102.04</ele>
        <time>2016-10-28T14:12:28Z</time>
      </trkpt>
      <trkpt lat="47.83313" lon="-2.67684">
        <ele>102.04</ele>
        <time>2016-10-28T14:12:34Z</time>
      </trkpt>
      <trkpt lat="47.83317" lon="-2.67702">
        <ele>102.04</ele>
        <time>2016-10-28T14:12:41Z</time>
      </trkpt>
      <trkpt lat="47.8332" lon="-2.67722">
        <ele>101.56</ele>
        <time>2016-10-28T14:12:48Z</time>
      </trkpt>
      <trkpt lat="47.83323" lon="-2.67736">
        <ele>102.04</ele>
        <time>2016-10-28T14:12:54Z</time>
      </trkpt>
      <trkpt lat="47.83327" lon="-2.67754">
        <ele>101.56</ele>
        <time>2016-10-28T14:13:01Z</time>
      </trkpt>
      <trkpt lat="47.83326" lon="-2.67768">
        <ele>100.6</ele>
        <time>2016-10-28T14:13:07Z</time>
      </trkpt>
      <trkpt lat="47.83327" lon="-2.67783">
        <ele>100.6</ele>
        <time>2016-10-28T14:13:13Z</time>
      </trkpt>
      <trkpt lat="47.83325" lon="-2.67803">
        <ele>100.11</ele>
        <time>2016-10-28T14:13:22Z</time>
      </trkpt>
      <trkpt lat="47.8332" lon="-2.67822">
        <ele>100.11</ele>
        <time>2016-10-28T14:13:31Z</time>
      </trkpt>
      <trkpt lat="47.83311" lon="-2.67837">
        <ele>100.6</ele>
        <time>2016-10-28T14:13:40Z</time>
      </trkpt>
      <trkpt lat="47.83301" lon="-2.6785">
        <ele>101.08</ele>
        <time>2016-10-28T14:13:47Z</time>
      </trkpt>
      <trkpt lat="47.83294" lon="-2.67868">
        <ele>102.52</ele>
        <time>2016-10-28T14:13:55Z</time>
      </trkpt>
      <trkpt lat="47.83291" lon="-2.67887">
        <ele>103.96</ele>
        <time>2016-10-28T14:14:03Z</time>
      </trkpt>
      <trkpt lat="47.83289" lon="-2.67906">
        <ele>105.4</ele>
        <time>2016-10-28T14:14:11Z</time>
      </trkpt>
      <trkpt lat="47.83286" lon="-2.67922">
        <ele>108.29</ele>
        <time>2016-10-28T14:14:19Z</time>
      </trkpt>
      <trkpt lat="47.83282" lon="-2.67939">
        <ele>108.77</ele>
        <time>2016-10-28T14:14:27Z</time>
      </trkpt>
      <trkpt lat="47.83282" lon="-2.67955">
        <ele>109.25</ele>
        <time>2016-10-28T14:14:32Z</time>
      </trkpt>
      <trkpt lat="47.83282" lon="-2.67972">
        <ele>109.73</ele>
        <time>2016-10-28T14:14:35Z</time>
      </trkpt>
      <trkpt lat="47.83284" lon="-2.67989">
        <ele>110.69</ele>
        <time>2016-10-28T14:14:38Z</time>
      </trkpt>
      <trkpt lat="47.83285" lon="-2.68005">
        <ele>111.17</ele>
        <time>2016-10-28T14:14:41Z</time>
      </trkpt>
      <trkpt lat="47.83286" lon="-2.68023">
        <ele>111.65</ele>
        <time>2016-10-28T14:14:44Z</time>
      </trkpt>
      <trkpt lat="47.83287" lon="-2.6804">
        <ele>112.13</ele>
        <time>2016-10-28T14:14:47Z</time>
      </trkpt>
      <trkpt lat="47.83288" lon="-2.68059">
        <ele>112.61</ele>
        <time>2016-10-28T14:14:50Z</time>
      </trkpt>
      <trkpt lat="47.83291" lon="-2.68077">
        <ele>112.61</ele>
        <time>2016-10-28T14:14:53Z</time>
      </trkpt>
      <trkpt lat="47.83293" lon="-2.68096">
        <ele>113.09</ele>
        <time>2016-10-28T14:14:56Z</time>
      </trkpt>
      <trkpt lat="47.83295" lon="-2.68115">
        <ele>113.09</ele>
        <time>2016-10-28T14:14:59Z</time>
      </trkpt>
      <trkpt lat="47.83297" lon="-2.68129">
        <ele>113.57</ele>
        <time>2016-10-28T14:15:01Z</time>
      </trkpt>
      <trkpt lat="47.83302" lon="-2.68144">
        <ele>113.57</ele>
        <time>2016-10-28T14:15:03Z</time>
      </trkpt>
      <trkpt lat="47.83307" lon="-2.68158">
        <ele>114.05</ele>
        <time>2016-10-28T14:15:05Z</time>
      </trkpt>
      <trkpt lat="47.83313" lon="-2.68172">
        <ele>115.01</ele>
        <time>2016-10-28T14:15:07Z</time>
      </trkpt>
      <trkpt lat="47.83318" lon="-2.68186">
        <ele>115.5</ele>
        <time>2016-10-28T14:15:09Z</time>
      </trkpt>
      <trkpt lat="47.83324" lon="-2.68198">
        <ele>115.98</ele>
        <time>2016-10-28T14:15:11Z</time>
      </trkpt>
      <trkpt lat="47.83329" lon="-2.6821">
        <ele>116.46</ele>
        <time>2016-10-28T14:15:13Z</time>
      </trkpt>
      <trkpt lat="47.83334" lon="-2.68224">
        <ele>116.94</ele>
        <time>2016-10-28T14:15:15Z</time>
      </trkpt>
      <trkpt lat="47.83339" lon="-2.68238">
        <ele>117.9</ele>
        <time>2016-10-28T14:15:17Z</time>
      </trkpt>
      <trkpt lat="47.83342" lon="-2.68252">
        <ele>117.9</ele>
        <time>2016-10-28T14:15:19Z</time>
      </trkpt>
      <trkpt lat="47.83344" lon="-2.68266">
        <ele>118.38</ele>
        <time>2016-10-28T14:15:21Z</time>
      </trkpt>
      <trkpt lat="47.83344" lon="-2.68282">
        <ele>118.38</ele>
        <time>2016-10-28T14:15:23Z</time>
      </trkpt>
      <trkpt lat="47.83344" lon="-2.68298">
        <ele>118.86</ele>
        <time>2016-10-28T14:15:25Z</time>
      </trkpt>
      <trkpt lat="47.83343" lon="-2.68314">
        <ele>118.86</ele>
        <time>2016-10-28T14:15:27Z</time>
      </trkpt>
      <trkpt lat="47.83343" lon="-2.68331">
        <ele>119.34</ele>
        <time>2016-10-28T14:15:29Z</time>
      </trkpt>
      <trkpt lat="47.83343" lon="-2.68349">
        <ele>119.34</ele>
        <time>2016-10-28T14:15:31Z</time>
      </trkpt>
      <trkpt lat="47.83344" lon="-2.68365">
        <ele>119.82</ele>
        <time>2016-10-28T14:15:33Z</time>
      </trkpt>
      <trkpt lat="47.83348" lon="-2.68379">
        <ele>120.3</ele>
        <time>2016-10-28T14:15:35Z</time>
      </trkpt>
      <trkpt lat="47.83353" lon="-2.68392">
        <ele>121.26</ele>
        <time>2016-10-28T14:15:37Z</time>
      </trkpt>
      <trkpt lat="47.83359" lon="-2.68407">
        <ele>122.22</ele>
        <time>2016-10-28T14:15:40Z</time>
      </trkpt>
      <trkpt lat="47.83364" lon="-2.68419">
        <ele>122.22</ele>
        <time>2016-10-28T14:15:42Z</time>
      </trkpt>
      <trkpt lat="47.83369" lon="-2.68431">
        <ele>122.71</ele>
        <time>2016-10-28T14:15:44Z</time>
      </trkpt>
      <trkpt lat="47.83373" lon="-2.68449">
        <ele>123.19</ele>
        <time>2016-10-28T14:15:47Z</time>
      </trkpt>
      <trkpt lat="47.83376" lon="-2.68468">
        <ele>124.15</ele>
        <time>2016-10-28T14:15:50Z</time>
      </trkpt>
      <trkpt lat="47.8338" lon="-2.68486">
        <ele>124.63</ele>
        <time>2016-10-28T14:15:53Z</time>
      </trkpt>
      <trkpt lat="47.83384" lon="-2.68504">
        <ele>123.67</ele>
        <time>2016-10-28T14:15:56Z</time>
      </trkpt>
      <trkpt lat="47.83387" lon="-2.68521">
        <ele>123.19</ele>
        <time>2016-10-28T14:15:59Z</time>
      </trkpt>
      <trkpt lat="47.83385" lon="-2.6854">
        <ele>122.71</ele>
        <time>2016-10-28T14:16:02Z</time>
      </trkpt>
      <trkpt lat="47.83385" lon="-2.68555">
        <ele>122.22</ele>
        <time>2016-10-28T14:16:04Z</time>
      </trkpt>
      <trkpt lat="47.83385" lon="-2.68576">
        <ele>121.26</ele>
        <time>2016-10-28T14:16:07Z</time>
      </trkpt>
      <trkpt lat="47.83386" lon="-2.68591">
        <ele>120.78</ele>
        <time>2016-10-28T14:16:09Z</time>
      </trkpt>
      <trkpt lat="47.83387" lon="-2.68605">
        <ele>120.3</ele>
        <time>2016-10-28T14:16:11Z</time>
      </trkpt>
      <trkpt lat="47.83389" lon="-2.68625">
        <ele>119.82</ele>
        <time>2016-10-28T14:16:14Z</time>
      </trkpt>
      <trkpt lat="47.83394" lon="-2.68639">
        <ele>119.82</ele>
        <time>2016-10-28T14:16:16Z</time>
      </trkpt>
      <trkpt lat="47.83397" lon="-2.68651">
        <ele>118.86</ele>
        <time>2016-10-28T14:16:18Z</time>
      </trkpt>
      <trkpt lat="47.83404" lon="-2.68665">
        <ele>119.34</ele>
        <time>2016-10-28T14:16:21Z</time>
      </trkpt>
      <trkpt lat="47.83414" lon="-2.68672">
        <ele>119.34</ele>
        <time>2016-10-28T14:16:28Z</time>
      </trkpt>
      <trkpt lat="47.83424" lon="-2.68675">
        <ele>118.38</ele>
        <time>2016-10-28T14:16:35Z</time>
      </trkpt>
      <trkpt lat="47.83432" lon="-2.6868">
        <ele>117.42</ele>
        <time>2016-10-28T14:16:41Z</time>
      </trkpt>
      <trkpt lat="47.83441" lon="-2.68692">
        <ele>115.98</ele>
        <time>2016-10-28T14:16:50Z</time>
      </trkpt>
      <trkpt lat="47.83437" lon="-2.68709">
        <ele>115.5</ele>
        <time>2016-10-28T14:17:00Z</time>
      </trkpt>
      <trkpt lat="47.83438" lon="-2.68727">
        <ele>114.05</ele>
        <time>2016-10-28T14:17:08Z</time>
      </trkpt>
      <trkpt lat="47.83438" lon="-2.68749">
        <ele>112.13</ele>
        <time>2016-10-28T14:17:15Z</time>
      </trkpt>
      <trkpt lat="47.83442" lon="-2.6877">
        <ele>110.69</ele>
        <time>2016-10-28T14:17:22Z</time>
      </trkpt>
      <trkpt lat="47.83444" lon="-2.68789">
        <ele>108.77</ele>
        <time>2016-10-28T14:17:31Z</time>
      </trkpt>
      <trkpt lat="47.83443" lon="-2.68818">
        <ele>104.92</ele>
        <time>2016-10-28T14:17:58Z</time>
      </trkpt>
      <trkpt lat="47.83437" lon="-2.68832">
        <ele>101.08</ele>
        <time>2016-10-28T14:18:22Z</time>
      </trkpt>
      <trkpt lat="47.83422" lon="-2.68851">
        <ele>96.27</ele>
        <time>2016-10-28T14:18:41Z</time>
      </trkpt>
      <trkpt lat="47.8341" lon="-2.68858">
        <ele>95.31</ele>
        <time>2016-10-28T14:18:57Z</time>
      </trkpt>
      <trkpt lat="47.83408" lon="-2.68878">
        <ele>97.71</ele>
        <time>2016-10-28T14:20:22Z</time>
      </trkpt>
      <trkpt lat="47.83409" lon="-2.68877">
        <ele>97.23</ele>
        <time>2016-10-28T14:20:47Z</time>
      </trkpt>
      <trkpt lat="47.83405" lon="-2.68877">
        <ele>95.79</ele>
        <time>2016-10-28T14:21:15Z</time>
      </trkpt>
      <trkpt lat="47.83417" lon="-2.68881">
        <ele>99.15</ele>
        <time>2016-10-28T14:21:26Z</time>
      </trkpt>
      <trkpt lat="47.83432" lon="-2.6889">
        <ele>102.52</ele>
        <time>2016-10-28T14:21:36Z</time>
      </trkpt>
      <trkpt lat="47.8345" lon="-2.68897">
        <ele>102.04</ele>
        <time>2016-10-28T14:21:45Z</time>
      </trkpt>
      <trkpt lat="47.8346" lon="-2.68905">
        <ele>103.48</ele>
        <time>2016-10-28T14:21:50Z</time>
      </trkpt>
      <trkpt lat="47.83467" lon="-2.68918">
        <ele>106.36</ele>
        <time>2016-10-28T14:21:59Z</time>
      </trkpt>
      <trkpt lat="47.83469" lon="-2.6893">
        <ele>108.77</ele>
        <time>2016-10-28T14:22:10Z</time>
      </trkpt>
      <trkpt lat="47.83476" lon="-2.68943">
        <ele>109.73</ele>
        <time>2016-10-28T14:22:17Z</time>
      </trkpt>
      <trkpt lat="47.83483" lon="-2.68964">
        <ele>112.13</ele>
        <time>2016-10-28T14:22:29Z</time>
      </trkpt>
      <trkpt lat="47.83491" lon="-2.68981">
        <ele>112.13</ele>
        <time>2016-10-28T14:22:38Z</time>
      </trkpt>
      <trkpt lat="47.83498" lon="-2.68994">
        <ele>111.65</ele>
        <time>2016-10-28T14:22:43Z</time>
      </trkpt>
      <trkpt lat="47.83505" lon="-2.6901">
        <ele>112.13</ele>
        <time>2016-10-28T14:22:47Z</time>
      </trkpt>
      <trkpt lat="47.83511" lon="-2.69024">
        <ele>113.09</ele>
        <time>2016-10-28T14:22:50Z</time>
      </trkpt>
      <trkpt lat="47.83517" lon="-2.6904">
        <ele>114.53</ele>
        <time>2016-10-28T14:22:53Z</time>
      </trkpt>
      <trkpt lat="47.83521" lon="-2.69056">
        <ele>115.5</ele>
        <time>2016-10-28T14:22:56Z</time>
      </trkpt>
      <trkpt lat="47.83525" lon="-2.69074">
        <ele>116.94</ele>
        <time>2016-10-28T14:22:59Z</time>
      </trkpt>
      <trkpt lat="47.83528" lon="-2.6909">
        <ele>117.9</ele>
        <time>2016-10-28T14:23:02Z</time>
      </trkpt>
      <trkpt lat="47.83534" lon="-2.69111">
        <ele>117.9</ele>
        <time>2016-10-28T14:23:05Z</time>
      </trkpt>
      <trkpt lat="47.83541" lon="-2.69127">
        <ele>119.34</ele>
        <time>2016-10-28T14:23:08Z</time>
      </trkpt>
      <trkpt lat="47.83546" lon="-2.69146">
        <ele>119.82</ele>
        <time>2016-10-28T14:23:12Z</time>
      </trkpt>
      <trkpt lat="47.83551" lon="-2.69169">
        <ele>120.3</ele>
        <time>2016-10-28T14:23:16Z</time>
      </trkpt>
      <trkpt lat="47.83553" lon="-2.69188">
        <ele>120.78</ele>
        <time>2016-10-28T14:23:19Z</time>
      </trkpt>
      <trkpt lat="47.83553" lon="-2.69211">
        <ele>122.22</ele>
        <time>2016-10-28T14:23:22Z</time>
      </trkpt>
      <trkpt lat="47.83552" lon="-2.69228">
        <ele>123.19</ele>
        <time>2016-10-28T14:23:24Z</time>
      </trkpt>
      <trkpt lat="47.83552" lon="-2.69245">
        <ele>124.15</ele>
        <time>2016-10-28T14:23:26Z</time>
      </trkpt>
      <trkpt lat="47.83552" lon="-2.69261">
        <ele>125.11</ele>
        <time>2016-10-28T14:23:28Z</time>
      </trkpt>
      <trkpt lat="47.83551" lon="-2.69284">
        <ele>127.03</ele>
        <time>2016-10-28T14:23:31Z</time>
      </trkpt>
      <trkpt lat="47.83551" lon="-2.69305">
        <ele>127.51</ele>
        <time>2016-10-28T14:23:34Z</time>
      </trkpt>
      <trkpt lat="47.8355" lon="-2.69326">
        <ele>128.47</ele>
        <time>2016-10-28T14:23:37Z</time>
      </trkpt>
      <trkpt lat="47.83548" lon="-2.69345">
        <ele>128.95</ele>
        <time>2016-10-28T14:23:40Z</time>
      </trkpt>
      <trkpt lat="47.83548" lon="-2.69363">
        <ele>128.95</ele>
        <time>2016-10-28T14:23:43Z</time>
      </trkpt>
      <trkpt lat="47.83548" lon="-2.69379">
        <ele>128.47</ele>
        <time>2016-10-28T14:23:46Z</time>
      </trkpt>
      <trkpt lat="47.83544" lon="-2.69398">
        <ele>128.47</ele>
        <time>2016-10-28T14:23:50Z</time>
      </trkpt>
      <trkpt lat="47.83544" lon="-2.69415">
        <ele>128.47</ele>
        <time>2016-10-28T14:23:53Z</time>
      </trkpt>
      <trkpt lat="47.8355" lon="-2.69433">
        <ele>128.47</ele>
        <time>2016-10-28T14:23:56Z</time>
      </trkpt>
      <trkpt lat="47.83554" lon="-2.69446">
        <ele>128.47</ele>
        <time>2016-10-28T14:23:58Z</time>
      </trkpt>
      <trkpt lat="47.8356" lon="-2.69465">
        <ele>128.47</ele>
        <time>2016-10-28T14:24:01Z</time>
      </trkpt>
      <trkpt lat="47.83558" lon="-2.69483">
        <ele>128.47</ele>
        <time>2016-10-28T14:24:04Z</time>
      </trkpt>
      <trkpt lat="47.8356" lon="-2.69499">
        <ele>127.99</ele>
        <time>2016-10-28T14:24:07Z</time>
      </trkpt>
      <trkpt lat="47.83563" lon="-2.69515">
        <ele>127.03</ele>
        <time>2016-10-28T14:24:10Z</time>
      </trkpt>
      <trkpt lat="47.83567" lon="-2.69532">
        <ele>127.51</ele>
        <time>2016-10-28T14:24:13Z</time>
      </trkpt>
      <trkpt lat="47.83571" lon="-2.69551">
        <ele>127.51</ele>
        <time>2016-10-28T14:24:16Z</time>
      </trkpt>
      <trkpt lat="47.8358" lon="-2.69566">
        <ele>128.47</ele>
        <time>2016-10-28T14:24:19Z</time>
      </trkpt>
      <trkpt lat="47.83588" lon="-2.69575">
        <ele>129.43</ele>
        <time>2016-10-28T14:24:22Z</time>
      </trkpt>
      <trkpt lat="47.83596" lon="-2.69589">
        <ele>129.43</ele>
        <time>2016-10-28T14:24:25Z</time>
      </trkpt>
      <trkpt lat="47.83602" lon="-2.69607">
        <ele>129.92</ele>
        <time>2016-10-28T14:24:28Z</time>
      </trkpt>
      <trkpt lat="47.83605" lon="-2.69626">
        <ele>129.92</ele>
        <time>2016-10-28T14:24:31Z</time>
      </trkpt>
      <trkpt lat="47.83607" lon="-2.69644">
        <ele>129.92</ele>
        <time>2016-10-28T14:24:34Z</time>
      </trkpt>
      <trkpt lat="47.83607" lon="-2.69659">
        <ele>129.92</ele>
        <time>2016-10-28T14:24:37Z</time>
      </trkpt>
      <trkpt lat="47.83608" lon="-2.69678">
        <ele>129.92</ele>
        <time>2016-10-28T14:24:40Z</time>
      </trkpt>
      <trkpt lat="47.83611" lon="-2.69694">
        <ele>129.92</ele>
        <time>2016-10-28T14:24:43Z</time>
      </trkpt>
      <trkpt lat="47.83615" lon="-2.69712">
        <ele>130.4</ele>
        <time>2016-10-28T14:24:46Z</time>
      </trkpt>
      <trkpt lat="47.83621" lon="-2.69726">
        <ele>132.32</ele>
        <time>2016-10-28T14:24:49Z</time>
      </trkpt>
      <trkpt lat="47.83626" lon="-2.69741">
        <ele>133.28</ele>
        <time>2016-10-28T14:24:52Z</time>
      </trkpt>
      <trkpt lat="47.83635" lon="-2.69758">
        <ele>134.24</ele>
        <time>2016-10-28T14:24:56Z</time>
      </trkpt>
      <trkpt lat="47.83647" lon="-2.69777">
        <ele>134.24</ele>
        <time>2016-10-28T14:25:01Z</time>
      </trkpt>
      <trkpt lat="47.83662" lon="-2.69797">
        <ele>133.76</ele>
        <time>2016-10-28T14:25:05Z</time>
      </trkpt>
      <trkpt lat="47.83673" lon="-2.69819">
        <ele>133.28</ele>
        <time>2016-10-28T14:25:11Z</time>
      </trkpt>
      <trkpt lat="47.83671" lon="-2.69841">
        <ele>133.76</ele>
        <time>2016-10-28T14:25:23Z</time>
      </trkpt>
      <trkpt lat="47.83669" lon="-2.69864">
        <ele>134.72</ele>
        <time>2016-10-28T14:25:33Z</time>
      </trkpt>
      <trkpt lat="47.83674" lon="-2.69886">
        <ele>134.72</ele>
        <time>2016-10-28T14:25:41Z</time>
      </trkpt>
      <trkpt lat="47.83676" lon="-2.69906">
        <ele>135.2</ele>
        <time>2016-10-28T14:25:49Z</time>
      </trkpt>
      <trkpt lat="47.83677" lon="-2.69926">
        <ele>135.2</ele>
        <time>2016-10-28T14:25:57Z</time>
      </trkpt>
      <trkpt lat="47.83676" lon="-2.69941">
        <ele>136.16</ele>
        <time>2016-10-28T14:26:05Z</time>
      </trkpt>
      <trkpt lat="47.83673" lon="-2.69954">
        <ele>136.64</ele>
        <time>2016-10-28T14:26:12Z</time>
      </trkpt>
      <trkpt lat="47.83677" lon="-2.69971">
        <ele>137.13</ele>
        <time>2016-10-28T14:26:20Z</time>
      </trkpt>
      <trkpt lat="47.83682" lon="-2.69989">
        <ele>137.61</ele>
        <time>2016-10-28T14:26:27Z</time>
      </trkpt>
      <trkpt lat="47.83675" lon="-2.70003">
        <ele>138.57</ele>
        <time>2016-10-28T14:26:35Z</time>
      </trkpt>
      <trkpt lat="47.83669" lon="-2.70019">
        <ele>138.57</ele>
        <time>2016-10-28T14:26:43Z</time>
      </trkpt>
      <trkpt lat="47.8366" lon="-2.70028">
        <ele>139.05</ele>
        <time>2016-10-28T14:26:50Z</time>
      </trkpt>
      <trkpt lat="47.83652" lon="-2.70037">
        <ele>138.09</ele>
        <time>2016-10-28T14:26:57Z</time>
      </trkpt>
      <trkpt lat="47.83643" lon="-2.70044">
        <ele>137.61</ele>
        <time>2016-10-28T14:27:03Z</time>
      </trkpt>
      <trkpt lat="47.83641" lon="-2.70061">
        <ele>137.61</ele>
        <time>2016-10-28T14:27:10Z</time>
      </trkpt>
      <trkpt lat="47.83642" lon="-2.7008">
        <ele>137.61</ele>
        <time>2016-10-28T14:27:18Z</time>
      </trkpt>
      <trkpt lat="47.83644" lon="-2.70099">
        <ele>137.61</ele>
        <time>2016-10-28T14:27:25Z</time>
      </trkpt>
      <trkpt lat="47.83648" lon="-2.70114">
        <ele>137.61</ele>
        <time>2016-10-28T14:27:31Z</time>
      </trkpt>
      <trkpt lat="47.83651" lon="-2.70132">
        <ele>138.09</ele>
        <time>2016-10-28T14:27:38Z</time>
      </trkpt>
      <trkpt lat="47.83654" lon="-2.70149">
        <ele>138.09</ele>
        <time>2016-10-28T14:27:44Z</time>
      </trkpt>
      <trkpt lat="47.83655" lon="-2.70163">
        <ele>138.57</ele>
        <time>2016-10-28T14:27:50Z</time>
      </trkpt>
      <trkpt lat="47.83657" lon="-2.70179">
        <ele>138.57</ele>
        <time>2016-10-28T14:27:56Z</time>
      </trkpt>
      <trkpt lat="47.83658" lon="-2.70193">
        <ele>138.57</ele>
        <time>2016-10-28T14:28:02Z</time>
      </trkpt>
      <trkpt lat="47.83661" lon="-2.70206">
        <ele>139.53</ele>
        <time>2016-10-28T14:28:08Z</time>
      </trkpt>
      <trkpt lat="47.83664" lon="-2.70222">
        <ele>140.01</ele>
        <time>2016-10-28T14:28:15Z</time>
      </trkpt>
      <trkpt lat="47.83667" lon="-2.70237">
        <ele>140.49</ele>
        <time>2016-10-28T14:28:21Z</time>
      </trkpt>
      <trkpt lat="47.83669" lon="-2.70252">
        <ele>140.97</ele>
        <time>2016-10-28T14:28:28Z</time>
      </trkpt>
      <trkpt lat="47.83673" lon="-2.70267">
        <ele>141.93</ele>
        <time>2016-10-28T14:28:35Z</time>
      </trkpt>
      <trkpt lat="47.83677" lon="-2.70282">
        <ele>142.41</ele>
        <time>2016-10-28T14:28:42Z</time>
      </trkpt>
      <trkpt lat="47.83681" lon="-2.70297">
        <ele>142.89</ele>
        <time>2016-10-28T14:28:49Z</time>
      </trkpt>
      <trkpt lat="47.83684" lon="-2.70311">
        <ele>143.37</ele>
        <time>2016-10-28T14:28:55Z</time>
      </trkpt>
      <trkpt lat="47.83687" lon="-2.70324">
        <ele>143.85</ele>
        <time>2016-10-28T14:29:01Z</time>
      </trkpt>
      <trkpt lat="47.83691" lon="-2.70337">
        <ele>145.3</ele>
        <time>2016-10-28T14:29:07Z</time>
      </trkpt>
      <trkpt lat="47.83696" lon="-2.70348">
        <ele>145.78</ele>
        <time>2016-10-28T14:29:13Z</time>
      </trkpt>
      <trkpt lat="47.83701" lon="-2.7036">
        <ele>146.74</ele>
        <time>2016-10-28T14:29:19Z</time>
      </trkpt>
      <trkpt lat="47.83704" lon="-2.70374">
        <ele>147.7</ele>
        <time>2016-10-28T14:29:26Z</time>
      </trkpt>
      <trkpt lat="47.83706" lon="-2.70388">
        <ele>148.18</ele>
        <time>2016-10-28T14:29:33Z</time>
      </trkpt>
      <trkpt lat="47.8371" lon="-2.70402">
        <ele>149.14</ele>
        <time>2016-10-28T14:29:40Z</time>
      </trkpt>
      <trkpt lat="47.83714" lon="-2.70415">
        <ele>151.54</ele>
        <time>2016-10-28T14:29:47Z</time>
      </trkpt>
      <trkpt lat="47.83716" lon="-2.7043">
        <ele>149.62</ele>
        <time>2016-10-28T14:29:55Z</time>
      </trkpt>
      <trkpt lat="47.83718" lon="-2.70446">
        <ele>149.14</ele>
        <time>2016-10-28T14:30:02Z</time>
      </trkpt>
      <trkpt lat="47.83722" lon="-2.70461">
        <ele>148.18</ele>
        <time>2016-10-28T14:30:09Z</time>
      </trkpt>
      <trkpt lat="47.83727" lon="-2.70475">
        <ele>147.22</ele>
        <time>2016-10-28T14:30:16Z</time>
      </trkpt>
      <trkpt lat="47.83727" lon="-2.70489">
        <ele>146.74</ele>
        <time>2016-10-28T14:30:21Z</time>
      </trkpt>
      <trkpt lat="47.8373" lon="-2.70504">
        <ele>146.26</ele>
        <time>2016-10-28T14:30:27Z</time>
      </trkpt>
      <trkpt lat="47.83731" lon="-2.70519">
        <ele>145.3</ele>
        <time>2016-10-28T14:30:33Z</time>
      </trkpt>
      <trkpt lat="47.83734" lon="-2.70532">
        <ele>144.82</ele>
        <time>2016-10-28T14:30:39Z</time>
      </trkpt>
      <trkpt lat="47.83735" lon="-2.70544">
        <ele>143.85</ele>
        <time>2016-10-28T14:30:47Z</time>
      </trkpt>
      <trkpt lat="47.83733" lon="-2.70558">
        <ele>142.89</ele>
        <time>2016-10-28T14:30:53Z</time>
      </trkpt>
      <trkpt lat="47.83733" lon="-2.70572">
        <ele>141.93</ele>
        <time>2016-10-28T14:30:59Z</time>
      </trkpt>
      <trkpt lat="47.83732" lon="-2.70587">
        <ele>140.97</ele>
        <time>2016-10-28T14:31:06Z</time>
      </trkpt>
      <trkpt lat="47.83731" lon="-2.70601">
        <ele>140.49</ele>
        <time>2016-10-28T14:31:12Z</time>
      </trkpt>
      <trkpt lat="47.83738" lon="-2.70607">
        <ele>141.45</ele>
        <time>2016-10-28T14:31:19Z</time>
      </trkpt>
      <trkpt lat="47.83748" lon="-2.70611">
        <ele>142.41</ele>
        <time>2016-10-28T14:31:28Z</time>
      </trkpt>
      <trkpt lat="47.83753" lon="-2.70625">
        <ele>142.89</ele>
        <time>2016-10-28T14:31:36Z</time>
      </trkpt>
      <trkpt lat="47.83755" lon="-2.70643">
        <ele>143.37</ele>
        <time>2016-10-28T14:31:44Z</time>
      </trkpt>
      <trkpt lat="47.83756" lon="-2.70661">
        <ele>143.85</ele>
        <time>2016-10-28T14:31:50Z</time>
      </trkpt>
      <trkpt lat="47.8376" lon="-2.70676">
        <ele>144.34</ele>
        <time>2016-10-28T14:31:56Z</time>
      </trkpt>
      <trkpt lat="47.83764" lon="-2.70688">
        <ele>144.82</ele>
        <time>2016-10-28T14:32:02Z</time>
      </trkpt>
      <trkpt lat="47.83769" lon="-2.70699">
        <ele>145.3</ele>
        <time>2016-10-28T14:32:09Z</time>
      </trkpt>
      <trkpt lat="47.83776" lon="-2.70708">
        <ele>145.78</ele>
        <time>2016-10-28T14:32:15Z</time>
      </trkpt>
      <trkpt lat="47.83783" lon="-2.70717">
        <ele>145.78</ele>
        <time>2016-10-28T14:32:21Z</time>
      </trkpt>
      <trkpt lat="47.83792" lon="-2.70722">
        <ele>145.3</ele>
        <time>2016-10-28T14:32:27Z</time>
      </trkpt>
      <trkpt lat="47.83796" lon="-2.70739">
        <ele>145.78</ele>
        <time>2016-10-28T14:32:35Z</time>
      </trkpt>
      <trkpt lat="47.8379" lon="-2.70752">
        <ele>145.78</ele>
        <time>2016-10-28T14:32:42Z</time>
      </trkpt>
      <trkpt lat="47.83791" lon="-2.7077">
        <ele>146.74</ele>
        <time>2016-10-28T14:32:49Z</time>
      </trkpt>
      <trkpt lat="47.83794" lon="-2.70784">
        <ele>146.74</ele>
        <time>2016-10-28T14:32:55Z</time>
      </trkpt>
      <trkpt lat="47.83801" lon="-2.70794">
        <ele>146.74</ele>
        <time>2016-10-28T14:33:01Z</time>
      </trkpt>
      <trkpt lat="47.83806" lon="-2.70805">
        <ele>146.26</ele>
        <time>2016-10-28T14:33:07Z</time>
      </trkpt>
      <trkpt lat="47.83809" lon="-2.70817">
        <ele>146.74</ele>
        <time>2016-10-28T14:33:13Z</time>
      </trkpt>
      <trkpt lat="47.83811" lon="-2.70833">
        <ele>146.74</ele>
        <time>2016-10-28T14:33:19Z</time>
      </trkpt>
      <trkpt lat="47.83806" lon="-2.70846">
        <ele>146.26</ele>
        <time>2016-10-28T14:33:26Z</time>
      </trkpt>
      <trkpt lat="47.83798" lon="-2.70855">
        <ele>146.74</ele>
        <time>2016-10-28T14:33:32Z</time>
      </trkpt>
      <trkpt lat="47.83788" lon="-2.70862">
        <ele>146.74</ele>
        <time>2016-10-28T14:33:38Z</time>
      </trkpt>
      <trkpt lat="47.83788" lon="-2.70878">
        <ele>146.74</ele>
        <time>2016-10-28T14:33:46Z</time>
      </trkpt>
      <trkpt lat="47.83796" lon="-2.70893">
        <ele>146.74</ele>
        <time>2016-10-28T14:33:53Z</time>
      </trkpt>
      <trkpt lat="47.83803" lon="-2.70908">
        <ele>146.74</ele>
        <time>2016-10-28T14:34:00Z</time>
      </trkpt>
      <trkpt lat="47.83802" lon="-2.70924">
        <ele>146.26</ele>
        <time>2016-10-28T14:34:06Z</time>
      </trkpt>
      <trkpt lat="47.83796" lon="-2.70935">
        <ele>146.74</ele>
        <time>2016-10-28T14:34:13Z</time>
      </trkpt>
      <trkpt lat="47.83799" lon="-2.70952">
        <ele>147.22</ele>
        <time>2016-10-28T14:34:20Z</time>
      </trkpt>
      <trkpt lat="47.83801" lon="-2.70969">
        <ele>147.22</ele>
        <time>2016-10-28T14:34:26Z</time>
      </trkpt>
      <trkpt lat="47.83803" lon="-2.70984">
        <ele>147.7</ele>
        <time>2016-10-28T14:34:32Z</time>
      </trkpt>
      <trkpt lat="47.83804" lon="-2.71">
        <ele>147.7</ele>
        <time>2016-10-28T14:34:38Z</time>
      </trkpt>
      <trkpt lat="47.83807" lon="-2.71015">
        <ele>147.22</ele>
        <time>2016-10-28T14:34:44Z</time>
      </trkpt>
      <trkpt lat="47.83802" lon="-2.71033">
        <ele>147.7</ele>
        <time>2016-10-28T14:34:51Z</time>
      </trkpt>
      <trkpt lat="47.83801" lon="-2.71049">
        <ele>147.22</ele>
        <time>2016-10-28T14:34:57Z</time>
      </trkpt>
      <trkpt lat="47.838" lon="-2.71064">
        <ele>147.22</ele>
        <time>2016-10-28T14:35:03Z</time>
      </trkpt>
      <trkpt lat="47.83801" lon="-2.7108">
        <ele>147.22</ele>
        <time>2016-10-28T14:35:09Z</time>
      </trkpt>
      <trkpt lat="47.83808" lon="-2.71093">
        <ele>147.22</ele>
        <time>2016-10-28T14:35:15Z</time>
      </trkpt>
      <trkpt lat="47.83811" lon="-2.71108">
        <ele>147.22</ele>
        <time>2016-10-28T14:35:21Z</time>
      </trkpt>
      <trkpt lat="47.83815" lon="-2.71122">
        <ele>146.74</ele>
        <time>2016-10-28T14:35:27Z</time>
      </trkpt>
      <trkpt lat="47.83818" lon="-2.71135">
        <ele>146.26</ele>
        <time>2016-10-28T14:35:32Z</time>
      </trkpt>
      <trkpt lat="47.8382" lon="-2.71149">
        <ele>146.26</ele>
        <time>2016-10-28T14:35:38Z</time>
      </trkpt>
      <trkpt lat="47.83824" lon="-2.71163">
        <ele>145.78</ele>
        <time>2016-10-28T14:35:44Z</time>
      </trkpt>
      <trkpt lat="47.83829" lon="-2.71174">
        <ele>145.78</ele>
        <time>2016-10-28T14:35:50Z</time>
      </trkpt>
      <trkpt lat="47.83832" lon="-2.71189">
        <ele>145.3</ele>
        <time>2016-10-28T14:35:56Z</time>
      </trkpt>
      <trkpt lat="47.83837" lon="-2.71204">
        <ele>144.82</ele>
        <time>2016-10-28T14:36:02Z</time>
      </trkpt>
      <trkpt lat="47.83838" lon="-2.7122">
        <ele>144.82</ele>
        <time>2016-10-28T14:36:09Z</time>
      </trkpt>
      <trkpt lat="47.83843" lon="-2.71233">
        <ele>144.34</ele>
        <time>2016-10-28T14:36:15Z</time>
      </trkpt>
      <trkpt lat="47.83854" lon="-2.71243">
        <ele>144.34</ele>
        <time>2016-10-28T14:36:22Z</time>
      </trkpt>
      <trkpt lat="47.83861" lon="-2.71254">
        <ele>143.37</ele>
        <time>2016-10-28T14:36:29Z</time>
      </trkpt>
      <trkpt lat="47.83866" lon="-2.71267">
        <ele>142.41</ele>
        <time>2016-10-28T14:36:36Z</time>
      </trkpt>
      <trkpt lat="47.83868" lon="-2.71283">
        <ele>141.45</ele>
        <time>2016-10-28T14:36:44Z</time>
      </trkpt>
      <trkpt lat="47.83865" lon="-2.71298">
        <ele>140.49</ele>
        <time>2016-10-28T14:36:51Z</time>
      </trkpt>
      <trkpt lat="47.83861" lon="-2.71312">
        <ele>139.05</ele>
        <time>2016-10-28T14:36:59Z</time>
      </trkpt>
      <trkpt lat="47.83862" lon="-2.71327">
        <ele>138.09</ele>
        <time>2016-10-28T14:37:05Z</time>
      </trkpt>
      <trkpt lat="47.83867" lon="-2.71339">
        <ele>136.64</ele>
        <time>2016-10-28T14:37:11Z</time>
      </trkpt>
      <trkpt lat="47.83874" lon="-2.71351">
        <ele>136.16</ele>
        <time>2016-10-28T14:37:17Z</time>
      </trkpt>
      <trkpt lat="47.8388" lon="-2.71364">
        <ele>135.68</ele>
        <time>2016-10-28T14:37:23Z</time>
      </trkpt>
      <trkpt lat="47.83888" lon="-2.71376">
        <ele>134.72</ele>
        <time>2016-10-28T14:37:30Z</time>
      </trkpt>
      <trkpt lat="47.83891" lon="-2.71393">
        <ele>134.24</ele>
        <time>2016-10-28T14:37:36Z</time>
      </trkpt>
      <trkpt lat="47.83896" lon="-2.71405">
        <ele>133.76</ele>
        <time>2016-10-28T14:37:42Z</time>
      </trkpt>
      <trkpt lat="47.83901" lon="-2.71419">
        <ele>133.76</ele>
        <time>2016-10-28T14:37:48Z</time>
      </trkpt>
      <trkpt lat="47.83903" lon="-2.71433">
        <ele>132.8</ele>
        <time>2016-10-28T14:37:54Z</time>
      </trkpt>
      <trkpt lat="47.83899" lon="-2.71447">
        <ele>132.32</ele>
        <time>2016-10-28T14:38:01Z</time>
      </trkpt>
      <trkpt lat="47.83901" lon="-2.71462">
        <ele>132.32</ele>
        <time>2016-10-28T14:38:08Z</time>
      </trkpt>
      <trkpt lat="47.83907" lon="-2.71481">
        <ele>132.32</ele>
        <time>2016-10-28T14:38:14Z</time>
      </trkpt>
      <trkpt lat="47.83914" lon="-2.71499">
        <ele>132.8</ele>
        <time>2016-10-28T14:38:21Z</time>
      </trkpt>
      <trkpt lat="47.83917" lon="-2.71517">
        <ele>133.28</ele>
        <time>2016-10-28T14:38:28Z</time>
      </trkpt>
      <trkpt lat="47.83915" lon="-2.71532">
        <ele>133.28</ele>
        <time>2016-10-28T14:38:35Z</time>
      </trkpt>
      <trkpt lat="47.83915" lon="-2.71546">
        <ele>133.28</ele>
        <time>2016-10-28T14:38:41Z</time>
      </trkpt>
      <trkpt lat="47.83919" lon="-2.71561">
        <ele>132.8</ele>
        <time>2016-10-28T14:38:48Z</time>
      </trkpt>
      <trkpt lat="47.83921" lon="-2.71576">
        <ele>131.84</ele>
        <time>2016-10-28T14:38:54Z</time>
      </trkpt>
      <trkpt lat="47.83921" lon="-2.71591">
        <ele>131.84</ele>
        <time>2016-10-28T14:39:00Z</time>
      </trkpt>
      <trkpt lat="47.83923" lon="-2.71605">
        <ele>130.4</ele>
        <time>2016-10-28T14:39:06Z</time>
      </trkpt>
      <trkpt lat="47.83926" lon="-2.71617">
        <ele>129.92</ele>
        <time>2016-10-28T14:39:13Z</time>
      </trkpt>
      <trkpt lat="47.83925" lon="-2.71635">
        <ele>128.95</ele>
        <time>2016-10-28T14:39:20Z</time>
      </trkpt>
      <trkpt lat="47.83926" lon="-2.7165">
        <ele>127.99</ele>
        <time>2016-10-28T14:39:26Z</time>
      </trkpt>
      <trkpt lat="47.8393" lon="-2.71663">
        <ele>127.03</ele>
        <time>2016-10-28T14:39:32Z</time>
      </trkpt>
      <trkpt lat="47.83936" lon="-2.71674">
        <ele>126.07</ele>
        <time>2016-10-28T14:39:38Z</time>
      </trkpt>
      <trkpt lat="47.8394" lon="-2.71688">
        <ele>126.07</ele>
        <time>2016-10-28T14:39:44Z</time>
      </trkpt>
      <trkpt lat="47.83944" lon="-2.71703">
        <ele>123.67</ele>
        <time>2016-10-28T14:39:51Z</time>
      </trkpt>
      <trkpt lat="47.8395" lon="-2.71715">
        <ele>122.22</ele>
        <time>2016-10-28T14:39:58Z</time>
      </trkpt>
      <trkpt lat="47.8396" lon="-2.71727">
        <ele>121.26</ele>
        <time>2016-10-28T14:40:05Z</time>
      </trkpt>
      <trkpt lat="47.83969" lon="-2.71725">
        <ele>119.82</ele>
        <time>2016-10-28T14:40:12Z</time>
      </trkpt>
      <trkpt lat="47.83975" lon="-2.71709">
        <ele>117.42</ele>
        <time>2016-10-28T14:40:20Z</time>
      </trkpt>
      <trkpt lat="47.83983" lon="-2.71691">
        <ele>114.53</ele>
        <time>2016-10-28T14:40:29Z</time>
      </trkpt>
      <trkpt lat="47.83991" lon="-2.71676">
        <ele>112.61</ele>
        <time>2016-10-28T14:40:36Z</time>
      </trkpt>
      <trkpt lat="47.84003" lon="-2.71669">
        <ele>110.21</ele>
        <time>2016-10-28T14:40:44Z</time>
      </trkpt>
      <trkpt lat="47.84013" lon="-2.71671">
        <ele>107.32</ele>
        <time>2016-10-28T14:40:50Z</time>
      </trkpt>
      <trkpt lat="47.84023" lon="-2.71673">
        <ele>105.88</ele>
        <time>2016-10-28T14:40:55Z</time>
      </trkpt>
      <trkpt lat="47.8403" lon="-2.71684">
        <ele>104.92</ele>
        <time>2016-10-28T14:41:03Z</time>
      </trkpt>
      <trkpt lat="47.84032" lon="-2.71701">
        <ele>103.96</ele>
        <time>2016-10-28T14:41:08Z</time>
      </trkpt>
      <trkpt lat="47.84031" lon="-2.71715">
        <ele>103.48</ele>
        <time>2016-10-28T14:41:13Z</time>
      </trkpt>
      <trkpt lat="47.8403" lon="-2.71735">
        <ele>102.04</ele>
        <time>2016-10-28T14:41:21Z</time>
      </trkpt>
      <trkpt lat="47.84027" lon="-2.71751">
        <ele>101.56</ele>
        <time>2016-10-28T14:41:28Z</time>
      </trkpt>
      <trkpt lat="47.84025" lon="-2.71767">
        <ele>100.6</ele>
        <time>2016-10-28T14:41:34Z</time>
      </trkpt>
      <trkpt lat="47.84022" lon="-2.71785">
        <ele>99.63</ele>
        <time>2016-10-28T14:41:41Z</time>
      </trkpt>
      <trkpt lat="47.8402" lon="-2.71802">
        <ele>98.67</ele>
        <time>2016-10-28T14:41:49Z</time>
      </trkpt>
      <trkpt lat="47.84016" lon="-2.71821">
        <ele>97.71</ele>
        <time>2016-10-28T14:41:56Z</time>
      </trkpt>
      <trkpt lat="47.84026" lon="-2.71833">
        <ele>97.23</ele>
        <time>2016-10-28T14:42:02Z</time>
      </trkpt>
      <trkpt lat="47.84037" lon="-2.71837">
        <ele>97.71</ele>
        <time>2016-10-28T14:42:08Z</time>
      </trkpt>
      <trkpt lat="47.84048" lon="-2.71841">
        <ele>98.67</ele>
        <time>2016-10-28T14:42:13Z</time>
      </trkpt>
      <trkpt lat="47.84056" lon="-2.7185">
        <ele>99.15</ele>
        <time>2016-10-28T14:42:18Z</time>
      </trkpt>
      <trkpt lat="47.84063" lon="-2.7186">
        <ele>99.63</ele>
        <time>2016-10-28T14:42:24Z</time>
      </trkpt>
      <trkpt lat="47.8407" lon="-2.71869">
        <ele>100.11</ele>
        <time>2016-10-28T14:42:30Z</time>
      </trkpt>
      <trkpt lat="47.84077" lon="-2.7188">
        <ele>100.6</ele>
        <time>2016-10-28T14:42:37Z</time>
      </trkpt>
      <trkpt lat="47.84084" lon="-2.7189">
        <ele>101.08</ele>
        <time>2016-10-28T14:42:44Z</time>
      </trkpt>
      <trkpt lat="47.84091" lon="-2.71901">
        <ele>101.56</ele>
        <time>2016-10-28T14:42:50Z</time>
      </trkpt>
      <trkpt lat="47.84098" lon="-2.71913">
        <ele>102.04</ele>
        <time>2016-10-28T14:42:56Z</time>
      </trkpt>
      <trkpt lat="47.84104" lon="-2.71924">
        <ele>103</ele>
        <time>2016-10-28T14:43:01Z</time>
      </trkpt>
      <trkpt lat="47.84111" lon="-2.71937">
        <ele>103.96</ele>
        <time>2016-10-28T14:43:07Z</time>
      </trkpt>
      <trkpt lat="47.84122" lon="-2.71941">
        <ele>104.44</ele>
        <time>2016-10-28T14:43:14Z</time>
      </trkpt>
      <trkpt lat="47.84132" lon="-2.71943">
        <ele>104.92</ele>
        <time>2016-10-28T14:43:21Z</time>
      </trkpt>
      <trkpt lat="47.84142" lon="-2.71948">
        <ele>104.92</ele>
        <time>2016-10-28T14:43:27Z</time>
      </trkpt>
      <trkpt lat="47.84148" lon="-2.7196">
        <ele>105.88</ele>
        <time>2016-10-28T14:43:33Z</time>
      </trkpt>
      <trkpt lat="47.84154" lon="-2.7197">
        <ele>105.88</ele>
        <time>2016-10-28T14:43:39Z</time>
      </trkpt>
      <trkpt lat="47.84157" lon="-2.71982">
        <ele>106.36</ele>
        <time>2016-10-28T14:43:45Z</time>
      </trkpt>
      <trkpt lat="47.84157" lon="-2.71997">
        <ele>106.36</ele>
        <time>2016-10-28T14:43:51Z</time>
      </trkpt>
      <trkpt lat="47.84157" lon="-2.7201">
        <ele>106.84</ele>
        <time>2016-10-28T14:43:57Z</time>
      </trkpt>
      <trkpt lat="47.84155" lon="-2.72025">
        <ele>107.32</ele>
        <time>2016-10-28T14:44:03Z</time>
      </trkpt>
      <trkpt lat="47.84153" lon="-2.72039">
        <ele>107.81</ele>
        <time>2016-10-28T14:44:09Z</time>
      </trkpt>
      <trkpt lat="47.84151" lon="-2.72055">
        <ele>108.29</ele>
        <time>2016-10-28T14:44:16Z</time>
      </trkpt>
      <trkpt lat="47.8415" lon="-2.72068">
        <ele>109.25</ele>
        <time>2016-10-28T14:44:21Z</time>
      </trkpt>
      <trkpt lat="47.84149" lon="-2.72082">
        <ele>109.73</ele>
        <time>2016-10-28T14:44:27Z</time>
      </trkpt>
      <trkpt lat="47.8415" lon="-2.72099">
        <ele>110.21</ele>
        <time>2016-10-28T14:44:32Z</time>
      </trkpt>
      <trkpt lat="47.84153" lon="-2.72116">
        <ele>110.69</ele>
        <time>2016-10-28T14:44:36Z</time>
      </trkpt>
      <trkpt lat="47.84152" lon="-2.72132">
        <ele>111.65</ele>
        <time>2016-10-28T14:44:39Z</time>
      </trkpt>
      <trkpt lat="47.84151" lon="-2.7215">
        <ele>112.13</ele>
        <time>2016-10-28T14:44:43Z</time>
      </trkpt>
      <trkpt lat="47.8415" lon="-2.72162">
        <ele>112.13</ele>
        <time>2016-10-28T14:44:48Z</time>
      </trkpt>
      <trkpt lat="47.84149" lon="-2.72177">
        <ele>113.09</ele>
        <time>2016-10-28T14:44:54Z</time>
      </trkpt>
      <trkpt lat="47.84148" lon="-2.72192">
        <ele>113.57</ele>
        <time>2016-10-28T14:44:59Z</time>
      </trkpt>
      <trkpt lat="47.84145" lon="-2.72206">
        <ele>114.05</ele>
        <time>2016-10-28T14:45:05Z</time>
      </trkpt>
      <trkpt lat="47.84136" lon="-2.72214">
        <ele>114.05</ele>
        <time>2016-10-28T14:45:11Z</time>
      </trkpt>
      <trkpt lat="47.84127" lon="-2.7222">
        <ele>114.53</ele>
        <time>2016-10-28T14:45:17Z</time>
      </trkpt>
      <trkpt lat="47.84117" lon="-2.72224">
        <ele>115.01</ele>
        <time>2016-10-28T14:45:23Z</time>
      </trkpt>
      <trkpt lat="47.84107" lon="-2.72229">
        <ele>115.5</ele>
        <time>2016-10-28T14:45:30Z</time>
      </trkpt>
      <trkpt lat="47.84097" lon="-2.72233">
        <ele>115.01</ele>
        <time>2016-10-28T14:45:35Z</time>
      </trkpt>
      <trkpt lat="47.84087" lon="-2.72234">
        <ele>115.5</ele>
        <time>2016-10-28T14:45:38Z</time>
      </trkpt>
      <trkpt lat="47.84077" lon="-2.72238">
        <ele>115.5</ele>
        <time>2016-10-28T14:45:41Z</time>
      </trkpt>
      <trkpt lat="47.84071" lon="-2.72251">
        <ele>115.98</ele>
        <time>2016-10-28T14:45:44Z</time>
      </trkpt>
      <trkpt lat="47.8407" lon="-2.72268">
        <ele>118.38</ele>
        <time>2016-10-28T14:45:47Z</time>
      </trkpt>
      <trkpt lat="47.84069" lon="-2.72286">
        <ele>119.34</ele>
        <time>2016-10-28T14:45:50Z</time>
      </trkpt>
      <trkpt lat="47.84071" lon="-2.72305">
        <ele>120.78</ele>
        <time>2016-10-28T14:45:53Z</time>
      </trkpt>
      <trkpt lat="47.84069" lon="-2.72322">
        <ele>121.74</ele>
        <time>2016-10-28T14:45:56Z</time>
      </trkpt>
      <trkpt lat="47.8407" lon="-2.72338">
        <ele>123.67</ele>
        <time>2016-10-28T14:45:59Z</time>
      </trkpt>
      <trkpt lat="47.8407" lon="-2.72354">
        <ele>125.11</ele>
        <time>2016-10-28T14:46:02Z</time>
      </trkpt>
      <trkpt lat="47.84068" lon="-2.72369">
        <ele>125.59</ele>
        <time>2016-10-28T14:46:05Z</time>
      </trkpt>
      <trkpt lat="47.84069" lon="-2.72386">
        <ele>126.55</ele>
        <time>2016-10-28T14:46:08Z</time>
      </trkpt>
      <trkpt lat="47.84069" lon="-2.72401">
        <ele>127.99</ele>
        <time>2016-10-28T14:46:11Z</time>
      </trkpt>
      <trkpt lat="47.8407" lon="-2.72415">
        <ele>128.95</ele>
        <time>2016-10-28T14:46:14Z</time>
      </trkpt>
      <trkpt lat="47.84071" lon="-2.72429">
        <ele>129.92</ele>
        <time>2016-10-28T14:46:17Z</time>
      </trkpt>
      <trkpt lat="47.84073" lon="-2.72446">
        <ele>130.88</ele>
        <time>2016-10-28T14:46:21Z</time>
      </trkpt>
      <trkpt lat="47.84071" lon="-2.72464">
        <ele>131.84</ele>
        <time>2016-10-28T14:46:25Z</time>
      </trkpt>
      <trkpt lat="47.84072" lon="-2.72479">
        <ele>132.32</ele>
        <time>2016-10-28T14:46:28Z</time>
      </trkpt>
      <trkpt lat="47.84074" lon="-2.72493">
        <ele>132.8</ele>
        <time>2016-10-28T14:46:31Z</time>
      </trkpt>
      <trkpt lat="47.84076" lon="-2.72507">
        <ele>133.28</ele>
        <time>2016-10-28T14:46:34Z</time>
      </trkpt>
      <trkpt lat="47.84076" lon="-2.72522">
        <ele>133.76</ele>
        <time>2016-10-28T14:46:37Z</time>
      </trkpt>
      <trkpt lat="47.84075" lon="-2.72537">
        <ele>134.24</ele>
        <time>2016-10-28T14:46:40Z</time>
      </trkpt>
      <trkpt lat="47.84075" lon="-2.72551">
        <ele>134.24</ele>
        <time>2016-10-28T14:46:46Z</time>
      </trkpt>
      <trkpt lat="47.84073" lon="-2.72566">
        <ele>134.72</ele>
        <time>2016-10-28T14:46:55Z</time>
      </trkpt>
      <trkpt lat="47.84075" lon="-2.7258">
        <ele>135.2</ele>
        <time>2016-10-28T14:47:02Z</time>
      </trkpt>
      <trkpt lat="47.84076" lon="-2.72594">
        <ele>135.68</ele>
        <time>2016-10-28T14:47:10Z</time>
      </trkpt>
      <trkpt lat="47.84078" lon="-2.72608">
        <ele>135.68</ele>
        <time>2016-10-28T14:47:17Z</time>
      </trkpt>
      <trkpt lat="47.84079" lon="-2.72622">
        <ele>136.16</ele>
        <time>2016-10-28T14:47:25Z</time>
      </trkpt>
      <trkpt lat="47.84083" lon="-2.72634">
        <ele>136.16</ele>
        <time>2016-10-28T14:47:34Z</time>
      </trkpt>
    </trkseg>
  </trk>
</gpx>